# Wetter Temperatur Luftdruck Luftfeuchtigkeit Sichtweite Windgeschwindigkeit Windrichtung Zeit
1 Clouds 36 1000 13 10000 7.71 31 08:56 14.08.2022
2 Clouds 34 1001 16 10000 6.17 357 06:27 14.08.2022
3 Clouds 32 1000 17 10000 4.84 346 04:21 14.08.2022
4 Clouds 34 999 18 10000 3.67 341 01:35 14.08.2022
5 Clouds 38 999 14 10000 4.16 359 22:56 13.08.2022
6 Clouds 38 999 13 10000 4.89 12 21:59 13.08.2022
7 Clouds 39 999 13 10000 4.6 359 20:49 13.08.2022
8 Clouds 40 999 10 10000 4.51 23 19:47 13.08.2022
9 Clouds 41 998 10 10000 5.11 30 18:47 13.08.2022
10 Clouds 42 997 9 10000 7.97 19 17:21 13.08.2022
11 Clouds 43 996 8 10000 9.95 9 14:42 13.08.2022
12 Clouds 43 996 7 10000 10.01 5 13:49 13.08.2022
13 Clouds 43 997 7 10000 10.22 7 13:25 13.08.2022
14 Clouds 42 998 8 10000 10.14 6 11:27 13.08.2022
15 Clouds 39 1000 11 10000 10.34 8 09:23 13.08.2022
16 Clouds 34 1000 17 10000 9.59 8 06:44 13.08.2022
17 Clouds 36 999 18 10000 6.81 345 01:37 13.08.2022
18 Clouds 39 999 15 10000 6.99 358 23:25 12.08.2022
19 Clouds 40 999 12 10000 7.33 352 21:37 12.08.2022
20 Clouds 41 999 12 10000 7.02 5 19:48 12.08.2022
21 Clouds 41 998 12 10000 6.39 19 19:23 12.08.2022
22 Clouds 42 998 11 10000 6.6 23 18:21 12.08.2022
23 Clouds 43 997 10 10000 9.81 21 16:26 12.08.2022
24 Clouds 43 996 10 10000 10.08 17 14:50 12.08.2022
25 Clouds 43 997 10 10000 10.35 12 13:43 12.08.2022
26 Clouds 43 998 10 10000 11.33 5 12:25 12.08.2022
27 Clouds 38 1000 14 10000 11.66 356 08:52 12.08.2022
28 Clouds 36 1000 17 10000 11.65 352 07:45 12.08.2022
29 Clouds 34 1001 24 10000 9.31 345 06:21 12.08.2022
30 Clouds 37 1000 19 10000 5.99 347 00:32 12.08.2022
31 Clear 38 1000 17 10000 5.9 349 23:55 11.08.2022
32 Clouds 39 1000 17 10000 5.65 348 22:45 11.08.2022
33 Clouds 39 1000 16 10000 5.6 348 21:53 11.08.2022
34 Clouds 39 1000 15 10000 5.64 351 21:28 11.08.2022
35 Clouds 40 1000 15 10000 5.64 351 20:30 11.08.2022
36 Clouds 41 1000 14 10000 5.02 0 19:33 11.08.2022
37 Clouds 42 999 13 10000 5.39 3 18:53 11.08.2022
38 Clouds 43 998 10 10000 7.28 12 16:46 11.08.2022
39 Clouds 44 997 9 10000 7.99 11 15:42 11.08.2022
40 Clouds 44 997 9 10000 7.98 11 14:32 11.08.2022
41 Clouds 43 999 11 10000 8.73 11 11:56 11.08.2022
42 Clouds 39 1001 14 10000 9.53 5 08:57 11.08.2022
43 Clouds 35 1001 20 10000 6.99 354 05:58 11.08.2022
44 Clouds 36 1000 17 10000 4.99 356 02:33 11.08.2022
45 Clouds 40 999 14 10000 5.88 14 22:59 10.08.2022
46 Clouds 40 999 13 10000 5.39 0 21:47 10.08.2022
47 Clouds 41 999 12 10000 5.21 8 20:56 10.08.2022
48 Clouds 41 999 11 10000 5.15 13 20:27 10.08.2022
49 Clouds 42 998 10 10000 4.79 22 18:48 10.08.2022
50 Clouds 43 997 8 10000 6.64 23 17:27 10.08.2022
51 Clouds 45 996 8 10000 8.79 17 14:36 10.08.2022
52 Clouds 45 996 8 10000 8.79 11 13:32 10.08.2022
53 Clouds 42 998 10 10000 8.93 15 10:50 10.08.2022
54 Clouds 39 1000 15 10000 8.68 3 08:39 10.08.2022
55 Clouds 36 1000 14 10000 8.76 4 07:35 10.08.2022
56 Clouds 35 1001 18 10000 5.86 345 04:50 10.08.2022
57 Clouds 38 999 16 10000 6.01 337 01:33 10.08.2022
58 Clouds 40 999 15 10000 5.45 354 23:31 09.08.2022
59 Clouds 41 1000 14 10000 5.66 355 21:58 09.08.2022
60 Clouds 41 1000 13 10000 5.26 356 21:23 09.08.2022
61 Clouds 42 998 10 10000 4.49 26 19:28 09.08.2022
62 Clouds 43 998 9 10000 5.24 18 17:39 09.08.2022
63 Clouds 43 997 8 10000 7.35 15 17:21 09.08.2022
64 Clouds 44 997 7 10000 8.72 12 16:23 09.08.2022
65 Clouds 45 997 8 10000 9.03 7 15:26 09.08.2022
66 Clouds 43 998 11 10000 8.31 18 11:49 09.08.2022
67 Clouds 39 1001 16 10000 7.39 29 08:53 09.08.2022
68 Clouds 38 1001 18 10000 7.53 28 07:58 09.08.2022
69 Clear 33 1001 29 10000 4.61 355 05:25 09.08.2022
70 Clouds 35 999 24 10000 3.61 50 01:57 09.08.2022
71 Clouds 37 999 19 10000 3.89 0 23:26 08.08.2022
72 Clouds 39 999 19 10000 3.89 0 22:45 08.08.2022
73 Clouds 39 999 18 10000 3.7 339 21:47 08.08.2022
74 Clouds 40 999 18 10000 4.26 318 20:43 08.08.2022
75 Clouds 41 999 23 10000 6.32 324 19:41 08.08.2022
76 Clouds 42 999 23 10000 13.86 317 18:19 08.08.2022
77 Clouds 45 996 12 10000 5.29 60 15:55 08.08.2022
78 Clouds 45 996 12 10000 5.29 60 15:37 08.08.2022
79 Clouds 44 997 11 10000 5.74 59 12:31 08.08.2022
80 Clouds 43 998 13 10000 4.41 45 10:38 08.08.2022
81 Clear 40 1000 17 10000 3.74 11 08:20 08.08.2022
82 Clear 32 1000 26 10000 1.56 151 04:45 08.08.2022
83 Clear 35 998 23 10000 3.11 95 01:29 08.08.2022
84 Clear 39 998 19 10000 4.85 84 21:42 07.08.2022
85 Clear 39 998 18 10000 5.58 80 21:24 07.08.2022
86 Clear 40 997 17 10000 5.55 70 20:24 07.08.2022
87 Clear 41 997 17 10000 5.55 70 19:52 07.08.2022
88 Clear 41 997 16 10000 5.89 63 19:22 07.08.2022
89 Clear 44 996 14 10000 6.29 54 17:58 07.08.2022
90 Clear 45 995 12 10000 7.42 50 16:53 07.08.2022
91 Clear 45 995 11 10000 8.19 47 15:40 07.08.2022
92 Clear 46 995 10 10000 8.02 45 14:27 07.08.2022
93 Clear 45 995 12 10000 7.11 43 12:41 07.08.2022
94 Clear 44 996 13 10000 7.57 32 10:53 07.08.2022
95 Clear 44 997 14 10000 7.08 26 10:21 07.08.2022
96 Clear 35 997 19 10000 4.02 355 04:38 07.08.2022
97 Clear 36 996 18 10000 3.72 325 02:25 07.08.2022
98 Clear 40 996 14 10000 3.6 316 22:40 06.08.2022
99 Clear 40 996 14 10000 2.2 315 22:18 06.08.2022
100 Clouds 42 996 12 10000 2.12 17 19:46 06.08.2022
101 Clouds 43 996 11 10000 1.9 354 18:50 06.08.2022
102 Clouds 44 996 11 10000 1.59 10 17:48 06.08.2022
103 Clouds 45 996 9 10000 4.62 14 16:29 06.08.2022
104 Clouds 45 996 9 10000 6.28 4 13:51 06.08.2022
105 Clouds 45 997 9 10000 6.66 19 12:38 06.08.2022
106 Clouds 44 998 10 10000 6.8 24 11:21 06.08.2022
107 Clouds 41 999 10 10000 6.7 21 09:41 06.08.2022
108 Clear 36 1000 16 10000 5.01 335 07:28 06.08.2022
109 Clouds 34 999 20 10000 2.53 293 01:59 06.08.2022
110 Clouds 35 999 17 10000 2.45 331 22:37 05.08.2022
111 Clouds 38 999 16 10000 2.45 331 21:34 05.08.2022
112 Clouds 38 999 15 10000 3.04 115 19:20 05.08.2022
113 Clouds 41 999 15 10000 3.04 115 18:44 05.08.2022
114 Rain 43 998 12 10000 4.41 86 16:53 05.08.2022
115 Clouds 44 998 11 10000 4.84 65 15:55 05.08.2022
116 Clouds 43 999 11 10000 6.8 55 14:54 05.08.2022
117 Clouds 45 999 12 10000 6.84 56 13:39 05.08.2022
118 Clouds 45 999 12 10000 5.74 54 13:19 05.08.2022
119 Rain 44 1000 12 10000 4.18 51 11:58 05.08.2022
120 Clouds 42 1002 17 10000 3.89 348 10:24 05.08.2022
121 Clouds 37 1002 24 10000 4.58 307 07:58 05.08.2022
122 Clouds 35 1003 36 10000 4.18 274 05:20 05.08.2022
123 Clear 36 1003 35 10000 4.66 271 23:50 04.08.2022
124 Clouds 38 1002 23 10000 1.84 271 21:39 04.08.2022
125 Clear 38 1003 22 10000 1.66 289 21:21 04.08.2022
126 Clear 39 1003 22 10000 1.66 289 20:40 04.08.2022
127 Clouds 40 1002 21 10000 0.37 252 19:21 04.08.2022
128 Clouds 41 1002 21 10000 0.39 252 18:34 04.08.2022
129 Clouds 43 1001 18 10000 4.43 25 16:54 04.08.2022
130 Clouds 43 1000 15 10000 4.7 80 13:34 04.08.2022
131 Clouds 42 1002 19 10000 3.94 83 11:42 04.08.2022
132 Clouds 41 1003 22 10000 1.87 70 10:24 04.08.2022
133 Clear 38 1003 27 10000 1.98 115 07:49 04.08.2022
134 Clear 34 1002 31 10000 2.05 163 03:29 04.08.2022
135 Clouds 36 1001 30 10000 2.93 163 00:52 04.08.2022
136 Clouds 37 1001 29 10000 3.8 156 23:41 03.08.2022
137 Clouds 38 1001 27 10000 5.29 133 21:34 03.08.2022
138 Clouds 39 1001 25 10000 6.32 123 20:21 03.08.2022
139 Clouds 39 1001 25 10000 6.32 123 20:21 03.08.2022
140 Clouds 39 1001 22 10000 7.42 126 19:27 03.08.2022
141 Clouds 42 999 20 10000 6.13 135 16:53 03.08.2022
142 Clouds 42 999 20 10000 4.59 135 16:23 03.08.2022
143 Clouds 41 1000 21 10000 4.03 122 13:53 03.08.2022
144 Clouds 41 1001 23 10000 4.02 134 11:46 03.08.2022
145 Clear 36 1002 30 10000 4.06 153 07:45 03.08.2022
146 Clear 32 1001 40 10000 3.24 133 04:22 03.08.2022
147 Clear 34 1000 39 10000 2.79 132 03:24 03.08.2022
148 Clouds 36 1000 36 10000 2.59 149 00:58 03.08.2022
149 Clouds 37 1000 34 10000 2.53 175 22:49 02.08.2022
150 Clouds 37 1000 33 10000 2.76 193 21:52 02.08.2022
151 Clouds 38 1000 32 10000 3.02 199 20:37 02.08.2022
152 Clouds 39 999 30 10000 3.99 243 18:39 02.08.2022
153 Clouds 40 999 27 10000 3.69 233 15:27 02.08.2022
154 Clouds 40 1000 30 10000 4.28 215 11:30 02.08.2022
155 Clouds 37 1002 37 10000 3.71 237 08:59 02.08.2022
156 Clouds 35 1001 37 10000 3.21 248 07:52 02.08.2022
157 Clouds 33 1001 40 10000 3.43 243 06:41 02.08.2022
158 Clouds 33 1001 43 10000 2.56 222 04:31 02.08.2022
159 Clouds 35 1000 41 10000 1.47 177 23:35 01.08.2022
160 Clouds 36 1001 40 10000 1.14 274 22:23 01.08.2022
161 Clouds 36 1001 38 10000 2.54 283 20:51 01.08.2022
162 Clouds 37 1001 41 10000 2.35 4 19:23 01.08.2022
163 Clouds 38 1000 34 10000 3.28 288 17:57 01.08.2022
164 Clouds 39 1000 30 10000 4.73 233 16:52 01.08.2022
165 Clouds 39 1000 29 10000 2.78 251 15:52 01.08.2022
166 Clouds 39 1000 29 10000 2.78 251 15:52 01.08.2022
167 Clouds 39 1000 29 10000 2.78 251 15:30 01.08.2022
168 Clouds 37 999 28 10000 2.78 121 13:48 01.08.2022
169 Clouds 36 1000 31 10000 2.7 107 11:50 01.08.2022
170 Clouds 36 1000 31 10000 2.7 107 11:50 01.08.2022
171 Clouds 34 1001 37 10000 1.24 133 09:39 01.08.2022
172 Clouds 32 1002 57 10000 1.75 309 08:22 01.08.2022
173 Clouds 30 1003 68 10000 5.1 261 04:47 01.08.2022
174 Clouds 31 1003 74 10000 6.1 275 02:32 01.08.2022
175 Clouds 32 1002 67 10000 10.44 246 23:54 31.07.2022
176 Clouds 32 1002 70 10000 10.06 252 22:36 31.07.2022
177 Clouds 32 1002 70 10000 10.07 252 22:36 31.07.2022
178 Clouds 31 1002 61 10000 7.76 261 20:50 31.07.2022
179 Rain 32 1003 74 10000 8.9 298 19:40 31.07.2022
180 Rain 33 1001 71 10000 6.71 212 17:44 31.07.2022
181 Clouds 38 999 69 5013 9.16 116 15:35 31.07.2022
182 Clouds 40 998 32 10000 3.09 108 13:41 31.07.2022
183 Clouds 38 1000 34 10000 3.7 96 11:52 31.07.2022
184 Clouds 36 1001 42 10000 3.69 107 09:28 31.07.2022
185 Clouds 33 1002 46 10000 4.01 108 06:43 31.07.2022
186 Clouds 33 1001 46 10000 3.51 104 02:57 31.07.2022
187 Clouds 36 1000 45 10000 3.85 110 23:35 30.07.2022
188 Clouds 36 1001 37 10000 6.45 104 22:19 30.07.2022
189 Clouds 37 1001 37 10000 6.45 104 21:47 30.07.2022
190 Clouds 38 1001 31 10000 5.89 73 20:56 30.07.2022
191 Clouds 38 1000 28 10000 5.04 78 19:58 30.07.2022
192 Clouds 39 1000 29 10000 3.87 94 18:51 30.07.2022
193 Clouds 39 1000 27 10000 3.48 87 17:41 30.07.2022
194 Clouds 41 999 24 10000 3.19 73 15:38 30.07.2022
195 Clouds 41 999 23 10000 2.1 88 14:53 30.07.2022
196 Clouds 40 1000 24 10000 2.53 146 12:47 30.07.2022
197 Clouds 39 1001 25 10000 3.29 144 11:55 30.07.2022
198 Clouds 38 1002 30 10000 4.16 131 10:25 30.07.2022
199 Clouds 36 1002 30 10000 4.16 131 09:46 30.07.2022
200 Clouds 33 1003 29 10000 2.38 132 07:47 30.07.2022
201 Clouds 32 1002 25 10000 0.25 119 02:34 30.07.2022
202 Clouds 33 1002 24 10000 0.38 323 01:43 30.07.2022
203 Clouds 35 1003 16 10000 4.73 323 21:39 29.07.2022
204 Clouds 36 1003 16 10000 4.73 322 20:58 29.07.2022
205 Clouds 38 1003 11 10000 4.32 338 19:48 29.07.2022
206 Clouds 41 1001 9 10000 4.36 11 17:52 29.07.2022
207 Clouds 41 1000 7 10000 7.98 355 15:19 29.07.2022
208 Clouds 39 1001 9 10000 6.26 352 12:59 29.07.2022
209 Clouds 36 1003 13 10000 3.65 351 10:35 29.07.2022
210 Clouds 36 1004 19 10000 0.67 33 08:49 29.07.2022
211 Clouds 34 1004 34 10000 2.8 162 07:40 29.07.2022
212 Clouds 32 1003 36 10000 2.15 196 01:47 29.07.2022
213 Clouds 34 1004 35 10000 1.46 186 22:41 28.07.2022
214 Clouds 36 1005 36 10000 4.16 109 20:59 28.07.2022
215 Clouds 36 1005 30 10000 4.63 70 20:27 28.07.2022
216 Clouds 36 1005 35 10000 5.2 92 19:42 28.07.2022
217 Clouds 37 1004 16 10000 4.53 26 18:48 28.07.2022
218 Clouds 38 1003 15 10000 5.69 351 17:43 28.07.2022
219 Clouds 39 1003 15 10000 7.04 354 16:42 28.07.2022
220 Clouds 39 1003 13 10000 9.12 30 15:24 28.07.2022
221 Rain 38 1004 13 10000 5.93 39 12:51 28.07.2022
222 Clouds 37 1004 18 10000 2.95 130 09:45 28.07.2022
223 Clouds 34 1004 27 10000 6.66 121 06:24 28.07.2022
224 Rain 34 1003 14 10000 4.4 115 05:26 28.07.2022
225 Clouds 35 1001 16 10000 2.88 137 00:45 28.07.2022
226 Clouds 36 1001 13 10000 7.62 88 22:34 27.07.2022
227 Clouds 38 1001 11 10000 7.31 95 20:56 27.07.2022
228 Clouds 39 1001 10 10000 7.21 109 19:34 27.07.2022
229 Clouds 41 999 8 10000 2.81 189 17:23 27.07.2022
230 Clouds 43 999 7 10000 2.69 186 15:52 27.07.2022
231 Clouds 42 999 7 10000 1.68 203 14:55 27.07.2022
232 Clouds 42 999 7 10000 1.68 203 14:33 27.07.2022
233 Rain 42 999 7 10000 1.32 138 12:49 27.07.2022
234 Clouds 35 1001 11 10000 3.26 127 07:53 27.07.2022
235 Clouds 35 1002 11 10000 3.36 137 07:53 27.07.2022
236 Clouds 31 1002 14 10000 3.29 165 06:19 27.07.2022
237 Clouds 32 1000 14 10000 2.98 107 00:48 27.07.2022
238 Clouds 35 1000 13 10000 4.34 88 22:25 26.07.2022
239 Clouds 36 1000 12 10000 4.5 82 21:20 26.07.2022
240 Clouds 36 1000 12 10000 4.5 82 21:20 26.07.2022
241 Clouds 37 1000 12 10000 3.42 75 20:25 26.07.2022
242 Clouds 40 999 11 10000 2.58 176 18:42 26.07.2022
243 Clouds 41 998 11 10000 3.38 192 17:57 26.07.2022
244 Clouds 42 998 9 10000 2.23 171 15:58 26.07.2022
245 Clouds 42 998 9 10000 2.22 160 14:57 26.07.2022
246 Clouds 41 999 9 10000 3.88 133 12:59 26.07.2022
247 Clouds 40 1001 9 10000 4.55 131 10:59 26.07.2022
248 Clouds 38 1001 11 10000 4.73 107 08:46 26.07.2022
249 Clouds 33 1002 18 10000 2.41 135 05:49 26.07.2022
250 Clouds 35 1000 16 10000 3.36 111 00:28 26.07.2022
251 Clouds 37 1000 14 10000 4.54 101 22:53 25.07.2022
252 Clouds 37 999 13 10000 6.39 92 22:22 25.07.2022
253 Clouds 38 999 13 10000 6.39 92 21:38 25.07.2022
254 Clouds 39 998 12 10000 6.6 91 20:40 25.07.2022
255 Clouds 40 997 12 10000 5.69 106 19:27 25.07.2022
256 Clouds 41 996 11 10000 4.46 110 18:18 25.07.2022
257 Clouds 42 995 10 10000 5.1 91 17:27 25.07.2022
258 Clouds 43 995 11 10000 4.82 92 14:32 25.07.2022
259 Clouds 42 997 10 10000 4.26 123 11:50 25.07.2022
260 Clouds 39 999 12 10000 6.78 165 08:32 25.07.2022
261 Clouds 34 999 19 10000 4.31 137 03:23 25.07.2022
262 Clouds 36 998 15 10000 5.42 127 23:53 24.07.2022
263 Clouds 37 998 15 10000 5.69 120 22:56 24.07.2022
264 Clouds 37 997 13 10000 3.6 149 22:26 24.07.2022
265 Clouds 38 997 13 10000 4.03 164 21:19 24.07.2022
266 Clouds 39 997 13 10000 4.03 164 20:47 24.07.2022
267 Clouds 41 997 11 10000 2.94 144 19:54 24.07.2022
268 Clouds 42 996 10 10000 2.99 145 18:30 24.07.2022
269 Clouds 44 996 8 10000 2.65 76 16:28 24.07.2022
270 Clouds 45 996 8 10000 2.65 76 15:45 24.07.2022
271 Clouds 45 997 9 10000 3.42 88 14:19 24.07.2022
272 Clouds 44 997 9 10000 2.53 112 12:52 24.07.2022
273 Clouds 44 998 9 10000 3.44 139 11:38 24.07.2022
274 Clouds 43 999 10 10000 4.05 146 10:59 24.07.2022
275 Clouds 40 1000 14 10000 4.18 149 08:31 24.07.2022
276 Clouds 37 1000 14 10000 4.17 149 07:47 24.07.2022
277 Clouds 34 1000 19 10000 3.11 156 04:45 24.07.2022
278 Clouds 36 1000 15 10000 3.49 120 23:51 23.07.2022
279 Clouds 37 1000 11 10000 3.91 70 21:28 23.07.2022
280 Clouds 40 1000 11 10000 4.14 70 19:59 23.07.2022
281 Clouds 42 999 10 10000 4.89 65 18:50 23.07.2022
282 Clouds 44 998 8 10000 6.6 49 17:28 23.07.2022
283 Clouds 44 998 8 10000 6.6 49 16:33 23.07.2022
284 Clouds 45 998 7 10000 6.99 40 15:22 23.07.2022
285 Clouds 45 998 7 10000 6.99 40 14:58 23.07.2022
286 Clouds 45 999 7 10000 6.29 36 14:27 23.07.2022
287 Clouds 45 999 7 10000 6.08 36 12:44 23.07.2022
288 Clouds 43 1000 8 10000 3.1 51 10:45 23.07.2022
289 Clouds 42 1001 9 10000 2.51 65 09:56 23.07.2022
290 Clouds 40 1002 10 10000 2.27 72 08:31 23.07.2022
291 Clouds 32 1002 19 10000 1.46 90 03:39 23.07.2022
292 Clouds 33 1001 18 10000 2.78 54 00:49 23.07.2022
293 Clouds 35 1001 18 10000 3.74 76 22:32 22.07.2022
294 Clouds 38 1002 13 10000 6.24 52 20:51 22.07.2022
295 Clouds 40 1001 11 10000 6.53 49 19:34 22.07.2022
296 Clouds 41 999 10 10000 7.5 45 18:28 22.07.2022
297 Clouds 43 999 9 10000 7.23 53 16:48 22.07.2022
298 Clouds 44 998 7 10000 7.68 55 14:40 22.07.2022
299 Clouds 42 1000 9 10000 7.88 41 10:59 22.07.2022
300 Clouds 41 1000 12 10000 8.3 35 09:25 22.07.2022
301 Clouds 39 1001 12 10000 7.95 25 08:29 22.07.2022
302 Clouds 32 1001 12 10000 3.15 342 05:18 22.07.2022
303 Clouds 35 1000 10 10000 4.41 342 00:40 22.07.2022
304 Clouds 37 1000 8 10000 2.79 10 22:25 21.07.2022
305 Clouds 38 1000 8 10000 3.72 27 20:48 21.07.2022
306 Clouds 40 999 7 10000 5.37 31 19:23 21.07.2022
307 Clouds 43 998 6 10000 6.24 30 17:39 21.07.2022
308 Clouds 43 997 5 10000 7.23 27 17:19 21.07.2022
309 Clouds 45 997 5 10000 7.83 19 14:52 21.07.2022
310 Clouds 45 997 5 10000 7.93 16 14:24 21.07.2022
311 Clouds 44 998 5 10000 8.27 11 12:27 21.07.2022
312 Clouds 43 999 5 10000 7.58 12 10:48 21.07.2022
313 Clouds 42 1000 6 10000 6.41 16 09:18 21.07.2022
314 Clouds 39 1000 6 10000 6.41 16 08:45 21.07.2022
315 Clouds 37 1001 9 10000 4.66 0 07:23 21.07.2022
316 Clouds 31 1000 12 10000 2.48 355 03:55 21.07.2022
317 Clouds 34 1000 10 10000 3.79 359 00:24 21.07.2022
318 Clouds 36 999 9 10000 4.37 5 22:21 20.07.2022
319 Clouds 38 1000 9 10000 4.85 2 20:51 20.07.2022
320 Clouds 40 999 9 10000 4.95 20 19:49 20.07.2022
321 Clouds 40 999 9 10000 5.04 18 19:20 20.07.2022
322 Clouds 42 999 9 10000 5.04 18 18:33 20.07.2022
323 Clouds 43 998 8 10000 5.34 27 17:54 20.07.2022
324 Clouds 44 997 7 10000 7.14 31 16:19 20.07.2022
325 Clouds 44 997 6 10000 7 29 14:57 20.07.2022
326 Clouds 44 997 6 10000 6.89 27 13:57 20.07.2022
327 Clouds 44 998 6 10000 7.85 33 11:32 20.07.2022
328 Clouds 38 1001 9 10000 7.77 41 07:50 20.07.2022
329 Clear 33 1000 14 10000 4.68 340 03:25 20.07.2022
330 Clouds 35 1000 13 10000 4.45 336 00:48 20.07.2022
331 Clear 36 1001 12 10000 4.32 336 23:41 19.07.2022
332 Clear 36 1001 11 10000 4.74 5 22:22 19.07.2022
333 Clear 38 1001 10 10000 4.69 345 21:23 19.07.2022
334 Clouds 38 1001 10 10000 4.59 344 20:27 19.07.2022
335 Clouds 42 999 10 10000 4.3 48 18:43 19.07.2022
336 Clouds 43 999 9 10000 4.9 45 17:57 19.07.2022
337 Clouds 43 998 8 10000 6.21 38 16:31 19.07.2022
338 Clouds 44 999 7 10000 7.4 26 14:36 19.07.2022
339 Clouds 43 1001 7 10000 8.3 31 11:38 19.07.2022
340 Clouds 42 1001 7 10000 8.3 31 10:47 19.07.2022
341 Clouds 41 1002 8 10000 8.35 36 09:21 19.07.2022
342 Clouds 39 1002 8 10000 8.35 36 08:32 19.07.2022
343 Clouds 37 1002 10 10000 4.62 25 07:19 19.07.2022
344 Clouds 32 1002 14 10000 3.29 342 05:27 19.07.2022
345 Clouds 31 1002 14 10000 3.29 342 04:48 19.07.2022
346 Clouds 33 1000 13 10000 2.98 324 00:35 19.07.2022
347 Clouds 35 1000 13 10000 1.78 33 23:31 18.07.2022
348 Clouds 36 1000 12 10000 2.93 21 22:58 18.07.2022
349 Clouds 37 1000 11 10000 3.54 19 21:58 18.07.2022
350 Clouds 39 1001 11 10000 3.86 19 20:50 18.07.2022
351 Clouds 40 1000 9 10000 4.83 23 19:26 18.07.2022
352 Clouds 42 998 7 10000 6.18 20 17:24 18.07.2022
353 Clouds 44 998 7 10000 5.29 19 15:51 18.07.2022
354 Clear 44 998 7 10000 5.06 31 14:30 18.07.2022
355 Clear 43 998 7 10000 2.28 32 12:45 18.07.2022
356 Clear 43 1000 8 10000 1.9 34 11:29 18.07.2022
357 Clear 38 1001 9 10000 1.51 16 08:54 18.07.2022
358 Clear 33 1001 11 10000 3.9 2 07:28 18.07.2022
359 Clouds 33 1000 12 10000 4.11 324 00:42 18.07.2022
360 Clouds 34 1000 10 10000 2.4 345 22:37 17.07.2022
361 Clouds 35 1000 11 10000 0.98 42 21:49 17.07.2022
362 Clouds 35 1000 10 10000 1.61 57 21:18 17.07.2022
363 Clouds 37 1000 10 10000 1.61 57 20:37 17.07.2022
364 Clouds 38 999 11 10000 3.15 84 19:29 17.07.2022
365 Clouds 40 998 10 10000 3.8 91 18:27 17.07.2022
366 Clouds 41 998 10 10000 3.8 91 17:38 17.07.2022
367 Clouds 41 998 8 10000 3.44 80 16:51 17.07.2022
368 Clouds 41 997 8 10000 2.31 64 16:26 17.07.2022
369 Clouds 43 997 7 10000 1.3 40 14:44 17.07.2022
370 Clouds 42 997 7 10000 3.96 28 13:31 17.07.2022
371 Clouds 41 999 8 10000 6.39 13 11:35 17.07.2022
372 Clouds 37 1000 11 10000 6.72 5 08:57 17.07.2022
373 Clouds 31 1000 12 10000 5.43 339 03:44 17.07.2022
374 Clouds 31 1000 11 10000 5.11 340 02:32 17.07.2022
375 Clouds 32 1000 10 10000 5.41 334 23:20 16.07.2022
376 Clouds 35 1000 9 10000 5.3 334 21:30 16.07.2022
377 Clouds 38 999 9 10000 3.58 1 19:30 16.07.2022
378 Clouds 39 998 9 10000 3.68 17 18:32 16.07.2022
379 Clouds 43 997 7 10000 4.16 20 16:34 16.07.2022
380 Clouds 43 997 6 10000 5.22 9 13:49 16.07.2022
381 Clouds 41 999 6 10000 6.83 20 10:53 16.07.2022
382 Clouds 40 1000 7 10000 8.48 15 09:33 16.07.2022
383 Clouds 38 1000 7 10000 8.48 15 08:43 16.07.2022
384 Clouds 38 1000 7 10000 8.4 7 08:19 16.07.2022
385 Clear 33 1000 13 10000 4.73 346 03:58 16.07.2022
386 Clear 32 1000 13 10000 4.62 345 02:40 16.07.2022
387 Clouds 34 1000 11 10000 4.31 338 23:29 15.07.2022
388 Clouds 35 1000 11 10000 4.31 338 22:40 15.07.2022
389 Clouds 35 1000 10 10000 4.59 345 21:28 15.07.2022
390 Clouds 36 1000 9 10000 4.67 2 20:26 15.07.2022
391 Clouds 40 999 7 10000 5.07 16 18:40 15.07.2022
392 Clouds 41 998 7 10000 6.06 20 17:37 15.07.2022
393 Clouds 43 997 6 10000 9.93 10 14:53 15.07.2022
394 Clouds 43 998 7 10000 9.58 3 12:57 15.07.2022
395 Clouds 42 999 7 10000 9.09 3 11:20 15.07.2022
396 Clouds 40 1000 7 10000 8.63 4 09:44 15.07.2022
397 Clouds 33 1000 13 10000 4.24 344 06:24 15.07.2022
398 Clouds 33 998 11 10000 3.69 324 00:53 15.07.2022
399 Clouds 33 998 11 10000 3.7 331 00:21 15.07.2022
400 Clouds 35 998 10 10000 3.86 339 22:50 14.07.2022
401 Clouds 36 998 9 10000 3.91 344 21:46 14.07.2022
402 Clouds 36 998 9 10000 4.09 346 21:28 14.07.2022
403 Clouds 37 998 9 10000 4.09 346 20:44 14.07.2022
404 Clouds 37 998 8 10000 4.39 350 20:20 14.07.2022
405 Clouds 40 997 7 10000 4.82 2 18:52 14.07.2022
406 Clouds 42 996 5 10000 8.78 359 16:22 14.07.2022
407 Clouds 43 996 5 10000 8.78 359 15:32 14.07.2022
408 Clouds 43 996 7 10000 7.56 355 13:53 14.07.2022
409 Clouds 42 996 8 10000 7.14 360 12:58 14.07.2022
410 Clouds 41 997 8 10000 6.98 6 11:47 14.07.2022
411 Clouds 41 998 9 10000 7.24 12 11:23 14.07.2022
412 Clouds 39 999 10 10000 7.63 16 09:54 14.07.2022
413 Clouds 35 1000 12 10000 7.38 9 07:47 14.07.2022
414 Clouds 33 1000 12 10000 4.45 325 01:25 14.07.2022
415 Clouds 33 1000 12 10000 4.45 325 00:53 14.07.2022
416 Clouds 36 1000 10 10000 3.84 326 22:33 13.07.2022
417 Clouds 36 1001 10 10000 3.3 344 21:57 13.07.2022
418 Clouds 36 1001 9 10000 3.56 357 21:18 13.07.2022
419 Clouds 38 999 8 10000 4.19 14 19:34 13.07.2022
420 Clouds 40 999 7 10000 4.92 19 17:51 13.07.2022
421 Clouds 40 998 6 10000 7.12 15 16:43 13.07.2022
422 Clouds 41 998 5 10000 8.01 3 15:24 13.07.2022
423 Clouds 41 999 5 10000 7.2 352 12:56 13.07.2022
424 Clouds 41 999 5 10000 7.2 352 12:56 13.07.2022
425 Clouds 40 1001 7 10000 7.1 349 10:46 13.07.2022
426 Clouds 40 1002 7 10000 6.63 350 10:24 13.07.2022
427 Clouds 38 1002 8 10000 5.64 353 09:25 13.07.2022
428 Clouds 31 1003 10 10000 5.94 351 06:46 13.07.2022
429 Clouds 31 1003 12 10000 4.71 339 02:38 13.07.2022
430 Clouds 33 1002 10 10000 3.74 327 23:52 12.07.2022
431 Clouds 35 1003 10 10000 3.08 360 22:18 12.07.2022
432 Clouds 36 1003 10 10000 3.08 360 21:34 12.07.2022
433 Clouds 37 1003 10 10000 3.27 6 20:42 12.07.2022
434 Clouds 37 1003 10 10000 3.85 9 19:36 12.07.2022
435 Rain 39 1002 9 10000 7.05 27 17:54 12.07.2022
436 Clouds 40 1001 9 10000 9.01 25 16:20 12.07.2022
437 Clouds 40 1001 9 10000 9.01 25 16:20 12.07.2022
438 Clouds 39 1001 9 10000 9.45 20 14:31 12.07.2022
439 Clouds 39 1002 8 10000 8.45 25 13:20 12.07.2022
440 Clouds 38 1002 8 10000 8.78 25 11:37 12.07.2022
441 Clouds 38 1003 8 10000 8.47 22 10:18 12.07.2022
442 Clouds 38 1003 8 10000 8.47 22 10:18 12.07.2022
443 Clouds 36 1004 10 10000 9.1 17 08:24 12.07.2022
444 Clouds 32 1004 11 10000 7.5 8 06:59 12.07.2022
445 Clouds 31 1004 12 10000 6.68 6 05:42 12.07.2022
446 Clouds 33 1003 11 10000 6.37 5 03:29 12.07.2022
447 Clouds 35 1002 13 10000 4.27 355 23:42 11.07.2022
448 Clouds 34 1002 11 10000 3.72 17 22:31 11.07.2022
449 Clouds 36 1002 9 10000 4.25 24 20:41 11.07.2022
450 Clouds 38 1002 8 10000 4.56 27 19:50 11.07.2022
451 Clouds 39 1001 7 10000 5.58 37 18:38 11.07.2022
452 Clouds 40 1000 6 10000 6.41 35 17:53 11.07.2022
453 Clouds 41 999 6 10000 8.92 25 16:22 11.07.2022
454 Clouds 41 998 6 10000 8.14 22 14:49 11.07.2022
455 Clouds 41 999 6 10000 7.66 19 12:18 11.07.2022
456 Clouds 39 1000 7 10000 8.07 16 10:42 11.07.2022
457 Rain 38 1000 7 10000 8.84 18 09:54 11.07.2022
458 Clear 36 1001 8 10000 8.56 23 08:35 11.07.2022
459 Clouds 35 1001 9 10000 7.31 7 07:24 11.07.2022
460 Clouds 32 999 9 10000 3.76 328 00:24 11.07.2022
461 Clouds 33 999 9 10000 3.76 328 23:32 10.07.2022
462 Clouds 35 1000 8 10000 3.61 359 22:21 10.07.2022
463 Clouds 37 999 8 10000 3.89 2 20:55 10.07.2022
464 Clouds 38 998 7 10000 4.48 5 19:55 10.07.2022
465 Clouds 38 997 7 10000 4.45 6 19:20 10.07.2022
466 Clouds 40 997 6 10000 4.93 5 17:50 10.07.2022
467 Clouds 42 996 5 10000 6.95 355 16:59 10.07.2022
468 Clouds 42 995 5 10000 8.34 349 16:20 10.07.2022
469 Clouds 42 995 5 10000 8.57 343 14:35 10.07.2022
470 Clouds 43 997 6 10000 6.71 342 12:42 10.07.2022
471 Clouds 42 997 6 10000 6.22 341 11:36 10.07.2022
472 Clouds 40 999 7 10000 5.12 1 09:30 10.07.2022
473 Clouds 37 999 8 10000 4.77 16 08:42 10.07.2022
474 Clouds 31 1000 10 10000 4.16 4 06:32 10.07.2022
475 Clouds 33 998 13 10000 3.99 343 23:35 09.07.2022
476 Clouds 34 999 11 10000 4 346 22:26 09.07.2022
477 Clouds 35 999 11 10000 4 346 21:40 09.07.2022
478 Clouds 38 998 10 10000 4.04 8 19:37 09.07.2022
479 Clouds 39 997 9 10000 4.71 19 18:25 09.07.2022
480 Clouds 41 996 8 10000 6.97 20 17:18 09.07.2022
481 Clouds 42 996 7 10000 8.29 19 15:58 09.07.2022
482 Clouds 42 996 7 10000 8.29 19 15:38 09.07.2022
483 Clouds 42 996 7 10000 8.25 18 14:21 09.07.2022
484 Clouds 42 997 7 10000 8.19 20 13:28 09.07.2022
485 Clouds 41 998 7 10000 8.26 22 11:40 09.07.2022
486 Clouds 40 999 7 10000 8.26 23 10:25 09.07.2022
487 Clouds 39 1000 8 10000 8.17 25 09:23 09.07.2022
488 Clouds 36 1000 9 10000 7.56 20 07:43 09.07.2022
489 Clouds 30 1001 12 10000 4.13 348 04:38 09.07.2022
490 Clouds 33 1000 11 10000 4.27 345 23:33 08.07.2022
491 Clouds 34 1000 10 10000 4.5 1 22:18 08.07.2022
492 Clouds 35 1000 10 10000 4.69 1 21:21 08.07.2022
493 Clouds 37 1000 10 10000 4.69 1 20:35 08.07.2022
494 Clouds 40 1000 9 10000 4.21 16 18:45 08.07.2022
495 Clouds 41 999 9 10000 4.6 26 17:45 08.07.2022
496 Clouds 41 999 9 10000 4.6 26 17:45 08.07.2022
497 Clouds 42 998 7 10000 7.35 26 16:24 08.07.2022
498 Clouds 42 998 6 10000 7 19 14:50 08.07.2022
499 Clouds 41 999 8 10000 5.56 7 12:31 08.07.2022
500 Clouds 40 1001 7 10000 6.21 20 10:46 08.07.2022
501 Clouds 39 1001 8 10000 6.58 26 09:58 08.07.2022
502 Clouds 34 1003 10 10000 7.31 22 06:59 08.07.2022
503 Clouds 31 1003 11 10000 6.13 13 05:33 08.07.2022
504 Clouds 34 1002 12 10000 4.73 346 00:30 08.07.2022
505 Clouds 37 1002 12 10000 3.33 0 22:50 07.07.2022
506 Rain 37 1002 12 10000 3.15 357 21:46 07.07.2022
507 Rain 39 1001 10 10000 3.43 70 19:34 07.07.2022
508 Clouds 40 1000 9 10000 5.65 59 17:43 07.07.2022
509 Clouds 40 999 7 10000 5.87 45 16:21 07.07.2022
510 Clouds 41 1000 7 10000 5.5 50 13:40 07.07.2022
511 Clouds 41 1000 7 10000 5.62 36 12:41 07.07.2022
512 Clouds 41 1000 7 10000 5.67 26 12:22 07.07.2022
513 Clouds 40 1000 7 10000 5.67 26 11:32 07.07.2022
514 Clouds 39 1001 7 10000 5.93 18 10:45 07.07.2022
515 Clouds 39 1002 8 10000 6.39 15 10:27 07.07.2022
516 Clouds 36 1002 9 10000 7.22 4 08:40 07.07.2022
517 Clouds 30 1003 14 10000 6.47 344 05:44 07.07.2022
518 Clouds 32 1001 14 10000 5.01 337 23:54 06.07.2022
519 Clouds 32 1001 14 10000 5.01 337 23:36 06.07.2022
520 Clouds 32 1002 13 10000 5.23 335 23:18 06.07.2022
521 Clouds 35 1002 13 10000 5.23 335 22:46 06.07.2022
522 Clouds 35 1002 13 10000 5.26 341 22:28 06.07.2022
523 Clouds 37 1001 12 10000 4.88 342 19:46 06.07.2022
524 Clouds 39 1000 11 10000 5.03 342 18:45 06.07.2022
525 Clouds 41 999 9 10000 6.61 348 16:45 06.07.2022
526 Clouds 42 999 8 10000 7.76 347 15:44 06.07.2022
527 Clouds 41 999 7 10000 7.92 344 12:44 06.07.2022
528 Clouds 41 999 8 10000 7.87 342 11:49 06.07.2022
529 Clouds 39 1001 8 10000 7.27 348 10:33 06.07.2022
530 Clouds 35 1001 9 10000 7.6 348 08:43 06.07.2022
531 Clouds 33 1002 10 10000 6.12 2 07:41 06.07.2022
532 Clouds 30 1002 11 10000 5.12 358 06:40 06.07.2022
533 Clouds 33 1000 11 10000 5.05 329 22:49 05.07.2022
534 Clouds 33 1000 10 10000 4.97 327 22:28 05.07.2022
535 Clouds 36 1001 10 10000 4.76 330 20:42 05.07.2022
536 Clear 38 999 9 10000 4.63 331 19:44 05.07.2022
537 Clear 38 999 9 10000 4.66 341 19:26 05.07.2022
538 Clear 41 998 8 10000 5.13 352 17:48 05.07.2022
539 Clear 42 997 7 10000 6.46 348 16:57 05.07.2022
540 Clear 42 997 6 10000 7.78 342 15:39 05.07.2022
541 Clear 42 998 6 10000 7.87 342 14:39 05.07.2022
542 Clouds 42 999 7 10000 7.73 340 12:52 05.07.2022
543 Clouds 42 999 7 10000 6.95 338 12:19 05.07.2022
544 Clouds 41 1000 8 10000 6.58 334 10:44 05.07.2022
545 Clouds 39 1001 9 10000 5.98 344 09:28 05.07.2022
546 Clear 38 1001 12 10000 6.32 342 08:19 05.07.2022
547 Clear 32 1002 16 10000 5.15 347 06:22 05.07.2022
548 Clear 30 1001 18 10000 4.16 323 04:26 05.07.2022
549 Clouds 32 1000 15 10000 4.44 327 00:38 05.07.2022
550 Clouds 33 1000 14 10000 4.15 323 23:34 04.07.2022
551 Clouds 35 1000 13 10000 4.35 321 22:50 04.07.2022
552 Clouds 35 1000 11 10000 4.68 313 21:48 04.07.2022
553 Clouds 36 1000 10 10000 5.05 307 20:54 04.07.2022
554 Clouds 36 1000 10 10000 5.05 307 20:34 04.07.2022
555 Clouds 37 1000 10 10000 5.09 308 19:55 04.07.2022
556 Clouds 37 1000 10 10000 5.09 308 19:36 04.07.2022
557 Clouds 39 998 9 10000 5.5 328 18:26 04.07.2022
558 Clouds 42 997 8 10000 7.12 328 16:34 04.07.2022
559 Clear 42 997 8 10000 7.16 328 15:34 04.07.2022
560 Clear 42 998 8 10000 7.11 327 13:33 04.07.2022
561 Clear 41 999 9 10000 6.22 325 12:33 04.07.2022
562 Clear 40 1000 10 10000 5.79 326 10:34 04.07.2022
563 Clear 39 1001 10 10000 5.65 329 09:53 04.07.2022
564 Clouds 37 1001 12 10000 5.41 341 08:31 04.07.2022
565 Clouds 30 1001 17 10000 4 339 05:18 04.07.2022
566 Clouds 32 999 16 10000 4.05 340 00:42 04.07.2022
567 Clouds 34 999 14 10000 3.95 335 22:59 03.07.2022
568 Clouds 37 1000 12 10000 4.76 318 20:59 03.07.2022
569 Clouds 37 1000 12 10000 4.76 318 20:41 03.07.2022
570 Clouds 38 999 11 10000 4.76 322 19:41 03.07.2022
571 Clouds 38 998 11 10000 4.98 323 19:23 03.07.2022
572 Clouds 40 998 10 10000 4.24 329 17:45 03.07.2022
573 Clouds 42 997 9 10000 5.97 327 15:55 03.07.2022
574 Clouds 41 997 9 10000 5.41 332 14:59 03.07.2022
575 Clouds 41 997 9 10000 5.41 332 14:32 03.07.2022
576 Clouds 41 997 9 10000 4.54 336 13:48 03.07.2022
577 Clouds 40 998 9 10000 4.38 333 12:35 03.07.2022
578 Clouds 40 999 10 10000 4.48 339 11:29 03.07.2022
579 Clouds 40 999 10 10000 4.48 339 10:39 03.07.2022
580 Clouds 39 1000 11 10000 4.43 349 09:55 03.07.2022
581 Clouds 35 1001 11 10000 3.89 356 07:36 03.07.2022
582 Clouds 29 1001 15 10000 2.63 319 05:18 03.07.2022
583 Clouds 32 999 13 10000 3.87 353 00:23 03.07.2022
584 Clouds 34 1000 12 10000 3.99 356 22:35 02.07.2022
585 Clouds 36 1000 12 10000 4.5 348 21:38 02.07.2022
586 Clouds 39 999 10 10000 4.6 338 19:52 02.07.2022
587 Clouds 39 999 9 10000 4.55 348 19:23 02.07.2022
588 Clouds 42 998 8 10000 4.98 354 17:51 02.07.2022
589 Clouds 42 998 8 10000 4.98 354 17:33 02.07.2022
590 Clouds 44 997 6 10000 6.92 346 14:52 02.07.2022
591 Clouds 43 999 6 10000 5.28 341 12:22 02.07.2022
592 Clouds 42 1000 6 10000 4.8 351 11:27 02.07.2022
593 Clouds 41 1000 6 10000 4.8 351 10:46 02.07.2022
594 Clouds 39 1001 7 10000 4.49 359 09:37 02.07.2022
595 Clouds 38 1001 7 10000 4.29 5 08:36 02.07.2022
596 Clouds 38 1002 9 10000 4.83 354 08:18 02.07.2022
597 Clouds 30 1000 13 10000 4.06 348 02:52 02.07.2022
598 Clouds 33 1000 11 10000 4.46 334 00:26 02.07.2022
599 Clouds 35 1000 11 10000 4.33 326 22:59 01.07.2022
600 Clouds 36 1001 11 10000 4.4 334 21:56 01.07.2022
601 Clouds 36 1001 11 10000 4.4 334 21:37 01.07.2022
602 Clouds 38 1001 10 10000 4.28 342 20:56 01.07.2022
603 Clouds 40 1000 10 10000 4.24 355 19:47 01.07.2022
604 Clouds 43 999 8 10000 4.59 360 17:58 01.07.2022
605 Clouds 44 998 6 10000 6.31 348 16:24 01.07.2022
606 Clouds 44 998 6 10000 5.16 342 13:55 01.07.2022
607 Clouds 44 998 6 10000 5.38 336 12:59 01.07.2022
608 Clouds 42 1000 7 10000 4.24 335 10:46 01.07.2022
609 Clouds 42 1001 7 10000 3.72 338 10:18 01.07.2022
610 Clear 30 1002 11 10000 3.96 340 05:58 01.07.2022
611 Clouds 31 1000 12 10000 3.68 336 01:30 01.07.2022
612 Clouds 33 1000 11 10000 3.93 337 23:28 30.06.2022
613 Clouds 34 1000 11 10000 3.93 337 22:45 30.06.2022
614 Clouds 34 1000 11 10000 4.41 340 22:27 30.06.2022
615 Clouds 35 1000 11 10000 4.41 340 21:50 30.06.2022
616 Clear 36 1001 10 10000 4.61 352 20:31 30.06.2022
617 Clear 39 1000 9 10000 4.07 358 19:55 30.06.2022
618 Clear 39 1000 9 10000 4.07 358 19:32 30.06.2022
619 Clear 40 1000 8 10000 4.17 5 18:43 30.06.2022
620 Clear 42 999 7 10000 4.67 1 17:49 30.06.2022
621 Clear 43 998 6 10000 6.47 356 16:55 30.06.2022
622 Clear 44 998 6 10000 7.55 354 15:50 30.06.2022
623 Clear 44 998 5 10000 7.81 359 13:50 30.06.2022
624 Clear 42 998 5 10000 8.08 1 12:36 30.06.2022
625 Clear 42 999 6 10000 8.36 3 11:59 30.06.2022
626 Clear 40 1001 6 10000 8.16 5 09:55 30.06.2022
627 Clear 40 1001 6 10000 8.16 5 09:37 30.06.2022
628 Clear 38 1002 8 10000 7.07 3 08:22 30.06.2022
629 Clear 35 1002 8 10000 6.78 2 07:40 30.06.2022
630 Clear 30 1001 14 10000 4.57 356 02:49 30.06.2022
631 Clear 33 1001 12 10000 4.76 328 23:38 29.06.2022
632 Clear 33 1001 12 10000 4.63 326 22:41 29.06.2022
633 Clear 35 1002 11 10000 4.51 327 21:59 29.06.2022
634 Clear 36 1002 11 10000 4.27 332 20:35 29.06.2022
635 Clear 37 1002 10 10000 4.66 340 19:56 29.06.2022
636 Clear 40 1001 7 10000 5.83 1 17:55 29.06.2022
637 Clear 40 1001 7 10000 5.83 1 17:55 29.06.2022
638 Clear 41 1000 6 10000 7.72 357 16:55 29.06.2022
639 Clear 42 999 5 10000 8.95 352 15:44 29.06.2022
640 Clear 42 1000 4 10000 7.85 352 13:43 29.06.2022
641 Clear 42 1001 4 10000 7.29 348 12:36 29.06.2022
642 Clouds 37 1004 7 10000 4.88 344 09:46 29.06.2022
643 Clouds 37 1004 9 10000 4.91 343 09:22 29.06.2022
644 Clouds 30 1005 15 10000 3.59 349 06:29 29.06.2022
645 Clouds 27 1004 17 10000 2.98 327 04:42 29.06.2022
646 Clouds 31 1002 14 10000 5.34 16 00:53 29.06.2022
647 Clouds 31 1002 14 10000 5.34 16 00:33 29.06.2022
648 Clouds 33 1003 14 10000 5.51 19 22:50 28.06.2022
649 Clouds 35 1004 14 10000 5.31 15 21:58 28.06.2022
650 Clouds 35 1004 13 10000 5.06 8 21:39 28.06.2022
651 Clouds 35 1004 13 10000 5.06 8 21:19 28.06.2022
652 Clouds 37 1003 10 10000 4.82 4 19:54 28.06.2022
653 Clouds 37 1003 9 10000 5.14 9 19:28 28.06.2022
654 Clouds 39 1003 9 10000 5.14 9 18:38 28.06.2022
655 Clouds 42 1001 7 10000 7.17 360 16:47 28.06.2022
656 Clouds 42 1001 7 10000 8.22 354 15:54 28.06.2022
657 Clouds 43 1001 7 10000 8.06 351 14:48 28.06.2022
658 Clouds 43 1001 7 10000 7.52 347 14:18 28.06.2022
659 Clouds 41 1001 7 10000 7.09 348 13:45 28.06.2022
660 Clouds 41 1003 8 10000 5.96 346 12:28 28.06.2022
661 Clouds 38 1005 9 10000 4.9 351 09:53 28.06.2022
662 Clouds 36 1005 10 10000 4.63 356 08:55 28.06.2022
663 Clouds 36 1005 11 10000 3.88 353 08:26 28.06.2022
664 Clouds 34 1005 12 10000 3.85 6 07:20 28.06.2022
665 Clear 28 1004 16 10000 3.37 352 02:42 28.06.2022
666 Clear 32 1003 13 10000 4.35 18 23:51 27.06.2022
667 Clear 32 1003 13 10000 4.65 16 23:25 27.06.2022
668 Clear 34 1004 12 10000 4.93 10 21:53 27.06.2022
669 Clear 34 1004 11 10000 5.24 9 21:21 27.06.2022
670 Clouds 35 1004 11 10000 5.53 17 20:21 27.06.2022
671 Clouds 38 1003 10 10000 5.65 16 18:50 27.06.2022
672 Clouds 40 1002 9 10000 6.44 8 17:33 27.06.2022
673 Clouds 41 1001 8 10000 8.13 354 15:44 27.06.2022
674 Clouds 41 1002 9 10000 7.53 347 14:18 27.06.2022
675 Clouds 41 1002 9 10000 6.94 345 12:58 27.06.2022
676 Clouds 39 1003 10 10000 6.25 349 11:40 27.06.2022
677 Clouds 37 1005 12 10000 6.03 8 09:45 27.06.2022
678 Clouds 35 1005 14 10000 6.33 16 08:43 27.06.2022
679 Clouds 34 1005 16 10000 6.76 16 07:39 27.06.2022
680 Clouds 31 1005 21 10000 5.01 359 05:22 27.06.2022
681 Clouds 34 1003 15 10000 5.87 7 01:24 27.06.2022
682 Clouds 35 1004 13 10000 6.06 359 22:59 26.06.2022
683 Clouds 37 1003 10 10000 5.84 7 21:38 26.06.2022
684 Clouds 38 1002 9 10000 5.08 359 20:28 26.06.2022
685 Clouds 41 1002 8 10000 4.83 355 18:33 26.06.2022
686 Clouds 43 1001 7 10000 4.76 351 17:40 26.06.2022
687 Clouds 45 1000 6 10000 6.53 343 15:36 26.06.2022
688 Clouds 45 1000 5 10000 7.07 341 14:23 26.06.2022
689 Clouds 44 1000 6 10000 6.99 344 13:24 26.06.2022
690 Clouds 44 1001 6 10000 7.02 348 11:41 26.06.2022
691 Clouds 42 1001 6 10000 7.02 354 10:42 26.06.2022
692 Clouds 40 1002 6 10000 7.06 357 09:58 26.06.2022
693 Clouds 39 1003 7 10000 6.72 351 08:27 26.06.2022
694 Clouds 35 1003 10 10000 4.27 330 06:19 26.06.2022
695 Clouds 34 1001 13 10000 0.95 277 00:37 26.06.2022
696 Clouds 34 1001 11 10000 1.88 45 00:18 26.06.2022
697 Clouds 38 1001 11 10000 1.88 45 23:31 25.06.2022
698 Clouds 39 1001 11 10000 2.83 331 22:46 25.06.2022
699 Clouds 39 1002 10 10000 3.6 299 22:24 25.06.2022
700 Clouds 40 1002 10 10000 2.84 282 21:21 25.06.2022
701 Clouds 41 1002 10 10000 2.84 282 20:39 25.06.2022
702 Clouds 40 1002 9 10000 2.83 288 19:59 25.06.2022
703 Clouds 42 1000 9 10000 2.37 184 18:23 25.06.2022
704 Clouds 44 1000 7 10000 2.1 169 17:26 25.06.2022
705 Clouds 45 999 7 10000 1.29 148 16:27 25.06.2022
706 Clouds 45 999 7 10000 1.05 107 14:31 25.06.2022
707 Clouds 44 1001 7 10000 0.7 64 12:46 25.06.2022
708 Clouds 44 1001 7 10000 0.35 213 12:27 25.06.2022
709 Clouds 41 1004 11 10000 3.58 209 09:24 25.06.2022
710 Clouds 41 1004 11 10000 3.58 209 09:24 25.06.2022
711 Clouds 39 1004 11 10000 3.58 209 08:49 25.06.2022
712 Clouds 39 1004 14 10000 3.64 193 08:20 25.06.2022
713 Clouds 32 1004 16 10000 2.85 187 06:35 25.06.2022
714 Clear 34 1003 19 10000 2.99 166 00:45 25.06.2022
715 Clear 34 1003 18 10000 4.05 143 23:54 24.06.2022
716 Clear 36 1004 16 10000 4.85 116 22:26 24.06.2022
717 Clear 37 1004 15 10000 5.22 112 21:25 24.06.2022
718 Clear 37 1003 12 10000 4.45 130 20:23 24.06.2022
719 Clear 39 1002 11 10000 3.67 156 19:24 24.06.2022
720 Clear 40 1002 11 10000 3.67 156 18:51 24.06.2022
721 Clear 40 1002 11 10000 3.67 156 18:31 24.06.2022
722 Clear 41 1002 10 10000 2.46 160 17:49 24.06.2022
723 Clear 42 1002 8 10000 2.26 157 16:45 24.06.2022
724 Clear 42 1002 8 10000 2.26 157 16:45 24.06.2022
725 Clear 43 1002 8 10000 3.45 146 14:30 24.06.2022
726 Clouds 43 1002 8 10000 4.37 147 13:58 24.06.2022
727 Clouds 43 1003 9 10000 5.05 150 12:49 24.06.2022
728 Clouds 41 1003 10 10000 5.43 150 11:40 24.06.2022
729 Clouds 41 1004 12 10000 5.96 141 10:34 24.06.2022
730 Clouds 39 1005 14 10000 6.91 129 09:41 24.06.2022
731 Clouds 38 1005 15 10000 5.79 116 08:53 24.06.2022
732 Clouds 38 1005 15 10000 5.79 116 08:53 24.06.2022
733 Clouds 34 1006 19 10000 4.97 96 07:39 24.06.2022
734 Clouds 32 1006 24 10000 4.02 83 06:42 24.06.2022
735 Clouds 32 1006 28 10000 3.57 74 06:18 24.06.2022
736 Clouds 28 1005 31 10000 3.28 73 03:47 24.06.2022
737 Clear 35 1003 12 10000 4.77 132 22:59 23.06.2022
738 Clear 35 1003 12 10000 4.77 132 22:40 23.06.2022
739 Clear 38 1003 10 10000 5.23 125 20:58 23.06.2022
740 Clear 38 1003 10 10000 5.23 125 20:35 23.06.2022
741 Clouds 40 1002 8 10000 4.57 121 19:40 23.06.2022
742 Clouds 43 1001 7 10000 4.05 138 17:53 23.06.2022
743 Clouds 43 1000 6 10000 5.37 134 17:23 23.06.2022
744 Clouds 44 1000 6 10000 6.22 140 15:50 23.06.2022
745 Clouds 44 1000 5 10000 6.77 137 15:24 23.06.2022
746 Clouds 44 1000 5 10000 6.94 137 13:45 23.06.2022
747 Clouds 41 1002 5 10000 4.48 153 11:27 23.06.2022
748 Clouds 41 1003 6 10000 4.06 172 10:37 23.06.2022
749 Clouds 38 1003 6 10000 3.96 178 09:18 23.06.2022
750 Rain 32 1002 11 10000 2.6 91 03:39 23.06.2022
751 Clouds 36 1000 10 10000 1.07 176 00:26 23.06.2022
752 Rain 36 1000 10 10000 1.08 176 23:41 22.06.2022
753 Clouds 39 1000 10 10000 0.36 124 22:41 22.06.2022
754 Clear 37 999 7 10000 3.4 173 21:22 22.06.2022
755 Clear 39 999 7 10000 3.4 173 20:43 22.06.2022
756 Clouds 37 998 7 10000 3.37 154 19:56 22.06.2022
757 Clouds 41 998 7 10000 3.61 160 18:47 22.06.2022
758 Clear 43 997 6 10000 3.88 149 17:28 22.06.2022
759 Clear 44 997 6 10000 2.75 136 16:29 22.06.2022
760 Clear 45 997 6 10000 1.94 127 15:26 22.06.2022
761 Clear 44 997 6 10000 1.42 113 14:20 22.06.2022
762 Clear 45 997 6 10000 1.25 149 13:39 22.06.2022
763 Clear 45 998 6 10000 1.23 136 13:21 22.06.2022
764 Clear 44 998 6 10000 2.06 139 11:49 22.06.2022
765 Clear 44 999 6 10000 3.32 148 10:55 22.06.2022
766 Clear 44 999 6 10000 4.67 156 10:19 22.06.2022
767 Clear 41 999 8 10000 4.29 154 08:28 22.06.2022
768 Clear 30 999 12 10000 2.4 183 04:50 22.06.2022
769 Clear 32 999 12 10000 4.32 338 01:23 22.06.2022
770 Clear 33 999 11 10000 4.69 345 00:24 22.06.2022
771 Clear 34 1000 10 10000 5.24 332 22:18 21.06.2022
772 Rain 39 998 8 10000 4.73 338 19:56 21.06.2022
773 Clear 42 998 8 10000 4.23 341 18:35 21.06.2022
774 Clear 43 997 7 10000 4.18 6 17:39 21.06.2022
775 Clear 44 997 5 10000 7.08 8 13:54 21.06.2022
776 Clear 44 998 6 10000 7.49 28 11:49 21.06.2022
777 Clear 43 1000 6 10000 8.28 28 10:18 21.06.2022
778 Clear 39 1000 7 10000 8.88 24 08:48 21.06.2022
779 Clear 37 1001 7 10000 6.64 339 07:23 21.06.2022
780 Clear 32 1001 7 10000 2.62 351 01:43 21.06.2022
781 Clear 36 1001 7 10000 2.59 351 23:25 20.06.2022
782 Clear 36 1002 6 10000 2.84 332 21:55 20.06.2022
783 Clear 38 1001 6 10000 3.03 332 20:53 20.06.2022
784 Clear 41 1001 5 10000 3.76 320 19:44 20.06.2022
785 Clear 42 1000 5 10000 3.74 319 18:48 20.06.2022
786 Clear 42 1000 5 10000 4.23 312 18:20 20.06.2022
787 Clear 44 1000 5 10000 4.23 312 17:35 20.06.2022
788 Clear 45 999 4 10000 4.74 283 15:57 20.06.2022
789 Clear 45 999 4 10000 2.19 268 13:34 20.06.2022
790 Clear 45 1002 5 10000 1.54 209 11:25 20.06.2022
791 Clear 42 1002 5 10000 1.38 234 09:47 20.06.2022
792 Clear 41 1003 5 10000 1.54 250 08:44 20.06.2022
793 Clear 33 1003 6 10000 1.41 303 06:37 20.06.2022
794 Clear 31 1002 9 10000 0.72 102 02:56 20.06.2022
795 Clear 31 1001 8 10000 1.11 272 00:37 20.06.2022
796 Clear 35 1002 7 10000 1.5 250 23:24 19.06.2022
797 Clear 39 1002 7 10000 1.44 231 22:00 19.06.2022
798 Clear 39 1002 7 10000 1.44 231 21:40 19.06.2022
799 Clear 38 1002 6 10000 1.65 210 20:46 19.06.2022
800 Clear 39 1001 6 10000 1.67 256 19:48 19.06.2022
801 Clear 39 1001 6 10000 1.99 225 19:23 19.06.2022
802 Clear 40 1001 6 10000 2 225 18:31 19.06.2022
803 Clear 44 1001 5 10000 2.38 201 17:34 19.06.2022
804 Clear 45 1000 5 10000 2.3 192 16:38 19.06.2022
805 Clear 44 1000 4 10000 2.32 183 15:44 19.06.2022
806 Clear 44 1000 4 10000 2.91 172 15:25 19.06.2022
807 Clear 45 1000 4 10000 2.82 160 14:20 19.06.2022
808 Clear 44 1000 4 10000 2.82 160 13:37 19.06.2022
809 Clear 43 1001 4 10000 1.93 114 11:52 19.06.2022
810 Clear 42 1002 4 10000 2.06 70 10:49 19.06.2022
811 Clear 39 1003 6 10000 3.07 15 08:54 19.06.2022
812 Clear 39 1003 7 10000 2.43 9 08:30 19.06.2022
813 Clear 32 1004 9 10000 3.96 338 05:59 19.06.2022
814 Clear 33 1002 9 10000 4.03 325 02:59 19.06.2022
815 Clear 35 1002 7 10000 3.03 320 00:26 19.06.2022
816 Clear 36 1002 7 10000 3.03 320 23:36 18.06.2022
817 Clear 37 1002 7 10000 2.55 323 22:55 18.06.2022
818 Clear 38 1002 6 10000 2.08 328 21:52 18.06.2022
819 Clear 39 1002 7 10000 1.29 360 20:50 18.06.2022
820 Clear 39 1001 6 10000 2.1 44 19:48 18.06.2022
821 Clear 40 1001 5 10000 3.4 53 18:54 18.06.2022
822 Clear 42 1000 4 10000 4.55 38 17:54 18.06.2022
823 Clear 42 999 3 10000 6.59 16 17:23 18.06.2022
824 Clear 43 999 3 10000 8.93 7 15:38 18.06.2022
825 Clear 44 999 4 10000 9.53 2 14:49 18.06.2022
826 Clear 43 1000 4 10000 9.56 358 13:54 18.06.2022
827 Clear 42 1001 6 10000 8.74 351 11:58 18.06.2022
828 Clear 41 1002 6 10000 7.93 350 10:59 18.06.2022
829 Clear 38 1003 8 10000 6.51 358 09:29 18.06.2022
830 Clear 37 1004 10 10000 6.17 7 08:33 18.06.2022
831 Clear 35 1004 10 10000 5.77 1 07:32 18.06.2022
832 Clear 31 1004 16 10000 3.89 331 04:20 18.06.2022
833 Clear 33 1004 15 10000 4.75 326 01:27 18.06.2022
834 Clear 33 1004 15 10000 4.75 326 01:27 18.06.2022
835 Clear 35 1004 15 10000 4.75 326 00:55 18.06.2022
836 Clear 35 1004 14 10000 4.77 322 00:22 18.06.2022
837 Clear 36 1004 14 10000 4.73 324 23:29 17.06.2022
838 Clear 37 1004 13 10000 4.79 330 21:57 17.06.2022
839 Clear 38 1004 12 10000 4.87 339 20:29 17.06.2022
840 Clear 39 1003 10 10000 5.47 350 19:19 17.06.2022
841 Clear 41 1003 9 10000 6.3 355 17:47 17.06.2022
842 Clear 42 1002 7 10000 7.46 354 16:44 17.06.2022
843 Clear 42 1002 7 10000 8.18 351 16:19 17.06.2022
844 Clear 43 1002 7 10000 8.18 351 15:37 17.06.2022
845 Clear 43 1002 7 10000 8.18 351 15:37 17.06.2022
846 Clear 43 1002 7 10000 7.59 356 14:23 17.06.2022
847 Clouds 42 1002 7 10000 7.52 1 13:57 17.06.2022
848 Clouds 42 1002 7 10000 7.52 1 13:37 17.06.2022
849 Clouds 41 1004 7 10000 6.31 7 12:20 17.06.2022
850 Clouds 41 1004 7 10000 6.31 7 11:49 17.06.2022
851 Clouds 41 1004 7 10000 6.31 7 11:30 17.06.2022
852 Clouds 36 1006 11 10000 3.1 2 08:45 17.06.2022
853 Clouds 36 1006 13 10000 2.74 12 08:24 17.06.2022
854 Clouds 32 1007 15 10000 3.17 2 06:35 17.06.2022
855 Clear 30 1006 18 10000 2.47 325 03:25 17.06.2022
856 Clear 31 1006 17 10000 2.02 328 01:55 17.06.2022
857 Clear 33 1006 17 10000 1.74 70 23:34 16.06.2022
858 Clear 35 1006 15 10000 3.16 57 22:40 16.06.2022
859 Clear 36 1006 12 10000 5.38 36 21:21 16.06.2022
860 Clear 37 1006 12 10000 5.38 36 20:50 16.06.2022
861 Clear 37 1006 10 10000 4.74 39 20:21 16.06.2022
862 Clouds 39 1005 9 10000 4.71 48 18:51 16.06.2022
863 Clouds 41 1004 8 10000 5.07 48 17:54 16.06.2022
864 Clear 41 1003 7 10000 6.35 47 17:27 16.06.2022
865 Clear 42 1002 6 10000 6.63 46 16:20 16.06.2022
866 Clear 42 1002 6 10000 5.71 49 15:21 16.06.2022
867 Clear 42 1003 6 10000 4.9 57 14:27 16.06.2022
868 Clear 42 1003 7 10000 5.55 59 12:56 16.06.2022
869 Clear 42 1003 7 10000 5.55 59 12:34 16.06.2022
870 Clear 42 1004 7 10000 5.47 60 11:48 16.06.2022
871 Clear 41 1005 8 10000 3.83 75 10:42 16.06.2022
872 Clear 39 1005 9 10000 3.87 110 09:43 16.06.2022
873 Clear 39 1006 10 10000 4.89 117 09:19 16.06.2022
874 Clear 36 1006 10 10000 3.54 118 07:42 16.06.2022
875 Clear 32 1006 12 10000 2.29 133 06:49 16.06.2022
876 Clear 27 1005 18 10000 0.81 229 04:27 16.06.2022
877 Clear 31 1005 19 10000 0.41 330 01:53 16.06.2022
878 Clear 31 1005 17 10000 1.42 49 01:29 16.06.2022
879 Clear 31 1005 16 10000 2.52 71 00:29 16.06.2022
880 Clear 33 1005 13 10000 3.57 74 22:54 15.06.2022
881 Clear 35 1005 12 10000 3.33 72 21:55 15.06.2022
882 Clear 35 1006 11 10000 3.58 89 21:20 15.06.2022
883 Clear 36 1006 11 10000 3.58 89 20:37 15.06.2022
884 Clear 36 1005 11 10000 4.36 88 20:18 15.06.2022
885 Clear 39 1004 10 10000 4.8 86 18:47 15.06.2022
886 Clear 40 1003 9 10000 5.57 81 17:54 15.06.2022
887 Clear 41 1003 7 10000 6.96 70 16:35 15.06.2022
888 Clear 42 1002 6 10000 7.17 55 15:22 15.06.2022
889 Clear 42 1002 7 10000 5.92 56 13:37 15.06.2022
890 Clear 42 1003 7 10000 4.71 67 12:51 15.06.2022
891 Clear 40 1004 7 10000 4.47 81 11:37 15.06.2022
892 Clear 39 1005 9 10000 4.55 90 10:22 15.06.2022
893 Clear 38 1005 9 10000 4.55 90 09:34 15.06.2022
894 Clear 34 1006 14 10000 1.95 115 07:58 15.06.2022
895 Clear 32 1006 18 10000 2.44 133 06:33 15.06.2022
896 Clear 30 1005 20 10000 3.32 129 03:28 15.06.2022
897 Clear 32 1004 18 10000 3.7 117 01:37 15.06.2022
898 Clear 32 1004 17 10000 3.06 110 00:41 15.06.2022
899 Clear 32 1004 15 10000 3.35 98 23:38 14.06.2022
900 Clear 34 1004 14 10000 3.69 86 22:51 14.06.2022
901 Clear 35 1005 13 10000 3.95 85 21:47 14.06.2022
902 Clear 35 1005 13 10000 5 86 21:26 14.06.2022
903 Clear 36 1005 13 10000 5 86 20:48 14.06.2022
904 Clear 37 1004 10 10000 6.73 86 19:59 14.06.2022
905 Clear 38 1004 9 10000 6.6 85 18:45 14.06.2022
906 Clear 40 1003 7 10000 6.33 68 17:29 14.06.2022
907 Clear 41 1003 7 10000 6.33 68 16:43 14.06.2022
908 Clear 42 1002 7 10000 6.33 56 15:49 14.06.2022
909 Clear 42 1002 6 10000 6 53 14:57 14.06.2022
910 Clear 42 1003 6 10000 5.31 55 14:19 14.06.2022
911 Clear 41 1003 6 10000 5.7 57 13:32 14.06.2022
912 Clear 42 1004 7 10000 6.11 65 12:25 14.06.2022
913 Clear 40 1005 7 10000 5.83 66 10:59 14.06.2022
914 Clear 40 1005 7 10000 5.83 66 10:59 14.06.2022
915 Clear 40 1005 7 10000 5.83 66 10:33 14.06.2022
916 Clear 40 1006 8 10000 2.91 74 09:28 14.06.2022
917 Clear 40 1006 8 10000 2.91 74 09:28 14.06.2022
918 Clear 38 1006 8 10000 2.91 74 08:41 14.06.2022
919 Clear 32 1006 11 10000 1.08 226 06:54 14.06.2022
920 Clear 31 1004 14 10000 1.64 97 04:28 14.06.2022
921 Clear 31 1004 13 10000 2.15 106 02:43 14.06.2022
922 Clear 33 1003 11 10000 4.39 78 00:27 14.06.2022
923 Clear 34 1003 10 10000 5.35 70 23:18 13.06.2022
924 Clear 34 1004 10 10000 5.88 65 22:24 13.06.2022
925 Clear 35 1004 10 10000 5.88 65 21:41 13.06.2022
926 Clear 37 1004 9 10000 4.51 41 19:59 13.06.2022
927 Clear 37 1003 8 10000 3.45 34 19:25 13.06.2022
928 Clear 41 1002 8 10000 2.74 27 17:57 13.06.2022
929 Clear 41 1001 7 10000 2.73 6 17:27 13.06.2022
930 Clear 42 1001 7 10000 2.73 6 16:32 13.06.2022
931 Clear 42 1001 6 10000 2.4 358 14:53 13.06.2022
932 Clear 42 1001 6 10000 2.49 15 14:33 13.06.2022
933 Clear 42 1002 6 10000 1.73 30 13:39 13.06.2022
934 Clear 42 1003 6 10000 2.25 67 12:25 13.06.2022
935 Clear 40 1004 7 10000 2.74 74 11:18 13.06.2022
936 Clear 40 1004 7 10000 3.17 74 10:26 13.06.2022
937 Clear 39 1005 7 10000 2.99 54 09:22 13.06.2022
938 Clear 31 1005 10 10000 2.7 13 06:55 13.06.2022
939 Clear 29 1005 11 10000 2.23 22 05:39 13.06.2022
940 Clear 31 1003 13 10000 2.21 112 02:47 13.06.2022
941 Clear 30 1002 14 10000 1 60 01:36 13.06.2022
942 Clear 32 1003 13 10000 1.78 53 23:52 12.06.2022
943 Clear 33 1003 12 10000 2.6 24 22:50 12.06.2022
944 Clear 33 1003 11 10000 3.18 28 22:22 12.06.2022
945 Clear 36 1002 10 10000 3.93 47 20:58 12.06.2022
946 Clear 36 1001 9 10000 3.73 37 20:27 12.06.2022
947 Clear 38 1001 9 10000 3.73 37 19:30 12.06.2022
948 Clear 42 1000 8 10000 3.98 19 17:47 12.06.2022
949 Clear 43 999 6 10000 2.96 8 15:58 12.06.2022
950 Clear 44 1000 6 10000 2.87 5 14:56 12.06.2022
951 Clear 44 1000 6 10000 2.6 354 14:20 12.06.2022
952 Clear 43 1000 7 10000 2.95 355 13:49 12.06.2022
953 Clear 42 1001 7 10000 2.37 337 12:37 12.06.2022
954 Clear 42 1003 7 10000 1.69 321 11:37 12.06.2022
955 Clear 40 1004 8 10000 1.86 349 10:22 12.06.2022
956 Clear 37 1004 8 10000 2.31 4 08:54 12.06.2022
957 Clear 37 1004 8 10000 2.31 4 08:35 12.06.2022
958 Clear 35 1005 9 10000 2.29 5 07:32 12.06.2022
959 Clear 29 1005 15 10000 1.27 342 04:35 12.06.2022
960 Clear 29 1004 15 10000 1.43 350 02:38 12.06.2022
961 Clear 31 1004 14 10000 2.42 338 01:37 12.06.2022
962 Clear 31 1004 14 10000 2.76 320 00:58 12.06.2022
963 Clear 31 1004 13 10000 3.27 23 00:20 12.06.2022
964 Clear 33 1004 13 10000 3.27 23 23:40 11.06.2022
965 Clear 34 1004 13 10000 5.4 21 22:38 11.06.2022
966 Clear 34 1004 13 10000 5.4 21 22:38 11.06.2022
967 Clear 35 1005 12 10000 5.27 12 21:42 11.06.2022
968 Clear 36 1005 11 10000 5.19 12 20:34 11.06.2022
969 Clear 38 1004 10 10000 5.31 17 19:46 11.06.2022
970 Clear 38 1004 9 10000 5.3 11 19:19 11.06.2022
971 Clear 40 1004 9 10000 5.3 11 18:33 11.06.2022
972 Clear 41 1003 8 10000 5.42 3 17:50 11.06.2022
973 Clear 41 1003 7 10000 6.83 358 17:26 11.06.2022
974 Clear 43 1003 7 10000 6.83 358 16:52 11.06.2022
975 Clear 43 1003 6 10000 7.24 353 16:26 11.06.2022
976 Clear 43 1003 6 10000 5.97 348 15:28 11.06.2022
977 Clear 42 1003 6 10000 4.8 335 13:53 11.06.2022
978 Clear 42 1004 6 10000 4.32 331 12:37 11.06.2022
979 Clear 39 1006 7 10000 3.48 355 10:46 11.06.2022
980 Clear 38 1007 8 10000 3.7 8 09:48 11.06.2022
981 Clear 37 1007 8 10000 3.82 14 08:51 11.06.2022
982 Clear 32 1008 11 10000 4.5 18 06:47 11.06.2022
983 Clear 32 1008 13 10000 3.38 20 06:24 11.06.2022
984 Clear 30 1006 17 10000 1.08 31 03:46 11.06.2022
985 Clear 31 1006 17 10000 2.83 13 01:52 11.06.2022
986 Clear 31 1006 16 10000 2.93 20 01:26 11.06.2022
987 Clear 34 1006 14 10000 3.56 60 23:29 10.06.2022
988 Clear 35 1006 14 10000 3.56 60 22:31 10.06.2022
989 Clear 36 1006 11 10000 5.73 70 21:50 10.06.2022
990 Clear 38 1006 8 10000 5.54 39 20:39 10.06.2022
991 Clear 38 1005 7 10000 2.06 11 20:21 10.06.2022
992 Clear 39 1004 7 10000 0.46 214 19:19 10.06.2022
993 Clear 39 1004 7 10000 0.46 214 19:19 10.06.2022
994 Clear 39 1004 7 10000 0.46 214 18:55 10.06.2022
995 Clear 43 1003 6 10000 1.82 233 17:55 10.06.2022
996 Clear 43 1003 6 10000 1.82 233 17:32 10.06.2022
997 Clear 45 1003 5 10000 2.05 239 16:36 10.06.2022
998 Clear 44 1003 4 10000 2.03 238 15:40 10.06.2022
999 Clear 45 1003 4 10000 1.7 227 14:34 10.06.2022
1000 Clear 45 1004 4 10000 1.31 180 13:23 10.06.2022
1001 Clear 43 1004 4 10000 1.97 155 11:59 10.06.2022
1002 Clear 42 1005 5 10000 2.83 139 10:59 10.06.2022
1003 Clear 42 1005 5 10000 2.83 139 10:35 10.06.2022
1004 Clear 41 1006 5 10000 2.87 96 09:21 10.06.2022
1005 Clear 35 1007 6 10000 1.88 66 07:51 10.06.2022
1006 Clear 31 1007 7 10000 3.24 43 06:47 10.06.2022
1007 Clear 31 1007 8 10000 2.86 26 06:28 10.06.2022
1008 Clear 28 1006 11 10000 1.06 309 05:31 10.06.2022
1009 Clear 31 1005 10 10000 2.21 138 02:46 10.06.2022
1010 Clear 30 1004 9 10000 2.63 133 01:37 10.06.2022
1011 Clear 34 1004 9 10000 1.68 128 23:58 09.06.2022
1012 Clear 35 1004 8 10000 2.56 135 22:43 09.06.2022
1013 Clear 35 1005 7 10000 2.5 122 21:43 09.06.2022
1014 Clear 35 1005 7 10000 1.63 110 21:24 09.06.2022
1015 Clear 37 1005 7 10000 1.63 110 20:38 09.06.2022
1016 Clear 39 1004 6 10000 3.62 102 19:46 09.06.2022
1017 Clear 41 1003 6 10000 3.9 75 18:41 09.06.2022
1018 Clear 43 1002 5 10000 2.56 71 17:33 09.06.2022
1019 Clear 44 1002 4 10000 2.53 85 16:28 09.06.2022
1020 Clear 45 1002 4 10000 2.04 104 15:22 09.06.2022
1021 Clear 45 1002 4 10000 2.04 104 14:30 09.06.2022
1022 Clear 45 1002 5 10000 2.51 107 13:44 09.06.2022
1023 Clear 45 1003 5 10000 2.29 113 13:19 09.06.2022
1024 Clear 44 1004 5 10000 3.53 98 11:35 09.06.2022
1025 Clear 42 1004 5 10000 3.11 102 09:55 09.06.2022
1026 Clear 42 1004 5 10000 3.11 102 09:55 09.06.2022
1027 Clear 42 1004 5 10000 3.11 102 09:37 09.06.2022
1028 Clear 41 1005 6 10000 2.4 154 08:38 09.06.2022
1029 Clear 38 1005 7 10000 3 213 07:29 09.06.2022
1030 Clear 28 1006 12 10000 0.89 115 04:30 09.06.2022
1031 Clear 33 1004 9 10000 1.76 131 00:35 09.06.2022
1032 Clear 35 1004 8 10000 2.91 74 23:18 08.06.2022
1033 Clear 36 1004 8 10000 2.91 74 22:43 08.06.2022
1034 Clear 36 1004 7 10000 1.66 80 22:23 08.06.2022
1035 Clear 37 1004 7 10000 1.66 80 21:33 08.06.2022
1036 Clear 36 1004 7 10000 1.89 235 20:25 08.06.2022
1037 Clear 39 1004 7 10000 1.54 246 19:41 08.06.2022
1038 Clear 41 1004 6 10000 2.97 241 18:48 08.06.2022
1039 Clear 43 1003 6 10000 2.16 211 17:41 08.06.2022
1040 Clear 44 1002 5 10000 1.84 179 15:54 08.06.2022
1041 Clear 45 1002 5 10000 1.85 191 14:38 08.06.2022
1042 Clear 45 1003 5 10000 1.97 129 12:55 08.06.2022
1043 Clear 45 1003 5 10000 1.96 129 12:55 08.06.2022
1044 Clear 45 1003 5 10000 1.97 129 12:55 08.06.2022
1045 Clear 45 1003 5 10000 1.97 129 12:55 08.06.2022
1046 Clear 43 1003 5 10000 2.72 108 11:36 08.06.2022
1047 Clear 42 1004 5 10000 2.09 108 10:51 08.06.2022
1048 Clear 41 1005 5 10000 2.62 198 09:28 08.06.2022
1049 Clear 40 1005 5 10000 2.62 198 08:54 08.06.2022
1050 Clear 32 1005 7 10000 2.55 176 06:56 08.06.2022
1051 Clear 27 1005 9 10000 2.44 188 04:47 08.06.2022
1052 Clear 31 1003 8 10000 3.4 127 01:25 08.06.2022
1053 Clear 33 1003 7 10000 3.02 136 23:32 07.06.2022
1054 Clear 32 1003 7 10000 2.14 150 22:54 07.06.2022
1055 Clear 32 1003 7 10000 2.14 150 22:34 07.06.2022
1056 Clear 34 1003 7 10000 1.5 169 21:39 07.06.2022
1057 Clear 34 1003 7 10000 1.64 178 21:20 07.06.2022
1058 Clear 37 1003 7 10000 1.64 178 20:40 07.06.2022
1059 Clear 36 1003 6 10000 1.6 207 19:57 07.06.2022
1060 Clear 38 1002 6 10000 2.1 127 18:26 07.06.2022
1061 Clear 43 1002 6 10000 2.1 127 17:33 07.06.2022
1062 Clear 44 1001 5 10000 1.76 132 16:44 07.06.2022
1063 Clear 44 1001 4 10000 1.79 127 15:58 07.06.2022
1064 Clear 44 1001 4 10000 1.79 127 15:36 07.06.2022
1065 Clear 44 1001 4 10000 2.11 123 15:18 07.06.2022
1066 Clear 45 1001 4 10000 2.11 123 14:42 07.06.2022
1067 Clear 44 1001 4 10000 2.04 131 13:38 07.06.2022
1068 Clear 44 1002 4 10000 2.68 121 13:20 07.06.2022
1069 Clear 44 1002 5 10000 3.08 124 11:55 07.06.2022
1070 Clear 43 1003 5 10000 3.32 137 10:48 07.06.2022
1071 Clear 39 1004 6 10000 3.29 165 08:58 07.06.2022
1072 Clear 36 1004 6 10000 2.89 184 07:54 07.06.2022
1073 Clear 31 1004 7 10000 2.63 181 06:41 07.06.2022
1074 Clear 27 1004 9 10000 3.06 166 04:47 07.06.2022
1075 Clouds 31 1003 9 10000 2.68 150 01:27 07.06.2022
1076 Clouds 32 1003 8 10000 3.07 140 23:58 06.06.2022
1077 Clouds 32 1003 7 10000 3.63 111 22:54 06.06.2022
1078 Clouds 32 1003 7 10000 3.63 111 22:30 06.06.2022
1079 Clouds 36 1003 6 10000 2.67 197 20:54 06.06.2022
1080 Clouds 36 1002 5 10000 3.57 144 19:29 06.06.2022
1081 Clouds 38 1002 5 10000 3.57 144 18:53 06.06.2022
1082 Clouds 38 1002 5 10000 3.65 128 18:26 06.06.2022
1083 Clear 43 1001 5 10000 3.3 112 17:26 06.06.2022
1084 Clear 44 1001 4 10000 2.53 106 16:18 06.06.2022
1085 Clear 44 1001 4 10000 2.53 106 15:33 06.06.2022
1086 Clear 45 1001 4 10000 2.08 101 14:32 06.06.2022
1087 Clear 45 1002 4 10000 0.53 118 13:25 06.06.2022
1088 Clear 43 1002 4 10000 0.53 118 12:36 06.06.2022
1089 Clear 43 1003 4 10000 0.47 263 11:53 06.06.2022
1090 Clear 42 1004 4 10000 1.71 267 10:40 06.06.2022
1091 Clear 41 1004 5 10000 3.29 258 09:33 06.06.2022
1092 Clear 40 1005 5 10000 3.9 262 08:32 06.06.2022
1093 Clear 35 1005 6 10000 3.56 232 07:28 06.06.2022
1094 Clear 26 1005 9 10000 2.66 228 05:27 06.06.2022
1095 Clear 27 1004 10 10000 1.34 209 02:55 06.06.2022
1096 Clear 29 1004 8 10000 2.17 212 01:18 06.06.2022
1097 Clear 30 1004 8 10000 2.17 212 00:38 06.06.2022
1098 Clear 31 1005 8 10000 2.42 205 23:34 05.06.2022
1099 Clear 31 1005 8 10000 2.86 182 22:45 05.06.2022
1100 Clear 35 1005 7 10000 1.69 132 20:47 05.06.2022
1101 Clear 38 1004 7 10000 2.43 113 19:41 05.06.2022
1102 Clear 39 1004 6 10000 3.23 104 18:30 05.06.2022
1103 Clear 42 1004 6 10000 3.49 100 17:54 05.06.2022
1104 Clear 42 1003 5 10000 3.12 91 17:25 05.06.2022
1105 Clear 43 1003 5 10000 3.12 91 16:51 05.06.2022
1106 Clear 43 1003 5 10000 3.12 91 16:32 05.06.2022
1107 Clear 45 1003 4 10000 3.06 100 14:25 05.06.2022
1108 Clear 43 1004 4 10000 3.53 96 12:55 05.06.2022
1109 Clear 43 1004 4 10000 3.53 96 12:55 05.06.2022
1110 Clear 42 1004 4 10000 3.97 99 11:45 05.06.2022
1111 Clear 44 1005 5 10000 3.89 94 10:34 05.06.2022
1112 Clear 40 1006 5 10000 3.33 80 09:59 05.06.2022
1113 Clear 39 1007 6 10000 2.08 49 08:32 05.06.2022
1114 Clear 36 1007 6 10000 2.88 304 07:44 05.06.2022
1115 Clear 27 1007 10 10000 2.62 294 05:22 05.06.2022
1116 Clear 25 1007 11 10000 2.39 321 04:19 05.06.2022
1117 Clear 29 1006 12 10000 0.69 323 01:32 05.06.2022
1118 Clear 29 1006 12 10000 0.69 323 01:32 05.06.2022
1119 Clear 29 1006 11 10000 0.55 108 00:33 05.06.2022
1120 Clear 31 1007 10 10000 0.9 156 22:36 04.06.2022
1121 Clear 35 1007 9 10000 1.57 114 20:33 04.06.2022
1122 Clear 39 1006 8 10000 3.85 95 18:45 04.06.2022
1123 Clear 41 1005 6 10000 4.89 80 16:47 04.06.2022
1124 Clear 41 1005 5 10000 4.98 67 16:18 04.06.2022
1125 Clear 42 1005 5 10000 4.4 63 14:53 04.06.2022
1126 Clear 41 1006 5 10000 4.02 75 12:38 04.06.2022
1127 Clear 41 1007 5 10000 2.78 88 11:19 04.06.2022
1128 Clear 42 1007 5 10000 2.77 88 10:44 04.06.2022
1129 Clear 40 1008 6 10000 2.42 98 09:44 04.06.2022
1130 Clear 37 1009 7 10000 2.28 120 08:43 04.06.2022
1131 Clear 33 1009 7 10000 2.67 99 07:41 04.06.2022
1132 Clear 26 1008 10 10000 2.31 301 05:29 04.06.2022
1133 Clear 27 1007 11 10000 1.23 276 01:42 04.06.2022
1134 Clear 30 1008 10 10000 1.6 263 23:59 03.06.2022
1135 Clear 31 1008 10 10000 1.61 204 22:40 03.06.2022
1136 Clear 33 1009 9 10000 2.01 177 21:30 03.06.2022
1137 Clear 32 1009 9 10000 2.54 121 20:37 03.06.2022
1138 Clear 32 1009 9 10000 2.54 121 20:37 03.06.2022
1139 Clear 32 1009 8 10000 3.73 87 20:37 03.06.2022
1140 Clear 37 1008 7 10000 3.86 91 18:41 03.06.2022
1141 Clear 40 1006 6 10000 3.35 96 16:49 03.06.2022
1142 Clear 40 1006 5 10000 2.73 101 15:37 03.06.2022
1143 Clear 40 1007 6 10000 3.7 120 13:28 03.06.2022
1144 Clear 39 1008 6 10000 3.83 125 11:40 03.06.2022
1145 Clear 38 1009 8 10000 4.24 119 09:50 03.06.2022
1146 Clear 38 1009 8 10000 4.24 119 09:50 03.06.2022
1147 Clear 38 1009 10 10000 4.18 145 09:24 03.06.2022
1148 Clear 34 1010 13 10000 2.44 176 07:27 03.06.2022
1149 Clear 30 1010 13 10000 2.44 176 06:39 03.06.2022
1150 Clear 30 1010 15 10000 2.14 158 06:20 03.06.2022
1151 Clear 30 1008 14 10000 4.01 131 00:41 03.06.2022
1152 Clear 30 1008 11 10000 3.87 129 22:48 02.06.2022
1153 Clear 33 1008 10 10000 3.58 119 21:57 02.06.2022
1154 Clear 34 1008 10 10000 4.96 107 20:22 02.06.2022
1155 Clear 36 1008 10 10000 4.96 107 19:50 02.06.2022
1156 Clear 36 1008 9 10000 4.8 98 19:32 02.06.2022
1157 Clear 39 1006 8 10000 5.54 99 17:58 02.06.2022
1158 Clear 40 1005 6 10000 6.38 96 16:28 02.06.2022
1159 Clear 41 1005 6 10000 6.15 98 14:34 02.06.2022
1160 Clear 41 1005 5 10000 6.41 103 13:30 02.06.2022
1161 Clear 40 1005 5 10000 6.03 105 12:40 02.06.2022
1162 Clear 38 1007 6 10000 5.12 119 10:20 02.06.2022
1163 Clear 38 1008 7 10000 4.11 116 09:28 02.06.2022
1164 Clear 35 1009 8 10000 3.3 127 08:28 02.06.2022
1165 Clear 33 1008 7 10000 5.35 116 07:34 02.06.2022
1166 Clear 25 1008 11 10000 3.55 107 05:29 02.06.2022
1167 Clear 27 1007 10 10000 2.89 107 03:45 02.06.2022
1168 Clear 28 1007 10 10000 0.84 136 23:52 01.06.2022
1169 Clear 30 1007 9 10000 1.44 155 22:54 01.06.2022
1170 Clear 32 1007 9 10000 2.21 125 21:39 01.06.2022
1171 Clear 32 1007 8 10000 3.37 108 21:20 01.06.2022
1172 Clear 33 1007 8 10000 3.37 108 20:37 01.06.2022
1173 Clear 36 1006 8 10000 4.13 56 19:31 01.06.2022
1174 Clear 39 1005 7 10000 5.47 24 17:46 01.06.2022
1175 Clear 40 1004 6 10000 6.63 11 16:41 01.06.2022
1176 Clear 40 1003 5 10000 6.49 12 15:18 01.06.2022
1177 Clear 40 1004 5 10000 6.51 8 13:57 01.06.2022
1178 Clear 40 1005 5 10000 7.18 20 12:29 01.06.2022
1179 Clear 38 1006 6 10000 7.3 29 10:25 01.06.2022
1180 Clear 38 1007 6 10000 7.19 34 09:24 01.06.2022
1181 Clear 34 1008 8 10000 4.77 18 07:25 01.06.2022
1182 Clear 33 1008 8 10000 4.77 18 06:40 01.06.2022
1183 Clear 29 1005 11 10000 3.13 359 01:29 01.06.2022
1184 Clear 31 1005 11 10000 3.41 14 23:41 31.05.2022
1185 Clear 33 1006 10 10000 3.88 18 22:37 31.05.2022
1186 Clear 33 1006 10 10000 4.28 20 21:46 31.05.2022
1187 Clear 35 1006 10 10000 4.81 10 20:46 31.05.2022
1188 Clear 35 1006 9 10000 4.62 355 20:23 31.05.2022
1189 Clear 37 1005 8 10000 4.58 9 18:53 31.05.2022
1190 Clear 39 1004 8 10000 4.71 16 17:51 31.05.2022
1191 Clear 39 1004 7 10000 4.53 11 17:18 31.05.2022
1192 Clear 41 1004 6 10000 3.87 357 15:41 31.05.2022
1193 Clear 41 1004 6 10000 3.87 357 15:41 31.05.2022
1194 Clear 42 1004 6 10000 3.55 345 14:18 31.05.2022
1195 Clear 39 1005 7 10000 2.4 24 12:21 31.05.2022
1196 Clear 38 1006 7 10000 3.16 45 10:55 31.05.2022
1197 Clear 37 1007 7 10000 4.07 58 09:31 31.05.2022
1198 Clear 33 1009 9 10000 3.1 55 07:28 31.05.2022
1199 Clear 28 1008 12 10000 2 31 05:23 31.05.2022
1200 Clear 26 1007 12 10000 1.53 54 01:41 31.05.2022
1201 Clear 30 1007 11 10000 3.28 25 23:29 30.05.2022
1202 Clear 31 1007 11 10000 3.28 25 22:57 30.05.2022
1203 Clear 31 1007 10 10000 3.46 31 22:21 30.05.2022
1204 Clear 33 1007 10 10000 3.46 31 21:34 30.05.2022
1205 Clear 34 1007 10 10000 4.13 43 20:20 30.05.2022
1206 Clear 37 1005 9 10000 3.95 57 18:41 30.05.2022
1207 Clear 38 1005 9 10000 2.92 47 17:38 30.05.2022
1208 Clear 40 1004 8 10000 3.08 38 16:44 30.05.2022
1209 Clear 40 1005 7 10000 1.39 61 14:51 30.05.2022
1210 Clear 40 1007 7 10000 3.88 149 12:29 30.05.2022
1211 Clear 38 1007 7 10000 4.26 144 10:46 30.05.2022
1212 Clear 37 1008 8 10000 3.69 128 09:39 30.05.2022
1213 Clear 32 1009 11 10000 3.32 124 07:23 30.05.2022
1214 Clear 26 1009 12 10000 3.03 128 05:49 30.05.2022
1215 Clear 28 1008 14 10000 3.35 140 02:24 30.05.2022
1216 Clear 31 1008 12 10000 2.52 92 23:21 29.05.2022
1217 Clear 32 1008 12 10000 2.52 92 22:38 29.05.2022
1218 Clear 34 1008 10 10000 4.07 81 20:57 29.05.2022
1219 Clear 36 1007 10 10000 4.83 70 19:34 29.05.2022
1220 Clear 37 1006 9 10000 4.87 73 18:59 29.05.2022
1221 Clear 38 1005 8 10000 3.61 102 17:31 29.05.2022
1222 Clear 40 1005 7 10000 3.34 95 15:48 29.05.2022
1223 Clear 40 1005 7 10000 3.51 85 15:23 29.05.2022
1224 Clear 40 1006 7 10000 2.44 102 13:59 29.05.2022
1225 Clear 38 1008 8 10000 3.24 147 11:42 29.05.2022
1226 Clear 37 1008 8 10000 3.64 146 10:39 29.05.2022
1227 Clear 35 1010 9 10000 4.11 114 09:31 29.05.2022
1228 Clear 30 1010 13 10000 3.92 112 06:24 29.05.2022
1229 Clear 25 1009 15 10000 3.24 116 04:45 29.05.2022
1230 Clear 27 1009 16 10000 3.15 102 03:53 29.05.2022
1231 Clouds 31 1007 13 10000 4.67 92 23:50 28.05.2022
1232 Clouds 31 1007 12 10000 5.89 96 23:26 28.05.2022
1233 Clouds 32 1007 12 10000 5.88 96 22:40 28.05.2022
1234 Clouds 33 1007 11 10000 7.62 80 21:38 28.05.2022
1235 Clouds 36 1006 10 10000 5.93 78 19:51 28.05.2022
1236 Clouds 37 1004 9 10000 3.64 149 18:58 28.05.2022
1237 Clouds 38 1003 8 10000 4.29 157 17:38 28.05.2022
1238 Clouds 39 1003 7 10000 4.94 166 16:50 28.05.2022
1239 Clear 40 1002 6 10000 5.52 179 15:43 28.05.2022
1240 Clear 39 1003 6 10000 4.56 165 14:28 28.05.2022
1241 Clear 39 1004 7 10000 4.99 140 12:57 28.05.2022
1242 Clear 39 1004 7 10000 4.99 140 12:35 28.05.2022
1243 Clear 37 1006 8 10000 5.51 130 11:22 28.05.2022
1244 Clear 35 1007 9 10000 5.83 152 09:59 28.05.2022
1245 Clear 35 1008 11 10000 6.49 151 09:22 28.05.2022
1246 Clear 32 1009 15 10000 3.8 137 07:23 28.05.2022
1247 Clear 27 1009 17 10000 3.22 127 05:48 28.05.2022
1248 Clear 28 1008 19 10000 2.83 87 02:52 28.05.2022
1249 Clear 30 1007 19 10000 3.37 93 00:33 28.05.2022
1250 Clear 30 1007 16 10000 5.02 86 23:20 27.05.2022
1251 Clear 33 1007 14 10000 5.58 88 21:46 27.05.2022
1252 Clear 34 1007 13 10000 4.69 115 20:56 27.05.2022
1253 Clear 34 1006 13 10000 4.72 137 20:25 27.05.2022
1254 Clear 35 1005 11 10000 5.43 154 19:48 27.05.2022
1255 Clear 35 1005 11 10000 6.52 145 19:29 27.05.2022
1256 Clear 38 1005 10 10000 7.49 137 17:58 27.05.2022
1257 Clear 39 1004 9 10000 7.29 130 16:39 27.05.2022
1258 Clear 39 1004 8 10000 6.12 127 15:33 27.05.2022
1259 Clear 39 1005 8 10000 4.72 126 14:26 27.05.2022
1260 Clear 38 1006 8 10000 5 125 13:18 27.05.2022
1261 Clear 36 1007 8 10000 5.04 145 11:34 27.05.2022
1262 Clear 36 1009 9 10000 5.56 163 10:56 27.05.2022
1263 Clear 36 1009 9 10000 5.56 163 10:31 27.05.2022
1264 Clear 34 1009 10 10000 5.9 157 09:35 27.05.2022
1265 Clear 31 1011 14 10000 5.26 138 07:52 27.05.2022
1266 Clear 26 1011 18 10000 2.35 139 05:44 27.05.2022
1267 Clouds 28 1009 18 10000 4.97 114 02:26 27.05.2022
1268 Clouds 29 1008 16 10000 4.78 116 00:29 27.05.2022
1269 Clouds 32 1008 15 10000 5.03 112 22:39 26.05.2022
1270 Clouds 34 1009 14 10000 4.74 118 21:39 26.05.2022
1271 Clouds 34 1009 13 10000 4.73 154 20:53 26.05.2022
1272 Clear 35 1006 10 10000 7.03 149 19:19 26.05.2022
1273 Clear 36 1006 10 10000 7.11 139 18:18 26.05.2022
1274 Clear 38 1005 8 10000 6.64 133 16:42 26.05.2022
1275 Clear 39 1006 7 10000 5.06 144 15:45 26.05.2022
1276 Clear 39 1006 7 10000 3.84 154 14:28 26.05.2022
1277 Clear 38 1007 8 10000 5.14 131 12:37 26.05.2022
1278 Clear 37 1010 10 10000 4.98 152 11:23 26.05.2022
1279 Clear 37 1010 10 10000 4.98 152 11:23 26.05.2022
1280 Clear 34 1011 11 10000 5.28 161 09:44 26.05.2022
1281 Clear 34 1011 13 10000 5.29 150 09:26 26.05.2022
1282 Clouds 33 1012 15 10000 4.55 140 08:30 26.05.2022
1283 Clear 27 1012 21 10000 3.5 117 04:41 26.05.2022
1284 Clear 29 1010 19 10000 3.6 135 00:38 26.05.2022
1285 Clear 30 1010 18 10000 2.85 125 23:40 25.05.2022
1286 Clear 31 1011 17 10000 4.49 105 21:59 25.05.2022
1287 Clear 31 1011 17 10000 4.49 105 21:32 25.05.2022
1288 Clear 32 1011 16 10000 5.89 104 20:35 25.05.2022
1289 Clear 34 1009 12 10000 5.86 98 19:24 25.05.2022
1290 Clear 36 1009 11 10000 4.36 97 17:43 25.05.2022
1291 Clear 37 1008 9 10000 3.48 112 16:38 25.05.2022
1292 Clear 37 1008 8 10000 3.17 115 15:54 25.05.2022
1293 Clear 37 1008 8 10000 3.16 111 14:51 25.05.2022
1294 Clear 37 1008 8 10000 3.07 105 14:33 25.05.2022
1295 Clear 37 1008 8 10000 3.12 99 13:45 25.05.2022
1296 Clear 36 1009 9 10000 3.14 91 12:38 25.05.2022
1297 Clear 33 1010 10 10000 4.57 76 10:43 25.05.2022
1298 Clear 33 1011 10 10000 4.77 71 10:18 25.05.2022
1299 Clear 33 1011 11 10000 4.81 71 08:37 25.05.2022
1300 Clear 30 1012 14 10000 4.64 62 07:23 25.05.2022
1301 Clear 24 1010 19 10000 3.36 46 04:22 25.05.2022
1302 Clear 28 1010 17 10000 4.02 44 00:19 25.05.2022
1303 Clear 27 1010 17 10000 4.02 44 23:43 24.05.2022
1304 Clear 29 1010 16 10000 4.19 41 22:32 24.05.2022
1305 Clear 30 1010 15 10000 4.32 36 21:40 24.05.2022
1306 Clear 30 1010 14 10000 4.15 41 21:21 24.05.2022
1307 Clear 32 1010 13 10000 4.12 37 19:48 24.05.2022
1308 Clear 33 1008 11 10000 4.41 60 18:56 24.05.2022
1309 Clear 35 1006 9 10000 4.55 54 16:53 24.05.2022
1310 Clear 35 1006 8 10000 3.92 50 16:23 24.05.2022
1311 Clear 36 1006 8 10000 3.32 50 14:58 24.05.2022
1312 Clear 36 1006 8 10000 3.1 50 14:21 24.05.2022
1313 Clear 34 1006 8 10000 3.94 46 12:50 24.05.2022
1314 Clear 34 1006 8 10000 3.94 46 12:50 24.05.2022
1315 Clear 33 1007 8 10000 4.14 41 11:33 24.05.2022
1316 Clear 31 1008 9 10000 5.55 27 09:45 24.05.2022
1317 Clear 30 1009 10 10000 6.01 26 08:50 24.05.2022
1318 Clear 28 1009 12 10000 7.64 27 06:57 24.05.2022
1319 Clear 27 1008 15 10000 5.66 5 04:30 24.05.2022
1320 Clear 29 1006 14 10000 5.5 6 02:37 24.05.2022
1321 Clear 29 1005 15 10000 5.79 6 01:42 24.05.2022
1322 Clear 31 1005 14 10000 7.07 16 23:33 23.05.2022
1323 Clear 33 1004 14 10000 7.58 19 21:57 23.05.2022
1324 Clear 33 1004 14 10000 7.58 19 21:39 23.05.2022
1325 Clear 35 1004 14 10000 7.84 11 20:41 23.05.2022
1326 Clear 36 1003 10 10000 6.5 355 19:33 23.05.2022
1327 Clear 38 1002 8 10000 5.54 326 18:59 23.05.2022
1328 Clear 38 1002 8 10000 5.54 326 18:31 23.05.2022
1329 Clear 40 1000 5 10000 6.1 289 17:24 23.05.2022
1330 Clear 44 999 4 10000 5.63 296 15:37 23.05.2022
1331 Clear 43 1000 4 10000 5.23 283 13:32 23.05.2022
1332 Clear 42 1001 5 10000 5.93 243 11:34 23.05.2022
1333 Clear 41 1002 5 10000 7.59 238 10:42 23.05.2022
1334 Clear 40 1004 6 10000 7.31 214 09:39 23.05.2022
1335 Clear 38 1004 6 10000 8.38 218 08:38 23.05.2022
1336 Clear 30 1005 6 10000 6.07 220 06:47 23.05.2022
1337 Clear 30 1004 8 10000 4.03 192 06:22 23.05.2022
1338 Clear 29 1004 9 10000 3.09 169 02:35 23.05.2022
1339 Clear 31 1004 9 10000 2.86 182 01:42 23.05.2022
1340 Clear 30 1004 9 10000 2.84 174 00:38 23.05.2022
1341 Clear 32 1005 9 10000 2.67 101 22:42 22.05.2022
1342 Clear 34 1005 9 10000 3.38 77 21:55 22.05.2022
1343 Clear 34 1005 9 10000 3.38 77 21:36 22.05.2022
1344 Clear 35 1005 9 10000 4.09 68 20:32 22.05.2022
1345 Clear 37 1005 8 10000 4.99 61 19:57 22.05.2022
1346 Clear 38 1005 7 10000 5.14 45 18:57 22.05.2022
1347 Clear 38 1004 7 10000 4.99 45 18:28 22.05.2022
1348 Clear 40 1004 7 10000 4.99 45 17:39 22.05.2022
1349 Clear 41 1004 6 10000 4.63 37 16:50 22.05.2022
1350 Clear 42 1004 5 10000 3.68 28 14:53 22.05.2022
1351 Clear 43 1004 6 10000 2.42 10 13:56 22.05.2022
1352 Clear 41 1005 6 10000 1.88 360 12:53 22.05.2022
1353 Clear 40 1006 7 10000 0.65 348 11:52 22.05.2022
1354 Clear 37 1008 8 10000 0.91 62 10:27 22.05.2022
1355 Clear 35 1009 9 10000 1.44 57 09:19 22.05.2022
1356 Clear 32 1009 11 10000 3.2 33 07:22 22.05.2022
1357 Clear 30 1009 13 10000 3.17 19 06:27 22.05.2022
1358 Clear 28 1009 16 10000 1.33 8 03:20 22.05.2022
1359 Clear 31 1009 16 10000 2.28 1 00:44 22.05.2022
1360 Clear 31 1009 15 10000 3.03 39 23:56 21.05.2022
1361 Clear 31 1009 14 10000 4.32 44 23:22 21.05.2022
1362 Clear 34 1009 12 10000 5.83 51 21:55 21.05.2022
1363 Clear 34 1009 11 10000 5.43 45 21:26 21.05.2022
1364 Clear 36 1009 9 10000 4.98 48 20:27 21.05.2022
1365 Clear 37 1009 9 10000 4.98 48 19:43 21.05.2022
1366 Clear 40 1007 8 10000 5.26 48 18:31 21.05.2022
1367 Clear 44 1005 6 10000 2.85 35 16:57 21.05.2022
1368 Clear 44 1005 5 10000 2.31 314 14:38 21.05.2022
1369 Clear 43 1005 5 10000 2.22 322 13:54 21.05.2022
1370 Clear 43 1006 5 10000 2.03 317 13:18 21.05.2022
1371 Clear 44 1006 5 10000 2.03 317 12:38 21.05.2022
1372 Clear 41 1007 5 10000 2.07 263 10:53 21.05.2022
1373 Clear 40 1008 6 10000 2.44 240 09:53 21.05.2022
1374 Clear 38 1008 6 10000 2.58 225 08:58 21.05.2022
1375 Clear 38 1008 6 10000 2.58 225 08:35 21.05.2022
1376 Clear 31 1009 12 10000 2.73 183 05:29 21.05.2022
1377 Clear 32 1007 12 10000 2.68 135 01:24 21.05.2022
1378 Clear 33 1008 11 10000 1.52 54 23:29 20.05.2022
1379 Clear 33 1008 10 10000 2.59 234 22:26 20.05.2022
1380 Clear 36 1008 10 10000 2.59 234 21:55 20.05.2022
1381 Clear 36 1008 10 10000 2.75 195 20:58 20.05.2022
1382 Clear 36 1008 10 10000 2.75 195 20:58 20.05.2022
1383 Clear 36 1007 9 10000 2.76 167 20:29 20.05.2022
1384 Clear 37 1006 8 10000 2.94 132 19:30 20.05.2022
1385 Clear 38 1006 8 10000 2.94 132 18:48 20.05.2022
1386 Clear 41 1006 7 10000 3.01 120 17:47 20.05.2022
1387 Clear 42 1006 6 10000 3.06 76 16:21 20.05.2022
1388 Clear 42 1006 6 10000 3.06 76 15:53 20.05.2022
1389 Clear 43 1006 6 10000 2.78 66 14:31 20.05.2022
1390 Clear 43 1006 6 10000 2.34 77 13:56 20.05.2022
1391 Clear 41 1008 7 10000 2.22 129 11:49 20.05.2022
1392 Clear 39 1009 9 10000 2.74 145 10:24 20.05.2022
1393 Clear 35 1010 10 10000 3.02 140 08:58 20.05.2022
1394 Clear 33 1010 11 10000 3.33 135 07:40 20.05.2022
1395 Clear 30 1011 12 10000 3.02 137 06:38 20.05.2022
1396 Clear 26 1010 16 10000 2.39 127 05:28 20.05.2022
1397 Clear 30 1009 15 10000 3.35 87 00:54 20.05.2022
1398 Clear 32 1009 12 10000 3.89 92 23:25 19.05.2022
1399 Clear 33 1009 10 10000 3.49 85 22:26 19.05.2022
1400 Clear 34 1009 10 10000 3.48 85 21:49 19.05.2022
1401 Clear 34 1009 10 10000 0.98 78 21:23 19.05.2022
1402 Clear 35 1009 10 10000 0.98 78 20:40 19.05.2022
1403 Clear 37 1008 9 10000 2.07 166 19:53 19.05.2022
1404 Clear 38 1007 8 10000 3.19 116 18:45 19.05.2022
1405 Clear 40 1007 7 10000 2.98 84 17:31 19.05.2022
1406 Clear 43 1007 6 10000 3.29 28 15:33 19.05.2022
1407 Clear 42 1007 6 10000 2.88 23 14:29 19.05.2022
1408 Clear 42 1007 6 10000 2.73 29 13:50 19.05.2022
1409 Clear 42 1009 7 10000 1.87 29 11:46 19.05.2022
1410 Clear 38 1010 8 10000 0.81 46 09:46 19.05.2022
1411 Clear 36 1011 10 10000 0.52 260 08:27 19.05.2022
1412 Clear 28 1011 11 10000 1.68 171 06:31 19.05.2022
1413 Clear 27 1009 15 10000 3.25 163 02:57 19.05.2022
1414 Clear 30 1009 15 10000 4.54 157 00:47 19.05.2022
1415 Clear 30 1009 13 10000 3.82 107 22:53 18.05.2022
1416 Clear 30 1009 13 10000 3.82 107 22:35 18.05.2022
1417 Clear 32 1010 12 10000 3.86 102 21:31 18.05.2022
1418 Clear 33 1010 11 10000 3.54 89 20:54 18.05.2022
1419 Clear 33 1010 11 10000 3.59 72 20:19 18.05.2022
1420 Clear 36 1008 10 10000 4.18 73 18:43 18.05.2022
1421 Clear 38 1007 9 10000 3.95 68 17:41 18.05.2022
1422 Clear 38 1007 7 10000 2.57 52 17:23 18.05.2022
1423 Clear 39 1007 7 10000 2.2 32 16:35 18.05.2022
1424 Clear 39 1007 7 10000 2.19 32 15:42 18.05.2022
1425 Clear 40 1007 7 10000 1.92 29 14:54 18.05.2022
1426 Clear 40 1007 7 10000 1.35 43 13:47 18.05.2022
1427 Clear 38 1008 7 10000 1.21 58 12:51 18.05.2022
1428 Clear 37 1008 8 10000 0.94 92 11:37 18.05.2022
1429 Clear 37 1009 9 10000 1.15 127 11:19 18.05.2022
1430 Clear 33 1010 9 10000 1.6 121 09:57 18.05.2022
1431 Clear 30 1011 12 10000 1.82 110 07:55 18.05.2022
1432 Clear 27 1011 13 10000 1.73 96 06:49 18.05.2022
1433 Clear 24 1010 17 10000 1.93 25 02:23 18.05.2022
1434 Clear 27 1010 16 10000 2.59 24 00:26 18.05.2022
1435 Clear 28 1010 16 10000 2.84 31 22:47 17.05.2022
1436 Clear 30 1011 15 10000 3.81 34 21:20 17.05.2022
1437 Clear 32 1010 14 10000 4.26 29 20:29 17.05.2022
1438 Clear 33 1009 12 10000 4.96 36 19:28 17.05.2022
1439 Clear 36 1008 11 10000 5.32 33 17:52 17.05.2022
1440 Clear 36 1007 10 10000 6.48 29 17:18 17.05.2022
1441 Clear 37 1007 10 10000 6.48 29 16:34 17.05.2022
1442 Clear 37 1007 10 10000 6.54 27 15:32 17.05.2022
1443 Clear 38 1007 9 10000 5.85 26 14:31 17.05.2022
1444 Clear 37 1008 9 10000 3.58 34 13:38 17.05.2022
1445 Clear 36 1009 9 10000 3 44 12:23 17.05.2022
1446 Clear 31 1010 10 10000 3.26 71 09:53 17.05.2022
1447 Clear 30 1011 10 10000 3.76 72 08:43 17.05.2022
1448 Clear 28 1012 14 10000 4.92 31 06:52 17.05.2022
1449 Clear 27 1010 16 10000 4.21 345 04:24 17.05.2022
1450 Clear 29 1009 8 10000 3.56 323 00:46 17.05.2022
1451 Clear 29 1010 7 10000 2.31 169 22:44 16.05.2022
1452 Clear 29 1010 7 10000 2.04 129 22:18 16.05.2022
1453 Clear 32 1010 7 10000 2.12 98 20:49 16.05.2022
1454 Clear 34 1010 6 10000 2.84 98 19:57 16.05.2022
1455 Clear 36 1008 6 10000 4.15 78 18:21 16.05.2022
1456 Clear 39 1007 5 10000 6.82 48 16:28 16.05.2022
1457 Clear 40 1007 4 10000 6.78 46 14:42 16.05.2022
1458 Clear 40 1008 5 10000 6.76 48 13:25 16.05.2022
1459 Clear 38 1008 5 10000 6.78 50 11:33 16.05.2022
1460 Clear 35 1010 6 10000 6.5 47 09:58 16.05.2022
1461 Clear 29 1012 8 10000 3.69 358 07:21 16.05.2022
1462 Clear 20 1012 10 10000 2.9 335 05:23 16.05.2022
1463 Clear 26 1011 9 10000 2.95 333 23:56 15.05.2022
1464 Clear 26 1011 8 10000 2.7 349 22:34 15.05.2022
1465 Clear 28 1012 8 10000 2.73 0 21:48 15.05.2022
1466 Clear 28 1012 7 10000 3.04 8 21:19 15.05.2022
1467 Clear 31 1011 6 10000 3.66 16 19:56 15.05.2022
1468 Clear 36 1010 5 10000 4.44 16 17:52 15.05.2022
1469 Clear 36 1009 4 10000 5.05 19 16:35 15.05.2022
1470 Clear 37 1009 4 10000 6.79 14 14:18 15.05.2022
1471 Clear 36 1010 4 10000 7.03 14 13:27 15.05.2022
1472 Clear 35 1010 4 10000 7.23 10 11:55 15.05.2022
1473 Clear 33 1011 5 10000 7.47 12 10:35 15.05.2022
1474 Clear 30 1012 7 10000 8.42 7 08:52 15.05.2022
1475 Clear 24 1013 11 10000 8.46 354 06:59 15.05.2022
1476 Clear 24 1013 11 10000 8.46 354 06:38 15.05.2022
1477 Clear 24 1012 12 10000 6.72 334 01:43 15.05.2022
1478 Clear 25 1012 11 10000 6.3 335 23:52 14.05.2022
1479 Clear 25 1012 10 10000 6.21 332 23:33 14.05.2022
1480 Clear 27 1012 9 10000 6.04 332 21:43 14.05.2022
1481 Clear 27 1012 8 10000 5.86 338 21:18 14.05.2022
1482 Clear 30 1012 7 10000 5.89 345 19:40 14.05.2022
1483 Clear 30 1011 6 10000 5.79 351 19:20 14.05.2022
1484 Clear 31 1011 6 10000 5.79 351 18:47 14.05.2022
1485 Clear 32 1010 5 10000 9.37 350 17:28 14.05.2022
1486 Clear 34 1009 7 10000 11.47 343 15:34 14.05.2022
1487 Clear 35 1009 7 10000 11.47 343 14:34 14.05.2022
1488 Clear 35 1010 8 10000 11.35 340 12:49 14.05.2022
1489 Clear 33 1011 9 10000 11.45 338 11:37 14.05.2022
1490 Clear 32 1012 11 10000 11.16 335 10:22 14.05.2022
1491 Clear 31 1012 11 10000 11.16 335 09:54 14.05.2022
1492 Clear 29 1013 12 10000 10.45 333 08:49 14.05.2022
1493 Clear 24 1014 15 10000 7.2 334 06:52 14.05.2022
1494 Clear 23 1013 17 10000 5.22 344 03:27 14.05.2022
1495 Clear 26 1012 17 10000 4.93 344 23:45 13.05.2022
1496 Clear 26 1013 16 10000 4.42 345 23:18 13.05.2022
1497 Clear 28 1013 16 10000 4.42 345 22:43 13.05.2022
1498 Clear 28 1013 15 10000 4.56 348 22:18 13.05.2022
1499 Clear 30 1013 14 10000 5.02 350 20:49 13.05.2022
1500 Clear 30 1013 13 10000 5.9 356 20:27 13.05.2022
1501 Clear 31 1013 13 10000 5.9 356 19:34 13.05.2022
1502 Clear 34 1011 11 10000 7.29 357 17:53 13.05.2022
1503 Clear 34 1010 9 10000 7.99 353 17:29 13.05.2022
1504 Clear 36 1010 8 10000 8.92 347 16:21 13.05.2022
1505 Clear 37 1010 8 10000 8.92 347 15:39 13.05.2022
1506 Clear 37 1010 8 10000 9.1 344 13:54 13.05.2022
1507 Clear 37 1011 7 10000 8.67 341 12:32 13.05.2022
1508 Clear 37 1011 7 10000 8.67 341 12:32 13.05.2022
1509 Clear 35 1013 8 10000 7.51 342 11:23 13.05.2022
1510 Clear 32 1014 8 10000 7.17 350 09:35 13.05.2022
1511 Clear 31 1014 9 10000 7.18 357 08:49 13.05.2022
1512 Clear 28 1015 9 10000 7.71 2 07:48 13.05.2022
1513 Clear 26 1015 10 10000 7.26 4 06:33 13.05.2022
1514 Clear 26 1015 10 10000 7.26 4 06:33 13.05.2022
1515 Clear 26 1015 10 10000 7.26 4 06:33 13.05.2022
1516 Clear 26 1014 14 10000 4.38 2 03:34 13.05.2022
1517 Clear 28 1012 14 10000 4.6 355 00:39 13.05.2022
1518 Clear 29 1012 13 10000 3.78 354 22:45 12.05.2022
1519 Clear 30 1013 12 10000 3.83 6 21:56 12.05.2022
1520 Clear 32 1012 11 10000 4.95 36 20:29 12.05.2022
1521 Clear 34 1011 10 10000 4.87 28 18:59 12.05.2022
1522 Clear 36 1010 8 10000 4.79 18 17:24 12.05.2022
1523 Clear 38 1010 7 10000 4.7 13 16:18 12.05.2022
1524 Clear 37 1010 7 10000 4.38 15 14:41 12.05.2022
1525 Clear 37 1010 7 10000 3.58 23 13:46 12.05.2022
1526 Clear 35 1012 9 10000 3.06 76 10:52 12.05.2022
1527 Clear 34 1012 9 10000 3.45 81 09:30 12.05.2022
1528 Clear 32 1013 10 10000 3.8 92 08:51 12.05.2022
1529 Clear 30 1014 10 10000 4.44 81 07:40 12.05.2022
1530 Clear 27 1014 15 10000 3.44 64 06:19 12.05.2022
1531 Clear 26 1012 19 10000 2.8 44 02:58 12.05.2022
1532 Clear 28 1012 17 10000 5.91 38 00:36 12.05.2022
1533 Clear 32 1011 14 10000 7.8 32 22:36 11.05.2022
1534 Clear 33 1010 13 10000 8.77 36 21:50 11.05.2022
1535 Clear 33 1010 13 10000 9.04 19 21:24 11.05.2022
1536 Clear 37 1008 11 10000 3.71 19 18:49 11.05.2022
1537 Clear 40 1007 8 10000 3.04 338 16:55 11.05.2022
1538 Clear 41 1006 8 10000 1.05 317 15:38 11.05.2022
1539 Clear 40 1006 8 10000 1.07 187 14:39 11.05.2022
1540 Clear 40 1007 9 10000 2.02 233 14:18 11.05.2022
1541 Clear 37 1008 10 10000 4.93 243 11:54 11.05.2022
1542 Clear 37 1009 11 10000 4.02 215 11:19 11.05.2022
1543 Clear 33 1011 12 10000 5.5 174 08:40 11.05.2022
1544 Clear 25 1012 15 10000 4.85 160 05:31 11.05.2022
1545 Clear 28 1010 14 10000 2.92 116 00:45 11.05.2022
1546 Clear 30 1010 14 10000 4.43 115 22:32 10.05.2022
1547 Clear 31 1010 14 10000 4.43 115 21:57 10.05.2022
1548 Clear 32 1010 14 10000 3.88 104 20:58 10.05.2022
1549 Clear 32 1009 13 10000 3.96 113 19:47 10.05.2022
1550 Clear 35 1009 12 10000 4.39 92 17:59 10.05.2022
1551 Clear 35 1009 12 10000 4.39 92 17:34 10.05.2022
1552 Clear 36 1009 10 10000 2.49 90 15:41 10.05.2022
1553 Clear 35 1010 10 10000 2.87 166 12:47 10.05.2022
1554 Clear 34 1011 10 10000 3.57 164 11:51 10.05.2022
1555 Clear 34 1011 10 10000 3.96 150 11:21 10.05.2022
1556 Clear 33 1011 10 10000 3.96 150 10:54 10.05.2022
1557 Clear 31 1013 10 10000 3.76 129 09:26 10.05.2022
1558 Clear 29 1013 11 10000 3.38 83 07:26 10.05.2022
1559 Clear 22 1014 17 10000 3.21 51 04:34 10.05.2022
1560 Clear 24 1013 17 10000 3.23 49 01:34 10.05.2022
1561 Clear 27 1012 15 10000 4.14 51 23:26 09.05.2022
1562 Clear 28 1012 15 10000 4.13 56 21:58 09.05.2022
1563 Clear 28 1012 14 10000 3.79 71 21:21 09.05.2022
1564 Clear 31 1011 13 10000 4.89 68 19:37 09.05.2022
1565 Clear 33 1010 12 10000 2.8 53 17:56 09.05.2022
1566 Clear 34 1010 11 10000 2.28 29 16:49 09.05.2022
1567 Clear 35 1010 10 10000 1.57 4 15:53 09.05.2022
1568 Clear 35 1010 10 10000 1.57 4 15:31 09.05.2022
1569 Clear 34 1010 10 10000 1.38 12 14:32 09.05.2022
1570 Clear 34 1010 10 10000 1.43 41 13:50 09.05.2022
1571 Clear 33 1011 10 10000 1.77 46 12:30 09.05.2022
1572 Clear 32 1011 10 10000 1.95 51 11:43 09.05.2022
1573 Clear 30 1012 11 10000 2.33 64 10:44 09.05.2022
1574 Clear 29 1013 12 10000 2.54 63 09:38 09.05.2022
1575 Clear 25 1014 15 10000 2.95 85 07:55 09.05.2022
1576 Clear 20 1013 25 10000 2.05 77 04:33 09.05.2022
1577 Clear 20 1013 25 10000 2.05 77 04:33 09.05.2022
1578 Clear 20 1013 25 10000 2.05 77 04:33 09.05.2022
1579 Clear 25 1012 23 10000 4.2 55 00:21 09.05.2022
1580 Clear 26 1012 22 10000 4.94 65 22:57 08.05.2022
1581 Clear 26 1012 17 10000 6.27 64 22:22 08.05.2022
1582 Clear 29 1012 14 10000 6.74 53 20:37 08.05.2022
1583 Clear 30 1011 13 10000 7.04 54 19:53 08.05.2022
1584 Clear 31 1011 12 10000 6.38 52 18:57 08.05.2022
1585 Clear 31 1010 11 10000 5.03 41 18:24 08.05.2022
1586 Clear 33 1009 9 10000 4.28 29 16:59 08.05.2022
1587 Clear 34 1009 8 10000 3.62 19 15:41 08.05.2022
1588 Clear 34 1009 8 10000 3.6 19 15:20 08.05.2022
1589 Clear 34 1009 8 10000 3.6 19 15:20 08.05.2022
1590 Clear 33 1009 9 10000 3.34 22 12:41 08.05.2022
1591 Clear 30 1011 11 10000 3.61 45 10:34 08.05.2022
1592 Clear 29 1012 12 10000 3.85 52 09:59 08.05.2022
1593 Clear 29 1012 12 10000 3.85 52 09:33 08.05.2022
1594 Clear 25 1013 16 10000 5.07 62 07:33 08.05.2022
1595 Clear 22 1011 23 10000 3.75 26 04:20 08.05.2022
1596 Clear 23 1011 22 10000 4.55 29 03:19 08.05.2022
1597 Clear 24 1010 23 10000 6.81 27 00:28 08.05.2022
1598 Clear 25 1010 23 10000 6.81 27 23:53 07.05.2022
1599 Clear 26 1010 21 10000 7.4 24 22:51 07.05.2022
1600 Clear 26 1010 21 10000 7.4 24 22:33 07.05.2022
1601 Clear 27 1010 19 10000 7.86 23 21:34 07.05.2022
1602 Clear 29 1010 18 10000 7.04 23 20:42 07.05.2022
1603 Clear 30 1008 17 10000 7.19 17 19:58 07.05.2022
1604 Clear 33 1007 16 10000 6.5 17 17:43 07.05.2022
1605 Clear 35 1005 14 10000 6.95 19 15:51 07.05.2022
1606 Clear 35 1005 14 10000 4.46 10 14:19 07.05.2022
1607 Clouds 32 1007 15 10000 4.11 28 10:56 07.05.2022
1608 Clouds 30 1008 19 10000 5.07 23 09:22 07.05.2022
1609 Clouds 28 1008 24 10000 5.27 359 07:52 07.05.2022
1610 Clouds 27 1008 27 10000 5.06 349 06:43 07.05.2022
1611 Clouds 26 1007 32 10000 2.36 336 04:59 07.05.2022
1612 Clouds 27 1005 28 10000 3.05 341 01:46 07.05.2022
1613 Clouds 29 1006 23 10000 2.33 344 23:38 06.05.2022
1614 Clouds 30 1006 22 10000 1.47 357 22:31 06.05.2022
1615 Clear 31 1005 19 10000 4 335 21:43 06.05.2022
1616 Clear 34 1005 17 10000 5.22 333 20:35 06.05.2022
1617 Clouds 35 1004 14 10000 4.93 311 19:31 06.05.2022
1618 Clouds 37 1003 14 10000 2.83 282 19:00 06.05.2022
1619 Clouds 37 1003 12 10000 3.58 152 18:19 06.05.2022
1620 Clouds 36 1003 12 10000 3.62 152 16:44 06.05.2022
1621 Clouds 38 1003 12 10000 3.07 172 15:41 06.05.2022
1622 Clouds 39 1003 11 10000 3.52 268 14:50 06.05.2022
1623 Clouds 38 1002 7 10000 3.41 192 12:56 06.05.2022
1624 Clouds 40 1002 7 10000 3.41 192 12:37 06.05.2022
1625 Clouds 39 1003 8 10000 3.11 136 11:42 06.05.2022
1626 Clouds 39 1006 10 10000 2.49 159 10:30 06.05.2022
1627 Clouds 36 1006 10 10000 2.49 159 09:45 06.05.2022
1628 Clouds 35 1006 11 10000 1.54 158 08:27 06.05.2022
1629 Clouds 30 1006 15 10000 4.87 140 06:46 06.05.2022
1630 Clouds 29 1006 18 10000 2.04 80 04:53 06.05.2022
1631 Clouds 30 1006 17 10000 2.69 48 02:45 06.05.2022
1632 Clouds 31 1007 16 10000 5.4 341 00:19 06.05.2022
1633 Clouds 35 1006 13 10000 3.07 352 21:56 05.05.2022
1634 Clouds 35 1006 13 10000 2.17 228 21:19 05.05.2022
1635 Clouds 38 1006 11 10000 5.49 229 19:53 05.05.2022
1636 Clouds 39 1004 8 10000 2.05 315 18:26 05.05.2022
1637 Clear 40 1003 6 10000 6.76 292 16:20 05.05.2022
1638 Clouds 41 1003 6 10000 6.9 285 14:49 05.05.2022
1639 Clear 41 1004 7 10000 6.07 247 13:22 05.05.2022
1640 Clear 41 1005 7 10000 6.51 228 12:25 05.05.2022
1641 Clear 39 1007 8 10000 7.5 241 10:37 05.05.2022
1642 Clear 38 1008 9 10000 8.91 247 09:39 05.05.2022
1643 Clouds 35 1009 12 10000 10.06 249 07:34 05.05.2022
1644 Clear 29 1008 16 10000 3.5 234 04:28 05.05.2022
1645 Clear 29 1007 14 10000 2.13 216 01:50 05.05.2022
1646 Clear 29 1007 14 10000 3.91 252 01:24 05.05.2022
1647 Clear 32 1007 13 10000 4.15 266 23:47 04.05.2022
1648 Clouds 32 1008 13 10000 4.11 265 22:30 04.05.2022
1649 Clouds 33 1008 12 10000 3.27 231 21:49 04.05.2022
1650 Clouds 33 1009 12 10000 1.69 211 21:26 04.05.2022
1651 Clouds 34 1008 11 10000 0.67 11 20:22 04.05.2022
1652 Clouds 36 1008 11 10000 0.67 11 19:51 04.05.2022
1653 Clouds 38 1007 10 10000 0.64 305 18:54 04.05.2022
1654 Clouds 38 1007 10 10000 0.87 273 18:22 04.05.2022
1655 Clouds 39 1007 10 10000 0.87 273 17:30 04.05.2022
1656 Clear 40 1006 7 10000 2.96 276 15:38 04.05.2022
1657 Clear 40 1006 7 10000 2.95 264 15:20 04.05.2022
1658 Clear 40 1007 7 10000 3.95 261 14:20 04.05.2022
1659 Clear 39 1007 7 10000 6.58 258 13:20 04.05.2022
1660 Clear 39 1008 8 10000 7.14 248 12:29 04.05.2022
1661 Clear 36 1009 8 10000 5.87 226 10:40 04.05.2022
1662 Clear 34 1010 9 10000 5.5 199 09:40 04.05.2022
1663 Clear 32 1012 13 10000 7.33 175 08:34 04.05.2022
1664 Clear 25 1012 17 10000 4.65 178 05:53 04.05.2022
1665 Clear 25 1011 18 10000 3.69 154 02:49 04.05.2022
1666 Clear 27 1011 16 10000 2.72 93 23:58 03.05.2022
1667 Clear 28 1011 16 10000 2.84 70 22:30 03.05.2022
1668 Clear 29 1012 16 10000 3.35 59 21:36 03.05.2022
1669 Clear 31 1011 15 10000 4.19 53 20:53 03.05.2022
1670 Clear 32 1011 13 10000 4.32 31 19:45 03.05.2022
1671 Clear 33 1010 11 10000 3.66 4 18:50 03.05.2022
1672 Clear 33 1010 11 10000 3.66 4 18:50 03.05.2022
1673 Clear 35 1009 11 10000 3.81 358 17:45 03.05.2022
1674 Clear 36 1008 9 10000 4.23 346 16:37 03.05.2022
1675 Clear 37 1008 8 10000 4.29 336 15:32 03.05.2022
1676 Clear 36 1009 9 10000 2.39 332 12:47 03.05.2022
1677 Clear 36 1010 10 10000 1.69 312 12:27 03.05.2022
1678 Clear 35 1011 10 10000 0.96 267 10:57 03.05.2022
1679 Clear 32 1012 12 10000 1.45 171 09:21 03.05.2022
1680 Clear 25 1012 16 10000 1.7 135 06:46 03.05.2022
1681 Clear 21 1012 17 10000 1.24 114 05:56 03.05.2022
1682 Clear 26 1009 17 10000 4.19 4 00:19 03.05.2022
1683 Clear 27 1009 15 10000 3.95 0 22:36 02.05.2022
1684 Clear 28 1010 14 10000 4.1 10 21:51 02.05.2022
1685 Clear 29 1010 13 10000 3.9 25 20:51 02.05.2022
1686 Clear 31 1009 12 10000 4.2 12 18:37 02.05.2022
1687 Clear 33 1008 11 10000 4.04 9 17:57 02.05.2022
1688 Clear 33 1008 11 10000 4.04 9 17:34 02.05.2022
1689 Clear 34 1007 9 10000 3.77 4 16:21 02.05.2022
1690 Clear 35 1007 8 10000 3.33 1 15:29 02.05.2022
1691 Clear 35 1007 8 10000 3.37 2 13:50 02.05.2022
1692 Clear 35 1008 8 10000 3.8 13 12:19 02.05.2022
1693 Clear 32 1009 8 10000 4.23 15 10:38 02.05.2022
1694 Clear 28 1010 9 10000 4.18 17 08:49 02.05.2022
1695 Clear 27 1010 9 10000 4.75 35 07:40 02.05.2022
1696 Clear 25 1009 18 10000 3.25 23 03:48 02.05.2022
1697 Clouds 28 1007 16 10000 2.23 0 00:24 02.05.2022
1698 Clouds 28 1007 16 10000 2.23 0 23:47 01.05.2022
1699 Clouds 29 1006 14 10000 3.63 66 22:20 01.05.2022
1700 Clear 31 1007 13 10000 4.05 47 21:19 01.05.2022
1701 Clear 33 1007 12 10000 5.5 21 19:51 01.05.2022
1702 Clear 35 1006 12 10000 4.96 352 18:57 01.05.2022
1703 Clear 35 1006 11 10000 5.3 340 18:27 01.05.2022
1704 Clear 36 1005 9 10000 6.76 324 17:26 01.05.2022
1705 Clear 38 1005 9 10000 8.41 308 16:23 01.05.2022
1706 Clear 39 1005 9 10000 8.76 299 15:24 01.05.2022
1707 Clear 38 1005 9 10000 9.17 299 13:42 01.05.2022
1708 Clear 37 1007 11 10000 8.43 264 11:18 01.05.2022
1709 Clear 30 1009 14 10000 6.05 217 08:53 01.05.2022
1710 Clear 28 1010 17 10000 5.32 191 07:55 01.05.2022
1711 Clear 23 1009 28 10000 2.47 185 03:31 01.05.2022
1712 Clear 24 1010 27 10000 1.7 18 23:49 30.04.2022
1713 Clear 26 1011 24 10000 3.4 24 21:47 30.04.2022
1714 Clear 28 1011 23 10000 4.52 19 20:45 30.04.2022
1715 Clear 30 1011 20 10000 5.11 6 19:41 30.04.2022
1716 Clear 33 1010 16 10000 4.97 347 17:45 30.04.2022
1717 Clear 35 1009 13 10000 6.23 335 16:42 30.04.2022
1718 Clear 36 1009 13 10000 6.53 325 15:46 30.04.2022
1719 Clear 35 1009 13 10000 7.22 320 14:43 30.04.2022
1720 Clear 33 1009 12 10000 8.03 303 12:42 30.04.2022
1721 Clear 32 1010 13 10000 7.08 296 11:33 30.04.2022
1722 Clear 30 1011 17 10000 6.3 271 10:43 30.04.2022
1723 Clear 28 1013 27 10000 2.98 260 09:25 30.04.2022
1724 Clear 21 1013 35 10000 2.87 221 06:43 30.04.2022
1725 Clouds 21 1012 49 10000 3.34 156 01:53 30.04.2022
1726 Clouds 21 1012 48 10000 3.57 155 23:37 29.04.2022
1727 Clouds 21 1013 47 10000 4.15 157 22:31 29.04.2022
1728 Clouds 21 1013 46 10000 6.51 125 21:34 29.04.2022
1729 Clouds 21 1013 46 10000 6.5 125 20:40 29.04.2022
1730 Clouds 22 1013 35 10000 3.08 72 19:45 29.04.2022
1731 Clouds 26 1010 26 10000 3.97 117 17:55 29.04.2022
1732 Clouds 26 1010 24 10000 4.88 105 17:21 29.04.2022
1733 Clear 27 1010 23 10000 3.01 110 15:23 29.04.2022
1734 Clouds 28 1010 24 10000 1.68 134 14:22 29.04.2022
1735 Clouds 27 1011 24 10000 2.78 149 12:52 29.04.2022
1736 Clouds 26 1012 25 10000 3.62 149 11:40 29.04.2022
1737 Clouds 22 1014 31 10000 5.44 134 08:46 29.04.2022
1738 Clouds 20 1013 41 10000 4.53 164 07:27 29.04.2022
1739 Clouds 21 1013 41 10000 4.53 164 06:38 29.04.2022
1740 Clouds 21 1013 59 10000 4.35 95 04:43 29.04.2022
1741 Clouds 21 1014 50 10000 1.63 17 00:19 29.04.2022
1742 Clouds 21 1013 49 10000 5.1 324 23:27 28.04.2022
1743 Clouds 21 1013 49 10000 5.1 324 22:41 28.04.2022
1744 Clouds 21 1012 49 10000 2.2 290 21:47 28.04.2022
1745 Clouds 20 1013 48 10000 1.08 252 20:57 28.04.2022
1746 Clouds 20 1012 50 10000 2.54 21 20:24 28.04.2022
1747 Clouds 20 1011 53 10000 6.88 55 19:41 28.04.2022
1748 Clouds 20 1012 56 10000 7.07 24 19:21 28.04.2022
1749 Clouds 20 1012 56 10000 7.07 24 18:35 28.04.2022
1750 Rain 20 1013 66 10000 9.98 338 17:20 28.04.2022
1751 Rain 24 1013 66 10000 9.98 338 16:40 28.04.2022
1752 Rain 24 1012 69 8196 12.4 331 16:18 28.04.2022
1753 Clouds 23 1008 34 10000 7.83 314 15:27 28.04.2022
1754 Clouds 23 1008 34 10000 7.83 314 15:27 28.04.2022
1755 Clouds 28 1006 16 10000 9.67 158 13:44 28.04.2022
1756 Clouds 29 1007 16 10000 9.66 165 12:44 28.04.2022
1757 Clouds 30 1008 17 10000 6.88 168 11:56 28.04.2022
1758 Clouds 29 1008 19 10000 6.86 168 10:44 28.04.2022
1759 Clouds 27 1009 23 10000 2.44 136 09:52 28.04.2022
1760 Clouds 25 1009 28 10000 2.9 64 08:31 28.04.2022
1761 Clouds 22 1010 36 10000 4.73 26 06:59 28.04.2022
1762 Clouds 23 1011 45 10000 8.23 356 05:55 28.04.2022
1763 Clouds 23 1011 45 10000 8.23 356 05:37 28.04.2022
1764 Clouds 23 1011 49 10000 9.17 329 04:38 28.04.2022
1765 Clouds 28 1007 22 10000 2.67 172 00:22 28.04.2022
1766 Clouds 30 1007 20 10000 3.91 170 22:38 27.04.2022
1767 Clouds 31 1007 20 10000 4.38 154 21:52 27.04.2022
1768 Clouds 31 1008 20 10000 6.38 162 20:59 27.04.2022
1769 Clouds 31 1008 20 10000 6.38 162 20:35 27.04.2022
1770 Clouds 31 1008 22 10000 9.6 158 19:37 27.04.2022
1771 Clouds 32 1008 24 10000 10.02 167 18:56 27.04.2022
1772 Clouds 32 1007 25 10000 9.62 188 18:22 27.04.2022
1773 Clouds 35 1005 14 10000 7.02 127 16:29 27.04.2022
1774 Clouds 35 1005 13 10000 5.73 119 14:31 27.04.2022
1775 Clouds 33 1006 12 10000 4.33 185 11:45 27.04.2022
1776 Clear 33 1008 13 10000 5.12 168 11:20 27.04.2022
1777 Clear 28 1010 20 10000 7.35 169 08:58 27.04.2022
1778 Clear 25 1011 30 10000 6.38 153 07:18 27.04.2022
1779 Clear 22 1010 43 10000 4.23 125 04:21 27.04.2022
1780 Clouds 23 1009 42 10000 3.61 125 01:32 27.04.2022
1781 Clouds 23 1009 41 10000 3.39 108 00:36 27.04.2022
1782 Clouds 23 1010 38 10000 4.01 73 23:25 26.04.2022
1783 Clouds 23 1010 38 10000 4.01 73 22:58 26.04.2022
1784 Clouds 23 1010 38 10000 4.01 73 22:39 26.04.2022
1785 Clouds 24 1009 29 10000 3.86 113 21:26 26.04.2022
1786 Clouds 24 1009 29 10000 3.86 113 21:26 26.04.2022
1787 Clouds 24 1009 29 10000 3.86 113 21:26 26.04.2022
1788 Clouds 25 1009 29 10000 3.86 113 20:41 26.04.2022
1789 Clouds 28 1009 29 10000 3.78 108 19:49 26.04.2022
1790 Clouds 28 1007 28 10000 4.15 85 19:30 26.04.2022
1791 Clouds 31 1007 28 10000 4.15 85 18:44 26.04.2022
1792 Clouds 32 1006 24 10000 5.72 108 17:54 26.04.2022
1793 Clouds 33 1005 15 10000 5.22 244 16:28 26.04.2022
1794 Clouds 33 1005 16 10000 4.59 224 13:59 26.04.2022
1795 Clouds 33 1005 16 10000 4.59 224 13:31 26.04.2022
1796 Clear 31 1008 21 10000 5.51 233 11:48 26.04.2022
1797 Clear 30 1009 24 10000 5.55 227 10:31 26.04.2022
1798 Clear 26 1011 27 10000 4.94 228 08:47 26.04.2022
1799 Clouds 22 1011 38 10000 5.49 181 06:57 26.04.2022
1800 Clouds 21 1011 46 10000 3.98 202 04:23 26.04.2022
1801 Clouds 23 1010 45 10000 4.21 219 00:57 26.04.2022
1802 Clouds 23 1010 46 10000 5.85 203 00:20 26.04.2022
1803 Clouds 21 1011 42 10000 9.51 204 22:19 25.04.2022
1804 Clouds 23 1011 34 10000 9.63 182 21:33 25.04.2022
1805 Clouds 22 1011 34 10000 9.63 182 20:34 25.04.2022
1806 Clouds 24 1010 40 10000 10.36 188 18:54 25.04.2022
1807 Clouds 25 1009 30 10000 5.85 185 17:43 25.04.2022
1808 Clouds 24 1008 28 10000 4.59 173 16:51 25.04.2022
1809 Clouds 25 1009 32 10000 8.07 189 15:23 25.04.2022
1810 Clouds 23 1009 32 10000 8.13 190 14:34 25.04.2022
1811 Clouds 20 1010 38 10000 12.11 208 13:30 25.04.2022
1812 Rain 23 1010 41 10000 9.06 212 11:37 25.04.2022
1813 Clouds 24 1010 32 10000 4.31 218 09:55 25.04.2022
1814 Clouds 22 1011 37 10000 4.04 215 08:33 25.04.2022
1815 Clouds 20 1012 49 10000 3.67 304 06:27 25.04.2022
1816 Clouds 23 1011 45 10000 5.28 286 02:20 25.04.2022
1817 Clouds 24 1011 44 10000 8.58 321 23:58 24.04.2022
1818 Clouds 24 1011 44 10000 8.58 321 23:30 24.04.2022
1819 Clouds 24 1011 36 10000 8.17 324 22:40 24.04.2022
1820 Clouds 29 1010 19 10000 8.73 295 21:58 24.04.2022
1821 Clouds 29 1008 17 10000 4.84 53 21:23 24.04.2022
1822 Clouds 28 1008 17 10000 4.84 53 20:47 24.04.2022
1823 Clouds 28 1008 17 10000 4.84 53 20:47 24.04.2022
1824 Clouds 28 1007 16 10000 8.56 65 20:21 24.04.2022
1825 Clouds 29 1005 13 10000 6.75 116 18:58 24.04.2022
1826 Clouds 30 1004 13 10000 5.41 120 17:55 24.04.2022
1827 Clouds 30 1004 12 10000 5.4 128 17:22 24.04.2022
1828 Clouds 30 1004 12 10000 5.4 128 16:56 24.04.2022
1829 Clouds 30 1004 12 10000 6.16 140 16:29 24.04.2022
1830 Clouds 30 1004 12 10000 6.16 140 16:29 24.04.2022
1831 Clouds 31 1004 12 10000 6.16 140 15:52 24.04.2022
1832 Clouds 32 1005 11 10000 6.49 151 14:40 24.04.2022
1833 Clouds 32 1005 11 10000 7.56 154 13:38 24.04.2022
1834 Clouds 32 1006 12 10000 6.72 153 13:18 24.04.2022
1835 Clouds 32 1007 12 10000 4.96 153 11:50 24.04.2022
1836 Clouds 33 1008 14 10000 6.47 151 10:59 24.04.2022
1837 Clouds 31 1009 14 10000 7.41 149 09:47 24.04.2022
1838 Clouds 30 1010 17 10000 5.64 129 08:18 24.04.2022
1839 Clouds 27 1010 22 10000 2.75 49 05:46 24.04.2022
1840 Clouds 26 1008 23 10000 4.78 152 02:48 24.04.2022
1841 Clouds 28 1007 23 10000 6.1 147 00:47 24.04.2022
1842 Clouds 30 1008 22 10000 5.94 143 23:55 23.04.2022
1843 Clouds 30 1008 20 10000 6.84 146 23:25 23.04.2022
1844 Clouds 30 1008 20 10000 6.84 146 22:39 23.04.2022
1845 Clouds 30 1008 19 10000 7.06 141 21:41 23.04.2022
1846 Clouds 30 1008 18 10000 6.31 149 21:22 23.04.2022
1847 Clouds 32 1008 16 10000 6.05 134 19:56 23.04.2022
1848 Clear 32 1007 14 10000 6.01 139 19:20 23.04.2022
1849 Clear 33 1007 14 10000 6.01 139 18:54 23.04.2022
1850 Clear 33 1007 14 10000 6.01 139 18:32 23.04.2022
1851 Clear 34 1007 13 10000 6.54 140 17:46 23.04.2022
1852 Clear 35 1006 12 10000 7.12 136 16:45 23.04.2022
1853 Clear 36 1006 11 10000 6.44 146 15:43 23.04.2022
1854 Clouds 35 1008 11 10000 7.91 135 13:24 23.04.2022
1855 Clouds 32 1009 13 10000 8.27 119 11:29 23.04.2022
1856 Clouds 30 1011 16 10000 5.61 98 09:41 23.04.2022
1857 Clouds 25 1013 14 10000 2.48 17 07:52 23.04.2022
1858 Clouds 24 1011 16 10000 3.12 21 03:57 23.04.2022
1859 Clouds 24 1011 15 10000 3.42 316 02:36 23.04.2022
1860 Clouds 25 1011 13 10000 2.51 70 23:34 22.04.2022
1861 Clouds 25 1011 13 10000 2.51 70 22:43 22.04.2022
1862 Clouds 26 1011 13 10000 2.91 59 21:56 22.04.2022
1863 Clouds 26 1011 13 10000 2.91 59 21:56 22.04.2022
1864 Clouds 26 1011 13 10000 2.91 59 21:38 22.04.2022
1865 Clouds 27 1012 13 10000 4 67 20:30 22.04.2022
1866 Clouds 28 1009 15 10000 6.47 76 19:24 22.04.2022
1867 Clouds 29 1009 15 10000 6.47 76 18:56 22.04.2022
1868 Clear 29 1008 15 10000 6.25 66 18:24 22.04.2022
1869 Clear 31 1008 13 10000 5.82 53 16:53 22.04.2022
1870 Clear 32 1008 12 10000 5.25 65 15:58 22.04.2022
1871 Clear 32 1008 12 10000 4.55 74 15:23 22.04.2022
1872 Clear 32 1008 12 10000 4.55 74 14:37 22.04.2022
1873 Clouds 32 1008 11 10000 3.31 115 13:41 22.04.2022
1874 Clouds 32 1010 13 10000 4.07 50 12:35 22.04.2022
1875 Clouds 31 1011 14 10000 2.83 50 11:23 22.04.2022
1876 Clouds 31 1011 14 10000 2.83 50 10:56 22.04.2022
1877 Clouds 31 1011 14 10000 2.82 50 10:32 22.04.2022
1878 Clouds 30 1012 15 10000 3.14 34 09:54 22.04.2022
1879 Clouds 28 1013 16 10000 4.66 354 08:56 22.04.2022
1880 Clouds 28 1012 18 10000 7.71 15 08:29 22.04.2022
1881 Clouds 26 1012 23 10000 4.68 339 06:21 22.04.2022
1882 Clouds 27 1009 20 10000 6.37 352 00:53 22.04.2022
1883 Clouds 28 1008 16 10000 5.58 35 23:29 21.04.2022
1884 Clouds 29 1008 13 10000 4.33 68 22:34 21.04.2022
1885 Clouds 30 1008 14 10000 4.26 138 21:25 21.04.2022
1886 Clouds 32 1009 13 10000 5.9 267 20:29 21.04.2022
1887 Clouds 34 1007 19 10000 11.47 286 18:49 21.04.2022
1888 Clouds 34 1007 20 10000 10.99 285 18:19 21.04.2022
1889 Clouds 38 1004 13 10000 5.05 33 16:56 21.04.2022
1890 Clouds 37 1004 7 10000 4.28 201 15:24 21.04.2022
1891 Clouds 40 1004 7 10000 4.28 201 14:51 21.04.2022
1892 Clouds 39 1005 9 10000 4.36 185 13:56 21.04.2022
1893 Clouds 39 1006 9 10000 5.53 210 13:20 21.04.2022
1894 Clouds 38 1007 9 10000 7.57 232 11:37 21.04.2022
1895 Clouds 33 1009 9 10000 6.01 224 09:24 21.04.2022
1896 Clouds 32 1009 9 10000 4.83 199 08:29 21.04.2022
1897 Clouds 28 1009 13 10000 3.36 172 06:26 21.04.2022
1898 Clouds 28 1008 15 10000 4.16 174 03:37 21.04.2022
1899 Clouds 28 1008 15 10000 4.39 169 03:18 21.04.2022
1900 Clouds 29 1008 15 10000 4.39 169 02:43 21.04.2022
1901 Clouds 29 1008 14 10000 5.35 165 00:25 21.04.2022
1902 Clouds 31 1008 14 10000 5.12 162 23:24 20.04.2022
1903 Clouds 32 1008 14 10000 5.08 163 22:52 20.04.2022
1904 Clouds 32 1008 14 10000 5.12 162 22:32 20.04.2022
1905 Clouds 32 1008 14 10000 5.12 162 22:32 20.04.2022
1906 Clouds 33 1008 13 10000 5.36 168 21:35 20.04.2022
1907 Clouds 33 1008 12 10000 6.44 168 20:43 20.04.2022
1908 Clouds 33 1007 14 10000 6.35 126 19:55 20.04.2022
1909 Clouds 33 1006 10 10000 8.37 136 19:29 20.04.2022
1910 Clouds 34 1006 10 10000 8.37 136 18:33 20.04.2022
1911 Clouds 37 1004 9 10000 6.98 135 16:58 20.04.2022
1912 Clouds 37 1004 9 10000 6.98 135 16:38 20.04.2022
1913 Clouds 38 1004 8 10000 4.37 180 14:52 20.04.2022
1914 Clouds 35 1007 8 10000 2.61 174 11:57 20.04.2022
1915 Clouds 35 1007 8 10000 2.61 174 11:33 20.04.2022
1916 Clouds 33 1009 8 10000 1.82 196 10:29 20.04.2022
1917 Clouds 33 1010 9 10000 2.42 187 09:27 20.04.2022
1918 Clouds 31 1011 10 10000 3.35 163 08:25 20.04.2022
1919 Clouds 27 1011 10 10000 3.35 163 07:43 20.04.2022
1920 Clouds 23 1010 15 10000 3.58 165 04:49 20.04.2022
1921 Clouds 24 1009 13 10000 3.67 149 01:20 20.04.2022
1922 Clouds 25 1009 12 10000 3.99 153 00:20 20.04.2022
1923 Clouds 27 1010 12 10000 4.11 142 22:44 19.04.2022
1924 Clouds 27 1010 11 10000 3.48 143 22:22 19.04.2022
1925 Clouds 28 1010 11 10000 3.48 142 21:38 19.04.2022
1926 Clouds 29 1011 11 10000 3.89 145 20:56 19.04.2022
1927 Clouds 29 1011 11 10000 3.89 145 20:36 19.04.2022
1928 Clouds 30 1010 9 10000 3.52 104 19:31 19.04.2022
1929 Clouds 32 1009 9 10000 3.16 102 18:18 19.04.2022
1930 Clouds 35 1009 9 10000 1.4 78 16:46 19.04.2022
1931 Clouds 35 1009 7 10000 1.3 346 16:24 19.04.2022
1932 Clouds 35 1009 7 10000 1.41 345 15:20 19.04.2022
1933 Clouds 34 1009 7 10000 1.41 345 14:32 19.04.2022
1934 Clouds 35 1010 8 10000 1.2 137 12:52 19.04.2022
1935 Clouds 35 1011 7 10000 1.76 160 12:26 19.04.2022
1936 Clouds 32 1012 7 10000 2.14 174 11:23 19.04.2022
1937 Clouds 30 1014 6 10000 2.06 159 09:26 19.04.2022
1938 Clouds 25 1014 7 10000 1.73 148 07:26 19.04.2022
1939 Clouds 17 1013 10 10000 0.93 117 04:19 19.04.2022
1940 Clouds 22 1012 11 10000 1.04 14 00:56 19.04.2022
1941 Clouds 23 1013 11 10000 1.16 36 23:40 18.04.2022
1942 Clouds 25 1013 10 10000 2.42 23 21:56 18.04.2022
1943 Clouds 25 1013 10 10000 3.45 26 21:24 18.04.2022
1944 Clouds 27 1013 10 10000 3.45 26 20:38 18.04.2022
1945 Clouds 28 1012 9 10000 4.65 30 19:59 18.04.2022
1946 Clouds 28 1012 9 10000 4.9 21 19:29 18.04.2022
1947 Clouds 30 1012 9 10000 4.9 21 18:34 18.04.2022
1948 Clouds 32 1011 9 10000 4.97 18 17:39 18.04.2022
1949 Clouds 32 1011 9 10000 4.97 18 17:39 18.04.2022
1950 Clouds 32 1010 8 10000 5.09 12 17:19 18.04.2022
1951 Clouds 33 1010 8 10000 5.09 12 16:36 18.04.2022
1952 Clear 34 1009 7 10000 4.42 351 15:28 18.04.2022
1953 Clouds 33 1010 8 10000 3.89 336 13:55 18.04.2022
1954 Clouds 32 1010 8 10000 3.83 337 12:41 18.04.2022
1955 Clouds 30 1011 9 10000 3.55 351 11:48 18.04.2022
1956 Clear 30 1012 10 10000 3.74 4 10:46 18.04.2022
1957 Clear 28 1013 11 10000 3.59 14 09:31 18.04.2022
1958 Clear 26 1014 13 10000 3.11 43 08:37 18.04.2022
1959 Clear 21 1014 21 10000 3.78 39 06:25 18.04.2022
1960 Clear 20 1012 21 10000 2.12 97 02:22 18.04.2022
1961 Clear 24 1012 19 10000 4.47 57 22:53 17.04.2022
1962 Clear 24 1012 19 10000 4.47 57 22:31 17.04.2022
1963 Clear 25 1012 17 10000 4.67 54 21:32 17.04.2022
1964 Clear 26 1012 16 10000 4.36 59 20:50 17.04.2022
1965 Clear 28 1011 13 10000 5.07 62 19:55 17.04.2022
1966 Clear 29 1010 13 10000 5.92 60 18:34 17.04.2022
1967 Clear 32 1008 12 10000 6.12 55 16:44 17.04.2022
1968 Clear 33 1007 12 10000 5.03 59 15:33 17.04.2022
1969 Clear 33 1007 12 10000 4.01 67 14:38 17.04.2022
1970 Clear 32 1007 13 10000 3.53 94 13:23 17.04.2022
1971 Clear 32 1007 13 10000 3.53 94 12:30 17.04.2022
1972 Clear 30 1009 13 10000 4.38 89 10:48 17.04.2022
1973 Clear 30 1010 13 10000 4.96 79 10:29 17.04.2022
1974 Clear 28 1010 13 10000 4.96 79 09:50 17.04.2022
1975 Clear 27 1011 13 10000 4.82 77 08:59 17.04.2022
1976 Clear 27 1011 13 10000 4.27 82 08:27 17.04.2022
1977 Clear 21 1011 18 10000 3.8 60 05:33 17.04.2022
1978 Clear 22 1008 33 10000 4.06 13 01:47 17.04.2022
1979 Clouds 24 1007 29 10000 2.92 1 23:59 16.04.2022
1980 Clouds 25 1007 25 10000 2.11 264 22:56 16.04.2022
1981 Clouds 26 1007 23 10000 3.6 200 21:44 16.04.2022
1982 Clouds 28 1008 23 10000 4.3 195 20:54 16.04.2022
1983 Clouds 29 1008 28 10000 7.65 204 19:21 16.04.2022
1984 Clouds 29 1008 28 10000 7.65 204 18:35 16.04.2022
1985 Clouds 30 1006 29 10000 6.65 157 16:44 16.04.2022
1986 Clouds 33 1006 30 10000 7.7 168 15:46 16.04.2022
1987 Rain 34 1007 39 10000 8.71 163 14:57 16.04.2022
1988 Rain 37 1007 39 10000 8.71 163 14:30 16.04.2022
1989 Rain 36 1009 60 10000 14.75 182 13:48 16.04.2022
1990 Clear 36 1005 16 10000 2.2 103 12:35 16.04.2022
1991 Clear 36 1008 18 10000 1.91 123 11:26 16.04.2022
1992 Clear 34 1010 19 10000 1.39 138 10:25 16.04.2022
1993 Clear 33 1010 19 10000 1.39 138 09:32 16.04.2022
1994 Clear 32 1010 20 10000 1.99 64 08:41 16.04.2022
1995 Clouds 29 1010 25 10000 1.59 167 07:21 16.04.2022
1996 Clouds 26 1009 32 10000 2.02 231 04:54 16.04.2022
1997 Clouds 27 1009 28 10000 3.56 251 00:40 16.04.2022
1998 Clouds 28 1009 27 10000 1.71 7 23:40 15.04.2022
1999 Clouds 28 1009 26 10000 3.88 334 22:45 15.04.2022
2000 Clouds 28 1009 23 10000 1.38 1 22:27 15.04.2022
2001 Clouds 29 1009 25 10000 1.85 34 21:20 15.04.2022
2002 Clouds 30 1009 25 10000 1.85 34 20:36 15.04.2022
2003 Rain 31 1010 30 10000 3.67 347 19:43 15.04.2022
2004 Rain 31 1010 30 10000 3.67 347 19:43 15.04.2022
2005 Clouds 32 1010 29 10000 10.88 311 18:58 15.04.2022
2006 Clouds 32 1007 21 10000 3.69 29 18:26 15.04.2022
2007 Clouds 33 1007 21 10000 3.69 29 17:57 15.04.2022
2008 Clouds 33 1006 17 10000 2.32 82 17:24 15.04.2022
2009 Clouds 34 1006 16 10000 3.28 101 16:24 15.04.2022
2010 Clouds 34 1006 16 10000 3.28 101 15:41 15.04.2022
2011 Clouds 34 1006 16 10000 3.28 101 15:41 15.04.2022
2012 Clouds 33 1007 14 10000 4.84 86 13:55 15.04.2022
2013 Clouds 32 1007 15 10000 6.99 123 12:50 15.04.2022
2014 Clouds 32 1008 15 10000 6.77 127 12:21 15.04.2022
2015 Clouds 32 1008 15 10000 6.77 127 11:42 15.04.2022
2016 Clouds 31 1009 16 10000 5.17 127 10:46 15.04.2022
2017 Clouds 30 1010 17 10000 4.61 110 09:59 15.04.2022
2018 Clouds 30 1010 19 10000 2.78 64 09:22 15.04.2022
2019 Clouds 29 1010 19 10000 2.78 64 08:37 15.04.2022
2020 Clouds 25 1011 28 10000 4.96 5 06:47 15.04.2022
2021 Clouds 26 1011 35 10000 4.86 345 04:42 15.04.2022
2022 Clouds 26 1010 34 10000 5.32 349 00:32 15.04.2022
2023 Clouds 28 1009 21 10000 6.18 52 23:20 14.04.2022
2024 Clouds 29 1009 21 10000 6.18 52 22:44 14.04.2022
2025 Clouds 29 1009 20 10000 6.49 42 22:25 14.04.2022
2026 Clouds 31 1009 24 10000 4.24 36 21:39 14.04.2022
2027 Clouds 32 1008 24 10000 8.48 2 19:24 14.04.2022
2028 Clouds 32 1008 24 10000 8.48 2 18:38 14.04.2022
2029 Clouds 33 1007 25 10000 10.19 350 17:45 14.04.2022
2030 Clouds 34 1005 16 10000 3.74 9 16:49 14.04.2022
2031 Clouds 34 1005 12 10000 4.14 135 15:50 14.04.2022
2032 Clouds 34 1005 13 10000 6.33 115 13:52 14.04.2022
2033 Clouds 34 1006 15 10000 2.28 60 13:19 14.04.2022
2034 Clouds 34 1006 15 10000 2.28 59 12:32 14.04.2022
2035 Clouds 29 1007 14 10000 4.98 82 11:36 14.04.2022
2036 Clouds 29 1008 15 10000 5.95 75 10:57 14.04.2022
2037 Clouds 29 1008 16 10000 6.31 56 10:29 14.04.2022
2038 Clouds 30 1009 17 10000 6.58 18 09:26 14.04.2022
2039 Clouds 27 1010 21 10000 5.35 25 07:54 14.04.2022
2040 Clouds 26 1010 28 10000 5.08 357 05:35 14.04.2022
2041 Clouds 28 1009 31 10000 3.59 33 00:22 14.04.2022
2042 Clouds 31 1008 26 10000 5.21 33 22:37 13.04.2022
2043 Clouds 32 1008 23 10000 5.75 44 21:42 13.04.2022
2044 Clouds 33 1008 21 10000 6.37 41 20:35 13.04.2022
2045 Clouds 33 1006 16 10000 7.33 50 19:46 13.04.2022
2046 Clouds 34 1005 14 10000 5.49 36 18:36 13.04.2022
2047 Clouds 36 1004 11 10000 2.29 67 17:24 13.04.2022
2048 Clouds 37 1004 11 10000 2.29 67 16:49 13.04.2022
2049 Clouds 37 1004 9 10000 2.03 63 15:44 13.04.2022
2050 Clouds 37 1004 9 10000 2.22 73 15:21 13.04.2022
2051 Clouds 37 1004 9 10000 2.22 73 14:34 13.04.2022
2052 Clouds 37 1004 9 10000 1.76 21 13:37 13.04.2022
2053 Clouds 36 1004 9 10000 1.9 23 12:41 13.04.2022
2054 Clouds 34 1006 11 10000 0.22 87 11:25 13.04.2022
2055 Clouds 30 1007 12 10000 0.6 70 09:53 13.04.2022
2056 Clouds 28 1008 13 10000 2.92 14 08:44 13.04.2022
2057 Clouds 26 1008 17 10000 4.42 346 07:38 13.04.2022
2058 Clouds 25 1008 19 10000 5.26 341 06:46 13.04.2022
2059 Clouds 25 1007 21 10000 4.74 325 06:23 13.04.2022
2060 Clouds 29 1005 15 10000 1.67 177 00:28 13.04.2022
2061 Clouds 31 1005 15 10000 1.66 177 23:55 12.04.2022
2062 Clouds 32 1005 15 10000 3.56 181 22:31 12.04.2022
2063 Clouds 36 1005 15 10000 3.1 172 21:42 12.04.2022
2064 Clouds 35 1006 14 10000 4.89 287 20:44 12.04.2022
2065 Clouds 35 1005 14 10000 7.67 261 19:54 12.04.2022
2066 Clouds 35 1006 13 10000 8.22 260 19:54 12.04.2022
2067 Clouds 35 1005 14 10000 7.69 261 19:35 12.04.2022
2068 Clouds 37 1004 12 10000 6.51 234 18:52 12.04.2022
2069 Clouds 38 1004 11 10000 4.75 211 17:36 12.04.2022
2070 Clouds 38 1003 10 10000 4.36 227 16:34 12.04.2022
2071 Clouds 39 1003 8 10000 6.05 223 15:33 12.04.2022
2072 Clouds 38 1003 8 10000 6.87 230 14:33 12.04.2022
2073 Clouds 37 1003 8 10000 7.58 242 13:40 12.04.2022
2074 Clouds 37 1004 8 10000 6.64 244 13:20 12.04.2022
2075 Clouds 35 1005 9 10000 5.17 209 11:47 12.04.2022
2076 Clouds 35 1007 10 10000 5.2 191 11:24 12.04.2022
2077 Clouds 32 1008 10 10000 4.99 193 09:32 12.04.2022
2078 Clouds 30 1010 12 10000 4.7 193 08:26 12.04.2022
2079 Clouds 25 1010 15 10000 3.21 169 06:33 12.04.2022
2080 Clouds 25 1010 16 10000 2.68 115 05:38 12.04.2022
2081 Clouds 28 1008 20 10000 2.33 98 01:47 12.04.2022
2082 Clouds 30 1008 16 10000 3.41 145 23:20 11.04.2022
2083 Clouds 32 1008 15 10000 4.8 183 21:50 11.04.2022
2084 Clouds 32 1009 15 10000 5.29 189 21:18 11.04.2022
2085 Clouds 34 1009 15 10000 5.29 189 20:30 11.04.2022
2086 Clouds 34 1009 15 10000 5.29 189 20:30 11.04.2022
2087 Clouds 34 1008 13 10000 3.03 103 19:58 11.04.2022
2088 Clouds 34 1008 12 10000 2.37 160 19:25 11.04.2022
2089 Clouds 35 1008 12 10000 2.37 160 18:52 11.04.2022
2090 Clouds 36 1007 12 10000 3.07 153 17:57 11.04.2022
2091 Clouds 36 1006 10 10000 4.75 128 17:30 11.04.2022
2092 Clouds 37 1005 9 10000 6.32 117 16:25 11.04.2022
2093 Clouds 38 1006 9 10000 5.15 129 14:40 11.04.2022
2094 Clear 38 1006 9 10000 7.18 154 13:19 11.04.2022
2095 Clear 37 1006 9 10000 7.17 154 12:36 11.04.2022
2096 Clear 36 1007 9 10000 7.6 155 11:42 11.04.2022
2097 Clear 33 1009 10 10000 7.58 162 10:34 11.04.2022
2098 Clear 32 1010 11 10000 7.37 165 09:30 11.04.2022
2099 Clear 27 1012 19 10000 5.18 136 07:19 11.04.2022
2100 Clear 22 1011 24 10000 2.82 112 02:36 11.04.2022
2101 Clear 26 1012 19 10000 3.25 96 22:58 10.04.2022
2102 Clear 26 1012 17 10000 4.16 85 22:26 10.04.2022
2103 Clear 26 1012 17 10000 4.16 85 21:35 10.04.2022
2104 Clear 28 1012 16 10000 4.78 73 20:39 10.04.2022
2105 Clear 29 1012 13 10000 5.91 71 19:46 10.04.2022
2106 Clear 29 1011 12 10000 5.85 62 19:25 10.04.2022
2107 Clear 30 1011 12 10000 5.85 62 18:45 10.04.2022
2108 Clear 32 1010 11 10000 5.49 58 17:56 10.04.2022
2109 Clear 32 1010 11 10000 5.49 58 17:56 10.04.2022
2110 Clear 32 1010 11 10000 5.49 58 17:37 10.04.2022
2111 Clear 33 1009 9 10000 3.96 57 16:33 10.04.2022
2112 Clear 34 1009 8 10000 2.4 58 15:37 10.04.2022
2113 Clouds 34 1009 8 10000 1.84 66 14:25 10.04.2022
2114 Clouds 32 1009 9 10000 3.02 81 12:35 10.04.2022
2115 Clouds 32 1009 9 10000 3.02 81 12:35 10.04.2022
2116 Clouds 31 1011 9 10000 3.42 75 11:56 10.04.2022
2117 Clouds 31 1012 11 10000 4 61 11:29 10.04.2022
2118 Clouds 29 1012 11 10000 4 61 10:56 10.04.2022
2119 Clouds 27 1012 12 10000 4.5 44 09:58 10.04.2022
2120 Clouds 27 1012 12 10000 4.5 44 09:37 10.04.2022
2121 Clouds 25 1014 17 10000 5.23 20 08:22 10.04.2022
2122 Clouds 24 1013 16 10000 5.05 25 07:35 10.04.2022
2123 Clouds 22 1013 20 10000 4.66 1 05:50 10.04.2022
2124 Clear 24 1011 14 10000 4.51 3 02:25 10.04.2022
2125 Clouds 26 1010 11 10000 5.3 22 00:29 10.04.2022
2126 Clouds 28 1010 11 10000 5.31 22 23:49 09.04.2022
2127 Clouds 31 1010 10 10000 4.03 7 22:48 09.04.2022
2128 Clouds 28 1009 10 10000 2.81 159 21:35 09.04.2022
2129 Clouds 30 1009 9 10000 4.06 174 20:49 09.04.2022
2130 Clouds 30 1009 8 10000 4.19 183 20:26 09.04.2022
2131 Clouds 32 1009 7 10000 3.89 165 19:42 09.04.2022
2132 Clouds 33 1008 6 10000 4.11 143 18:59 09.04.2022
2133 Clouds 33 1008 7 10000 1.69 152 18:20 09.04.2022
2134 Clouds 36 1008 7 10000 1.69 152 17:39 09.04.2022
2135 Clouds 37 1007 6 10000 1.32 275 16:52 09.04.2022
2136 Clouds 38 1007 5 10000 3.25 292 15:55 09.04.2022
2137 Clouds 38 1007 5 10000 3.25 292 15:30 09.04.2022
2138 Clouds 38 1007 4 10000 4.13 288 14:44 09.04.2022
2139 Clouds 38 1007 4 10000 4.06 277 14:23 09.04.2022
2140 Clouds 38 1007 4 10000 3.74 240 13:18 09.04.2022
2141 Clouds 38 1007 4 10000 3.74 240 12:41 09.04.2022
2142 Clouds 37 1009 5 10000 5.64 207 11:22 09.04.2022
2143 Clouds 35 1010 5 10000 6.02 203 10:21 09.04.2022
2144 Clouds 33 1010 5 10000 6.02 203 09:38 09.04.2022
2145 Clouds 31 1011 6 10000 6.96 195 08:53 09.04.2022
2146 Clouds 25 1011 8 10000 4.87 177 06:56 09.04.2022
2147 Clouds 23 1011 14 10000 2.92 146 02:20 09.04.2022
2148 Clouds 26 1012 11 10000 3.36 134 23:45 08.04.2022
2149 Clear 28 1012 10 10000 4.41 120 21:58 08.04.2022
2150 Clear 28 1013 9 10000 4.23 104 21:29 08.04.2022
2151 Clear 29 1013 9 10000 4.23 104 20:38 08.04.2022
2152 Clear 30 1011 7 10000 2.07 104 19:20 08.04.2022
2153 Clear 32 1011 7 10000 2.07 104 18:30 08.04.2022
2154 Clear 34 1011 8 10000 1.52 144 17:49 08.04.2022
2155 Clear 34 1010 6 10000 1.99 148 17:25 08.04.2022
2156 Clear 36 1010 6 10000 1.99 148 16:47 08.04.2022
2157 Clear 37 1010 5 10000 1.82 138 15:57 08.04.2022
2158 Clear 37 1010 5 10000 1.7 134 15:26 08.04.2022
2159 Clear 37 1010 5 10000 1.55 133 14:27 08.04.2022
2160 Clear 35 1010 5 10000 1.9 140 13:46 08.04.2022
2161 Clear 35 1011 5 10000 1.85 129 13:27 08.04.2022
2162 Clear 33 1012 5 10000 1.88 111 11:56 08.04.2022
2163 Clear 32 1013 6 10000 2.34 94 10:33 08.04.2022
2164 Clear 30 1014 6 10000 2.91 78 09:38 08.04.2022
2165 Clear 28 1015 7 10000 3.46 68 08:44 08.04.2022
2166 Clouds 24 1016 10 10000 3.63 29 06:55 08.04.2022
2167 Clouds 22 1015 13 10000 3.52 353 05:18 08.04.2022
2168 Clear 25 1013 9 10000 2.79 335 01:27 08.04.2022
2169 Clear 25 1012 8 10000 3.6 184 00:25 08.04.2022
2170 Clear 25 1012 8 10000 3.61 184 00:25 08.04.2022
2171 Clear 29 1012 8 10000 4.63 174 22:59 07.04.2022
2172 Clear 29 1012 8 10000 4.63 174 22:39 07.04.2022
2173 Clear 29 1013 8 10000 4.67 167 22:21 07.04.2022
2174 Clear 31 1013 8 10000 4.67 167 21:51 07.04.2022
2175 Clear 31 1013 8 10000 4.51 157 21:19 07.04.2022
2176 Clear 31 1013 8 10000 4.51 157 20:37 07.04.2022
2177 Clear 33 1012 7 10000 4.81 154 18:35 07.04.2022
2178 Clear 36 1011 7 10000 4.07 136 17:27 07.04.2022
2179 Clear 38 1011 7 10000 4.07 136 16:44 07.04.2022
2180 Clear 38 1010 5 10000 2.8 141 16:22 07.04.2022
2181 Clear 38 1010 5 10000 2.8 141 16:22 07.04.2022
2182 Clear 38 1010 5 10000 2.22 157 14:50 07.04.2022
2183 Clear 37 1010 5 10000 2.27 172 13:43 07.04.2022
2184 Clear 37 1011 5 10000 2.53 188 12:46 07.04.2022
2185 Clear 36 1013 6 10000 3.87 205 11:30 07.04.2022
2186 Clouds 33 1014 6 10000 4.87 202 09:37 07.04.2022
2187 Clouds 32 1014 6 10000 5.35 198 08:38 07.04.2022
2188 Clouds 25 1014 9 10000 4.8 195 06:42 07.04.2022
2189 Clouds 28 1012 12 10000 4.9 163 02:51 07.04.2022
2190 Clouds 28 1012 11 10000 4.51 161 02:25 07.04.2022
2191 Clouds 28 1013 11 10000 4.28 168 00:27 07.04.2022
2192 Clouds 29 1013 12 10000 4.65 162 22:51 06.04.2022
2193 Clouds 29 1013 12 10000 5.64 151 22:27 06.04.2022
2194 Clouds 29 1013 12 10000 5.64 151 21:44 06.04.2022
2195 Clouds 29 1014 11 10000 5.39 151 20:36 06.04.2022
2196 Clouds 31 1013 10 10000 5.57 139 19:53 06.04.2022
2197 Clouds 31 1013 9 10000 5.12 132 18:51 06.04.2022
2198 Clear 31 1012 8 10000 4.41 129 18:25 06.04.2022
2199 Clear 34 1012 8 10000 4.41 129 17:35 06.04.2022
2200 Clear 35 1011 7 10000 3.42 135 16:38 06.04.2022
2201 Clear 36 1011 6 10000 3.53 138 15:48 06.04.2022
2202 Clear 36 1011 6 10000 3.82 141 15:21 06.04.2022
2203 Clear 36 1012 6 10000 4.35 144 13:24 06.04.2022
2204 Clear 35 1013 6 10000 4.86 144 12:26 06.04.2022
2205 Clear 33 1014 7 10000 5.1 146 10:47 06.04.2022
2206 Clear 33 1015 7 10000 4.78 149 10:25 06.04.2022
2207 Clear 32 1015 7 10000 4.78 149 09:40 06.04.2022
2208 Clear 32 1015 7 10000 4.78 149 09:40 06.04.2022
2209 Clear 30 1015 8 10000 4.43 149 08:32 06.04.2022
2210 Clear 27 1016 9 10000 3.97 145 07:50 06.04.2022
2211 Clear 23 1014 12 10000 2.37 144 03:54 06.04.2022
2212 Clear 26 1014 11 10000 3.64 117 23:53 05.04.2022
2213 Clear 27 1014 10 10000 4.06 112 22:58 05.04.2022
2214 Clear 28 1015 9 10000 4.83 110 21:23 05.04.2022
2215 Clear 29 1015 9 10000 5.39 101 20:26 05.04.2022
2216 Clear 30 1014 9 10000 5.94 106 19:47 05.04.2022
2217 Clear 32 1012 8 10000 6.58 88 18:18 05.04.2022
2218 Clear 36 1011 7 10000 5.34 76 16:54 05.04.2022
2219 Clear 37 1011 6 10000 4.39 70 15:57 05.04.2022
2220 Clear 37 1010 6 10000 2.67 68 15:35 05.04.2022
2221 Clear 37 1010 6 10000 2.67 68 14:36 05.04.2022
2222 Clear 37 1010 6 10000 2.22 74 13:35 05.04.2022
2223 Clear 36 1012 6 10000 1.92 83 11:51 05.04.2022
2224 Clear 36 1012 6 10000 1.92 83 11:51 05.04.2022
2225 Clear 36 1013 6 10000 2.03 88 11:32 05.04.2022
2226 Clear 35 1013 6 10000 2.03 88 10:41 05.04.2022
2227 Clear 32 1014 7 10000 1.83 114 08:55 05.04.2022
2228 Clear 28 1015 9 10000 1.68 139 07:22 05.04.2022
2229 Clear 26 1012 11 10000 2.06 114 01:58 05.04.2022
2230 Clear 27 1013 11 10000 2.93 157 22:44 04.04.2022
2231 Clear 27 1013 10 10000 3.1 133 22:26 04.04.2022
2232 Clear 28 1012 10 10000 3.77 102 21:21 04.04.2022
2233 Clear 30 1012 10 10000 3.77 102 20:50 04.04.2022
2234 Clouds 31 1012 9 10000 4.11 80 19:58 04.04.2022
2235 Clouds 31 1011 9 10000 4.38 75 19:26 04.04.2022
2236 Clouds 33 1011 9 10000 4.39 75 18:37 04.04.2022
2237 Clouds 37 1009 6 10000 4.95 22 16:37 04.04.2022
2238 Clouds 37 1009 6 10000 4.94 22 15:58 04.04.2022
2239 Clouds 37 1009 6 10000 4.65 13 15:33 04.04.2022
2240 Clouds 38 1009 6 10000 4.65 13 14:46 04.04.2022
2241 Clouds 38 1009 6 10000 4.02 13 13:33 04.04.2022
2242 Clouds 38 1011 6 10000 2.96 1 12:23 04.04.2022
2243 Clouds 37 1012 7 10000 1.85 346 11:29 04.04.2022
2244 Clear 34 1013 8 10000 1.38 260 09:20 04.04.2022
2245 Clouds 19 1012 14 10000 1.42 202 05:27 04.04.2022
2246 Clouds 24 1012 13 10000 2.4 194 02:41 04.04.2022
2247 Clouds 25 1013 12 10000 2.22 90 22:47 03.04.2022
2248 Clouds 27 1013 12 10000 3.54 70 21:48 03.04.2022
2249 Clouds 27 1013 11 10000 3.46 53 21:19 03.04.2022
2250 Clouds 30 1012 11 10000 4.05 43 19:52 03.04.2022
2251 Clouds 32 1011 10 10000 4.38 39 18:33 03.04.2022
2252 Clouds 34 1010 9 10000 4.24 33 17:49 03.04.2022
2253 Clouds 34 1009 8 10000 4.31 18 17:27 03.04.2022
2254 Clouds 36 1009 8 10000 4.31 18 16:48 03.04.2022
2255 Clouds 36 1009 7 10000 5.44 9 15:32 03.04.2022
2256 Clouds 37 1010 7 10000 3.37 1 13:58 03.04.2022
2257 Clouds 36 1011 7 10000 2.69 1 12:56 03.04.2022
2258 Clear 36 1012 7 10000 1.73 354 11:33 03.04.2022
2259 Clear 32 1014 8 10000 0.78 261 09:40 03.04.2022
2260 Clear 31 1015 9 10000 0.94 226 08:50 03.04.2022
2261 Clouds 19 1015 13 10000 1.92 231 05:44 03.04.2022
2262 Clear 21 1014 16 10000 1 43 02:55 03.04.2022
2263 Clouds 23 1014 13 10000 0.78 7 23:22 02.04.2022
2264 Clouds 23 1014 13 10000 0.78 7 23:22 02.04.2022
2265 Clouds 25 1014 13 10000 0.78 7 22:40 02.04.2022
2266 Clouds 25 1015 12 10000 1.61 34 21:54 02.04.2022
2267 Clouds 25 1015 11 10000 2.98 43 21:19 02.04.2022
2268 Clouds 28 1015 11 10000 2.98 43 20:35 02.04.2022
2269 Clear 30 1014 10 10000 4.18 42 18:47 02.04.2022
2270 Clear 30 1013 10 10000 3.15 41 18:19 02.04.2022
2271 Clear 35 1012 9 10000 2.25 16 16:45 02.04.2022
2272 Clear 35 1012 8 10000 1.63 1 15:27 02.04.2022
2273 Clear 35 1012 8 10000 1.63 1 14:52 02.04.2022
2274 Clouds 35 1013 8 10000 1.21 12 14:26 02.04.2022
2275 Clouds 34 1012 8 10000 1.08 15 13:31 02.04.2022
2276 Clouds 36 1014 8 10000 0.84 133 12:20 02.04.2022
2277 Clouds 31 1017 8 10000 0.97 122 10:22 02.04.2022
2278 Clouds 25 1018 9 10000 1.21 47 07:48 02.04.2022
2279 Clear 19 1017 16 10000 2.77 9 04:34 02.04.2022
2280 Clear 22 1016 15 10000 2.62 9 01:21 02.04.2022
2281 Clear 24 1016 15 10000 1.87 0 23:54 01.04.2022
2282 Clear 25 1016 14 10000 1.93 19 22:46 01.04.2022
2283 Clear 28 1016 12 10000 3.1 62 20:55 01.04.2022
2284 Clear 28 1016 12 10000 3.1 62 20:35 01.04.2022
2285 Clear 29 1016 11 10000 3.52 67 19:45 01.04.2022
2286 Clear 29 1015 10 10000 3.92 69 19:26 01.04.2022
2287 Clear 31 1015 10 10000 3.92 69 18:37 01.04.2022
2288 Clear 33 1014 10 10000 4.12 70 17:38 01.04.2022
2289 Clear 35 1013 7 10000 3.84 57 15:46 01.04.2022
2290 Clear 35 1013 7 10000 3.15 63 14:53 01.04.2022
2291 Clear 35 1013 7 10000 2.88 61 13:40 01.04.2022
2292 Clear 35 1013 7 10000 2.56 58 13:20 01.04.2022
2293 Clear 35 1014 8 10000 2.45 55 12:24 01.04.2022
2294 Clear 34 1015 8 10000 2.74 55 10:50 01.04.2022
2295 Clear 32 1016 8 10000 2.23 50 09:41 01.04.2022
2296 Clear 25 1017 8 10000 1.36 188 07:41 01.04.2022
2297 Clear 17 1017 11 10000 1.36 176 05:38 01.04.2022
2298 Clear 17 1016 14 10000 1.49 164 04:41 01.04.2022
2299 Clear 18 1015 14 10000 2.32 167 03:18 01.04.2022
2300 Clear 23 1015 14 10000 3.04 165 01:35 01.04.2022
2301 Clear 25 1016 12 10000 3.73 106 22:34 31.03.2022
2302 Clear 26 1016 12 10000 3.73 106 21:44 31.03.2022
2303 Clear 28 1016 10 10000 3.13 99 20:51 31.03.2022
2304 Clear 28 1015 10 10000 2.32 118 20:28 31.03.2022
2305 Clear 29 1015 10 10000 2.91 106 19:43 31.03.2022
2306 Clear 31 1015 9 10000 2.33 126 18:34 31.03.2022
2307 Clear 35 1013 9 10000 1.67 104 16:53 31.03.2022
2308 Clear 34 1013 7 10000 2.17 65 15:56 31.03.2022
2309 Clear 34 1013 7 10000 2.25 63 15:29 31.03.2022
2310 Clear 35 1013 7 10000 2.25 63 14:48 31.03.2022
2311 Clear 34 1013 7 10000 1.87 70 13:42 31.03.2022
2312 Clear 32 1014 7 10000 1.68 136 11:31 31.03.2022
2313 Clear 31 1016 8 10000 3.36 169 10:26 31.03.2022
2314 Clear 29 1016 8 10000 3.36 169 09:40 31.03.2022
2315 Clouds 22 1017 9 10000 3.17 178 07:49 31.03.2022
2316 Clouds 17 1015 12 10000 3.17 167 03:30 31.03.2022
2317 Clouds 21 1016 11 10000 3.19 129 23:25 30.03.2022
2318 Clouds 21 1017 11 10000 3.33 112 22:19 30.03.2022
2319 Clouds 23 1017 11 10000 3.33 112 21:31 30.03.2022
2320 Clouds 24 1017 11 10000 3.34 95 20:44 30.03.2022
2321 Clouds 25 1017 11 10000 3.48 94 19:48 30.03.2022
2322 Clouds 26 1016 11 10000 2.82 103 18:44 30.03.2022
2323 Clouds 28 1015 10 10000 2.2 136 17:51 30.03.2022
2324 Clouds 28 1015 9 10000 1.69 155 17:20 30.03.2022
2325 Clouds 30 1014 8 10000 1.19 132 16:40 30.03.2022
2326 Clouds 30 1014 8 10000 1.19 132 15:55 30.03.2022
2327 Clouds 30 1014 8 10000 1.13 120 14:36 30.03.2022
2328 Clouds 29 1015 8 10000 0.94 90 13:22 30.03.2022
2329 Clouds 31 1016 8 10000 0.77 63 12:22 30.03.2022
2330 Clouds 26 1018 8 10000 0.79 47 10:48 30.03.2022
2331 Clouds 26 1019 7 10000 1.14 36 09:43 30.03.2022
2332 Clouds 22 1020 7 10000 1.27 28 08:21 30.03.2022
2333 Clouds 15 1020 8 10000 1.04 30 06:50 30.03.2022
2334 Clouds 11 1019 10 10000 1.16 355 05:40 30.03.2022
2335 Clear 14 1018 11 10000 1.41 16 01:48 30.03.2022
2336 Clear 17 1019 10 10000 2.57 23 22:39 29.03.2022
2337 Clear 17 1020 9 10000 2.92 20 21:48 29.03.2022
2338 Clear 17 1020 9 10000 3.33 21 21:20 29.03.2022
2339 Clear 20 1020 8 10000 4.06 22 20:25 29.03.2022
2340 Clear 21 1020 9 10000 4.49 28 19:27 29.03.2022
2341 Clear 22 1020 9 10000 4.49 28 18:53 29.03.2022
2342 Clear 24 1019 9 10000 4.83 27 17:48 29.03.2022
2343 Clear 25 1018 9 10000 4.9 20 16:59 29.03.2022
2344 Clear 25 1018 9 10000 5.44 10 16:25 29.03.2022
2345 Clear 26 1018 9 10000 5.26 2 14:58 29.03.2022
2346 Clear 26 1018 9 10000 5.26 2 14:39 29.03.2022
2347 Clear 25 1018 10 10000 5.26 358 13:30 29.03.2022
2348 Clear 23 1019 11 10000 5.18 353 11:46 29.03.2022
2349 Clear 21 1021 12 10000 5.15 354 10:59 29.03.2022
2350 Clear 19 1022 14 10000 5.24 357 09:50 29.03.2022
2351 Clear 17 1023 20 10000 6.08 4 08:20 29.03.2022
2352 Clear 13 1023 27 10000 5.29 5 05:44 29.03.2022
2353 Clear 16 1022 23 10000 4.34 9 01:31 29.03.2022
2354 Clear 16 1023 18 10000 3.72 24 23:26 28.03.2022
2355 Clear 17 1023 18 10000 3.72 24 22:55 28.03.2022
2356 Clear 17 1023 18 10000 3.72 24 22:30 28.03.2022
2357 Clear 18 1024 16 10000 4.08 27 21:18 28.03.2022
2358 Clear 19 1023 13 10000 5.17 32 20:32 28.03.2022
2359 Clear 20 1023 13 10000 5.17 32 19:46 28.03.2022
2360 Clear 20 1022 12 10000 5.68 29 19:28 28.03.2022
2361 Clear 21 1022 12 10000 5.68 29 18:40 28.03.2022
2362 Clear 22 1021 12 10000 5.94 26 17:39 28.03.2022
2363 Clear 23 1021 11 10000 6.04 26 16:38 28.03.2022
2364 Clear 24 1020 11 10000 6.61 21 14:49 28.03.2022
2365 Clear 24 1019 11 10000 6.66 17 14:22 28.03.2022
2366 Clear 23 1020 11 10000 6.35 17 12:41 28.03.2022
2367 Clear 22 1021 12 10000 5.99 19 11:32 28.03.2022
2368 Clear 20 1023 14 10000 5.95 20 09:43 28.03.2022
2369 Clear 20 1024 15 10000 6.01 21 09:19 28.03.2022
2370 Clear 19 1025 17 10000 5.77 22 08:22 28.03.2022
2371 Clear 17 1025 17 10000 5.78 22 07:40 28.03.2022
2372 Clear 13 1023 28 10000 3.45 20 04:18 28.03.2022
2373 Clear 16 1023 25 10000 4.52 23 23:33 27.03.2022
2374 Clear 17 1023 23 10000 4.38 23 22:25 27.03.2022
2375 Clear 18 1023 23 10000 4.38 23 21:42 27.03.2022
2376 Clear 18 1023 22 10000 4.16 21 20:58 27.03.2022
2377 Clear 19 1023 19 10000 4.62 33 19:49 27.03.2022
2378 Clear 19 1022 18 10000 4.49 35 19:26 27.03.2022
2379 Clear 20 1021 17 10000 4.75 32 18:28 27.03.2022
2380 Clear 21 1021 17 10000 4.75 32 17:40 27.03.2022
2381 Clear 22 1020 15 10000 5.45 28 16:31 27.03.2022
2382 Clear 23 1019 13 10000 5.47 26 15:25 27.03.2022
2383 Clear 22 1019 13 10000 5.15 21 13:56 27.03.2022
2384 Clear 23 1020 13 10000 5.02 22 12:37 27.03.2022
2385 Clear 21 1022 15 10000 5.42 23 11:20 27.03.2022
2386 Clear 16 1024 18 10000 6.01 24 08:53 27.03.2022
2387 Clear 12 1023 26 10000 5.35 23 05:54 27.03.2022
2388 Clear 13 1021 26 10000 4.73 22 00:48 27.03.2022
2389 Clear 15 1021 25 10000 4.49 28 23:42 26.03.2022
2390 Clear 15 1021 23 10000 4.41 28 22:38 26.03.2022
2391 Clear 16 1022 22 10000 4.41 27 21:38 26.03.2022
2392 Clear 17 1022 21 10000 4.43 31 20:57 26.03.2022
2393 Clear 18 1022 19 10000 4.45 30 19:21 26.03.2022
2394 Clear 20 1020 17 10000 5.35 41 17:54 26.03.2022
2395 Clear 20 1020 17 10000 5.35 41 17:33 26.03.2022
2396 Clear 21 1018 13 10000 5.51 41 16:27 26.03.2022
2397 Clear 23 1017 11 10000 5.89 40 14:57 26.03.2022
2398 Clear 23 1017 11 10000 5.56 38 13:53 26.03.2022
2399 Clear 23 1017 10 10000 5.24 38 12:51 26.03.2022
2400 Clear 22 1017 10 10000 5.03 40 11:41 26.03.2022
2401 Clear 22 1019 11 10000 5.67 43 10:22 26.03.2022
2402 Clear 19 1020 12 10000 6.57 44 08:34 26.03.2022
2403 Clear 15 1021 16 10000 7.69 30 05:54 26.03.2022
2404 Clear 14 1019 21 10000 4.23 18 04:23 26.03.2022
2405 Clear 16 1015 21 10000 3.56 48 00:22 26.03.2022
2406 Clear 19 1014 19 10000 3.14 85 21:41 25.03.2022
2407 Clear 20 1014 19 10000 3.94 108 20:46 25.03.2022
2408 Clear 21 1014 18 10000 4.55 101 19:36 25.03.2022
2409 Clear 22 1013 16 10000 5.07 78 18:47 25.03.2022
2410 Clear 24 1012 15 10000 3.11 91 17:37 25.03.2022
2411 Clear 25 1012 15 10000 3.11 90 16:50 25.03.2022
2412 Clear 25 1011 14 10000 2.84 91 16:18 25.03.2022
2413 Clear 27 1011 12 10000 0.87 129 14:22 25.03.2022
2414 Clear 26 1010 12 10000 1.45 167 12:33 25.03.2022
2415 Clear 21 1013 15 10000 1.41 78 09:55 25.03.2022
2416 Clear 21 1014 16 10000 2.47 67 09:26 25.03.2022
2417 Clear 18 1015 18 10000 3.21 48 07:53 25.03.2022
2418 Clear 18 1015 20 10000 3.61 43 07:26 25.03.2022
2419 Clear 15 1015 31 10000 5.5 22 05:23 25.03.2022
2420 Clear 19 1013 30 10000 5.58 1 00:33 25.03.2022
2421 Clear 21 1012 23 10000 5.87 18 22:30 24.03.2022
2422 Clear 23 1012 19 10000 5.99 29 21:34 24.03.2022
2423 Clear 26 1011 13 10000 7.56 2 19:50 24.03.2022
2424 Clear 28 1009 11 10000 2.78 0 18:58 24.03.2022
2425 Clear 30 1009 11 10000 2.61 359 17:45 24.03.2022
2426 Clear 33 1008 10 10000 2.88 337 16:54 24.03.2022
2427 Clear 34 1007 7 10000 5.71 275 15:19 24.03.2022
2428 Clear 35 1007 7 10000 5.71 275 14:42 24.03.2022
2429 Clear 35 1007 7 10000 6.49 268 13:59 24.03.2022
2430 Clear 36 1007 7 10000 6.74 260 12:42 24.03.2022
2431 Clear 34 1007 7 10000 5.9 246 11:33 24.03.2022
2432 Clear 33 1009 7 10000 3.46 230 09:48 24.03.2022
2433 Clear 31 1010 8 10000 2.74 224 08:40 24.03.2022
2434 Clear 26 1011 10 10000 2.48 262 06:44 24.03.2022
2435 Clear 21 1010 15 10000 0.7 77 01:43 24.03.2022
2436 Clouds 24 1010 13 10000 2.2 18 22:37 23.03.2022
2437 Clouds 23 1011 12 10000 3.29 19 21:25 23.03.2022
2438 Clouds 23 1011 12 10000 3.29 19 21:25 23.03.2022
2439 Clouds 23 1011 12 10000 3.29 19 21:25 23.03.2022
2440 Clouds 24 1011 12 10000 3.29 19 20:47 23.03.2022
2441 Clouds 25 1011 11 10000 2.91 359 19:45 23.03.2022
2442 Clouds 28 1010 10 10000 3.77 338 18:30 23.03.2022
2443 Clouds 30 1009 10 10000 3.03 300 17:36 23.03.2022
2444 Clouds 33 1008 9 10000 4.4 280 16:20 23.03.2022
2445 Clouds 34 1008 8 10000 5.48 265 14:50 23.03.2022
2446 Clouds 34 1008 8 10000 4.82 247 14:21 23.03.2022
2447 Clouds 33 1008 7 10000 3.83 225 12:24 23.03.2022
2448 Clear 31 1011 6 10000 4.82 195 09:38 23.03.2022
2449 Clouds 24 1012 9 10000 3.6 182 06:40 23.03.2022
2450 Clouds 19 1011 16 10000 1.99 210 03:58 23.03.2022
2451 Clear 21 1009 16 10000 1.79 241 00:29 23.03.2022
2452 Clear 22 1010 14 10000 1.71 215 22:26 22.03.2022
2453 Clear 24 1010 13 10000 2.65 215 21:29 22.03.2022
2454 Clear 25 1010 13 10000 2.65 215 20:39 22.03.2022
2455 Clear 27 1009 12 10000 3.25 226 19:39 22.03.2022
2456 Clear 27 1009 11 10000 3.58 193 19:18 22.03.2022
2457 Clear 31 1009 11 10000 4.27 175 17:58 22.03.2022
2458 Clear 31 1008 10 10000 4.42 188 17:25 22.03.2022
2459 Clear 34 1007 9 10000 4.74 212 15:54 22.03.2022
2460 Clear 34 1007 8 10000 6.76 231 15:22 22.03.2022
2461 Clear 33 1007 8 10000 6.76 231 14:46 22.03.2022
2462 Clear 33 1006 8 10000 7.46 234 14:25 22.03.2022
2463 Clear 34 1006 8 10000 7.61 226 12:46 22.03.2022
2464 Clear 32 1008 7 10000 7.53 216 11:36 22.03.2022
2465 Clear 31 1008 7 10000 7.53 216 10:35 22.03.2022
2466 Clear 26 1011 6 10000 5.6 191 07:57 22.03.2022
2467 Clear 20 1011 11 10000 2.77 177 05:20 22.03.2022
2468 Clear 19 1011 13 10000 3.19 171 03:41 22.03.2022
2469 Clouds 22 1009 13 10000 4.11 152 23:49 21.03.2022
2470 Clouds 23 1010 14 10000 3.78 158 21:58 21.03.2022
2471 Clouds 24 1010 13 10000 4.2 138 20:47 21.03.2022
2472 Clouds 24 1010 13 10000 5.74 133 20:27 21.03.2022
2473 Clouds 25 1010 13 10000 5.74 133 19:57 21.03.2022
2474 Clouds 25 1010 13 10000 6.23 125 19:24 21.03.2022
2475 Clear 27 1009 13 10000 5.7 120 17:53 21.03.2022
2476 Clear 27 1008 13 10000 5.72 136 17:18 21.03.2022
2477 Clear 29 1008 13 10000 5.72 136 16:39 21.03.2022
2478 Clear 30 1007 12 10000 6.1 136 15:47 21.03.2022
2479 Clear 30 1007 11 10000 4.74 154 14:51 21.03.2022
2480 Clear 30 1007 10 10000 5.5 149 13:43 21.03.2022
2481 Clouds 29 1007 10 10000 5.73 139 12:33 21.03.2022
2482 Clouds 29 1008 10 10000 5.31 147 11:44 21.03.2022
2483 Clouds 27 1009 10 10000 5.44 154 10:34 21.03.2022
2484 Clouds 26 1012 8 10000 4.86 159 08:29 21.03.2022
2485 Clouds 23 1012 7 10000 4.32 162 06:36 21.03.2022
2486 Clouds 21 1011 10 10000 3.59 156 02:40 21.03.2022
2487 Clouds 21 1010 10 10000 4.88 154 23:40 20.03.2022
2488 Clouds 21 1011 10 10000 4.61 144 22:43 20.03.2022
2489 Clear 21 1011 10 10000 4.89 153 21:49 20.03.2022
2490 Clear 21 1011 9 10000 4.91 149 21:20 20.03.2022
2491 Clear 23 1011 9 10000 4.91 149 20:42 20.03.2022
2492 Clear 22 1011 9 10000 4.84 144 19:57 20.03.2022
2493 Clear 22 1011 9 10000 4.73 130 19:26 20.03.2022
2494 Clear 26 1011 9 10000 4.55 119 17:51 20.03.2022
2495 Clear 26 1010 9 10000 3.67 132 17:29 20.03.2022
2496 Clear 28 1010 9 10000 3.67 132 16:46 20.03.2022
2497 Clear 30 1010 7 10000 5.02 127 14:54 20.03.2022
2498 Clear 30 1010 6 10000 5.01 131 13:49 20.03.2022
2499 Clear 30 1010 7 10000 4.64 136 12:22 20.03.2022
2500 Clear 28 1012 7 10000 4.28 145 10:42 20.03.2022
2501 Clear 24 1014 8 10000 4.28 166 08:37 20.03.2022
2502 Clear 18 1015 10 10000 4.54 167 06:55 20.03.2022
2503 Clear 16 1015 16 10000 3.79 159 03:59 20.03.2022
2504 Clear 16 1014 13 10000 4.25 147 01:29 20.03.2022
2505 Clear 16 1014 13 10000 4.34 151 00:36 20.03.2022
2506 Clear 17 1015 12 10000 4.61 146 22:56 19.03.2022
2507 Clear 19 1016 12 10000 4.18 136 21:27 19.03.2022
2508 Clear 19 1016 12 10000 4.09 133 20:19 19.03.2022
2509 Clear 22 1016 11 10000 4.28 114 18:44 19.03.2022
2510 Clear 22 1015 11 10000 3.86 121 18:23 19.03.2022
2511 Clear 23 1015 11 10000 3.86 121 17:34 19.03.2022
2512 Clear 27 1014 10 10000 3.17 109 15:43 19.03.2022
2513 Clear 27 1014 9 10000 3.26 97 14:30 19.03.2022
2514 Clear 28 1014 9 10000 2.3 89 12:56 19.03.2022
2515 Clear 28 1014 9 10000 2.3 89 12:38 19.03.2022
2516 Clear 26 1014 9 10000 1.6 94 11:49 19.03.2022
2517 Clear 24 1015 9 10000 1.31 136 10:41 19.03.2022
2518 Clear 15 1020 7 10000 2.57 170 06:27 19.03.2022
2519 Clear 9 1019 9 10000 2.28 147 02:48 19.03.2022
2520 Clear 10 1018 9 10000 2.07 138 01:32 19.03.2022
2521 Clear 11 1019 9 10000 1.94 101 23:26 18.03.2022
2522 Clear 12 1019 8 10000 2.31 96 22:25 18.03.2022
2523 Clear 14 1020 8 10000 2.59 83 20:56 18.03.2022
2524 Clear 15 1020 8 10000 2.82 69 19:49 18.03.2022
2525 Clear 15 1020 8 10000 3.15 53 19:19 18.03.2022
2526 Clear 19 1019 8 10000 3.72 39 17:39 18.03.2022
2527 Clear 21 1018 8 10000 3.44 26 16:46 18.03.2022
2528 Clear 23 1017 8 10000 3.18 7 14:37 18.03.2022
2529 Clear 23 1017 8 10000 2.95 354 14:18 18.03.2022
2530 Clear 22 1017 9 10000 2.86 339 12:19 18.03.2022
2531 Clear 20 1019 8 10000 2.67 337 10:39 18.03.2022
2532 Clear 17 1021 8 10000 3.02 346 09:23 18.03.2022
2533 Clear 13 1022 9 10000 3.03 344 07:45 18.03.2022
2534 Clear 8 1023 12 10000 4.19 350 05:46 18.03.2022
2535 Clear 8 1022 15 10000 3.42 350 02:50 18.03.2022
2536 Clear 9 1021 14 10000 3.45 339 00:21 18.03.2022
2537 Clear 11 1021 13 10000 3.18 336 22:56 17.03.2022
2538 Clear 11 1022 13 10000 3.08 337 22:22 17.03.2022
2539 Clear 11 1022 13 10000 3.08 337 21:47 17.03.2022
2540 Clear 11 1022 12 10000 3.37 345 21:19 17.03.2022
2541 Clear 12 1023 11 10000 3.61 353 20:32 17.03.2022
2542 Clear 13 1023 11 10000 3.61 353 19:41 17.03.2022
2543 Clouds 14 1022 11 10000 3.85 2 18:57 17.03.2022
2544 Clear 15 1021 9 10000 4.2 20 17:55 17.03.2022
2545 Clear 16 1020 7 10000 4.7 14 16:34 17.03.2022
2546 Clear 17 1020 7 10000 4.7 14 15:44 17.03.2022
2547 Clear 17 1020 6 10000 5.14 7 15:22 17.03.2022
2548 Clear 17 1019 6 10000 4.99 5 13:49 17.03.2022
2549 Clear 16 1019 6 10000 5.39 2 12:49 17.03.2022
2550 Clear 15 1020 6 10000 5.66 3 11:53 17.03.2022
2551 Clear 15 1021 7 10000 6.18 2 11:22 17.03.2022
2552 Clouds 13 1022 8 10000 6.63 4 09:47 17.03.2022
2553 Clouds 12 1023 11 10000 7.61 4 08:31 17.03.2022
2554 Clouds 9 1024 24 10000 9.06 2 06:25 17.03.2022
2555 Clouds 8 1024 24 10000 9.06 2 05:39 17.03.2022
2556 Clouds 8 1024 24 10000 9.06 2 05:39 17.03.2022
2557 Clouds 12 1019 27 10000 9.72 4 00:42 17.03.2022
2558 Clouds 13 1019 28 10000 8.9 358 22:59 16.03.2022
2559 Clouds 13 1019 28 10000 8.9 358 22:39 16.03.2022
2560 Clouds 13 1019 34 10000 8.9 356 22:19 16.03.2022
2561 Clouds 13 1019 36 10000 9.23 352 21:18 16.03.2022
2562 Clouds 13 1020 30 10000 9.26 355 19:26 16.03.2022
2563 Clouds 14 1020 30 10000 9.26 355 18:55 16.03.2022
2564 Clouds 14 1018 25 10000 9.24 2 18:20 16.03.2022
2565 Clear 16 1016 23 10000 8.14 4 17:37 16.03.2022
2566 Clear 17 1016 23 10000 8.14 4 16:49 16.03.2022
2567 Clear 19 1015 22 10000 7.52 6 15:35 16.03.2022
2568 Clear 20 1013 19 10000 6.6 7 13:41 16.03.2022
2569 Clear 20 1012 18 10000 5.92 16 12:59 16.03.2022
2570 Clear 20 1013 18 10000 5.99 17 11:44 16.03.2022
2571 Clear 20 1013 19 10000 6.18 20 11:18 16.03.2022
2572 Clear 18 1014 20 10000 6.65 21 09:58 16.03.2022
2573 Clear 16 1015 22 10000 7.41 17 08:37 16.03.2022
2574 Clear 16 1012 33 10000 5.83 14 03:30 16.03.2022
2575 Clear 20 1011 25 10000 5.98 14 23:37 15.03.2022
2576 Clear 21 1011 24 10000 6.89 15 22:37 15.03.2022
2577 Clear 22 1012 24 10000 7.53 14 21:27 15.03.2022
2578 Clear 24 1011 22 10000 7.75 7 19:47 15.03.2022
2579 Clear 26 1010 20 10000 7.57 7 18:38 15.03.2022
2580 Clear 33 1007 13 10000 1.78 173 16:45 15.03.2022
2581 Clear 36 1006 10 10000 6.43 152 15:44 15.03.2022
2582 Clear 36 1006 7 10000 5.87 183 14:55 15.03.2022
2583 Clear 36 1006 7 10000 5.87 183 14:30 15.03.2022
2584 Clear 35 1006 7 10000 6.08 208 13:24 15.03.2022
2585 Clear 33 1007 7 10000 7 214 11:34 15.03.2022
2586 Clear 32 1007 7 10000 7 214 10:55 15.03.2022
2587 Clear 30 1010 8 10000 7.1 201 09:29 15.03.2022
2588 Clear 26 1010 8 10000 7.1 201 08:32 15.03.2022
2589 Clear 26 1011 9 10000 6.92 196 07:39 15.03.2022
2590 Clear 22 1012 12 10000 4.24 199 06:32 15.03.2022
2591 Clear 21 1011 15 10000 3.05 183 01:57 15.03.2022
2592 Clear 23 1011 15 10000 3.18 187 23:31 14.03.2022
2593 Clear 25 1011 15 10000 3.84 177 22:54 14.03.2022
2594 Clear 26 1012 14 10000 4.65 165 21:56 14.03.2022
2595 Clear 26 1012 12 10000 5.44 161 21:18 14.03.2022
2596 Clear 26 1012 12 10000 5.44 161 20:30 14.03.2022
2597 Clear 27 1012 11 10000 7 148 19:33 14.03.2022
2598 Clear 28 1011 9 10000 6.82 145 17:59 14.03.2022
2599 Clear 28 1011 9 10000 6.82 145 17:41 14.03.2022
2600 Clear 29 1010 9 10000 5.57 145 16:33 14.03.2022
2601 Clear 30 1009 7 10000 6.59 153 14:58 14.03.2022
2602 Clear 30 1009 7 10000 7.25 156 13:58 14.03.2022
2603 Clouds 28 1011 8 10000 8.09 156 11:27 14.03.2022
2604 Clouds 22 1012 11 10000 8.17 155 09:58 14.03.2022
2605 Clouds 22 1012 11 10000 8.17 155 09:38 14.03.2022
2606 Clouds 20 1014 15 10000 7.33 159 08:58 14.03.2022
2607 Clouds 20 1014 15 10000 7.33 159 08:30 14.03.2022
2608 Clouds 15 1015 33 10000 5.8 141 06:47 14.03.2022
2609 Clear 14 1014 44 10000 3.31 79 03:27 14.03.2022
2610 Clear 15 1014 41 10000 2.78 66 01:42 14.03.2022
2611 Clear 16 1013 34 10000 2.38 64 00:29 14.03.2022
2612 Clear 21 1012 28 10000 6.49 134 21:51 13.03.2022
2613 Clear 21 1012 25 10000 7.39 128 21:22 13.03.2022
2614 Clear 22 1012 25 10000 7.39 128 20:46 13.03.2022
2615 Clear 22 1012 21 10000 7.4 115 20:22 13.03.2022
2616 Clear 23 1012 21 10000 7.41 115 19:42 13.03.2022
2617 Clear 23 1012 17 10000 6.61 123 19:22 13.03.2022
2618 Clear 26 1012 17 10000 6.61 123 18:45 13.03.2022
2619 Clear 26 1011 14 10000 6.33 130 18:26 13.03.2022
2620 Clear 27 1011 14 10000 6.33 130 17:38 13.03.2022
2621 Clear 28 1010 13 10000 5.31 122 16:45 13.03.2022
2622 Clear 28 1010 12 10000 4.02 120 16:23 13.03.2022
2623 Clear 29 1010 12 10000 4.02 120 15:42 13.03.2022
2624 Clear 30 1009 11 10000 3.47 129 14:37 13.03.2022
2625 Clear 29 1009 14 10000 5.67 154 13:28 13.03.2022
2626 Clear 30 1010 15 10000 6.38 152 12:23 13.03.2022
2627 Clear 26 1010 15 10000 6.38 152 11:39 13.03.2022
2628 Clear 24 1011 16 10000 6.06 154 10:50 13.03.2022
2629 Clear 24 1012 17 10000 6 153 10:28 13.03.2022
2630 Clear 22 1012 17 10000 6 153 09:42 13.03.2022
2631 Clear 20 1014 19 10000 5.16 141 08:49 13.03.2022
2632 Clear 20 1014 19 10000 5.16 141 08:49 13.03.2022
2633 Clear 20 1015 21 10000 4.85 126 08:29 13.03.2022
2634 Clear 16 1015 22 10000 4.64 113 06:40 13.03.2022
2635 Clear 14 1015 24 10000 3.82 83 04:51 13.03.2022
2636 Clear 15 1013 29 10000 4.26 48 01:46 13.03.2022
2637 Clear 18 1012 35 10000 3.47 67 22:51 12.03.2022
2638 Clear 19 1011 33 10000 4.6 109 21:32 12.03.2022
2639 Clear 21 1011 29 10000 6.81 101 20:19 12.03.2022
2640 Clear 23 1011 29 10000 6.81 101 19:44 12.03.2022
2641 Clear 24 1011 26 10000 6.72 90 18:38 12.03.2022
2642 Clear 26 1009 20 10000 6.84 85 17:48 12.03.2022
2643 Clear 27 1009 16 10000 3.91 82 16:28 12.03.2022
2644 Clear 28 1009 16 10000 3.91 82 15:40 12.03.2022
2645 Clear 28 1008 14 10000 3.64 136 15:18 12.03.2022
2646 Clear 28 1009 15 10000 5.09 145 13:53 12.03.2022
2647 Clear 26 1010 16 10000 5.84 139 12:27 12.03.2022
2648 Clear 25 1010 16 10000 5.84 139 11:52 12.03.2022
2649 Clear 25 1010 18 10000 5.86 125 11:21 12.03.2022
2650 Clear 23 1012 20 10000 5.94 108 09:59 12.03.2022
2651 Clear 23 1012 20 10000 5.94 108 09:40 12.03.2022
2652 Clear 19 1015 27 10000 6.01 85 07:51 12.03.2022
2653 Clear 17 1015 38 10000 6.16 70 05:46 12.03.2022
2654 Clouds 20 1012 30 10000 6.09 40 00:27 12.03.2022
2655 Clouds 21 1012 30 10000 6.09 40 23:37 11.03.2022
2656 Clouds 22 1012 27 10000 7.49 29 21:55 11.03.2022
2657 Clouds 24 1012 25 10000 7.72 20 20:59 11.03.2022
2658 Clouds 24 1012 25 10000 7.72 20 20:40 11.03.2022
2659 Clouds 24 1012 24 10000 8.17 17 20:19 11.03.2022
2660 Clouds 27 1011 22 10000 8.47 22 19:28 11.03.2022
2661 Clouds 31 1009 17 10000 3.9 345 17:38 11.03.2022
2662 Clouds 31 1008 15 10000 3.61 327 17:19 11.03.2022
2663 Clouds 33 1007 14 10000 2.57 314 15:57 11.03.2022
2664 Clouds 33 1006 12 10000 2.91 274 15:29 11.03.2022
2665 Clouds 37 1006 11 10000 4.69 259 13:27 11.03.2022
2666 Clouds 37 1006 10 10000 5.63 249 12:23 11.03.2022
2667 Clouds 35 1006 10 10000 5.63 249 11:56 11.03.2022
2668 Clouds 35 1008 10 10000 6.61 244 10:24 11.03.2022
2669 Clouds 34 1008 10 10000 6.61 244 09:32 11.03.2022
2670 Clouds 32 1010 10 10000 8.14 236 08:25 11.03.2022
2671 Clouds 31 1010 10 10000 8.14 236 07:46 11.03.2022
2672 Clouds 29 1010 12 10000 5.81 238 06:22 11.03.2022
2673 Clouds 26 1009 15 10000 5.12 211 04:24 11.03.2022
2674 Clouds 29 1007 14 10000 6.68 177 00:21 11.03.2022
2675 Clouds 30 1007 14 10000 7.75 174 22:31 10.03.2022
2676 Clouds 30 1007 13 10000 8.96 166 21:50 10.03.2022
2677 Clouds 30 1007 13 10000 8.85 166 21:23 10.03.2022
2678 Clear 33 1007 12 10000 8.28 173 19:51 10.03.2022
2679 Clouds 33 1008 12 10000 7.68 178 18:56 10.03.2022
2680 Clouds 33 1007 11 10000 7.98 171 17:36 10.03.2022
2681 Clouds 36 1006 10 10000 7.14 168 16:37 10.03.2022
2682 Clouds 38 1004 8 10000 7.86 168 15:26 10.03.2022
2683 Clouds 38 1004 7 10000 8.26 177 13:30 10.03.2022
2684 Clear 37 1004 7 10000 6.38 192 12:34 10.03.2022
2685 Clear 36 1006 8 10000 6.31 199 11:20 10.03.2022
2686 Clear 33 1009 10 10000 6.05 199 09:22 10.03.2022
2687 Clear 30 1011 11 10000 6.44 195 07:43 10.03.2022
2688 Clear 21 1010 21 10000 5.42 167 04:47 10.03.2022
2689 Clear 21 1008 21 10000 5.09 160 01:50 10.03.2022
2690 Clouds 25 1009 20 10000 6.11 164 23:28 09.03.2022
2691 Clouds 25 1010 20 10000 6.48 164 21:51 09.03.2022
2692 Clouds 25 1010 20 10000 6.48 164 21:32 09.03.2022
2693 Clouds 27 1010 18 10000 5.85 162 19:55 09.03.2022
2694 Clouds 26 1010 15 10000 4.98 141 18:34 09.03.2022
2695 Clouds 27 1009 15 10000 5.11 142 17:27 09.03.2022
2696 Clouds 29 1009 15 10000 5.11 142 16:31 09.03.2022
2697 Clouds 30 1008 12 10000 6.16 145 15:28 09.03.2022
2698 Clouds 30 1008 11 10000 6 156 13:53 09.03.2022
2699 Clouds 30 1008 11 10000 6.59 166 12:47 09.03.2022
2700 Clouds 29 1009 12 10000 6.99 168 11:54 09.03.2022
2701 Clear 29 1010 13 10000 7.22 163 11:35 09.03.2022
2702 Clear 27 1011 14 10000 7.48 155 10:26 09.03.2022
2703 Clear 24 1013 16 10000 6.92 145 08:54 09.03.2022
2704 Clear 22 1013 17 10000 6.1 132 07:38 09.03.2022
2705 Clouds 18 1011 23 10000 3.26 128 02:46 09.03.2022
2706 Clouds 19 1011 23 10000 2.62 127 00:41 09.03.2022
2707 Clouds 20 1011 22 10000 3.24 96 22:47 08.03.2022
2708 Clouds 21 1012 20 10000 3.7 77 21:59 08.03.2022
2709 Clouds 21 1012 19 10000 4.3 55 21:23 08.03.2022
2710 Clouds 22 1012 18 10000 4.57 49 20:29 08.03.2022
2711 Clouds 23 1012 18 10000 4.57 49 19:31 08.03.2022
2712 Clouds 24 1011 16 10000 5.84 47 18:44 08.03.2022
2713 Clear 25 1009 14 10000 4.61 57 17:26 08.03.2022
2714 Clear 28 1007 11 10000 2.7 85 15:19 08.03.2022
2715 Clear 28 1007 11 10000 2.39 82 14:19 08.03.2022
2716 Clouds 28 1007 11 10000 2.99 91 12:43 08.03.2022
2717 Clouds 28 1008 11 10000 3.3 103 11:45 08.03.2022
2718 Clouds 26 1009 11 10000 3.45 103 10:41 08.03.2022
2719 Clouds 25 1010 12 10000 3.79 94 09:37 08.03.2022
2720 Clouds 20 1012 15 10000 4.73 49 06:43 08.03.2022
2721 Clouds 19 1011 23 10000 3.44 17 04:47 08.03.2022
2722 Clouds 23 1008 20 10000 4.13 20 23:36 07.03.2022
2723 Clouds 24 1008 17 10000 2.43 62 21:50 07.03.2022
2724 Clouds 25 1008 17 10000 2.44 62 21:31 07.03.2022
2725 Clouds 26 1008 15 10000 1.31 319 20:39 07.03.2022
2726 Clouds 27 1008 14 10000 3.51 238 19:55 07.03.2022
2727 Clouds 27 1008 14 10000 4.37 210 19:29 07.03.2022
2728 Clouds 28 1007 13 10000 4.22 212 18:38 07.03.2022
2729 Clouds 30 1007 13 10000 4.35 205 17:41 07.03.2022
2730 Clouds 31 1006 13 10000 4.16 212 16:55 07.03.2022
2731 Clouds 33 1005 10 10000 7.36 221 15:27 07.03.2022
2732 Clouds 32 1005 10 10000 9.22 237 12:48 07.03.2022
2733 Clouds 32 1006 10 10000 9.43 238 12:20 07.03.2022
2734 Clouds 29 1006 10 10000 9.7 235 10:35 07.03.2022
2735 Clouds 27 1009 12 10000 7.84 219 08:39 07.03.2022
2736 Clouds 23 1010 30 10000 5.32 178 02:58 07.03.2022
2737 Clouds 23 1010 31 10000 4.97 173 00:21 07.03.2022
2738 Clouds 23 1011 30 10000 5.4 167 23:28 06.03.2022
2739 Clouds 23 1011 30 10000 5.4 167 22:32 06.03.2022
2740 Clouds 24 1011 29 10000 5.77 163 21:45 06.03.2022
2741 Clouds 24 1011 27 10000 6.04 157 20:30 06.03.2022
2742 Clouds 24 1012 26 10000 6.64 159 19:48 06.03.2022
2743 Clouds 25 1012 24 10000 6.45 154 18:51 06.03.2022
2744 Clouds 26 1011 21 10000 6.39 142 17:49 06.03.2022
2745 Clouds 26 1011 20 10000 5.57 139 17:20 06.03.2022
2746 Clouds 26 1011 20 10000 5.57 139 16:40 06.03.2022
2747 Clouds 27 1010 18 10000 6.13 133 15:37 06.03.2022
2748 Clouds 28 1010 18 10000 6.13 133 14:48 06.03.2022
2749 Clouds 28 1010 17 10000 5.86 131 14:26 06.03.2022
2750 Clouds 28 1010 17 10000 5.52 139 12:40 06.03.2022
2751 Clouds 27 1011 17 10000 5.61 148 11:46 06.03.2022
2752 Clouds 25 1012 18 10000 5.45 146 10:43 06.03.2022
2753 Clouds 23 1015 22 10000 4.59 154 09:25 06.03.2022
2754 Clouds 21 1016 26 10000 4.52 156 08:28 06.03.2022
2755 Clouds 19 1016 26 10000 4.52 156 07:33 06.03.2022
2756 Clouds 14 1015 42 10000 2.16 138 03:18 06.03.2022
2757 Clouds 16 1015 40 10000 2.61 113 00:41 06.03.2022
2758 Clouds 16 1015 40 10000 2.42 120 00:22 06.03.2022
2759 Clouds 15 1015 39 10000 2.45 128 23:19 05.03.2022
2760 Clouds 16 1015 39 10000 2.45 128 22:35 05.03.2022
2761 Clouds 17 1016 38 10000 2.62 120 21:31 05.03.2022
2762 Clouds 18 1016 35 10000 3.81 87 20:38 05.03.2022
2763 Clouds 19 1016 33 10000 5.15 77 19:23 05.03.2022
2764 Clouds 20 1016 33 10000 5.15 77 18:48 05.03.2022
2765 Clouds 21 1015 24 10000 4.1 90 17:35 05.03.2022
2766 Clouds 23 1014 19 10000 2.62 134 16:19 05.03.2022
2767 Clear 24 1014 17 10000 2.94 134 15:20 05.03.2022
2768 Clear 24 1014 17 10000 2.94 134 15:20 05.03.2022
2769 Clear 24 1014 17 10000 2.94 134 14:36 05.03.2022
2770 Clear 24 1014 16 10000 3.1 147 13:44 05.03.2022
2771 Clouds 24 1014 17 10000 4.09 155 12:45 05.03.2022
2772 Clouds 22 1015 17 10000 4.54 134 11:21 05.03.2022
2773 Clouds 21 1015 17 10000 4.54 134 10:52 05.03.2022
2774 Clouds 19 1016 19 10000 4.19 122 09:37 05.03.2022
2775 Clouds 17 1018 21 10000 3.79 108 08:31 05.03.2022
2776 Clouds 16 1019 24 10000 3.86 75 07:22 05.03.2022
2777 Clouds 15 1019 28 10000 4.11 70 05:39 05.03.2022
2778 Clouds 16 1016 30 10000 4.73 27 00:49 05.03.2022
2779 Clouds 17 1016 31 10000 4.96 37 22:58 04.03.2022
2780 Clouds 17 1016 31 10000 4.96 37 22:38 04.03.2022
2781 Clouds 17 1017 31 10000 5.87 32 21:43 04.03.2022
2782 Clouds 18 1016 30 10000 6.12 31 20:42 04.03.2022
2783 Clouds 18 1016 29 10000 6.89 30 19:37 04.03.2022
2784 Clouds 19 1016 30 10000 7.24 28 18:58 04.03.2022
2785 Clouds 19 1015 31 10000 7.26 32 18:35 04.03.2022
2786 Clouds 20 1013 28 10000 7.46 31 17:29 04.03.2022
2787 Clouds 21 1012 27 10000 7.8 26 15:58 04.03.2022
2788 Clouds 21 1012 25 10000 7.6 24 15:25 04.03.2022
2789 Clouds 23 1011 23 10000 7.02 20 13:36 04.03.2022
2790 Clouds 23 1011 21 10000 6.26 13 12:47 04.03.2022
2791 Clouds 23 1011 22 10000 6.12 4 11:37 04.03.2022
2792 Clouds 23 1011 22 10000 6.12 4 11:37 04.03.2022
2793 Clouds 23 1013 15 10000 5.63 318 10:26 04.03.2022
2794 Clouds 24 1014 12 10000 6.3 291 09:28 04.03.2022
2795 Clouds 26 1015 10 10000 7.27 256 07:49 04.03.2022
2796 Clouds 23 1014 12 10000 6.25 226 06:26 04.03.2022
2797 Clouds 22 1012 13 10000 4.96 185 02:26 04.03.2022
2798 Clouds 26 1012 13 10000 7.43 176 23:41 03.03.2022
2799 Clouds 26 1012 13 10000 9.24 168 22:18 03.03.2022
2800 Clouds 27 1014 14 10000 7.9 174 21:36 03.03.2022
2801 Clouds 27 1014 14 10000 7.9 174 20:50 03.03.2022
2802 Clouds 28 1014 15 10000 7.08 173 19:34 03.03.2022
2803 Clouds 28 1013 15 10000 6.71 173 18:33 03.03.2022
2804 Clouds 29 1013 14 10000 6.43 173 17:43 03.03.2022
2805 Clouds 29 1012 13 10000 5.84 170 17:24 03.03.2022
2806 Clouds 31 1012 12 10000 5.4 172 15:47 03.03.2022
2807 Clouds 33 1011 10 10000 6.14 186 14:51 03.03.2022
2808 Clouds 33 1011 10 10000 6.14 186 14:32 03.03.2022
2809 Clouds 32 1010 10 10000 6.4 192 12:43 03.03.2022
2810 Clouds 31 1012 11 10000 6.62 184 11:32 03.03.2022
2811 Clouds 30 1012 11 10000 6.62 184 10:39 03.03.2022
2812 Clouds 26 1015 14 10000 7.56 183 08:44 03.03.2022
2813 Clouds 22 1016 20 10000 7.72 177 06:58 03.03.2022
2814 Clouds 22 1017 24 10000 6.02 172 06:23 03.03.2022
2815 Clouds 21 1015 27 10000 4.94 170 00:43 03.03.2022
2816 Clouds 21 1016 26 10000 4.83 168 23:28 02.03.2022
2817 Clouds 21 1016 26 10000 4.83 168 22:48 02.03.2022
2818 Clouds 22 1017 25 10000 4.6 164 21:23 02.03.2022
2819 Clouds 26 1017 25 10000 4.6 164 20:30 02.03.2022
2820 Clear 26 1017 24 10000 4.19 167 19:49 02.03.2022
2821 Clear 26 1017 24 10000 4.19 167 19:30 02.03.2022
2822 Clear 27 1016 21 10000 4.13 165 18:39 02.03.2022
2823 Clear 27 1016 21 10000 4.13 165 18:39 02.03.2022
2824 Clear 27 1016 21 10000 4.13 165 18:39 02.03.2022
2825 Clear 27 1016 19 10000 4.32 158 17:45 02.03.2022
2826 Clear 29 1015 18 10000 4.94 142 16:56 02.03.2022
2827 Clear 29 1015 18 10000 4.94 142 16:36 02.03.2022
2828 Clear 32 1013 14 10000 6.29 140 14:42 02.03.2022
2829 Clear 32 1013 12 10000 5.91 156 13:24 02.03.2022
2830 Clear 31 1013 12 10000 6.26 152 12:41 02.03.2022
2831 Clear 30 1013 13 10000 5.92 160 11:39 02.03.2022
2832 Clear 30 1015 13 10000 5.72 170 11:18 02.03.2022
2833 Clear 26 1016 15 10000 6.1 175 09:41 02.03.2022
2834 Clear 24 1018 17 10000 6.68 175 08:52 02.03.2022
2835 Clear 23 1020 23 10000 6.54 167 07:28 02.03.2022
2836 Clear 17 1019 27 10000 5.56 162 05:44 02.03.2022
2837 Clear 17 1019 27 10000 5.56 162 05:44 02.03.2022
2838 Clear 17 1019 32 10000 4 155 00:58 02.03.2022
2839 Clear 17 1019 31 10000 4.17 145 23:46 01.03.2022
2840 Clear 18 1019 30 10000 4.31 138 22:45 01.03.2022
2841 Clear 19 1020 29 10000 3.92 133 21:56 01.03.2022
2842 Clear 19 1020 28 10000 4.06 124 21:21 01.03.2022
2843 Clear 19 1020 27 10000 4.11 115 20:24 01.03.2022
2844 Clear 21 1019 24 10000 4.69 110 19:23 01.03.2022
2845 Clear 22 1019 24 10000 4.69 110 18:37 01.03.2022
2846 Clear 22 1018 23 10000 4.72 105 18:18 01.03.2022
2847 Clear 25 1018 22 10000 3.86 122 16:54 01.03.2022
2848 Clear 25 1018 22 10000 3.86 122 16:30 01.03.2022
2849 Clear 26 1017 18 10000 3.25 131 15:23 01.03.2022
2850 Clear 26 1017 18 10000 3.25 131 14:34 01.03.2022
2851 Clear 27 1017 18 10000 2.62 128 13:45 01.03.2022
2852 Clouds 27 1017 17 10000 2.66 132 13:22 01.03.2022
2853 Clouds 27 1017 18 10000 2.75 139 12:27 01.03.2022
2854 Clouds 24 1019 18 10000 2.86 134 10:32 01.03.2022
2855 Clear 21 1022 23 10000 2.46 128 08:41 01.03.2022
2856 Clear 19 1022 23 10000 2.46 128 07:40 01.03.2022
2857 Clear 12 1021 33 10000 2.23 109 04:50 01.03.2022
2858 Clear 14 1020 33 10000 1.68 83 01:48 01.03.2022
2859 Clear 15 1020 31 10000 2.77 81 00:24 01.03.2022
2860 Clear 16 1020 30 10000 3.25 73 23:19 28.02.2022
2861 Clear 18 1020 28 10000 3.59 75 21:59 28.02.2022
2862 Clear 18 1020 26 10000 3.92 75 21:24 28.02.2022
2863 Clear 20 1020 25 10000 4.27 66 19:53 28.02.2022
2864 Clear 20 1020 25 10000 4.21 61 19:27 28.02.2022
2865 Clear 21 1020 24 10000 4.77 61 18:38 28.02.2022
2866 Clear 22 1018 22 10000 4.31 59 17:24 28.02.2022
2867 Clear 23 1018 22 10000 4.31 59 16:33 28.02.2022
2868 Clear 24 1017 19 10000 2.64 68 15:23 28.02.2022
2869 Clear 25 1017 19 10000 2.64 68 14:31 28.02.2022
2870 Clear 25 1016 19 10000 2.32 72 13:34 28.02.2022
2871 Clear 24 1016 19 10000 1.94 86 12:41 28.02.2022
2872 Clear 23 1017 19 10000 2.27 73 11:44 28.02.2022
2873 Clear 22 1018 20 10000 2.36 77 10:48 28.02.2022
2874 Clear 22 1019 21 10000 2.58 65 10:20 28.02.2022
2875 Clear 21 1020 23 10000 3.12 51 09:32 28.02.2022
2876 Clear 19 1023 26 10000 5.14 30 08:29 28.02.2022
2877 Clear 18 1023 27 10000 2.57 50 07:28 28.02.2022
2878 Clear 12 1021 35 10000 2.61 17 04:44 28.02.2022
2879 Clear 12 1020 36 10000 3.18 15 04:23 28.02.2022
2880 Clear 15 1019 28 10000 3.72 38 23:27 27.02.2022
2881 Clear 16 1019 28 10000 3.72 38 22:33 27.02.2022
2882 Clear 17 1020 27 10000 3.66 29 21:51 27.02.2022
2883 Clear 18 1020 26 10000 3.74 26 20:59 27.02.2022
2884 Clear 18 1020 25 10000 3.67 31 20:27 27.02.2022
2885 Clear 19 1020 25 10000 3.67 31 19:57 27.02.2022
2886 Clear 19 1020 24 10000 3.9 35 19:26 27.02.2022
2887 Clear 20 1020 24 10000 3.9 35 18:47 27.02.2022
2888 Clear 21 1019 22 10000 4.51 36 17:55 27.02.2022
2889 Clear 23 1018 21 10000 4.46 37 16:45 27.02.2022
2890 Clear 23 1017 20 10000 4.54 31 16:21 27.02.2022
2891 Clouds 24 1016 19 10000 4.69 22 13:25 27.02.2022
2892 Clear 24 1020 17 10000 2.57 40 12:32 27.02.2022
2893 Clear 22 1022 21 10000 6.69 360 10:56 27.02.2022
2894 Clear 22 1022 21 10000 6.69 360 10:19 27.02.2022
2895 Clear 21 1022 23 10000 6.69 20 09:49 27.02.2022
2896 Clear 21 1022 23 10000 6.69 20 09:20 27.02.2022
2897 Clouds 18 1023 27 10000 5.14 100 07:37 27.02.2022
2898 Clouds 14 1019 33 10000 3.6 320 05:38 27.02.2022
2899 Clouds 17 1017 27 10000 6.68 13 01:53 27.02.2022
2900 Clear 19 1016 31 10000 6.71 8 23:23 26.02.2022
2901 Clear 21 1016 36 10000 7.16 7 21:58 26.02.2022
2902 Clear 22 1016 38 10000 6.7 7 20:59 26.02.2022
2903 Clear 22 1015 36 10000 6.52 11 20:20 26.02.2022
2904 Clear 23 1015 36 10000 6.52 11 19:49 26.02.2022
2905 Clear 23 1015 32 10000 5.48 9 19:26 26.02.2022
2906 Clear 26 1014 30 10000 4.85 26 17:52 26.02.2022
2907 Clear 26 1013 27 10000 4.19 19 17:28 26.02.2022
2908 Clear 29 1012 25 10000 3.86 12 15:57 26.02.2022
2909 Clear 29 1011 22 10000 3.85 358 15:25 26.02.2022
2910 Clear 30 1011 22 10000 3.85 358 14:55 26.02.2022
2911 Clear 30 1011 22 10000 3.85 358 14:36 26.02.2022
2912 Clear 31 1011 22 10000 3.57 352 13:24 26.02.2022
2913 Clear 30 1015 19 10000 3.09 30 12:51 26.02.2022
2914 Clear 30 1015 20 10000 3.09 310 11:29 26.02.2022
2915 Clear 30 1015 17 10000 1.54 320 10:55 26.02.2022
2916 Clear 29 1015 18 10000 2.57 310 09:18 26.02.2022
2917 Clear 25 1016 18 10000 2.57 210 07:57 26.02.2022
2918 Clouds 19 1011 19 10000 3.58 192 02:53 26.02.2022
2919 Clouds 22 1011 17 10000 3.72 164 23:31 25.02.2022
2920 Clouds 24 1012 16 10000 4.16 174 21:48 25.02.2022
2921 Clouds 24 1012 15 10000 5.8 152 21:29 25.02.2022
2922 Clouds 25 1012 15 10000 5.8 152 20:33 25.02.2022
2923 Clouds 24 1012 14 10000 5.74 147 19:39 25.02.2022
2924 Clouds 27 1012 13 10000 4.27 160 17:33 25.02.2022
2925 Clouds 28 1012 12 10000 3.98 167 16:44 25.02.2022
2926 Clouds 29 1010 11 10000 6.23 141 15:48 25.02.2022
2927 Clouds 29 1010 9 10000 6.12 137 15:23 25.02.2022
2928 Clouds 30 1010 9 10000 6.12 137 14:42 25.02.2022
2929 Clouds 30 1010 7 10000 4.29 145 13:58 25.02.2022
2930 Clouds 30 1010 7 10000 3.3 165 13:20 25.02.2022
2931 Clouds 29 1017 10 10000 4.12 170 11:28 25.02.2022
2932 Clear 27 1017 11 10000 4.12 180 10:54 25.02.2022
2933 Clear 27 1017 11 10000 4.12 180 10:23 25.02.2022
2934 Clear 26 1017 11 10000 4.12 170 09:35 25.02.2022
2935 Clear 21 1018 14 10000 2.57 140 07:44 25.02.2022
2936 Clear 16 1017 33 10000 2.06 130 06:19 25.02.2022
2937 Clear 12 1017 37 10000 1.54 140 05:36 25.02.2022
2938 Clouds 18 1014 19 10000 4.52 173 00:30 25.02.2022
2939 Clear 20 1015 17 10000 5.49 158 22:20 24.02.2022
2940 Clear 20 1015 17 10000 5.49 158 21:42 24.02.2022
2941 Clear 20 1015 16 10000 5.49 157 21:20 24.02.2022
2942 Clear 20 1015 16 10000 5.49 157 20:30 24.02.2022
2943 Clear 23 1015 13 10000 6.5 148 18:52 24.02.2022
2944 Clear 23 1015 11 10000 5.88 143 18:19 24.02.2022
2945 Clear 25 1015 11 10000 5.88 143 17:42 24.02.2022
2946 Clear 26 1014 10 10000 5.27 143 16:56 24.02.2022
2947 Clear 26 1014 10 10000 5.37 141 16:25 24.02.2022
2948 Clear 26 1014 10 10000 5.37 141 16:25 24.02.2022
2949 Clear 27 1014 10 10000 5.36 141 15:30 24.02.2022
2950 Clear 28 1013 8 10000 6.27 142 14:37 24.02.2022
2951 Clear 28 1016 9 10000 4.63 140 13:42 24.02.2022
2952 Clear 28 1016 9 10000 4.63 140 13:24 24.02.2022
2953 Clear 25 1018 12 10000 5.14 130 10:48 24.02.2022
2954 Clear 23 1019 14 10000 4.63 160 09:41 24.02.2022
2955 Clear 22 1020 16 10000 7.2 150 08:42 24.02.2022
2956 Clear 18 1019 20 10000 4.12 170 06:25 24.02.2022
2957 Clear 13 1019 35 10000 2.06 0 05:36 24.02.2022
2958 Clear 15 1017 20 10000 4.33 148 00:30 24.02.2022
2959 Clear 17 1018 19 10000 3.92 146 21:55 23.02.2022
2960 Clear 17 1018 18 10000 4.33 145 20:32 23.02.2022
2961 Clear 19 1018 17 10000 4.09 144 19:56 23.02.2022
2962 Clear 20 1017 16 10000 4.29 132 18:59 23.02.2022
2963 Clear 21 1017 16 10000 4.29 125 17:46 23.02.2022
2964 Clear 25 1016 14 10000 3.52 124 15:47 23.02.2022
2965 Clear 26 1015 12 10000 3.37 132 13:34 23.02.2022
2966 Clear 25 1017 14 10000 4.63 160 12:28 23.02.2022
2967 Clear 23 1019 14 10000 3.6 160 10:55 23.02.2022
2968 Clear 21 1020 16 10000 4.12 170 09:31 23.02.2022
2969 Clear 20 1021 15 10000 6.17 130 08:28 23.02.2022
2970 Clear 18 1021 45 10000 4.63 160 07:19 23.02.2022
2971 Clear 11 1017 27 10000 2.33 156 02:22 23.02.2022
2972 Clear 11 1017 25 10000 2.89 146 23:46 22.02.2022
2973 Clear 11 1017 24 10000 2.69 142 23:28 22.02.2022
2974 Clear 12 1018 24 10000 2.61 127 22:28 22.02.2022
2975 Clear 14 1018 24 10000 2.61 127 21:40 22.02.2022
2976 Clear 14 1018 22 10000 2.71 103 21:19 22.02.2022
2977 Clear 16 1018 22 10000 2.71 103 20:31 22.02.2022
2978 Clear 17 1018 21 10000 2.65 87 19:54 22.02.2022
2979 Clear 17 1018 20 10000 2.64 87 19:33 22.02.2022
2980 Clear 18 1017 19 10000 3.02 75 18:35 22.02.2022
2981 Clear 19 1017 17 10000 1.38 41 17:27 22.02.2022
2982 Clear 21 1017 17 10000 1.38 41 16:55 22.02.2022
2983 Clear 21 1016 16 10000 1.36 38 16:19 22.02.2022
2984 Clear 23 1016 13 10000 1.65 27 15:18 22.02.2022
2985 Clear 24 1015 13 10000 1.22 18 13:37 22.02.2022
2986 Clear 21 1021 24 10000 5.14 50 11:18 22.02.2022
2987 Clear 21 1021 17 10000 3.09 0 09:22 22.02.2022
2988 Clear 20 1021 19 10000 0.51 0 07:29 22.02.2022
2989 Clear 16 1021 27 10000 0.51 0 06:54 22.02.2022
2990 Clear 10 1019 31 10000 2.95 330 02:49 22.02.2022
2991 Clear 13 1019 29 10000 3.16 324 23:18 21.02.2022
2992 Clear 15 1020 28 10000 3.2 322 21:56 21.02.2022
2993 Clear 16 1020 27 10000 3.41 327 20:38 21.02.2022
2994 Clear 18 1019 23 10000 4.44 349 18:47 21.02.2022
2995 Clear 18 1019 22 10000 4.82 351 18:19 21.02.2022
2996 Clear 21 1017 18 10000 6.24 344 15:49 21.02.2022
2997 Clear 22 1016 14 10000 7.75 338 14:22 21.02.2022
2998 Clear 23 1016 14 10000 7.75 338 13:31 21.02.2022
2999 Clear 21 1019 14 10000 7.2 330 12:41 21.02.2022
3000 Clear 22 1016 16 10000 8.52 335 12:20 21.02.2022
3001 Clear 19 1020 19 10000 7.72 340 10:26 21.02.2022
3002 Clear 14 1021 42 10000 6.69 326 06:25 21.02.2022
3003 Clear 15 1019 44 10000 7.34 336 00:35 21.02.2022
3004 Clouds 17 1018 28 10000 6.29 316 22:32 20.02.2022
3005 Clouds 17 1018 28 10000 4.95 302 21:43 20.02.2022
3006 Clouds 17 1018 26 10000 4.93 304 21:21 20.02.2022
3007 Clouds 18 1018 26 10000 4.93 304 20:43 20.02.2022
3008 Clear 19 1018 25 10000 5.72 310 19:48 20.02.2022
3009 Clear 20 1018 24 10000 5.48 320 18:55 20.02.2022
3010 Clear 20 1018 21 10000 6.93 320 18:34 20.02.2022
3011 Clear 20 1018 21 10000 6.93 320 18:34 20.02.2022
3012 Clear 21 1017 19 10000 6.81 322 17:55 20.02.2022
3013 Clear 23 1015 14 10000 5.9 302 16:18 20.02.2022
3014 Clear 25 1014 13 10000 7.05 294 14:53 20.02.2022
3015 Clear 24 1013 12 10000 7.2 294 13:58 20.02.2022
3016 Clouds 25 1013 13 10000 5.46 292 12:35 20.02.2022
3017 Clouds 24 1013 15 10000 4.88 299 10:52 20.02.2022
3018 Clouds 24 1014 18 10000 4.84 305 10:20 20.02.2022
3019 Clouds 23 1015 20 10000 5.31 314 08:58 20.02.2022
3020 Clouds 21 1013 22 10000 4.21 290 01:19 20.02.2022
3021 Clouds 22 1013 35 10000 5.9 314 00:30 20.02.2022
3022 Clouds 23 1013 19 10000 4.92 221 23:19 19.02.2022
3023 Clouds 23 1013 20 10000 5.77 169 22:23 19.02.2022
3024 Clouds 24 1013 20 10000 5.77 169 21:39 19.02.2022
3025 Clouds 25 1012 18 10000 7.89 158 19:58 19.02.2022
3026 Clouds 25 1012 18 10000 7.89 158 19:33 19.02.2022
3027 Clear 25 1012 17 10000 7.49 149 18:38 19.02.2022
3028 Clear 26 1011 17 10000 7.56 141 17:37 19.02.2022
3029 Clear 27 1011 16 10000 5.98 153 16:34 19.02.2022
3030 Clear 28 1010 13 10000 9.07 166 15:19 19.02.2022
3031 Clear 28 1010 13 10000 9.07 166 14:52 19.02.2022
3032 Clear 28 1009 13 10000 10.43 168 13:45 19.02.2022
3033 Clear 27 1010 13 10000 10.72 171 11:39 19.02.2022
3034 Clear 25 1011 14 10000 10.88 172 10:30 19.02.2022
3035 Clear 20 1014 18 10000 10.7 162 07:55 19.02.2022
3036 Clear 16 1014 28 10000 6.65 152 04:32 19.02.2022
3037 Clear 17 1012 26 10000 6.14 152 23:38 18.02.2022
3038 Clear 17 1012 25 10000 7 149 21:53 18.02.2022
3039 Clear 18 1012 24 10000 7.09 147 20:51 18.02.2022
3040 Clear 20 1013 23 10000 6.94 145 19:54 18.02.2022
3041 Clear 22 1013 23 10000 6.3 145 18:50 18.02.2022
3042 Clear 22 1012 22 10000 6.59 141 18:22 18.02.2022
3043 Clear 23 1012 22 10000 6.59 141 17:51 18.02.2022
3044 Clear 24 1010 18 10000 7.49 159 15:22 18.02.2022
3045 Clear 24 1010 18 10000 8.18 163 13:55 18.02.2022
3046 Clear 23 1010 16 10000 8.62 160 12:53 18.02.2022
3047 Clear 23 1010 16 10000 8.62 160 12:33 18.02.2022
3048 Clear 22 1012 18 10000 8.78 160 11:29 18.02.2022
3049 Clear 20 1013 20 10000 8.84 156 10:23 18.02.2022
3050 Clear 14 1015 30 10000 7.93 145 06:57 18.02.2022
3051 Clear 12 1015 32 10000 6.66 138 05:40 18.02.2022
3052 Clear 15 1013 26 10000 4.66 130 23:31 17.02.2022
3053 Clear 16 1014 24 10000 4.89 122 21:45 17.02.2022
3054 Clear 16 1014 23 10000 5.11 112 21:19 17.02.2022
3055 Clear 17 1014 23 10000 5.11 112 20:37 17.02.2022
3056 Clear 18 1014 22 10000 5.79 103 19:48 17.02.2022
3057 Clouds 19 1013 20 10000 6 94 18:41 17.02.2022
3058 Clouds 20 1013 20 10000 6.01 94 17:50 17.02.2022
3059 Clouds 21 1012 19 10000 4.88 110 16:29 17.02.2022
3060 Clouds 23 1012 19 10000 4.88 110 15:32 17.02.2022
3061 Clouds 23 1011 17 10000 5.1 133 14:26 17.02.2022
3062 Clear 23 1011 17 10000 4.65 135 12:36 17.02.2022
3063 Clear 22 1013 17 10000 5.56 127 11:23 17.02.2022
3064 Clear 22 1013 17 10000 5.56 127 11:23 17.02.2022
3065 Clear 18 1015 20 10000 6.03 114 08:52 17.02.2022
3066 Clear 14 1013 24 10000 4.22 81 01:45 17.02.2022
3067 Clear 15 1013 21 10000 4.33 85 23:19 16.02.2022
3068 Clear 17 1013 20 10000 4.22 83 21:31 16.02.2022
3069 Clear 19 1013 18 10000 3.73 118 19:46 16.02.2022
3070 Clear 20 1012 17 10000 4.19 115 18:38 16.02.2022
3071 Clear 21 1011 16 10000 4.39 126 17:49 16.02.2022
3072 Clear 25 1011 14 10000 4.48 117 15:36 16.02.2022
3073 Clear 26 1010 12 10000 3.69 116 14:57 16.02.2022
3074 Clear 26 1010 11 10000 1.99 135 12:35 16.02.2022
3075 Clear 25 1011 12 10000 1.42 157 11:55 16.02.2022
3076 Clear 25 1012 12 10000 1.18 184 11:24 16.02.2022
3077 Clear 24 1014 13 10000 1.02 212 10:30 16.02.2022
3078 Clear 14 1016 18 10000 2.32 157 06:57 16.02.2022
3079 Clear 9 1016 23 10000 2.45 142 04:43 16.02.2022
3080 Clear 13 1015 20 10000 2.18 123 23:44 15.02.2022
3081 Clear 13 1016 19 10000 1.78 142 22:19 15.02.2022
3082 Clear 14 1016 19 10000 1.78 142 21:45 15.02.2022
3083 Clear 14 1016 18 10000 2.06 145 21:27 15.02.2022
3084 Clear 14 1016 18 10000 2.06 145 20:55 15.02.2022
3085 Clear 17 1016 18 10000 2.16 145 19:57 15.02.2022
3086 Clear 19 1017 17 10000 2.25 132 18:52 15.02.2022
3087 Clear 19 1016 17 10000 2.63 122 18:20 15.02.2022
3088 Clear 19 1016 17 10000 2.63 122 17:48 15.02.2022
3089 Clear 22 1016 16 10000 3.05 113 16:32 15.02.2022
3090 Clear 24 1015 12 10000 2.03 105 15:22 15.02.2022
3091 Clear 24 1014 12 10000 0.76 140 13:26 15.02.2022
3092 Clear 23 1015 12 10000 1.04 184 11:57 15.02.2022
3093 Clear 22 1016 13 10000 1.52 180 10:59 15.02.2022
3094 Clear 21 1018 15 10000 2.76 165 09:28 15.02.2022
3095 Clear 13 1020 17 10000 2.06 150 06:50 15.02.2022
3096 Clear 9 1018 22 10000 1.65 108 02:36 15.02.2022
3097 Clear 11 1018 20 10000 1.94 60 22:25 14.02.2022
3098 Clear 13 1019 19 10000 2.11 46 21:27 14.02.2022
3099 Clear 14 1019 19 10000 2.11 46 20:30 14.02.2022
3100 Clear 15 1018 19 10000 2.15 41 19:32 14.02.2022
3101 Clear 17 1018 17 10000 2.76 35 18:30 14.02.2022
3102 Clear 18 1018 17 10000 2.14 21 17:58 14.02.2022
3103 Clear 18 1017 16 10000 2.03 10 17:24 14.02.2022
3104 Clear 22 1017 16 10000 2.05 8 15:59 14.02.2022
3105 Clear 22 1015 14 10000 2.01 359 13:44 14.02.2022
3106 Clear 22 1015 13 10000 2.22 2 13:23 14.02.2022
3107 Clear 22 1015 13 10000 2.22 2 12:32 14.02.2022
3108 Clear 21 1016 14 10000 2.51 354 11:54 14.02.2022
3109 Clear 19 1017 15 10000 2.35 348 10:31 14.02.2022
3110 Clear 16 1019 19 10000 3.02 348 08:43 14.02.2022
3111 Clear 14 1020 22 10000 3.52 343 07:30 14.02.2022
3112 Clear 10 1018 32 10000 3.84 326 23:45 13.02.2022
3113 Clear 11 1018 31 10000 3.85 322 22:42 13.02.2022
3114 Clear 11 1019 31 10000 3.74 317 22:23 13.02.2022
3115 Clear 12 1019 31 10000 3.74 317 21:30 13.02.2022
3116 Clear 13 1019 30 10000 3.41 316 20:33 13.02.2022
3117 Clear 15 1019 28 10000 3.62 334 19:29 13.02.2022
3118 Clear 16 1019 27 10000 3.73 343 18:44 13.02.2022
3119 Clear 17 1019 26 10000 3.9 341 17:57 13.02.2022
3120 Clear 19 1017 23 10000 5.28 341 15:54 13.02.2022
3121 Clear 19 1017 21 10000 6.95 340 15:20 13.02.2022
3122 Clear 20 1016 20 10000 7.44 338 13:59 13.02.2022
3123 Clear 20 1016 20 10000 7.46 337 12:50 13.02.2022
3124 Clear 19 1017 21 10000 7.57 335 11:35 13.02.2022
3125 Clear 18 1018 22 10000 7.55 336 10:32 13.02.2022
3126 Clear 17 1019 24 10000 7.43 336 09:45 13.02.2022
3127 Clear 14 1022 33 10000 8.03 330 07:21 13.02.2022
3128 Clear 10 1021 40 10000 4.41 327 00:35 13.02.2022
3129 Clear 11 1021 40 10000 4.41 327 23:39 12.02.2022
3130 Clear 12 1021 37 10000 4.44 334 22:33 12.02.2022
3131 Clear 13 1021 31 10000 5.85 342 21:20 12.02.2022
3132 Clear 14 1021 29 10000 6.5 344 20:34 12.02.2022
3133 Clear 14 1021 31 10000 6.66 344 19:27 12.02.2022
3134 Clear 15 1021 31 10000 6.66 344 18:53 12.02.2022
3135 Clear 15 1021 29 10000 6.51 346 18:35 12.02.2022
3136 Clear 17 1019 30 10000 7.03 346 16:58 12.02.2022
3137 Clear 17 1019 29 10000 6.87 344 16:25 12.02.2022
3138 Clear 19 1019 29 10000 6.87 344 15:50 12.02.2022
3139 Clear 19 1018 27 10000 7.34 342 14:31 12.02.2022
3140 Clouds 20 1017 26 10000 7.21 342 13:19 12.02.2022
3141 Clouds 17 1018 26 10000 6.97 351 10:41 12.02.2022
3142 Clouds 16 1019 27 10000 7.29 356 09:39 12.02.2022
3143 Clouds 16 1020 29 10000 7.83 357 09:20 12.02.2022
3144 Clouds 16 1020 30 10000 7.77 358 08:18 12.02.2022
3145 Clouds 16 1020 30 10000 7.77 358 08:18 12.02.2022
3146 Clouds 16 1020 30 10000 7.77 358 08:18 12.02.2022
3147 Clouds 13 1020 35 10000 7.33 3 05:33 12.02.2022
3148 Clouds 13 1018 38 10000 5.66 14 04:27 12.02.2022
3149 Clouds 14 1016 43 10000 5.85 8 02:18 12.02.2022
3150 Clear 16 1015 41 10000 4.79 28 22:29 11.02.2022
3151 Clear 17 1015 41 10000 4.79 28 21:55 11.02.2022
3152 Clear 18 1015 37 10000 4.98 39 20:41 11.02.2022
3153 Clear 19 1015 34 10000 5.76 35 19:46 11.02.2022
3154 Clear 19 1015 30 10000 5.01 19 19:26 11.02.2022
3155 Clear 22 1014 22 10000 2.33 16 17:55 11.02.2022
3156 Clear 22 1012 17 10000 2.62 165 17:25 11.02.2022
3157 Clear 23 1012 15 10000 3.68 199 16:22 11.02.2022
3158 Clear 28 1011 13 10000 4.28 215 14:43 11.02.2022
3159 Clear 28 1011 12 10000 5.21 225 14:21 11.02.2022
3160 Clear 28 1011 12 10000 5.21 225 13:57 11.02.2022
3161 Clear 28 1011 12 10000 5.21 225 13:39 11.02.2022
3162 Clear 26 1012 15 10000 6.15 244 11:42 11.02.2022
3163 Clear 24 1014 13 10000 6.1 222 09:58 11.02.2022
3164 Clear 21 1015 13 10000 5.7 217 08:49 11.02.2022
3165 Clear 21 1016 15 10000 4.85 210 08:26 11.02.2022
3166 Clear 19 1016 18 10000 3.6 205 07:18 11.02.2022
3167 Clear 17 1014 24 10000 5.89 167 02:26 11.02.2022
3168 Clear 18 1014 24 10000 6.3 166 00:52 11.02.2022
3169 Clear 19 1014 23 10000 6.16 162 22:51 10.02.2022
3170 Clear 20 1015 22 10000 6.2 160 21:46 10.02.2022
3171 Clear 20 1015 22 10000 6.23 159 20:59 10.02.2022
3172 Clear 20 1015 22 10000 6.23 159 20:35 10.02.2022
3173 Clear 21 1016 21 10000 6.03 157 19:26 10.02.2022
3174 Clear 21 1015 21 10000 6.36 155 18:45 10.02.2022
3175 Clear 22 1014 20 10000 6.36 158 17:26 10.02.2022
3176 Clear 23 1014 20 10000 6.36 158 16:50 10.02.2022
3177 Clear 25 1014 19 10000 6.69 152 15:51 10.02.2022
3178 Clear 25 1014 19 10000 6.69 152 15:30 10.02.2022
3179 Clear 26 1013 18 10000 7.1 153 14:48 10.02.2022
3180 Clear 26 1013 17 10000 7.65 153 14:24 10.02.2022
3181 Clear 25 1013 16 10000 6.52 156 13:29 10.02.2022
3182 Clear 25 1013 16 10000 6.52 156 12:45 10.02.2022
3183 Clear 24 1013 15 10000 5.6 157 11:33 10.02.2022
3184 Clear 23 1014 15 10000 5.63 162 10:44 10.02.2022
3185 Clear 21 1016 16 10000 5.35 165 09:57 10.02.2022
3186 Clear 21 1017 17 10000 5.28 168 09:23 10.02.2022
3187 Clear 18 1018 23 10000 5.38 161 07:19 10.02.2022
3188 Clear 12 1018 32 10000 4.36 155 04:23 10.02.2022
3189 Clear 13 1017 31 10000 4.31 161 01:48 10.02.2022
3190 Clear 14 1017 30 10000 4.47 159 00:44 10.02.2022
3191 Clear 14 1018 30 10000 4.25 153 00:26 10.02.2022
3192 Clear 14 1018 29 10000 4.32 149 23:22 09.02.2022
3193 Clear 15 1018 29 10000 4.32 149 22:35 09.02.2022
3194 Clear 14 1019 28 10000 4.32 144 21:50 09.02.2022
3195 Clear 14 1019 26 10000 4.11 145 21:28 09.02.2022
3196 Clear 15 1019 26 10000 4.11 145 20:47 09.02.2022
3197 Clear 15 1019 25 10000 3.9 141 20:24 09.02.2022
3198 Clear 17 1019 25 10000 3.9 141 19:45 09.02.2022
3199 Clear 17 1019 24 10000 3.86 135 19:22 09.02.2022
3200 Clear 19 1018 23 10000 3.87 132 17:35 09.02.2022
3201 Clear 20 1018 22 10000 4.12 133 16:32 09.02.2022
3202 Clear 22 1017 21 10000 3.82 137 15:33 09.02.2022
3203 Clear 23 1017 18 10000 2.94 134 14:25 09.02.2022
3204 Clear 23 1018 18 10000 2.25 136 12:28 09.02.2022
3205 Clear 21 1019 19 10000 2.31 147 10:47 09.02.2022
3206 Clear 18 1020 21 10000 2.24 151 09:59 09.02.2022
3207 Clear 18 1022 23 10000 2.27 147 09:23 09.02.2022
3208 Clear 17 1022 23 10000 2.27 147 08:58 09.02.2022
3209 Clear 15 1023 25 10000 2.18 144 07:47 09.02.2022
3210 Clear 8 1023 31 10000 1.68 151 05:30 09.02.2022
3211 Clear 8 1023 31 10000 1.68 151 05:30 09.02.2022
3212 Clear 8 1022 37 10000 1.37 124 03:50 09.02.2022
3213 Clear 10 1021 35 10000 1.31 95 00:23 09.02.2022
3214 Clear 11 1021 35 10000 1.31 95 23:30 08.02.2022
3215 Clear 12 1022 33 10000 1.64 74 22:46 08.02.2022
3216 Clear 12 1022 31 10000 2.12 63 22:21 08.02.2022
3217 Clear 13 1022 31 10000 2.12 63 21:38 08.02.2022
3218 Clear 13 1022 30 10000 2.62 54 21:19 08.02.2022
3219 Clear 14 1022 30 10000 2.62 54 20:41 08.02.2022
3220 Clear 15 1022 28 10000 3.1 46 19:45 08.02.2022
3221 Clear 16 1022 27 10000 3.51 41 18:34 08.02.2022
3222 Clear 18 1021 24 10000 3.21 15 17:36 08.02.2022
3223 Clear 21 1021 23 10000 3.04 8 15:55 08.02.2022
3224 Clear 21 1020 20 10000 3.36 359 15:29 08.02.2022
3225 Clear 21 1020 19 10000 3.33 353 13:59 08.02.2022
3226 Clear 21 1020 19 10000 2.83 348 12:40 08.02.2022
3227 Clear 20 1021 22 10000 2.31 340 11:20 08.02.2022
3228 Clear 17 1022 24 10000 1.93 343 09:59 08.02.2022
3229 Clear 17 1024 27 10000 1.85 347 08:56 08.02.2022
3230 Clear 14 1025 34 10000 1.37 345 07:27 08.02.2022
3231 Clear 10 1024 41 10000 2.02 337 04:40 08.02.2022
3232 Clear 10 1024 41 10000 2.02 344 04:22 08.02.2022
3233 Clear 9 1024 41 10000 2.02 344 03:36 08.02.2022
3234 Clear 9 1023 40 10000 2.2 350 03:18 08.02.2022
3235 Clear 9 1023 40 10000 2.2 350 02:59 08.02.2022
3236 Clear 9 1023 40 10000 2.2 350 02:37 08.02.2022
3237 Clear 9 1023 39 10000 2.68 355 02:18 08.02.2022
3238 Clear 10 1023 39 10000 2.68 355 01:45 08.02.2022
3239 Clear 10 1022 38 10000 2.9 360 01:25 08.02.2022
3240 Clear 11 1022 38 10000 3.07 356 00:55 08.02.2022
3241 Clear 11 1022 38 10000 3.07 356 00:36 08.02.2022
3242 Clear 11 1022 37 10000 3.02 357 23:45 07.02.2022
3243 Clear 11 1023 36 10000 2.99 359 23:18 07.02.2022
3244 Clear 12 1023 36 10000 2.99 359 22:59 07.02.2022
3245 Clear 12 1023 35 10000 3.07 3 22:19 07.02.2022
3246 Clear 13 1023 35 10000 3.07 3 21:51 07.02.2022
3247 Clear 13 1023 33 10000 3.3 12 21:28 07.02.2022
3248 Clear 13 1023 33 10000 3.3 12 20:52 07.02.2022
3249 Clear 13 1023 33 10000 3.3 12 20:34 07.02.2022
3250 Clear 15 1023 31 10000 3.67 12 19:47 07.02.2022
3251 Clear 15 1023 29 10000 3.3 7 18:58 07.02.2022
3252 Clear 17 1022 27 10000 3.6 9 17:38 07.02.2022
3253 Clear 18 1021 26 10000 4.01 12 16:52 07.02.2022
3254 Clear 19 1021 24 10000 4.22 6 15:48 07.02.2022
3255 Clear 20 1020 20 10000 4.66 346 14:19 07.02.2022
3256 Clear 21 1020 22 10000 4.36 337 13:27 07.02.2022
3257 Clear 19 1020 23 10000 3.98 334 12:36 07.02.2022
3258 Clear 19 1020 23 10000 3.99 334 11:50 07.02.2022
3259 Clear 19 1021 25 10000 3.45 334 11:24 07.02.2022
3260 Clear 19 1021 25 10000 3.45 334 10:42 07.02.2022
3261 Clear 19 1023 27 10000 2.88 335 10:24 07.02.2022
3262 Clear 18 1025 24 10000 0 0 09:52 07.02.2022
3263 Clear 18 1025 24 10000 0 0 09:18 07.02.2022
3264 Clear 16 1025 29 10000 0 0 07:53 07.02.2022
3265 Clear 14 1025 33 10000 0 0 06:34 07.02.2022
3266 Clear 9 1024 46 10000 1.17 358 04:49 07.02.2022
3267 Clear 9 1023 45 10000 2.54 4 02:38 07.02.2022
3268 Clear 10 1022 41 10000 2.78 13 00:24 07.02.2022
3269 Clear 10 1023 41 10000 3 15 23:20 06.02.2022
3270 Clear 11 1023 41 10000 3 15 22:42 06.02.2022
3271 Clear 11 1023 40 10000 3.33 17 21:47 06.02.2022
3272 Clear 11 1023 39 10000 3.5 20 21:21 06.02.2022
3273 Clear 12 1023 39 10000 3.5 20 20:48 06.02.2022
3274 Clear 12 1023 39 10000 3.68 21 20:24 06.02.2022
3275 Clear 13 1023 37 10000 3.89 17 19:22 06.02.2022
3276 Clear 14 1022 36 10000 4.19 14 18:33 06.02.2022
3277 Clear 15 1021 31 10000 4.31 1 17:37 06.02.2022
3278 Clear 17 1021 31 10000 4.31 1 16:52 06.02.2022
3279 Clear 17 1021 29 10000 4.43 354 16:20 06.02.2022
3280 Clear 19 1021 29 10000 4.43 354 15:47 06.02.2022
3281 Clear 19 1020 26 10000 5.51 351 15:24 06.02.2022
3282 Clear 19 1020 24 10000 5.62 349 14:19 06.02.2022
3283 Clear 19 1019 24 10000 5.57 347 13:21 06.02.2022
3284 Clear 19 1019 24 10000 5.98 343 12:27 06.02.2022
3285 Clear 17 1022 27 10000 5.14 340 10:33 06.02.2022
3286 Clear 16 1023 31 10000 6.17 340 09:48 06.02.2022
3287 Clear 15 1024 33 10000 5.14 350 08:41 06.02.2022
3288 Clear 14 1023 33 10000 3.6 340 07:31 06.02.2022
3289 Clear 11 1022 40 10000 0 0 05:28 06.02.2022
3290 Clear 10 1020 37 10000 3.66 342 02:25 06.02.2022
3291 Clear 11 1020 37 10000 3.95 353 00:33 06.02.2022
3292 Clear 11 1020 35 10000 4.38 355 23:39 05.02.2022
3293 Clear 13 1020 32 10000 4.63 357 21:48 05.02.2022
3294 Clear 13 1020 31 10000 4.62 1 20:47 05.02.2022
3295 Clear 13 1019 30 10000 4.82 3 20:22 05.02.2022
3296 Clear 14 1019 30 10000 4.82 3 19:42 05.02.2022
3297 Clear 15 1018 26 10000 5.44 2 18:37 05.02.2022
3298 Clear 16 1018 26 10000 5.44 2 17:35 05.02.2022
3299 Clear 17 1016 22 10000 5.97 347 16:24 05.02.2022
3300 Clear 19 1016 22 10000 5.97 347 15:31 05.02.2022
3301 Clear 20 1014 20 10000 6.06 346 13:55 05.02.2022
3302 Clear 21 1016 24 8000 7.2 10 12:46 05.02.2022
3303 Clear 20 1018 24 7000 8.23 350 11:47 05.02.2022
3304 Clear 20 1018 26 8000 8.75 10 10:44 05.02.2022
3305 Clear 18 1018 32 10000 8.23 360 09:51 05.02.2022
3306 Clear 17 1018 31 10000 7.72 340 08:47 05.02.2022
3307 Clouds 16 1017 31 8000 7.2 310 07:27 05.02.2022
3308 Clouds 16 1016 33 7000 7.72 290 06:55 05.02.2022
3309 Clouds 20 1012 36 10000 8.82 319 02:43 05.02.2022
3310 Clouds 20 1010 54 10000 6.21 272 01:18 05.02.2022
3311 Clouds 18 1011 48 10000 6.56 282 00:36 05.02.2022
3312 Clouds 19 1010 61 10000 5.2 283 23:33 04.02.2022
3313 Clouds 20 1011 55 10000 5.82 277 22:45 04.02.2022
3314 Clouds 22 1010 35 10000 3.88 282 21:36 04.02.2022
3315 Clear 22 1010 23 10000 2.68 248 21:18 04.02.2022
3316 Clear 21 1010 23 10000 2.68 248 20:36 04.02.2022
3317 Clear 21 1010 20 10000 3.01 213 19:19 04.02.2022
3318 Clear 26 1009 18 10000 3.76 180 16:44 04.02.2022
3319 Clear 28 1009 15 10000 4.42 212 15:19 04.02.2022
3320 Clear 29 1009 15 10000 4.42 212 14:40 04.02.2022
3321 Clear 28 1012 16 10000 4.12 240 12:43 04.02.2022
3322 Clear 27 1013 21 10000 5.66 220 11:45 04.02.2022
3323 Clear 26 1014 21 10000 5.14 240 10:55 04.02.2022
3324 Clear 26 1015 22 10000 5.66 250 09:56 04.02.2022
3325 Clear 17 1017 36 10000 2.57 210 07:56 04.02.2022
3326 Clouds 16 1014 37 10000 2.05 197 03:31 04.02.2022
3327 Clouds 16 1014 37 10000 2.5 193 02:36 04.02.2022
3328 Clear 17 1014 36 10000 4.37 160 23:40 03.02.2022
3329 Clear 18 1015 36 10000 4.49 164 22:50 03.02.2022
3330 Clear 19 1016 35 10000 5.03 167 21:51 03.02.2022
3331 Clear 19 1016 34 10000 5.55 161 21:22 03.02.2022
3332 Clear 19 1017 33 10000 5.62 159 20:22 03.02.2022
3333 Clear 19 1017 33 10000 5.62 159 19:42 03.02.2022
3334 Clear 20 1017 31 10000 4.81 156 18:56 03.02.2022
3335 Clear 21 1017 30 10000 4.39 159 17:55 03.02.2022
3336 Clear 23 1016 29 10000 4.54 157 16:48 03.02.2022
3337 Clear 24 1016 24 10000 6.15 146 14:59 03.02.2022
3338 Clear 25 1016 22 10000 6.4 151 13:45 03.02.2022
3339 Clear 22 1020 20 10000 3.6 120 11:47 03.02.2022
3340 Clear 18 1022 27 10000 2.06 160 08:55 03.02.2022
3341 Clear 16 1022 31 10000 4.12 150 07:41 03.02.2022
3342 Clear 11 1022 38 10000 2.25 146 00:47 03.02.2022
3343 Clear 11 1022 37 10000 2.53 133 00:22 03.02.2022
3344 Clear 12 1022 36 10000 2.56 117 22:38 02.02.2022
3345 Clear 12 1022 36 10000 2.59 100 21:45 02.02.2022
3346 Clear 12 1023 35 10000 2.53 81 21:27 02.02.2022
3347 Clear 13 1023 34 10000 3.03 75 20:20 02.02.2022
3348 Clear 14 1023 34 10000 3.03 75 19:45 02.02.2022
3349 Clear 15 1023 31 10000 3.55 71 18:55 02.02.2022
3350 Clear 15 1023 30 10000 3.87 71 18:23 02.02.2022
3351 Clear 16 1022 28 10000 3.92 66 17:20 02.02.2022
3352 Clear 17 1022 28 10000 3.92 66 16:48 02.02.2022
3353 Clear 19 1021 23 10000 3.76 49 14:42 02.02.2022
3354 Clear 19 1022 22 10000 4.12 30 12:29 02.02.2022
3355 Clear 17 1023 29 10000 5.66 10 11:44 02.02.2022
3356 Clear 17 1023 29 10000 5.66 10 11:24 02.02.2022
3357 Clear 13 1026 50 10000 4.12 350 08:26 02.02.2022
3358 Clear 10 1022 39 10000 4.14 5 01:37 02.02.2022
3359 Clear 13 1022 31 10000 4.79 7 22:29 01.02.2022
3360 Clear 14 1022 29 10000 4.71 6 20:49 01.02.2022
3361 Clear 16 1022 26 10000 5.6 4 18:55 01.02.2022
3362 Clear 18 1020 19 10000 6.5 3 16:46 01.02.2022
3363 Clear 20 1019 17 10000 6.16 357 15:44 01.02.2022
3364 Clouds 20 1018 19 8000 6.17 330 12:49 01.02.2022
3365 Clouds 20 1018 21 8000 6.17 340 11:51 01.02.2022
3366 Clouds 19 1020 27 10000 7.72 340 08:37 01.02.2022
3367 Clouds 17 1013 43 10000 3.32 187 00:28 01.02.2022
3368 Clouds 18 1013 43 10000 3.39 186 23:36 31.01.2022
3369 Clouds 18 1013 43 10000 4.06 196 22:30 31.01.2022
3370 Clouds 19 1012 39 10000 6.65 158 21:34 31.01.2022
3371 Clouds 19 1013 40 10000 6.83 166 20:34 31.01.2022
3372 Clear 19 1012 39 10000 8.36 155 19:46 31.01.2022
3373 Clear 20 1012 37 10000 8.53 150 18:31 31.01.2022
3374 Clear 20 1013 35 10000 6.43 147 17:55 31.01.2022
3375 Clear 21 1012 33 10000 5.69 148 16:58 31.01.2022
3376 Clear 22 1012 31 10000 5.6 151 15:46 31.01.2022
3377 Clear 22 1011 28 10000 6.98 158 14:49 31.01.2022
3378 Clear 22 1014 28 7000 7.2 170 12:57 31.01.2022
3379 Clear 22 1014 28 7000 7.2 170 12:36 31.01.2022
3380 Clear 18 1017 32 10000 7.72 130 10:58 31.01.2022
3381 Clear 18 1017 32 10000 7.72 130 10:37 31.01.2022
3382 Clear 17 1018 34 10000 7.72 150 09:35 31.01.2022
3383 Clear 16 1019 33 10000 6.69 120 08:53 31.01.2022
3384 Clear 16 1019 33 10000 6.69 120 08:20 31.01.2022
3385 Clear 14 1019 38 10000 5.14 130 07:29 31.01.2022
3386 Clear 12 1018 40 10000 3.09 130 05:24 31.01.2022
3387 Clear 13 1017 44 10000 4.42 132 23:37 30.01.2022
3388 Clear 13 1017 43 10000 4.77 131 22:31 30.01.2022
3389 Clear 15 1017 42 10000 5.3 133 21:44 30.01.2022
3390 Clear 15 1017 42 10000 5.3 133 21:44 30.01.2022
3391 Clear 15 1017 38 10000 6.07 126 21:22 30.01.2022
3392 Clear 15 1017 38 10000 6.07 126 20:51 30.01.2022
3393 Clear 15 1017 38 10000 6.07 126 20:30 30.01.2022
3394 Clear 16 1018 38 10000 6.15 121 19:54 30.01.2022
3395 Clear 16 1018 37 10000 5.46 117 18:51 30.01.2022
3396 Clear 16 1018 36 10000 4.55 111 18:21 30.01.2022
3397 Clear 17 1018 36 10000 4.55 111 17:30 30.01.2022
3398 Clear 17 1017 35 10000 4.5 108 16:42 30.01.2022
3399 Clear 17 1017 33 10000 4.29 112 16:22 30.01.2022
3400 Clear 18 1017 33 10000 4.29 112 15:53 30.01.2022
3401 Clear 18 1017 33 10000 4.29 112 15:32 30.01.2022
3402 Clear 18 1016 30 10000 4.1 124 14:47 30.01.2022
3403 Clear 18 1016 28 10000 4.07 138 13:37 30.01.2022
3404 Clear 17 1018 34 6000 4.12 160 12:41 30.01.2022
3405 Clear 16 1020 36 9000 4.63 150 10:38 30.01.2022
3406 Clear 14 1021 44 9000 4.12 130 09:57 30.01.2022
3407 Clear 14 1021 44 9000 4.12 130 09:21 30.01.2022
3408 Clear 11 1022 50 8000 4.63 120 07:56 30.01.2022
3409 Clear 9 1020 42 10000 3.46 101 02:43 30.01.2022
3410 Clear 9 1020 41 10000 3.61 98 01:52 30.01.2022
3411 Clear 11 1020 41 10000 4.16 105 23:45 29.01.2022
3412 Clear 11 1020 39 10000 4.56 107 22:37 29.01.2022
3413 Clear 12 1020 35 10000 5.05 114 21:27 29.01.2022
3414 Clear 12 1020 35 10000 5.05 114 20:48 29.01.2022
3415 Clear 13 1020 33 10000 5.04 116 19:47 29.01.2022
3416 Clear 13 1021 32 10000 4.61 114 19:25 29.01.2022
3417 Clear 14 1020 26 10000 4.34 105 18:32 29.01.2022
3418 Clear 16 1020 26 10000 4.34 105 17:41 29.01.2022
3419 Clear 16 1020 24 10000 4.52 108 16:42 29.01.2022
3420 Clear 18 1018 21 10000 5.32 132 14:52 29.01.2022
3421 Clear 17 1018 20 10000 5.19 140 13:46 29.01.2022
3422 Clear 17 1018 20 10000 5.2 148 13:25 29.01.2022
3423 Clear 17 1020 19 7000 2.57 90 12:40 29.01.2022
3424 Clear 17 1021 19 8000 4.63 130 11:38 29.01.2022
3425 Clear 15 1022 21 7000 3.09 120 10:21 29.01.2022
3426 Clear 12 1024 30 6000 2.06 90 07:24 29.01.2022
3427 Clear 9 1021 35 10000 2.41 88 01:35 29.01.2022
3428 Clear 10 1021 35 10000 2.67 86 00:31 29.01.2022
3429 Clear 11 1022 34 10000 3.17 75 22:53 28.01.2022
3430 Clear 11 1022 34 10000 3.37 67 22:29 28.01.2022
3431 Clear 11 1022 34 10000 3.37 67 21:53 28.01.2022
3432 Clear 11 1023 33 10000 3.26 53 20:31 28.01.2022
3433 Clear 12 1023 32 10000 3.35 51 19:44 28.01.2022
3434 Clear 13 1023 31 10000 3.55 54 18:48 28.01.2022
3435 Clear 13 1023 29 10000 4.16 48 17:43 28.01.2022
3436 Clear 14 1021 24 10000 5.09 32 15:28 28.01.2022
3437 Clear 15 1021 23 10000 4.66 31 14:18 28.01.2022
3438 Dust 16 1023 21 4000 5.66 20 12:33 28.01.2022
3439 Dust 16 1024 23 4000 7.2 10 11:38 28.01.2022
3440 Dust 13 1026 26 4000 6.17 10 09:59 28.01.2022
3441 Dust 12 1026 24 4000 5.66 30 08:41 28.01.2022
3442 Dust 11 1025 25 3000 7.2 360 07:36 28.01.2022
3443 Dust 11 1024 30 4000 5.14 30 05:23 28.01.2022
3444 Clear 10 1023 35 10000 6.02 9 03:45 28.01.2022
3445 Clear 10 1022 33 10000 6.04 16 02:22 28.01.2022
3446 Clear 11 1021 32 10000 6.5 15 01:33 28.01.2022
3447 Clear 12 1020 30 10000 6.23 20 23:30 27.01.2022
3448 Clear 14 1020 30 10000 6.23 16 21:49 27.01.2022
3449 Clear 14 1019 29 10000 6.13 13 21:29 27.01.2022
3450 Clear 14 1019 29 10000 6.13 13 20:44 27.01.2022
3451 Clear 16 1019 25 10000 6.96 2 18:55 27.01.2022
3452 Clear 17 1019 23 10000 7.56 358 17:56 27.01.2022
3453 Clear 21 1016 22 10000 7.31 350 14:42 27.01.2022
3454 Clear 22 1015 21 10000 6.71 340 13:36 27.01.2022
3455 Dust 21 1017 18 4000 8.23 350 12:40 27.01.2022
3456 Clear 25 1017 27 10000 4.63 270 10:23 27.01.2022
3457 Clear 23 1018 12 10000 5.14 220 08:56 27.01.2022
3458 Clear 23 1018 12 10000 5.14 220 08:31 27.01.2022
3459 Clear 14 1017 28 10000 1.03 0 05:59 27.01.2022
3460 Clear 16 1014 31 10000 3.37 199 02:36 27.01.2022
3461 Clear 19 1014 29 10000 7.09 169 23:32 26.01.2022
3462 Clear 21 1014 29 10000 7.14 169 21:57 26.01.2022
3463 Clear 21 1014 29 10000 7.14 169 21:33 26.01.2022
3464 Clear 21 1014 29 10000 6.77 165 20:36 26.01.2022
3465 Clear 21 1014 29 10000 6.78 166 19:55 26.01.2022
3466 Clear 21 1014 29 10000 6.39 163 19:20 26.01.2022
3467 Clear 22 1014 29 10000 6.24 162 18:40 26.01.2022
3468 Clear 23 1014 28 10000 5.78 165 17:49 26.01.2022
3469 Clear 23 1014 26 10000 5.75 167 17:21 26.01.2022
3470 Clear 24 1013 25 10000 6.06 162 16:27 26.01.2022
3471 Clear 25 1013 25 10000 6.06 162 15:47 26.01.2022
3472 Clear 28 1012 18 10000 7.38 169 13:24 26.01.2022
3473 Clear 26 1015 19 10000 7.72 150 11:48 26.01.2022
3474 Clear 25 1017 20 10000 8.23 160 10:20 26.01.2022
3475 Clear 23 1018 21 10000 6.17 160 09:43 26.01.2022
3476 Clear 18 1019 32 10000 5.14 160 07:32 26.01.2022
3477 Clear 14 1017 40 10000 4.77 146 00:48 26.01.2022
3478 Clear 14 1017 40 10000 4.77 146 00:48 26.01.2022
3479 Clear 14 1018 43 10000 4.4 138 23:54 25.01.2022
3480 Clear 15 1018 43 10000 4.2 131 22:50 25.01.2022
3481 Clear 15 1018 43 10000 4.2 131 22:50 25.01.2022
3482 Clear 15 1018 41 10000 4.01 126 22:21 25.01.2022
3483 Clear 15 1018 41 10000 4.01 126 21:41 25.01.2022
3484 Clear 16 1018 39 10000 4.33 126 20:46 25.01.2022
3485 Clear 16 1018 37 10000 4.3 117 20:22 25.01.2022
3486 Clear 17 1018 37 10000 4.3 117 19:44 25.01.2022
3487 Clear 18 1018 35 10000 3.98 116 18:22 25.01.2022
3488 Clear 19 1018 35 10000 3.98 116 17:42 25.01.2022
3489 Clear 21 1018 33 10000 3.64 117 16:35 25.01.2022
3490 Clear 23 1017 32 10000 3.32 120 15:44 25.01.2022
3491 Clear 23 1016 28 10000 3.49 123 15:26 25.01.2022
3492 Clear 24 1016 28 10000 3.49 123 14:57 25.01.2022
3493 Clear 24 1016 28 10000 3.49 123 14:57 25.01.2022
3494 Clear 23 1016 26 10000 3.42 130 13:18 25.01.2022
3495 Clear 20 1018 27 10000 2.4 97 10:00 25.01.2022
3496 Clear 18 1022 22 10000 2.57 20 08:32 25.01.2022
3497 Clear 16 1022 29 10000 1.54 320 07:28 25.01.2022
3498 Clear 14 1022 38 10000 1.03 0 06:22 25.01.2022
3499 Clear 12 1019 54 10000 3.57 18 01:34 25.01.2022
3500 Clear 14 1018 42 10000 3.73 29 23:36 24.01.2022
3501 Clear 14 1018 32 10000 2.65 25 23:18 24.01.2022
3502 Clear 15 1018 32 10000 2.6 25 22:58 24.01.2022
3503 Clear 15 1018 32 10000 2.6 25 22:40 24.01.2022
3504 Clear 17 1018 30 10000 1.62 137 21:43 24.01.2022
3505 Clear 17 1018 29 10000 2.01 152 21:25 24.01.2022
3506 Clear 17 1018 28 10000 2.05 147 20:28 24.01.2022
3507 Clear 18 1018 28 10000 2.05 147 19:39 24.01.2022
3508 Clear 19 1018 27 10000 2.49 144 18:50 24.01.2022
3509 Clear 21 1018 26 10000 3.28 145 17:43 24.01.2022
3510 Clear 21 1017 25 10000 1.89 168 17:23 24.01.2022
3511 Clear 22 1017 25 10000 1.89 168 16:32 24.01.2022
3512 Clear 24 1016 24 10000 1.85 251 15:52 24.01.2022
3513 Clear 24 1015 20 10000 4.21 259 14:27 24.01.2022
3514 Clear 25 1017 14 10000 3.09 240 12:36 24.01.2022
3515 Clear 24 1018 16 10000 2.57 0 11:45 24.01.2022
3516 Clear 23 1019 16 10000 2.06 0 10:23 24.01.2022
3517 Clear 21 1020 16 10000 2.06 210 09:46 24.01.2022
3518 Clear 19 1021 16 10000 1.54 230 08:18 24.01.2022
3519 Clear 11 1017 30 10000 3.48 152 02:29 24.01.2022
3520 Clear 11 1017 29 10000 3.72 151 01:27 24.01.2022
3521 Clear 11 1017 29 10000 3.72 151 01:27 24.01.2022
3522 Clouds 12 1017 29 10000 3.95 148 00:32 24.01.2022
3523 Clouds 11 1017 29 10000 3.81 147 23:46 23.01.2022
3524 Clear 12 1018 30 10000 3.88 150 22:21 23.01.2022
3525 Clear 12 1018 30 10000 3.88 150 21:41 23.01.2022
3526 Clear 12 1018 30 10000 3.92 144 21:23 23.01.2022
3527 Clear 14 1019 29 10000 4.02 145 20:23 23.01.2022
3528 Clear 15 1019 28 10000 4.05 147 18:56 23.01.2022
3529 Clear 15 1018 27 10000 3.96 143 18:24 23.01.2022
3530 Clear 17 1018 25 10000 3.95 137 17:25 23.01.2022
3531 Clear 18 1017 23 10000 4.27 124 16:18 23.01.2022
3532 Clear 20 1017 21 10000 4.13 124 14:52 23.01.2022
3533 Clear 20 1017 20 10000 3.12 144 14:19 23.01.2022
3534 Clear 20 1018 11 10000 4.12 160 12:46 23.01.2022
3535 Clear 20 1018 11 10000 4.12 160 12:21 23.01.2022
3536 Clear 19 1020 12 10000 4.63 150 11:27 23.01.2022
3537 Clear 17 1021 14 10000 3.6 160 10:58 23.01.2022
3538 Clear 17 1021 14 10000 3.6 160 10:25 23.01.2022
3539 Clear 15 1022 15 10000 3.09 160 09:32 23.01.2022
3540 Clear 19 1022 68 10000 4.12 160 08:50 23.01.2022
3541 Clear 8 1021 29 10000 2.96 158 03:59 23.01.2022
3542 Clear 7 1020 28 10000 3.04 152 01:40 23.01.2022
3543 Clear 8 1021 27 10000 2.83 143 00:47 23.01.2022
3544 Clear 8 1021 27 10000 2.92 139 00:18 23.01.2022
3545 Clear 9 1021 27 10000 3.05 131 22:55 22.01.2022
3546 Clear 9 1021 27 10000 3.05 131 22:33 22.01.2022
3547 Clear 10 1022 25 10000 3.33 124 20:47 22.01.2022
3548 Clear 11 1022 24 10000 2.99 107 19:46 22.01.2022
3549 Clear 12 1022 22 10000 3.11 106 18:41 22.01.2022
3550 Clear 12 1022 20 10000 2.88 106 17:49 22.01.2022
3551 Clear 12 1022 20 10000 2.88 106 17:31 22.01.2022
3552 Clear 12 1022 19 10000 2.42 92 16:54 22.01.2022
3553 Clear 13 1021 18 10000 2.06 83 15:45 22.01.2022
3554 Clear 14 1021 15 10000 1.77 74 14:56 22.01.2022
3555 Clear 14 1021 14 10000 1.23 75 13:31 22.01.2022
3556 Clear 13 1021 15 10000 0.61 77 12:40 22.01.2022
3557 Clear 13 1021 15 10000 0.45 106 12:20 22.01.2022
3558 Clear 11 1023 16 10000 0.66 36 10:55 22.01.2022
3559 Clear 11 1025 17 10000 1.25 21 10:26 22.01.2022
3560 Clear 9 1026 20 10000 1.55 10 09:25 22.01.2022
3561 Clear 7 1026 20 10000 1.55 10 08:50 22.01.2022
3562 Clear 4 1027 26 10000 2.2 349 06:56 22.01.2022
3563 Clear 3 1027 35 10000 3.23 339 03:26 22.01.2022
3564 Clear 4 1027 33 10000 3.43 342 00:31 22.01.2022
3565 Clear 4 1027 31 10000 3.18 347 23:21 21.01.2022
3566 Clear 5 1028 30 10000 2.84 342 22:19 21.01.2022
3567 Clear 7 1029 27 10000 3.2 356 19:52 21.01.2022
3568 Clear 7 1028 24 10000 4.84 8 18:21 21.01.2022
3569 Clear 9 1027 22 10000 5.02 10 16:54 21.01.2022
3570 Clear 11 1026 18 10000 5.63 6 15:24 21.01.2022
3571 Clear 11 1025 14 10000 6.17 358 12:53 21.01.2022
3572 Clear 12 1026 15 10000 6.56 356 11:42 21.01.2022
3573 Clear 12 1027 16 10000 6.91 355 11:23 21.01.2022
3574 Clear 9 1030 20 10000 6.89 356 09:26 21.01.2022
3575 Clear 9 1031 23 10000 7.36 357 08:20 21.01.2022
3576 Clear 5 1029 41 10000 6.96 356 04:36 21.01.2022
3577 Clear 9 1026 49 10000 8.96 356 22:53 20.01.2022
3578 Clear 10 1026 46 10000 9.26 355 21:49 20.01.2022
3579 Clear 10 1025 45 10000 9.24 355 21:28 20.01.2022
3580 Clear 11 1025 43 10000 8.91 356 19:56 20.01.2022
3581 Clear 12 1024 40 10000 8.57 357 19:19 20.01.2022
3582 Clear 14 1023 34 10000 8.17 357 17:38 20.01.2022
3583 Clear 15 1020 31 10000 7.64 346 16:32 20.01.2022
3584 Clear 17 1019 30 10000 7.17 342 15:32 20.01.2022
3585 Clear 20 1019 30 10000 7.17 342 14:38 20.01.2022
3586 Clear 20 1018 27 10000 6.23 336 13:18 20.01.2022
3587 Clear 20 1017 25 10000 6.72 318 12:30 20.01.2022
3588 Clear 20 1018 26 10000 5.87 320 11:20 20.01.2022
3589 Clear 19 1019 29 10000 4.52 323 10:19 20.01.2022
3590 Clear 16 1021 35 10000 3.41 322 09:18 20.01.2022
3591 Clouds 13 1022 43 10000 1.05 302 07:24 20.01.2022
3592 Clouds 9 1018 44 10000 2.56 111 00:41 20.01.2022
3593 Clouds 10 1019 42 10000 3.34 118 22:40 19.01.2022
3594 Clouds 11 1019 42 10000 3.44 97 21:40 19.01.2022
3595 Clouds 11 1019 46 10000 3.41 95 21:21 19.01.2022
3596 Clouds 11 1019 46 10000 3.41 95 20:45 19.01.2022
3597 Clouds 12 1019 45 10000 4.53 105 19:18 19.01.2022
3598 Clouds 14 1018 44 10000 5.41 107 17:51 19.01.2022
3599 Clouds 14 1019 45 10000 4.08 107 17:18 19.01.2022
3600 Clouds 16 1018 43 10000 4.02 105 15:36 19.01.2022
3601 Clear 15 1018 42 10000 1.41 130 13:38 19.01.2022
3602 Clouds 14 1019 47 10000 1.14 133 12:20 19.01.2022
3603 Clouds 13 1019 47 10000 1.14 133 11:38 19.01.2022
3604 Clouds 11 1021 47 10000 1.41 128 09:49 19.01.2022
3605 Clouds 11 1023 45 10000 2.09 118 09:22 19.01.2022
3606 Clouds 9 1024 36 10000 2.11 79 06:34 19.01.2022
3607 Clouds 9 1022 37 10000 2.89 46 00:33 19.01.2022
3608 Clouds 9 1022 35 10000 3.43 42 23:18 18.01.2022
3609 Clouds 9 1023 36 10000 3.52 39 21:55 18.01.2022
3610 Clouds 9 1023 35 10000 3.61 44 20:44 18.01.2022
3611 Clouds 9 1023 50 10000 4.76 45 19:52 18.01.2022
3612 Clouds 9 1023 50 10000 4.76 45 19:33 18.01.2022
3613 Clouds 9 1023 54 10000 6.23 38 18:25 18.01.2022
3614 Clouds 10 1023 54 10000 6.23 38 17:33 18.01.2022
3615 Clouds 10 1021 62 10000 6.09 41 16:22 18.01.2022
3616 Clouds 10 1020 66 10000 6.31 38 15:25 18.01.2022
3617 Clouds 10 1020 66 10000 6.31 38 14:34 18.01.2022
3618 Clouds 10 1019 71 10000 6.49 34 11:51 18.01.2022
3619 Clouds 10 1020 68 10000 6.9 32 10:30 18.01.2022
3620 Clouds 10 1021 66 10000 6.91 34 08:36 18.01.2022
3621 Clouds 11 1021 65 10000 6.75 39 07:45 18.01.2022
3622 Clouds 15 1016 83 10000 2.97 43 01:34 18.01.2022
3623 Clouds 16 1015 68 10000 2.78 65 22:47 17.01.2022
3624 Clouds 16 1015 59 10000 2.71 73 21:50 17.01.2022
3625 Clouds 16 1016 53 10000 2.92 93 21:29 17.01.2022
3626 Clouds 17 1016 49 10000 2.37 85 19:42 17.01.2022
3627 Clear 18 1015 41 10000 3.25 85 18:27 17.01.2022
3628 Clear 18 1015 37 10000 3.25 95 17:22 17.01.2022
3629 Clear 19 1014 35 10000 3.1 106 16:22 17.01.2022
3630 Clear 21 1014 31 10000 3.31 102 14:58 17.01.2022
3631 Clear 21 1014 31 10000 3.36 102 14:32 17.01.2022
3632 Clear 22 1013 18 10000 1.49 169 13:19 17.01.2022
3633 Clear 22 1013 18 10000 1.75 187 12:27 17.01.2022
3634 Clear 21 1013 18 10000 1.75 187 11:33 17.01.2022
3635 Clear 20 1015 20 10000 2.75 175 09:53 17.01.2022
3636 Clear 17 1016 21 10000 2.92 158 08:44 17.01.2022
3637 Clear 15 1017 27 10000 1.94 142 07:20 17.01.2022
3638 Clear 12 1014 34 10000 1.94 354 00:59 17.01.2022
3639 Clear 12 1014 30 10000 2.28 327 23:44 16.01.2022
3640 Clear 14 1015 26 10000 2.9 315 21:21 16.01.2022
3641 Clear 15 1015 25 10000 3.6 314 20:18 16.01.2022
3642 Clear 17 1014 25 10000 3.47 320 18:46 16.01.2022
3643 Clear 18 1014 23 10000 3.93 320 17:47 16.01.2022
3644 Clear 19 1013 22 10000 4.18 316 16:53 16.01.2022
3645 Clear 20 1012 20 10000 4.19 301 15:40 16.01.2022
3646 Clear 21 1010 17 10000 7.33 281 14:29 16.01.2022
3647 Clear 21 1010 17 10000 7.18 276 13:23 16.01.2022
3648 Clear 20 1010 18 10000 7.36 275 11:58 16.01.2022
3649 Clear 20 1011 20 10000 6.89 278 11:27 16.01.2022
3650 Clear 20 1012 23 10000 5.86 281 10:27 16.01.2022
3651 Clear 18 1012 23 10000 5.86 281 09:57 16.01.2022
3652 Clear 18 1013 34 10000 3.83 284 09:23 16.01.2022
3653 Clear 17 1013 34 10000 3.82 284 08:53 16.01.2022
3654 Clear 14 1013 65 10000 1.12 26 05:52 16.01.2022
3655 Clouds 14 1010 60 10000 1.71 41 00:19 16.01.2022
3656 Clouds 15 1010 58 10000 1.96 43 22:49 15.01.2022
3657 Clouds 16 1011 59 10000 2.81 74 21:21 15.01.2022
3658 Clouds 16 1011 59 10000 2.81 74 20:44 15.01.2022
3659 Clouds 16 1010 58 10000 3.44 68 20:18 15.01.2022
3660 Clouds 16 1010 51 10000 3.34 46 19:25 15.01.2022
3661 Clouds 16 1010 33 10000 3.92 343 17:52 15.01.2022
3662 Clouds 16 1009 31 10000 4.67 326 16:43 15.01.2022
3663 Clouds 16 1007 30 10000 6.12 272 14:32 15.01.2022
3664 Clouds 16 1008 30 10000 5.38 293 14:32 15.01.2022
3665 Clouds 17 1007 32 10000 6.74 265 12:38 15.01.2022
3666 Clouds 19 1008 39 10000 7.5 255 11:19 15.01.2022
3667 Clouds 19 1009 42 10000 7.68 254 09:35 15.01.2022
3668 Clouds 15 1011 85 10000 3.21 238 01:25 15.01.2022
3669 Clouds 16 1011 71 10000 1.77 163 21:57 14.01.2022
3670 Clouds 15 1012 73 10000 1.05 59 20:52 14.01.2022
3671 Clouds 15 1012 75 10000 3.38 37 20:23 14.01.2022
3672 Clouds 15 1012 75 10000 3.38 37 19:49 14.01.2022
3673 Clouds 15 1013 64 10000 7.21 327 18:33 14.01.2022
3674 Clouds 18 1010 33 10000 4.36 313 16:51 14.01.2022
3675 Clouds 18 1010 33 10000 4.36 313 16:33 14.01.2022
3676 Clouds 27 1008 21 10000 4.33 222 14:49 14.01.2022
3677 Clouds 27 1008 19 10000 5.42 217 13:48 14.01.2022
3678 Clouds 27 1008 20 10000 5.2 203 12:34 14.01.2022
3679 Clouds 26 1010 21 10000 8.63 236 11:29 14.01.2022
3680 Clouds 23 1012 22 10000 6.25 230 09:51 14.01.2022
3681 Clouds 22 1013 27 10000 4.43 205 08:52 14.01.2022
3682 Clouds 20 1014 30 10000 5.01 180 07:27 14.01.2022
3683 Clouds 19 1013 38 10000 5.78 165 01:43 14.01.2022
3684 Clouds 20 1014 36 10000 6.25 172 23:36 13.01.2022
3685 Clouds 21 1014 35 10000 6.02 169 21:42 13.01.2022
3686 Clouds 21 1015 34 10000 5.57 169 21:23 13.01.2022
3687 Clouds 23 1015 33 10000 5.6 164 19:41 13.01.2022
3688 Clouds 23 1015 33 10000 5.32 165 19:22 13.01.2022
3689 Clouds 23 1015 31 10000 4.83 169 17:56 13.01.2022
3690 Clouds 25 1014 28 10000 4.82 150 16:22 13.01.2022
3691 Clouds 26 1014 28 10000 4.82 150 15:38 13.01.2022
3692 Clear 28 1013 25 10000 5.62 145 14:49 13.01.2022
3693 Clear 27 1013 21 10000 6.1 152 12:46 13.01.2022
3694 Clear 26 1016 22 10000 5.24 166 10:25 13.01.2022
3695 Clear 24 1017 24 10000 5.15 170 09:20 13.01.2022
3696 Clear 22 1018 26 10000 4.7 166 08:27 13.01.2022
3697 Clear 19 1019 30 10000 4.41 162 07:24 13.01.2022
3698 Clear 15 1019 31 10000 5.04 157 06:38 13.01.2022
3699 Clear 13 1019 38 10000 3.9 139 05:20 13.01.2022
3700 Clear 14 1018 37 10000 3.28 140 02:33 13.01.2022
3701 Clear 15 1018 35 10000 3.37 148 00:56 13.01.2022
3702 Clear 17 1018 35 10000 3.49 140 23:50 12.01.2022
3703 Clear 17 1018 34 10000 3.7 130 23:24 12.01.2022
3704 Clear 17 1018 35 10000 3.58 118 21:58 12.01.2022
3705 Clear 17 1019 34 10000 3.79 117 21:23 12.01.2022
3706 Clear 19 1019 34 10000 3.79 117 20:57 12.01.2022
3707 Clear 20 1019 33 10000 3.42 116 19:55 12.01.2022
3708 Clear 21 1018 32 10000 3.38 112 18:43 12.01.2022
3709 Clear 22 1018 31 10000 3.47 117 17:50 12.01.2022
3710 Clear 24 1018 30 10000 3.68 116 16:38 12.01.2022
3711 Clear 26 1017 28 10000 2.91 104 14:49 12.01.2022
3712 Clear 27 1016 26 10000 2.36 97 13:32 12.01.2022
3713 Clear 27 1016 26 10000 1.59 111 11:59 12.01.2022
3714 Clouds 20 1019 23 10000 1.07 157 08:45 12.01.2022
3715 Clouds 17 1020 25 10000 1.2 135 07:52 12.01.2022
3716 Clouds 17 1020 27 10000 1.72 157 07:32 12.01.2022
3717 Clear 16 1019 29 10000 2.3 145 23:53 11.01.2022
3718 Clear 16 1019 28 10000 2.68 131 22:57 11.01.2022
3719 Clear 16 1019 27 10000 2.43 144 22:23 11.01.2022
3720 Clear 16 1019 26 10000 2.27 157 21:25 11.01.2022
3721 Clear 19 1019 26 10000 2.29 159 20:21 11.01.2022
3722 Clouds 20 1019 28 10000 2.58 147 18:43 11.01.2022
3723 Clouds 21 1018 29 10000 3.01 134 17:35 11.01.2022
3724 Clouds 22 1018 31 10000 2.94 127 16:38 11.01.2022
3725 Clouds 24 1017 33 10000 1.78 133 15:56 11.01.2022
3726 Clouds 25 1016 33 10000 0.33 215 14:43 11.01.2022
3727 Clouds 25 1016 29 10000 1.42 264 13:56 11.01.2022
3728 Clouds 25 1016 29 10000 1.41 265 13:36 11.01.2022
3729 Clouds 25 1016 24 10000 1.9 189 12:51 11.01.2022
3730 Clouds 25 1017 24 10000 1.68 201 12:20 11.01.2022
3731 Clouds 21 1018 23 10000 1.7 176 09:58 11.01.2022
3732 Clouds 16 1020 25 10000 2.68 183 07:18 11.01.2022
3733 Clouds 16 1019 30 10000 4.47 157 00:43 11.01.2022
3734 Clouds 16 1019 31 10000 3.85 159 00:21 11.01.2022
3735 Clouds 17 1019 30 10000 4.11 157 23:28 10.01.2022
3736 Clouds 17 1019 31 10000 4.19 155 22:19 10.01.2022
3737 Clouds 17 1019 31 10000 4.19 155 21:54 10.01.2022
3738 Clouds 17 1019 31 10000 4.19 149 21:21 10.01.2022
3739 Clouds 17 1019 31 10000 4.19 149 20:57 10.01.2022
3740 Clouds 17 1019 30 10000 4.27 144 20:28 10.01.2022
3741 Clouds 18 1019 30 10000 4.27 144 19:44 10.01.2022
3742 Clouds 18 1018 29 10000 4.65 139 19:21 10.01.2022
3743 Clouds 19 1018 29 10000 4.63 137 18:50 10.01.2022
3744 Clouds 20 1018 28 10000 4.42 130 17:56 10.01.2022
3745 Clouds 21 1017 26 10000 4.35 130 16:42 10.01.2022
3746 Clouds 23 1016 25 10000 4.55 135 15:49 10.01.2022
3747 Clouds 24 1016 24 10000 5.21 138 14:34 10.01.2022
3748 Clear 25 1015 22 10000 5.93 156 12:22 10.01.2022
3749 Clear 24 1016 22 10000 5.6 153 11:25 10.01.2022
3750 Clear 20 1017 22 10000 5.75 154 09:53 10.01.2022
3751 Clear 18 1019 23 10000 5.36 157 08:22 10.01.2022
3752 Clear 10 1019 30 10000 3.45 148 05:50 10.01.2022
3753 Clear 12 1018 32 10000 3.74 150 01:33 10.01.2022
3754 Clear 13 1018 32 10000 3.88 148 00:33 10.01.2022
3755 Clear 13 1018 32 10000 3.66 144 23:43 09.01.2022
3756 Clear 14 1019 33 10000 3.98 146 22:42 09.01.2022
3757 Clear 15 1019 32 10000 4.07 144 21:47 09.01.2022
3758 Clear 15 1020 31 10000 3.91 141 21:24 09.01.2022
3759 Clear 15 1020 31 10000 3.91 142 20:54 09.01.2022
3760 Clear 15 1020 31 10000 3.91 142 20:36 09.01.2022
3761 Clear 15 1020 30 10000 3.95 134 20:18 09.01.2022
3762 Clear 16 1019 29 10000 3.76 123 19:36 09.01.2022
3763 Clear 16 1019 28 10000 3.71 120 19:18 09.01.2022
3764 Clear 17 1019 26 10000 3.68 116 18:37 09.01.2022
3765 Clear 18 1019 26 10000 3.68 116 17:48 09.01.2022
3766 Clear 18 1019 25 10000 3.69 114 17:25 09.01.2022
3767 Clear 19 1019 25 10000 3.69 114 16:34 09.01.2022
3768 Clear 21 1018 24 10000 3.53 115 15:37 09.01.2022
3769 Clear 23 1017 22 10000 3.41 124 14:41 09.01.2022
3770 Clear 23 1017 20 10000 3.42 132 13:56 09.01.2022
3771 Clear 23 1017 20 10000 3.42 132 13:36 09.01.2022
3772 Clear 22 1017 19 10000 3.23 143 11:56 09.01.2022
3773 Clear 22 1018 19 10000 3.3 149 11:19 09.01.2022
3774 Clear 19 1019 19 10000 3.43 149 09:51 09.01.2022
3775 Clear 16 1020 19 10000 3.38 152 08:54 09.01.2022
3776 Clouds 8 1021 27 10000 2.7 143 05:54 09.01.2022
3777 Clouds 10 1019 29 10000 2.46 141 01:25 09.01.2022
3778 Clouds 10 1019 29 10000 2.48 145 00:37 09.01.2022
3779 Clouds 10 1019 28 10000 3.46 143 23:27 08.01.2022
3780 Clouds 10 1019 28 10000 3.46 143 22:35 08.01.2022
3781 Clouds 11 1020 26 10000 3.16 142 21:26 08.01.2022
3782 Clouds 13 1020 26 10000 3.16 142 20:43 08.01.2022
3783 Clouds 13 1021 26 10000 2.7 136 20:21 08.01.2022
3784 Clear 15 1020 23 10000 3.43 129 18:45 08.01.2022
3785 Clear 16 1020 23 10000 3.2 111 17:24 08.01.2022
3786 Clear 18 1020 23 10000 3.2 111 16:40 08.01.2022
3787 Clear 21 1018 21 10000 2.96 106 14:50 08.01.2022
3788 Clear 21 1018 19 10000 2.54 103 13:41 08.01.2022
3789 Clouds 20 1018 19 10000 1.87 130 11:30 08.01.2022
3790 Clouds 19 1020 21 10000 1.67 153 10:31 08.01.2022
3791 Clouds 17 1020 21 10000 1.69 152 09:57 08.01.2022
3792 Clouds 17 1020 21 10000 1.69 152 09:30 08.01.2022
3793 Clouds 5 1021 31 10000 2.22 149 04:25 08.01.2022
3794 Clouds 7 1020 30 10000 1.92 150 00:58 08.01.2022
3795 Clouds 9 1020 28 10000 2.42 134 22:54 07.01.2022
3796 Clouds 9 1020 28 10000 2.38 117 21:46 07.01.2022
3797 Clouds 11 1021 27 10000 2.65 111 20:23 07.01.2022
3798 Clouds 10 1021 26 10000 2.81 96 19:26 07.01.2022
3799 Clouds 12 1021 26 10000 3.38 100 18:45 07.01.2022
3800 Clouds 11 1021 25 10000 3 97 17:58 07.01.2022
3801 Clouds 11 1020 24 10000 3.16 89 17:22 07.01.2022
3802 Clouds 19 1019 22 10000 2.09 75 14:50 07.01.2022
3803 Clouds 18 1019 20 10000 1.24 44 13:50 07.01.2022
3804 Clouds 18 1019 21 10000 1.53 71 12:50 07.01.2022
3805 Clouds 13 1021 28 10000 0.6 33 09:48 07.01.2022
3806 Clouds 6 1023 56 10000 2.25 324 02:58 07.01.2022
3807 Clouds 6 1022 56 10000 2.02 330 02:21 07.01.2022
3808 Clouds 8 1022 56 10000 2.03 330 01:45 07.01.2022
3809 Clouds 8 1022 55 10000 2.04 327 01:23 07.01.2022
3810 Clouds 8 1022 52 10000 2.51 331 00:28 07.01.2022
3811 Clouds 10 1022 49 10000 2.58 353 21:40 06.01.2022
3812 Clouds 10 1023 48 10000 3.02 357 20:36 06.01.2022
3813 Clouds 11 1023 46 10000 3.11 1 19:54 06.01.2022
3814 Clear 11 1023 43 10000 3.45 9 19:29 06.01.2022
3815 Clouds 14 1022 38 10000 3.62 18 17:51 06.01.2022
3816 Clouds 14 1022 38 10000 3.62 18 17:51 06.01.2022
3817 Clear 14 1022 34 10000 3.98 19 17:19 06.01.2022
3818 Clear 15 1021 31 10000 3.7 5 16:22 06.01.2022
3819 Clear 17 1021 31 10000 3.7 5 15:41 06.01.2022
3820 Clear 17 1020 28 10000 3.86 358 15:20 06.01.2022
3821 Clear 18 1020 25 10000 4.8 354 14:19 06.01.2022
3822 Clear 19 1020 25 10000 5.11 353 12:59 06.01.2022
3823 Clear 17 1020 26 10000 4.62 342 11:58 06.01.2022
3824 Clear 17 1021 29 10000 4.77 343 11:29 06.01.2022
3825 Clear 16 1023 38 10000 5.14 347 09:33 06.01.2022
3826 Clear 7 1024 61 10000 4.51 327 05:55 06.01.2022
3827 Clear 9 1022 52 10000 4.44 324 23:56 05.01.2022
3828 Clear 9 1023 49 10000 4.32 325 23:21 05.01.2022
3829 Clear 10 1023 50 10000 4.32 325 22:41 05.01.2022
3830 Clear 10 1023 46 10000 4.3 326 21:59 05.01.2022
3831 Clear 10 1024 43 10000 4.25 325 21:22 05.01.2022
3832 Clear 11 1024 43 10000 4.25 325 20:30 05.01.2022
3833 Clear 12 1023 37 10000 4.01 323 19:28 05.01.2022
3834 Clear 14 1022 32 10000 4.05 333 17:56 05.01.2022
3835 Clear 15 1022 30 10000 4.16 339 16:56 05.01.2022
3836 Clear 17 1021 27 10000 4.55 342 15:46 05.01.2022
3837 Clear 18 1020 23 10000 5.07 337 14:50 05.01.2022
3838 Clear 18 1020 20 10000 6.13 334 13:33 05.01.2022
3839 Clear 17 1020 18 10000 6.62 330 11:59 05.01.2022
3840 Clear 13 1024 22 10000 5.63 319 08:21 05.01.2022
3841 Clear 7 1024 30 10000 5 316 06:37 05.01.2022
3842 Clear 7 1022 53 10000 3.67 321 01:20 05.01.2022
3843 Clear 9 1022 55 10000 3.23 323 23:41 04.01.2022
3844 Clear 9 1022 55 10000 3.17 326 23:19 04.01.2022
3845 Clear 10 1022 55 10000 3.29 336 21:32 04.01.2022
3846 Clear 11 1023 51 10000 3.33 347 20:27 04.01.2022
3847 Clear 13 1022 47 10000 3.86 357 18:35 04.01.2022
3848 Clear 13 1021 41 10000 4.73 354 17:18 04.01.2022
3849 Clear 14 1021 41 10000 4.73 354 16:31 04.01.2022
3850 Clear 17 1019 37 10000 5.8 341 14:58 04.01.2022
3851 Clear 17 1019 37 10000 5.8 341 14:37 04.01.2022
3852 Clear 17 1019 35 10000 6.73 332 13:55 04.01.2022
3853 Clear 17 1018 35 10000 6.59 328 11:44 04.01.2022
3854 Clear 16 1020 38 10000 6.06 329 10:21 04.01.2022
3855 Clear 14 1021 40 10000 5.93 331 08:49 04.01.2022
3856 Clear 9 1021 57 10000 2.67 307 06:28 04.01.2022
3857 Clear 9 1019 60 10000 2.89 314 00:42 04.01.2022
3858 Clear 10 1019 61 10000 2.86 337 23:54 03.01.2022
3859 Clear 11 1019 59 10000 4.24 339 22:22 03.01.2022
3860 Clear 11 1019 59 10000 4.24 339 21:38 03.01.2022
3861 Clear 11 1019 57 10000 5.27 338 20:41 03.01.2022
3862 Clear 13 1018 49 10000 5.33 339 18:55 03.01.2022
3863 Clear 13 1018 49 10000 5.33 339 18:30 03.01.2022
3864 Clear 13 1017 44 10000 4.28 327 17:21 03.01.2022
3865 Clear 14 1017 44 10000 4.28 327 16:53 03.01.2022
3866 Clear 16 1014 39 10000 5.37 316 14:31 03.01.2022
3867 Clear 16 1013 33 10000 4.63 314 12:52 03.01.2022
3868 Clear 16 1013 35 10000 4.65 314 11:50 03.01.2022
3869 Clear 14 1013 39 10000 4.42 314 10:52 03.01.2022
3870 Clear 13 1015 50 10000 4.06 329 09:28 03.01.2022
3871 Clear 13 1015 50 10000 4.06 329 09:28 03.01.2022
3872 Clear 10 1016 57 10000 4.22 337 07:54 03.01.2022
3873 Clear 11 1013 48 10000 3.34 305 03:22 03.01.2022
3874 Clear 14 1012 43 10000 3.82 320 23:24 02.01.2022
3875 Clear 15 1012 43 10000 3.82 320 22:56 02.01.2022
3876 Clear 15 1012 38 10000 4.34 315 21:58 02.01.2022
3877 Clear 16 1012 33 10000 4.62 310 20:50 02.01.2022
3878 Clear 16 1012 33 10000 4.62 310 20:30 02.01.2022
3879 Clouds 17 1011 33 10000 4.84 307 19:31 02.01.2022
3880 Clouds 18 1011 33 10000 4.84 307 18:56 02.01.2022
3881 Clouds 19 1011 33 10000 6.69 304 17:57 02.01.2022
3882 Clouds 19 1011 33 10000 6.69 304 17:39 02.01.2022
3883 Clouds 19 1010 32 10000 7.87 290 17:20 02.01.2022
3884 Clouds 20 1009 37 10000 7.05 278 16:28 02.01.2022
3885 Clouds 21 1008 38 10000 9.86 280 14:44 02.01.2022
3886 Clouds 18 1008 40 10000 8.7 294 13:37 02.01.2022
3887 Clouds 23 1007 42 10000 5.57 280 12:32 02.01.2022
3888 Clear 23 1007 37 10000 6.97 248 11:49 02.01.2022
3889 Clear 23 1008 42 10000 7.3 253 10:54 02.01.2022
3890 Clear 20 1009 45 10000 8.07 250 09:57 02.01.2022
3891 Clear 18 1011 50 10000 9.43 235 07:34 02.01.2022
3892 Clouds 17 1011 93 10000 4.57 154 02:56 02.01.2022
3893 Clouds 16 1012 96 4079 5.17 144 23:42 01.01.2022
3894 Clouds 16 1013 95 10000 4.96 143 23:24 01.01.2022
3895 Clouds 16 1013 93 5960 5.27 134 22:25 01.01.2022
3896 Clouds 16 1013 93 5960 5.27 134 21:45 01.01.2022
3897 Clouds 16 1014 92 10000 4.87 122 21:21 01.01.2022
3898 Clouds 16 1015 91 10000 4.35 135 20:20 01.01.2022
3899 Clouds 16 1015 91 10000 4.35 135 19:34 01.01.2022
3900 Clouds 15 1016 89 10000 4.88 133 18:51 01.01.2022
3901 Clouds 15 1016 86 10000 5.39 121 17:38 01.01.2022
3902 Clouds 15 1016 86 10000 5.7 120 16:34 01.01.2022
3903 Clouds 15 1016 86 10000 5.7 120 16:34 01.01.2022
3904 Clouds 15 1016 86 10000 5.59 119 15:33 01.01.2022
3905 Clouds 15 1015 81 10000 5.65 119 14:22 01.01.2022
3906 Clouds 15 1015 81 10000 5.65 119 13:35 01.01.2022
3907 Clouds 15 1015 83 10000 5.59 127 12:18 01.01.2022
3908 Clouds 15 1016 82 10000 6.18 125 11:25 01.01.2022
3909 Clouds 14 1016 82 10000 6.18 125 10:52 01.01.2022
3910 Clouds 14 1017 84 10000 6.73 119 09:47 01.01.2022
3911 Clouds 14 1020 91 10000 5.61 117 08:27 01.01.2022
3912 Clouds 13 1020 91 10000 5.61 117 07:56 01.01.2022
3913 Clouds 13 1020 91 10000 5.61 117 07:37 01.01.2022
3914 Clouds 13 1020 87 10000 5.48 119 06:43 01.01.2022
3915 Clouds 13 1019 95 10000 3.37 123 04:39 01.01.2022
3916 Clouds 13 1019 93 10000 3.14 129 03:50 01.01.2022
3917 Clouds 13 1018 82 10000 4.13 117 23:53 31.12.2021
3918 Clouds 14 1019 81 10000 3.88 104 21:57 31.12.2021
3919 Clouds 14 1019 81 10000 3.88 104 21:39 31.12.2021
3920 Clear 14 1020 78 10000 4.61 99 19:43 31.12.2021
3921 Clouds 14 1019 69 10000 6.54 86 18:50 31.12.2021
3922 Clouds 15 1019 68 10000 6.41 81 17:49 31.12.2021
3923 Clouds 15 1018 64 10000 7.27 81 17:24 31.12.2021
3924 Clouds 15 1018 64 10000 7.27 81 16:52 31.12.2021
3925 Clouds 15 1018 62 10000 5.46 81 16:18 31.12.2021
3926 Clouds 15 1018 62 10000 5.46 81 15:45 31.12.2021
3927 Clouds 15 1017 56 10000 5.85 92 15:26 31.12.2021
3928 Clouds 15 1017 56 10000 5.84 93 14:38 31.12.2021
3929 Clouds 16 1016 53 10000 6.14 102 13:45 31.12.2021
3930 Clouds 16 1016 50 10000 5.16 117 12:50 31.12.2021
3931 Clouds 16 1016 54 10000 5.21 121 12:20 31.12.2021
3932 Clouds 16 1016 54 10000 5.21 121 11:41 31.12.2021
3933 Clouds 15 1017 56 10000 4.41 122 10:50 31.12.2021
3934 Clouds 15 1017 56 10000 5.48 111 10:28 31.12.2021
3935 Clouds 14 1017 56 10000 5.48 111 09:34 31.12.2021
3936 Clouds 14 1019 56 10000 4.19 98 08:50 31.12.2021
3937 Clouds 14 1019 60 10000 4.44 72 07:53 31.12.2021
3938 Clouds 11 1018 62 10000 3.52 29 04:54 31.12.2021
3939 Clouds 14 1016 61 10000 1.48 349 23:18 30.12.2021
3940 Clouds 14 1016 61 10000 1.48 349 22:31 30.12.2021
3941 Clouds 14 1016 63 10000 1.09 316 21:39 30.12.2021
3942 Clouds 14 1016 62 10000 2.01 255 21:18 30.12.2021
3943 Clouds 17 1016 62 10000 2.01 255 20:39 30.12.2021
3944 Clouds 17 1016 62 10000 2.4 186 19:55 30.12.2021
3945 Clouds 17 1015 59 10000 3.56 173 19:31 30.12.2021
3946 Clouds 17 1015 51 10000 2.81 232 18:26 30.12.2021
3947 Clouds 19 1015 53 10000 2.79 236 16:53 30.12.2021
3948 Clouds 20 1014 50 10000 3.68 258 15:53 30.12.2021
3949 Clouds 21 1013 44 10000 6.22 243 14:55 30.12.2021
3950 Clouds 21 1012 39 10000 4.5 226 14:36 30.12.2021
3951 Clouds 20 1012 38 10000 7.66 227 13:25 30.12.2021
3952 Clouds 20 1012 38 10000 7.66 227 13:25 30.12.2021
3953 Clouds 22 1012 40 10000 8.5 228 11:57 30.12.2021
3954 Clouds 21 1012 40 10000 9.52 233 10:35 30.12.2021
3955 Clear 19 1013 38 10000 9.31 230 09:47 30.12.2021
3956 Clouds 14 1016 57 10000 5.39 206 06:58 30.12.2021
3957 Clear 14 1016 77 10000 3.8 167 05:27 30.12.2021
3958 Clear 12 1015 69 10000 3.67 161 03:41 30.12.2021
3959 Clear 11 1015 61 10000 4.57 149 02:28 30.12.2021
3960 Clouds 12 1015 47 10000 4.58 145 23:37 29.12.2021
3961 Clouds 12 1015 45 10000 5.31 149 22:55 29.12.2021
3962 Clouds 13 1015 44 10000 5.84 146 21:56 29.12.2021
3963 Clouds 14 1016 44 10000 4.74 152 20:58 29.12.2021
3964 Clouds 14 1017 41 10000 5.34 150 20:29 29.12.2021
3965 Clouds 14 1017 35 10000 4.88 148 19:31 29.12.2021
3966 Clouds 14 1017 35 10000 4.88 148 18:42 29.12.2021
3967 Clouds 15 1017 35 10000 4.81 135 17:49 29.12.2021
3968 Clouds 15 1016 34 10000 4.95 125 17:26 29.12.2021
3969 Clouds 15 1016 36 10000 3.97 131 16:22 29.12.2021
3970 Clouds 16 1015 33 10000 4.04 132 15:21 29.12.2021
3971 Clouds 15 1015 31 10000 5.63 153 13:31 29.12.2021
3972 Clouds 15 1014 36 10000 5.48 159 12:35 29.12.2021
3973 Clouds 15 1016 47 10000 5.59 178 11:23 29.12.2021
3974 Clouds 17 1017 46 10000 5.37 169 09:35 29.12.2021
3975 Clouds 14 1020 45 10000 5.16 169 07:47 29.12.2021
3976 Clouds 12 1020 33 10000 5.26 152 06:36 29.12.2021
3977 Clouds 12 1019 34 10000 4.29 122 05:57 29.12.2021
3978 Clouds 12 1020 39 10000 3.04 50 05:27 29.12.2021
3979 Clouds 12 1018 34 10000 1.85 159 01:27 29.12.2021
3980 Clouds 14 1017 33 10000 2.97 160 23:59 28.12.2021
3981 Clouds 14 1017 34 10000 4.49 138 22:57 28.12.2021
3982 Clouds 14 1017 34 10000 4.49 138 22:57 28.12.2021
3983 Clouds 14 1017 34 10000 5.01 127 22:25 28.12.2021
3984 Clouds 14 1017 34 10000 5.02 127 21:55 28.12.2021
3985 Clouds 14 1017 34 10000 5.01 127 21:35 28.12.2021
3986 Clouds 15 1018 35 10000 5.01 123 20:32 28.12.2021
3987 Clouds 17 1018 34 10000 4.24 119 18:56 28.12.2021
3988 Clouds 17 1018 33 10000 4.12 117 18:28 28.12.2021
3989 Clouds 18 1018 33 10000 4.12 117 17:42 28.12.2021
3990 Clouds 19 1017 33 10000 3.91 118 16:25 28.12.2021
3991 Clouds 20 1017 33 10000 3.91 118 15:41 28.12.2021
3992 Clouds 20 1017 32 10000 3.89 131 14:57 28.12.2021
3993 Clouds 20 1017 32 10000 3.89 132 14:57 28.12.2021
3994 Clouds 20 1017 32 10000 3.89 132 14:38 28.12.2021
3995 Clouds 20 1017 30 10000 4.19 143 14:20 28.12.2021
3996 Clouds 21 1017 30 10000 4.19 143 13:38 28.12.2021
3997 Clouds 20 1016 30 10000 4.54 150 12:56 28.12.2021
3998 Clouds 20 1016 28 10000 5.02 149 12:29 28.12.2021
3999 Clouds 19 1017 28 10000 4.75 144 10:51 28.12.2021
4000 Clouds 13 1022 29 10000 4.06 130 07:39 28.12.2021
4001 Clouds 10 1021 35 10000 2.54 127 03:37 28.12.2021
4002 Clouds 11 1020 37 10000 3.03 123 23:42 27.12.2021
4003 Clouds 11 1021 38 10000 2.94 121 22:31 27.12.2021
4004 Clouds 11 1021 38 10000 2.65 108 21:32 27.12.2021
4005 Clouds 12 1021 38 10000 2.65 108 20:40 27.12.2021
4006 Clouds 12 1022 38 10000 2.85 90 19:55 27.12.2021
4007 Clouds 12 1022 38 10000 2.85 90 19:37 27.12.2021
4008 Clouds 14 1022 41 10000 3.27 79 17:55 27.12.2021
4009 Clouds 14 1022 41 10000 3.28 78 17:55 27.12.2021
4010 Clouds 14 1021 42 10000 3.27 82 17:29 27.12.2021
4011 Clouds 15 1020 42 10000 2.89 90 16:27 27.12.2021
4012 Clouds 15 1020 42 10000 2.89 90 15:49 27.12.2021
4013 Clouds 16 1019 38 10000 2.38 110 14:26 27.12.2021
4014 Clouds 16 1019 38 10000 2.38 110 13:31 27.12.2021
4015 Clouds 15 1019 39 10000 1.79 117 11:34 27.12.2021
4016 Clouds 14 1021 43 10000 1.79 81 10:27 27.12.2021
4017 Clouds 13 1021 43 10000 1.79 81 09:38 27.12.2021
4018 Clouds 11 1023 48 10000 2.31 54 07:35 27.12.2021
4019 Clouds 10 1024 52 10000 2.56 57 06:30 27.12.2021
4020 Clouds 10 1022 56 10000 1.39 37 01:59 27.12.2021
4021 Clear 9 1023 61 10000 1.89 64 23:50 26.12.2021
4022 Clear 9 1023 61 10000 1.89 64 23:32 26.12.2021
4023 Clear 9 1024 60 10000 1.75 41 21:48 26.12.2021
4024 Clear 10 1024 58 10000 2.26 45 20:31 26.12.2021
4025 Clouds 10 1025 56 10000 4.07 23 19:27 26.12.2021
4026 Clouds 10 1024 57 10000 4.45 36 18:23 26.12.2021
4027 Clouds 11 1022 52 10000 4.69 43 15:55 26.12.2021
4028 Clouds 13 1021 47 10000 4.6 38 13:52 26.12.2021
4029 Clouds 13 1021 46 10000 4.39 40 13:32 26.12.2021
4030 Clouds 13 1021 46 10000 4.39 40 12:38 26.12.2021
4031 Clouds 13 1021 43 10000 4.08 37 11:57 26.12.2021
4032 Clouds 13 1022 43 10000 4 46 09:52 26.12.2021
4033 Clouds 13 1023 42 10000 4.85 47 09:18 26.12.2021
4034 Clouds 11 1023 42 10000 4.85 47 08:39 26.12.2021
4035 Clouds 9 1024 45 10000 5.95 46 06:47 26.12.2021
4036 Clouds 12 1021 61 10000 5.02 51 00:58 26.12.2021
4037 Clouds 13 1020 58 10000 4.7 38 23:50 25.12.2021
4038 Clouds 13 1021 57 10000 4.52 34 23:26 25.12.2021
4039 Clouds 13 1021 56 10000 5.41 33 22:22 25.12.2021
4040 Clouds 13 1021 57 10000 4.97 30 20:48 25.12.2021
4041 Clouds 13 1022 59 10000 5.66 23 19:22 25.12.2021
4042 Clouds 13 1022 59 10000 5.66 23 18:54 25.12.2021
4043 Clouds 16 1020 46 10000 6.14 26 17:28 25.12.2021
4044 Clouds 16 1019 44 10000 7.58 20 16:18 25.12.2021
4045 Clouds 18 1018 41 10000 7.44 29 14:38 25.12.2021
4046 Clouds 19 1017 44 10000 6.68 36 12:48 25.12.2021
4047 Clouds 18 1017 42 10000 6.2 31 11:37 25.12.2021
4048 Clouds 16 1018 41 10000 5.45 27 09:49 25.12.2021
4049 Clouds 14 1018 37 10000 4.95 23 07:54 25.12.2021
4050 Clouds 16 1015 47 10000 0.9 11 02:18 25.12.2021
4051 Clouds 17 1014 45 10000 1.1 74 00:30 25.12.2021
4052 Clouds 17 1014 44 10000 1.34 94 23:38 24.12.2021
4053 Clouds 21 1014 38 10000 4.56 146 19:39 24.12.2021
4054 Clouds 21 1014 35 10000 5.38 148 19:20 24.12.2021
4055 Clouds 22 1013 30 10000 3.97 124 16:50 24.12.2021
4056 Clear 22 1012 29 10000 2.49 150 16:19 24.12.2021
4057 Clear 25 1012 29 10000 2.49 150 15:45 24.12.2021
4058 Clear 25 1012 27 10000 2.63 206 14:46 24.12.2021
4059 Clear 25 1011 24 10000 4.73 230 14:22 24.12.2021
4060 Clear 26 1011 24 10000 4.73 230 13:37 24.12.2021
4061 Clear 25 1011 23 10000 5.92 230 12:48 24.12.2021
4062 Clear 23 1011 22 10000 4.52 215 11:52 24.12.2021
4063 Clear 23 1012 23 10000 3.84 205 11:26 24.12.2021
4064 Clear 22 1012 23 10000 3.84 205 10:46 24.12.2021
4065 Clear 22 1014 23 10000 3.94 192 10:18 24.12.2021
4066 Clear 19 1017 23 10000 4.57 168 08:24 24.12.2021
4067 Clear 17 1017 23 10000 4.57 168 07:48 24.12.2021
4068 Clear 13 1015 31 10000 3.83 152 02:52 24.12.2021
4069 Clouds 14 1015 29 10000 5.05 145 23:56 23.12.2021
4070 Clouds 14 1015 28 10000 5.33 142 22:58 23.12.2021
4071 Clouds 14 1015 28 10000 5.33 142 22:37 23.12.2021
4072 Clouds 14 1015 28 10000 5.15 135 22:18 23.12.2021
4073 Clouds 16 1016 27 10000 5.5 135 20:56 23.12.2021
4074 Clouds 16 1016 26 10000 5.03 130 20:18 23.12.2021
4075 Clouds 16 1016 26 10000 5.03 130 20:18 23.12.2021
4076 Clouds 17 1016 25 10000 4.74 127 18:36 23.12.2021
4077 Clouds 18 1016 24 10000 4.36 122 17:57 23.12.2021
4078 Clouds 19 1016 23 10000 3.87 123 16:44 23.12.2021
4079 Clouds 19 1016 22 10000 3.88 118 16:24 23.12.2021
4080 Clear 20 1015 20 10000 3.83 116 15:31 23.12.2021
4081 Clear 21 1015 20 10000 3.82 116 14:52 23.12.2021
4082 Clear 21 1014 18 10000 4.14 119 14:30 23.12.2021
4083 Clouds 21 1014 17 10000 3.99 135 12:54 23.12.2021
4084 Clouds 18 1016 17 10000 3.97 162 10:44 23.12.2021
4085 Clouds 18 1017 18 10000 4.42 155 09:42 23.12.2021
4086 Clouds 17 1019 19 10000 3.5 143 08:59 23.12.2021
4087 Clouds 14 1020 22 10000 2.63 120 06:55 23.12.2021
4088 Clouds 13 1020 27 10000 2.15 120 04:30 23.12.2021
4089 Clouds 11 1019 22 10000 2.39 108 23:20 22.12.2021
4090 Clouds 12 1019 22 10000 2.39 108 22:42 22.12.2021
4091 Clouds 14 1020 22 10000 2.3 89 21:56 22.12.2021
4092 Clouds 14 1020 22 10000 2.53 74 21:29 22.12.2021
4093 Clouds 14 1020 22 10000 2.53 74 20:47 22.12.2021
4094 Clouds 14 1021 21 10000 2.51 62 20:26 22.12.2021
4095 Clear 15 1021 21 10000 2.81 49 19:21 22.12.2021
4096 Clear 16 1021 19 10000 3.56 35 17:42 22.12.2021
4097 Clear 17 1021 19 10000 3.5 36 16:39 22.12.2021
4098 Clouds 18 1020 18 10000 3.23 35 15:40 22.12.2021
4099 Clouds 19 1019 16 10000 4.24 18 13:33 22.12.2021
4100 Clouds 19 1019 17 10000 4.5 8 12:40 22.12.2021
4101 Clouds 17 1021 20 10000 3.63 7 10:19 22.12.2021
4102 Clouds 16 1021 20 10000 3.63 7 09:38 22.12.2021
4103 Clear 13 1024 28 10000 4.5 3 07:25 22.12.2021
4104 Clear 11 1024 31 10000 4.69 0 05:43 22.12.2021
4105 Clear 11 1023 33 10000 3.72 1 05:24 22.12.2021
4106 Clear 11 1023 33 10000 3.74 1 04:49 22.12.2021
4107 Clear 11 1023 33 10000 4.07 359 04:26 22.12.2021
4108 Clear 11 1023 33 10000 4.07 359 03:32 22.12.2021
4109 Clear 12 1021 36 10000 4.63 7 00:47 22.12.2021
4110 Clear 14 1021 37 10000 4.63 13 22:52 21.12.2021
4111 Clear 14 1021 37 10000 5.41 13 22:28 21.12.2021
4112 Clear 15 1021 37 10000 5.41 13 21:44 21.12.2021
4113 Clear 16 1021 35 10000 5.65 9 20:55 21.12.2021
4114 Clear 16 1021 33 10000 5.77 8 20:21 21.12.2021
4115 Clear 17 1021 33 10000 5.77 8 19:41 21.12.2021
4116 Clear 17 1021 30 10000 6.25 9 18:45 21.12.2021
4117 Clear 17 1021 29 10000 6.92 17 18:21 21.12.2021
4118 Clear 18 1021 29 10000 6.92 17 17:41 21.12.2021
4119 Clear 20 1019 32 10000 6.25 14 15:59 21.12.2021
4120 Clear 21 1017 33 10000 5.58 5 15:20 21.12.2021
4121 Clear 24 1016 34 10000 5.5 2 13:50 21.12.2021
4122 Clear 24 1016 34 10000 5.5 2 13:30 21.12.2021
4123 Clouds 24 1016 44 10000 5.2 348 11:36 21.12.2021
4124 Clouds 23 1017 49 10000 4.86 345 10:24 21.12.2021
4125 Clear 22 1018 51 10000 5.14 339 09:23 21.12.2021
4126 Clear 19 1019 50 10000 5.01 322 07:58 21.12.2021
4127 Clouds 19 1019 45 10000 4.88 301 07:27 21.12.2021
4128 Clouds 19 1019 46 10000 3.31 300 05:31 21.12.2021
4129 Clouds 18 1017 43 10000 2.74 289 02:40 21.12.2021
4130 Clouds 21 1015 40 10000 3.56 184 23:58 20.12.2021
4131 Clouds 21 1016 39 10000 4.23 180 23:27 20.12.2021
4132 Clouds 22 1016 39 10000 5.16 176 22:28 20.12.2021
4133 Clouds 22 1016 39 10000 5.16 176 22:28 20.12.2021
4134 Clouds 23 1016 39 10000 5.16 176 21:47 20.12.2021
4135 Clouds 23 1016 39 10000 5.69 172 21:23 20.12.2021
4136 Clouds 23 1016 39 10000 5.69 172 20:44 20.12.2021
4137 Clouds 23 1016 39 10000 5.3 174 19:52 20.12.2021
4138 Clouds 23 1016 39 10000 5.3 174 19:31 20.12.2021
4139 Clouds 23 1017 37 10000 5.1 179 18:54 20.12.2021
4140 Clouds 23 1017 33 10000 4.64 183 17:52 20.12.2021
4141 Clouds 23 1016 31 10000 5.76 169 17:25 20.12.2021
4142 Clouds 24 1016 31 10000 5.76 169 16:40 20.12.2021
4143 Clouds 25 1015 30 10000 6.95 154 15:50 20.12.2021
4144 Clouds 26 1014 29 10000 6.45 145 14:43 20.12.2021
4145 Clouds 26 1013 23 10000 5.76 158 12:51 20.12.2021
4146 Clouds 26 1014 25 10000 5.26 169 11:19 20.12.2021
4147 Clouds 24 1016 28 10000 4.86 174 09:47 20.12.2021
4148 Clouds 24 1018 32 10000 5.19 177 09:28 20.12.2021
4149 Clouds 22 1018 32 10000 5.19 177 08:41 20.12.2021
4150 Clouds 20 1019 36 10000 5.94 171 07:49 20.12.2021
4151 Clouds 20 1019 41 10000 5.85 167 07:25 20.12.2021
4152 Clouds 17 1017 47 10000 5.06 156 03:43 20.12.2021
4153 Clouds 19 1017 44 10000 4.84 152 23:51 19.12.2021
4154 Clouds 19 1017 42 10000 4.97 151 22:45 19.12.2021
4155 Clouds 20 1017 42 10000 5.07 153 21:50 19.12.2021
4156 Clouds 20 1017 40 10000 4.99 151 21:29 19.12.2021
4157 Clouds 20 1018 39 10000 4.51 150 20:30 19.12.2021
4158 Clouds 21 1018 39 10000 4.52 150 19:46 19.12.2021
4159 Clouds 21 1018 35 10000 4.42 149 18:58 19.12.2021
4160 Clouds 21 1017 34 10000 4.19 152 18:27 19.12.2021
4161 Clouds 23 1017 34 10000 4.19 152 17:49 19.12.2021
4162 Clouds 23 1017 32 10000 4.13 150 17:18 19.12.2021
4163 Clouds 24 1016 32 10000 4.67 140 16:25 19.12.2021
4164 Clouds 25 1015 28 10000 5.15 128 15:28 19.12.2021
4165 Clouds 27 1015 28 10000 5.15 128 14:57 19.12.2021
4166 Clouds 27 1015 28 10000 5.15 128 14:36 19.12.2021
4167 Clouds 27 1014 20 10000 2.35 160 13:22 19.12.2021
4168 Clouds 27 1014 20 10000 2.35 160 12:33 19.12.2021
4169 Clouds 26 1014 20 10000 2.65 188 11:42 19.12.2021
4170 Clouds 26 1015 21 10000 3.21 197 10:53 19.12.2021
4171 Clouds 26 1016 22 10000 3.62 194 10:23 19.12.2021
4172 Clouds 26 1016 22 10000 3.62 194 10:23 19.12.2021
4173 Clouds 25 1017 24 10000 3.81 191 09:26 19.12.2021
4174 Clouds 20 1018 28 10000 4.21 184 07:50 19.12.2021
4175 Clouds 16 1018 40 10000 3.66 176 04:44 19.12.2021
4176 Clouds 17 1016 38 10000 5.09 161 00:55 19.12.2021
4177 Clouds 17 1016 37 10000 5.27 161 23:52 18.12.2021
4178 Clouds 18 1016 35 10000 5.62 159 22:31 18.12.2021
4179 Clouds 18 1016 35 10000 5.63 159 21:54 18.12.2021
4180 Clouds 18 1016 35 10000 5.63 159 21:34 18.12.2021
4181 Clouds 18 1016 34 10000 5.19 158 20:44 18.12.2021
4182 Clouds 20 1017 34 10000 4.86 157 19:51 18.12.2021
4183 Clouds 20 1017 33 10000 4.59 160 19:19 18.12.2021
4184 Clouds 21 1016 29 10000 4.76 168 18:19 18.12.2021
4185 Clouds 22 1016 29 10000 4.76 168 17:47 18.12.2021
4186 Clouds 23 1015 29 10000 4.68 149 16:25 18.12.2021
4187 Clouds 25 1014 27 10000 5.32 140 15:26 18.12.2021
4188 Clouds 27 1013 22 10000 3.87 150 14:22 18.12.2021
4189 Clouds 27 1013 21 10000 2.96 180 12:39 18.12.2021
4190 Clouds 25 1014 23 10000 3.92 195 10:52 18.12.2021
4191 Clouds 23 1015 25 10000 4.65 188 09:33 18.12.2021
4192 Clouds 22 1016 28 10000 5.44 184 08:41 18.12.2021
4193 Clouds 22 1017 32 10000 5.87 183 08:18 18.12.2021
4194 Clouds 18 1016 41 10000 6.2 167 01:48 18.12.2021
4195 Clouds 18 1016 36 10000 7.35 166 00:27 18.12.2021
4196 Clouds 18 1016 36 10000 7.35 166 23:37 17.12.2021
4197 Clouds 18 1016 34 10000 6.17 164 21:55 17.12.2021
4198 Clouds 19 1017 34 10000 5.26 166 20:50 17.12.2021
4199 Clouds 19 1016 33 10000 6.03 160 20:28 17.12.2021
4200 Clouds 21 1016 33 10000 5.75 160 18:54 17.12.2021
4201 Clouds 21 1016 30 10000 5.32 162 18:21 17.12.2021
4202 Clouds 21 1015 28 10000 5.99 160 17:25 17.12.2021
4203 Clouds 22 1015 28 10000 5.66 158 16:29 17.12.2021
4204 Clouds 23 1015 28 10000 5.66 158 15:51 17.12.2021
4205 Clouds 23 1015 26 10000 6.25 155 15:18 17.12.2021
4206 Clouds 24 1014 22 10000 7.11 160 14:34 17.12.2021
4207 Clouds 25 1014 19 10000 6.18 174 12:38 17.12.2021
4208 Clouds 24 1015 21 10000 6.65 175 11:18 17.12.2021
4209 Clouds 22 1016 23 10000 7 176 09:52 17.12.2021
4210 Clouds 21 1017 27 10000 7.68 173 08:58 17.12.2021
4211 Clouds 21 1019 31 10000 7.81 173 08:19 17.12.2021
4212 Clouds 14 1019 45 10000 4.59 160 05:21 17.12.2021
4213 Clouds 15 1018 42 10000 4.48 169 02:51 17.12.2021
4214 Clouds 19 1018 39 10000 4.28 177 22:50 16.12.2021
4215 Clouds 19 1018 39 10000 4.82 175 22:22 16.12.2021
4216 Clouds 20 1018 39 10000 4.82 175 21:44 16.12.2021
4217 Clouds 19 1018 37 10000 4.46 170 20:48 16.12.2021
4218 Clouds 19 1018 35 10000 4.39 167 20:22 16.12.2021
4219 Clouds 18 1018 33 10000 4.56 163 19:31 16.12.2021
4220 Clouds 20 1018 32 10000 4.53 160 18:33 16.12.2021
4221 Clouds 21 1018 31 10000 4.19 169 17:47 16.12.2021
4222 Clouds 22 1017 26 10000 4.5 139 16:26 16.12.2021
4223 Clouds 24 1017 26 10000 4.5 139 15:50 16.12.2021
4224 Clouds 25 1015 12 10000 2.93 130 13:47 16.12.2021
4225 Clouds 24 1016 9 10000 2.66 177 12:30 16.12.2021
4226 Clouds 25 1016 9 10000 3.26 182 11:19 16.12.2021
4227 Clouds 24 1016 9 10000 3.26 182 10:41 16.12.2021
4228 Clouds 22 1017 9 10000 3.25 188 09:43 16.12.2021
4229 Clouds 17 1020 14 10000 3.11 171 07:18 16.12.2021
4230 Clouds 13 1020 17 10000 2.65 166 06:18 16.12.2021
4231 Clouds 16 1017 32 10000 3.13 174 23:59 15.12.2021
4232 Clouds 16 1017 31 10000 4.78 167 23:18 15.12.2021
4233 Clouds 17 1018 32 10000 4.56 166 22:21 15.12.2021
4234 Clouds 17 1018 32 10000 4.56 166 21:44 15.12.2021
4235 Clouds 17 1018 32 10000 4.37 162 21:24 15.12.2021
4236 Clouds 16 1018 31 10000 4.13 166 19:54 15.12.2021
4237 Clouds 16 1018 32 10000 4.13 157 19:18 15.12.2021
4238 Clouds 17 1018 30 10000 4.33 159 18:20 15.12.2021
4239 Clouds 18 1018 30 10000 4.33 159 17:45 15.12.2021
4240 Clouds 18 1018 30 10000 4.53 152 17:21 15.12.2021
4241 Clouds 21 1017 29 10000 4.45 140 15:49 15.12.2021
4242 Clouds 21 1017 29 10000 4.45 140 15:30 15.12.2021
4243 Clouds 21 1017 25 10000 4.92 134 14:48 15.12.2021
4244 Clouds 21 1016 21 10000 5.68 140 13:45 15.12.2021
4245 Clouds 22 1016 18 10000 5.65 154 11:52 15.12.2021
4246 Clouds 20 1018 19 10000 5.56 161 10:20 15.12.2021
4247 Clouds 18 1020 23 10000 5.19 158 08:26 15.12.2021
4248 Clouds 11 1020 29 10000 3.66 151 05:53 15.12.2021
4249 Clouds 12 1018 28 10000 3.48 156 00:37 15.12.2021
4250 Clouds 11 1018 25 10000 3.67 156 23:27 14.12.2021
4251 Clouds 12 1018 25 10000 3.67 156 22:44 14.12.2021
4252 Clouds 12 1018 22 10000 3.91 151 21:43 14.12.2021
4253 Clouds 13 1019 17 10000 3.56 139 20:22 14.12.2021
4254 Clouds 15 1019 17 10000 3.56 139 19:34 14.12.2021
4255 Clouds 15 1019 15 10000 3.66 132 18:38 14.12.2021
4256 Clouds 16 1019 14 10000 3.3 129 17:55 14.12.2021
4257 Clouds 18 1018 13 10000 3.25 131 16:44 14.12.2021
4258 Clouds 18 1018 12 10000 3.18 134 16:21 14.12.2021
4259 Clouds 23 1017 10 10000 3.34 133 13:59 14.12.2021
4260 Clouds 23 1016 9 10000 3.26 136 12:50 14.12.2021
4261 Clouds 21 1017 10 10000 2.93 146 11:25 14.12.2021
4262 Clouds 21 1017 10 10000 2.93 146 10:59 14.12.2021
4263 Clouds 19 1018 11 10000 2.85 148 09:54 14.12.2021
4264 Clouds 16 1020 12 10000 2.59 144 08:49 14.12.2021
4265 Clouds 16 1020 13 10000 2.58 146 08:21 14.12.2021
4266 Clouds 15 1021 15 10000 2.49 155 07:23 14.12.2021
4267 Clouds 9 1019 18 10000 1.58 96 23:52 13.12.2021
4268 Clouds 10 1021 18 10000 1.22 44 22:26 13.12.2021
4269 Clouds 10 1021 18 10000 1.21 44 21:39 13.12.2021
4270 Clouds 12 1021 17 10000 1.37 40 20:54 13.12.2021
4271 Clouds 12 1021 16 10000 2.19 43 20:22 13.12.2021
4272 Clouds 13 1021 16 10000 2.19 43 19:49 13.12.2021
4273 Clouds 13 1021 16 10000 2.19 43 19:49 13.12.2021
4274 Clouds 16 1021 12 10000 3.34 56 17:28 13.12.2021
4275 Clouds 17 1021 12 10000 3.34 57 16:43 13.12.2021
4276 Clouds 20 1020 11 10000 3.05 45 15:43 13.12.2021
4277 Clouds 22 1019 11 10000 2.56 32 14:42 13.12.2021
4278 Clouds 21 1019 10 10000 2.4 27 13:37 13.12.2021
4279 Clouds 22 1019 11 10000 2.49 17 12:40 13.12.2021
4280 Clouds 21 1019 12 10000 2.3 12 11:52 13.12.2021
4281 Clouds 21 1020 14 10000 1.92 358 11:29 13.12.2021
4282 Clouds 18 1020 14 10000 1.92 358 10:37 13.12.2021
4283 Clouds 15 1022 19 10000 1.53 339 08:44 13.12.2021
4284 Clear 14 1024 28 10000 0 0 06:55 13.12.2021
4285 Clouds 8 1023 32 10000 2.3 337 05:19 13.12.2021
4286 Clouds 10 1022 30 10000 2.69 342 00:27 13.12.2021
4287 Clouds 13 1022 28 10000 2.93 352 21:59 12.12.2021
4288 Clouds 13 1023 27 10000 2.98 358 21:24 12.12.2021
4289 Clouds 14 1023 25 10000 3.35 8 19:35 12.12.2021
4290 Clouds 16 1023 20 10000 3.77 24 18:22 12.12.2021
4291 Clouds 19 1021 21 10000 3.68 4 16:32 12.12.2021
4292 Clouds 20 1021 21 10000 3.68 4 15:55 12.12.2021
4293 Clouds 20 1021 21 10000 3.17 356 15:28 12.12.2021
4294 Clouds 21 1021 21 10000 3.17 356 14:46 12.12.2021
4295 Clouds 21 1020 20 10000 3.84 355 14:18 12.12.2021
4296 Clouds 23 1020 20 10000 3.67 356 12:48 12.12.2021
4297 Clear 21 1023 24 10000 4.12 350 11:45 12.12.2021
4298 Clear 21 1023 24 10000 4.12 350 11:27 12.12.2021
4299 Clear 20 1024 26 10000 0 0 10:44 12.12.2021
4300 Clear 19 1026 27 10000 4.12 350 09:58 12.12.2021
4301 Clear 17 1027 31 10000 2.06 360 08:46 12.12.2021
4302 Clear 17 1027 31 10000 2.57 350 07:25 12.12.2021
4303 Clear 12 1026 40 10000 0 0 05:29 12.12.2021
4304 Clouds 9 1024 43 10000 2.13 353 04:19 12.12.2021
4305 Clouds 10 1023 41 10000 1.72 354 00:54 12.12.2021
4306 Clouds 13 1023 40 10000 1.71 10 22:56 11.12.2021
4307 Clouds 13 1024 39 10000 2.08 27 22:20 11.12.2021
4308 Clouds 14 1024 38 10000 2.35 33 21:26 11.12.2021
4309 Clouds 13 1024 36 10000 2.6 49 20:18 11.12.2021
4310 Clouds 14 1024 35 10000 2.7 61 19:21 11.12.2021
4311 Clouds 15 1024 33 10000 2.82 60 18:42 11.12.2021
4312 Clouds 18 1023 32 10000 2.83 71 17:53 11.12.2021
4313 Clouds 20 1022 28 10000 1.66 50 15:59 11.12.2021
4314 Clouds 20 1022 28 10000 1.66 50 15:40 11.12.2021
4315 Clouds 22 1021 27 10000 1.47 54 14:35 11.12.2021
4316 Clear 21 1021 24 10000 1.17 69 12:29 11.12.2021
4317 Clear 16 1026 41 10000 0 0 10:49 11.12.2021
4318 Clear 15 1027 41 10000 0 0 09:40 11.12.2021
4319 Clouds 9 1024 43 10000 2.15 11 03:57 11.12.2021
4320 Clouds 11 1023 41 10000 2.19 11 00:47 11.12.2021
4321 Clouds 12 1023 39 10000 2.36 14 23:42 10.12.2021
4322 Clouds 11 1023 38 10000 2.24 40 22:39 10.12.2021
4323 Clouds 12 1023 37 10000 2.58 40 21:40 10.12.2021
4324 Clouds 13 1024 34 10000 3.2 37 20:26 10.12.2021
4325 Clouds 15 1024 33 10000 3.36 44 19:18 10.12.2021
4326 Clouds 17 1023 30 10000 4.09 48 17:46 10.12.2021
4327 Clouds 19 1022 27 10000 4.28 50 16:35 10.12.2021
4328 Clouds 20 1022 27 10000 4.28 50 15:43 10.12.2021
4329 Clouds 20 1022 25 10000 3.95 51 15:25 10.12.2021
4330 Clouds 22 1022 25 10000 3.95 51 14:35 10.12.2021
4331 Clouds 22 1021 22 10000 4.1 50 13:49 10.12.2021
4332 Clouds 22 1021 22 10000 3.65 50 12:56 10.12.2021
4333 Clouds 22 1021 22 10000 3.63 47 11:41 10.12.2021
4334 Clouds 20 1022 23 10000 3.59 43 10:57 10.12.2021
4335 Clouds 18 1023 24 10000 3.98 36 09:46 10.12.2021
4336 Clouds 15 1025 31 10000 4.82 4 07:28 10.12.2021
4337 Clouds 11 1024 46 10000 3.64 350 04:57 10.12.2021
4338 Clouds 13 1022 43 10000 3.54 350 02:42 10.12.2021
4339 Clouds 15 1021 31 10000 2.49 353 23:42 09.12.2021
4340 Clouds 16 1021 30 10000 1.83 1 22:41 09.12.2021
4341 Clouds 16 1021 30 10000 0.91 58 22:22 09.12.2021
4342 Clouds 17 1021 30 10000 0.91 58 21:40 09.12.2021
4343 Clouds 18 1021 29 10000 1.11 109 20:35 09.12.2021
4344 Clouds 18 1021 28 10000 1.65 127 19:43 09.12.2021
4345 Clouds 18 1021 27 10000 2.2 137 19:20 09.12.2021
4346 Clouds 20 1020 24 10000 2.86 143 18:19 09.12.2021
4347 Clouds 22 1020 24 10000 2.89 143 17:48 09.12.2021
4348 Clouds 22 1020 23 10000 3.26 144 17:24 09.12.2021
4349 Clouds 22 1020 23 10000 3.24 144 16:36 09.12.2021
4350 Clouds 25 1019 20 10000 3.06 125 15:18 09.12.2021
4351 Clouds 27 1018 17 10000 2.55 83 14:30 09.12.2021
4352 Clouds 29 1018 16 10000 2.06 53 12:48 09.12.2021
4353 Clear 26 1021 21 10000 0 0 11:51 09.12.2021
4354 Clouds 25 1019 19 10000 0.59 221 10:28 09.12.2021
4355 Clear 19 1023 27 10000 1.54 160 07:34 09.12.2021
4356 Clouds 13 1020 36 10000 3.24 161 03:56 09.12.2021
4357 Clouds 14 1020 31 10000 3.16 154 00:25 09.12.2021
4358 Clouds 15 1020 31 10000 3.16 154 23:37 08.12.2021
4359 Clouds 16 1020 30 10000 3.69 154 22:57 08.12.2021
4360 Clouds 16 1020 28 10000 3.92 152 22:25 08.12.2021
4361 Clouds 17 1020 28 10000 3.92 152 21:33 08.12.2021
4362 Clouds 17 1021 27 10000 4.06 151 20:50 08.12.2021
4363 Clouds 18 1021 27 10000 4.13 151 19:57 08.12.2021
4364 Clouds 18 1021 27 10000 3.45 145 19:20 08.12.2021
4365 Clouds 18 1020 28 10000 3.37 129 18:22 08.12.2021
4366 Clouds 21 1020 28 10000 3.34 120 16:55 08.12.2021
4367 Clouds 24 1019 27 10000 3.56 117 15:42 08.12.2021
4368 Clouds 24 1018 25 10000 3.54 113 15:22 08.12.2021
4369 Clouds 26 1018 21 10000 2.35 132 13:26 08.12.2021
4370 Clear 23 1021 18 10000 3.6 170 10:45 08.12.2021
4371 Clear 22 1022 20 10000 5.14 150 09:58 08.12.2021
4372 Clear 20 1023 22 10000 4.63 170 08:34 08.12.2021
4373 Clear 18 1023 27 10000 0 0 06:22 08.12.2021
4374 Clouds 11 1021 26 10000 1.18 125 01:20 08.12.2021
4375 Clouds 13 1021 25 10000 1.19 68 23:23 07.12.2021
4376 Clouds 14 1021 23 10000 1.93 39 21:26 07.12.2021
4377 Clouds 15 1022 22 10000 2.49 38 20:25 07.12.2021
4378 Clear 16 1021 22 10000 3.16 52 19:21 07.12.2021
4379 Clear 18 1021 23 10000 3.59 47 18:23 07.12.2021
4380 Clear 19 1020 24 10000 3.3 27 17:27 07.12.2021
4381 Clear 19 1020 24 10000 3.31 27 16:56 07.12.2021
4382 Clear 19 1020 24 10000 2.67 15 16:26 07.12.2021
4383 Clear 24 1019 24 10000 2.51 8 14:38 07.12.2021
4384 Clear 25 1019 22 10000 2.85 2 13:41 07.12.2021
4385 Clear 24 1021 19 10000 0 0 12:22 07.12.2021
4386 Clear 23 1021 18 10000 4.12 30 11:23 07.12.2021
4387 Clear 21 1023 21 10000 1.54 30 09:40 07.12.2021
4388 Clear 18 1024 25 10000 3.09 30 07:50 07.12.2021
4389 Clear 14 1023 33 10000 0 0 05:52 07.12.2021
4390 Clear 14 1023 33 10000 0 0 05:26 07.12.2021
4391 Clouds 16 1020 33 10000 3.89 358 23:38 06.12.2021
4392 Clouds 16 1020 33 10000 4.24 360 22:41 06.12.2021
4393 Clear 17 1020 32 10000 4.34 0 21:59 06.12.2021
4394 Clear 17 1020 32 10000 4.34 0 21:36 06.12.2021
4395 Clear 18 1020 31 10000 4.47 0 20:33 06.12.2021
4396 Clear 18 1020 31 10000 4.57 4 19:25 06.12.2021
4397 Clear 20 1020 31 10000 4.57 4 18:55 06.12.2021
4398 Clear 21 1019 31 10000 4.76 11 17:55 06.12.2021
4399 Clear 21 1019 31 10000 4.76 11 17:33 06.12.2021
4400 Clouds 25 1017 24 10000 3.68 352 15:52 06.12.2021
4401 Clouds 27 1016 21 10000 3.12 347 14:46 06.12.2021
4402 Clouds 28 1015 18 10000 3.23 301 13:35 06.12.2021
4403 Clouds 28 1015 18 10000 3.23 301 12:38 06.12.2021
4404 Clear 26 1020 19 10000 3.09 220 10:28 06.12.2021
4405 Clear 20 1020 26 10000 3.6 170 07:41 06.12.2021
4406 Clear 12 1018 33 10000 2.71 199 03:52 06.12.2021
4407 Clear 15 1018 33 10000 2.74 159 22:28 05.12.2021
4408 Clear 15 1018 33 10000 2.75 158 22:28 05.12.2021
4409 Clear 16 1018 32 10000 3.73 157 21:26 05.12.2021
4410 Clear 17 1018 32 10000 3.73 157 20:54 05.12.2021
4411 Clear 17 1018 31 10000 3.9 160 20:18 05.12.2021
4412 Clear 18 1018 30 10000 3.91 167 19:26 05.12.2021
4413 Clear 19 1018 28 10000 3.69 164 18:31 05.12.2021
4414 Clear 20 1018 28 10000 3.67 164 17:53 05.12.2021
4415 Clear 20 1018 28 10000 3.67 164 17:34 05.12.2021
4416 Clear 22 1017 27 10000 3.86 147 16:38 05.12.2021
4417 Clear 22 1017 26 10000 4.25 130 16:19 05.12.2021
4418 Clouds 26 1016 25 10000 4.41 122 14:48 05.12.2021
4419 Clouds 26 1016 25 10000 4.4 122 14:30 05.12.2021
4420 Clouds 26 1016 21 10000 4.08 133 13:36 05.12.2021
4421 Clear 25 1019 18 10000 3.09 170 12:47 05.12.2021
4422 Clear 25 1019 18 10000 3.09 170 12:27 05.12.2021
4423 Clear 25 1019 19 10000 3.09 210 11:46 05.12.2021
4424 Clear 24 1020 19 10000 2.57 190 10:43 05.12.2021
4425 Clear 22 1021 21 10000 2.57 150 09:47 05.12.2021
4426 Clear 17 1022 27 10000 0 0 06:31 05.12.2021
4427 Clear 11 1019 30 10000 1.82 160 01:38 05.12.2021
4428 Clear 13 1020 28 10000 1.79 153 23:22 04.12.2021
4429 Clear 14 1020 28 10000 1.68 131 21:52 04.12.2021
4430 Clear 15 1021 28 10000 1.88 87 20:47 04.12.2021
4431 Clear 16 1021 28 10000 2.36 68 19:54 04.12.2021
4432 Clear 16 1021 28 10000 2.36 68 19:30 04.12.2021
4433 Clear 19 1021 28 10000 2.48 67 17:58 04.12.2021
4434 Clear 19 1021 28 10000 2.48 67 17:36 04.12.2021
4435 Clear 20 1020 27 10000 2.28 63 16:47 04.12.2021
4436 Clear 20 1020 27 10000 2.31 62 16:47 04.12.2021
4437 Clear 20 1020 27 10000 2.12 57 16:28 04.12.2021
4438 Clear 22 1019 23 10000 2.03 16 13:39 04.12.2021
4439 Clear 22 1022 28 10000 0.51 290 11:44 04.12.2021
4440 Clear 22 1022 28 10000 0.51 290 11:20 04.12.2021
4441 Clear 21 1023 21 10000 1.03 360 10:24 04.12.2021
4442 Clear 19 1025 26 10000 1.54 10 08:42 04.12.2021
4443 Clear 10 1024 43 10000 1.54 320 05:47 04.12.2021
4444 Clouds 9 1024 38 10000 1.65 350 04:41 04.12.2021
4445 Clear 11 1022 41 10000 2.66 3 23:49 03.12.2021
4446 Clear 13 1022 41 10000 2.92 3 22:56 03.12.2021
4447 Clear 14 1023 42 10000 2.72 6 22:00 03.12.2021
4448 Clouds 13 1023 42 10000 3.01 16 21:25 03.12.2021
4449 Clouds 15 1023 42 10000 3.01 16 20:43 03.12.2021
4450 Clear 15 1023 42 10000 3.3 21 19:36 03.12.2021
4451 Clear 17 1022 39 10000 3.84 35 18:26 03.12.2021
4452 Clear 18 1022 39 10000 3.84 35 17:44 03.12.2021
4453 Clear 22 1019 30 10000 2.9 5 14:20 03.12.2021
4454 Clear 25 1022 22 10000 3.09 300 12:52 03.12.2021
4455 Clear 24 1022 22 10000 2.57 30 11:24 03.12.2021
4456 Clear 20 1024 28 10000 4.63 360 09:57 03.12.2021
4457 Clear 18 1024 29 10000 4.12 60 08:24 03.12.2021
4458 Clear 17 1024 29 10000 3.09 20 07:38 03.12.2021
4459 Clear 15 1019 56 10000 5.33 6 02:24 03.12.2021
4460 Clouds 16 1018 50 10000 5.79 4 00:47 03.12.2021
4461 Clouds 17 1018 39 10000 6.3 5 23:46 02.12.2021
4462 Clouds 17 1017 25 10000 4.76 8 21:42 02.12.2021
4463 Clouds 20 1016 25 10000 1.23 338 20:57 02.12.2021
4464 Clouds 20 1016 25 10000 1.23 338 20:38 02.12.2021
4465 Clouds 19 1016 23 10000 2.72 147 19:25 02.12.2021
4466 Clouds 22 1016 21 10000 3.66 143 17:43 02.12.2021
4467 Clouds 26 1015 18 10000 1.74 191 15:42 02.12.2021
4468 Clouds 27 1014 17 10000 2.04 227 14:59 02.12.2021
4469 Clouds 28 1013 14 10000 2.98 241 13:58 02.12.2021
4470 Clouds 27 1015 13 10000 4.63 230 12:52 02.12.2021
4471 Clouds 27 1015 13 10000 4.63 230 12:18 02.12.2021
4472 Clear 26 1020 22 10000 6.17 210 09:41 02.12.2021
4473 Clear 22 1019 24 10000 2.06 130 08:52 02.12.2021
4474 Clear 15 1017 36 10000 2.06 160 04:54 02.12.2021
4475 Clear 16 1015 31 10000 3.5 166 00:53 02.12.2021
4476 Clear 16 1015 30 10000 3.95 161 23:19 01.12.2021
4477 Clear 17 1015 29 10000 4.04 162 22:23 01.12.2021
4478 Clear 18 1016 28 10000 4.43 156 20:39 01.12.2021
4479 Clear 19 1016 27 10000 4.49 151 19:54 01.12.2021
4480 Clouds 19 1016 26 10000 4.02 162 19:28 01.12.2021
4481 Clouds 21 1015 24 10000 4.01 161 17:45 01.12.2021
4482 Clouds 23 1015 23 10000 3.99 150 16:46 01.12.2021
4483 Clouds 27 1014 20 10000 4.34 122 14:52 01.12.2021
4484 Clear 27 1014 17 10000 3.7 131 13:45 01.12.2021
4485 Clear 27 1016 14 10000 4.63 160 12:50 01.12.2021
4486 Clear 26 1018 17 10000 5.14 180 10:42 01.12.2021
4487 Clear 24 1020 19 10000 6.17 180 09:20 01.12.2021
4488 Clear 23 1020 20 10000 3.6 170 08:30 01.12.2021
4489 Clear 21 1021 23 10000 3.6 150 07:34 01.12.2021
4490 Clear 18 1020 27 10000 1.54 130 06:59 01.12.2021
4491 Clouds 11 1018 31 10000 2.09 153 03:46 01.12.2021
4492 Clear 13 1017 29 10000 1.73 129 00:59 01.12.2021
4493 Clear 13 1017 28 10000 1.44 124 23:54 30.11.2021
4494 Clear 13 1018 27 10000 0.99 114 23:25 30.11.2021
4495 Clear 16 1018 27 10000 0.54 65 21:39 30.11.2021
4496 Clear 18 1018 26 10000 0.97 37 20:44 30.11.2021
4497 Clear 20 1019 25 10000 1.86 39 19:53 30.11.2021
4498 Clear 20 1019 25 10000 1.86 39 19:34 30.11.2021
4499 Clear 20 1018 23 10000 3.07 51 18:37 30.11.2021
4500 Clear 24 1017 19 10000 2.97 18 16:50 30.11.2021
4501 Clear 26 1017 19 10000 3.14 17 15:38 30.11.2021
4502 Clear 27 1016 16 10000 3.38 6 14:20 30.11.2021
4503 Clear 29 1016 16 10000 2.99 359 13:26 30.11.2021
4504 Clear 27 1019 16 10000 3.09 360 12:45 30.11.2021
4505 Clear 27 1020 16 10000 2.57 0 11:50 30.11.2021
4506 Clear 27 1020 16 10000 2.57 0 11:23 30.11.2021
4507 Clear 26 1021 18 10000 1.54 260 10:33 30.11.2021
4508 Clear 24 1023 22 10000 1.03 330 08:53 30.11.2021
4509 Clear 24 1023 22 10000 1.03 330 08:26 30.11.2021
4510 Clear 22 1023 24 10000 1.54 0 07:47 30.11.2021
4511 Clear 14 1020 31 10000 3.17 320 02:41 30.11.2021
4512 Clear 14 1020 31 10000 3.2 320 01:42 30.11.2021
4513 Clear 15 1020 29 10000 2.95 333 00:24 30.11.2021
4514 Clear 15 1020 29 10000 2.86 340 23:24 29.11.2021
4515 Clear 17 1020 29 10000 2.86 340 22:56 29.11.2021
4516 Clear 17 1020 29 10000 2.86 340 22:33 29.11.2021
4517 Clear 17 1020 28 10000 2.75 343 21:30 29.11.2021
4518 Clear 17 1020 28 10000 2.92 356 20:59 29.11.2021
4519 Clear 17 1020 28 10000 2.93 356 20:32 29.11.2021
4520 Clear 18 1021 27 10000 3.01 2 19:56 29.11.2021
4521 Clear 18 1021 26 10000 3.19 357 19:36 29.11.2021
4522 Clear 19 1021 26 10000 3.2 357 18:51 29.11.2021
4523 Clear 20 1020 24 10000 3.32 9 17:49 29.11.2021
4524 Clear 21 1020 23 10000 3.51 11 17:18 29.11.2021
4525 Clear 21 1020 23 10000 3.51 11 17:18 29.11.2021
4526 Clear 22 1019 20 10000 3.66 5 16:29 29.11.2021
4527 Clear 22 1019 20 10000 3.66 5 16:29 29.11.2021
4528 Clear 22 1019 20 10000 3.66 5 15:52 29.11.2021
4529 Clear 23 1018 18 10000 3.9 359 14:43 29.11.2021
4530 Clear 25 1018 15 10000 5.04 358 13:34 29.11.2021
4531 Clear 25 1018 13 10000 5.01 346 12:37 29.11.2021
4532 Clear 25 1018 13 10000 5.01 346 11:40 29.11.2021
4533 Clear 25 1019 13 10000 5.12 341 10:51 29.11.2021
4534 Clear 23 1024 20 10000 2.57 320 09:36 29.11.2021
4535 Clear 19 1024 27 10000 2.06 290 06:21 29.11.2021
4536 Clear 15 1020 36 10000 2.87 324 02:28 29.11.2021
4537 Clear 15 1020 36 10000 3.07 327 00:42 29.11.2021
4538 Clear 16 1021 35 10000 3.26 337 23:44 28.11.2021
4539 Clear 16 1020 35 10000 3.2 347 23:24 28.11.2021
4540 Clear 16 1021 34 10000 3.52 355 21:52 28.11.2021
4541 Clear 16 1021 33 10000 3.39 1 21:23 28.11.2021
4542 Clear 18 1021 33 10000 3.39 1 20:34 28.11.2021
4543 Clear 19 1021 30 10000 3.93 10 19:25 28.11.2021
4544 Clear 20 1021 29 10000 4.03 16 18:35 28.11.2021
4545 Clear 22 1020 28 10000 4 20 17:55 28.11.2021
4546 Clear 22 1020 28 10000 4 20 17:31 28.11.2021
4547 Clear 23 1020 27 10000 4.09 13 16:40 28.11.2021
4548 Clear 23 1019 26 10000 3.93 5 16:18 28.11.2021
4549 Clear 24 1019 26 10000 3.93 5 15:31 28.11.2021
4550 Clear 25 1018 24 10000 3.61 356 14:46 28.11.2021
4551 Clear 26 1018 22 10000 3.46 346 13:22 28.11.2021
4552 Clear 25 1021 22 10000 3.6 20 12:48 28.11.2021
4553 Clear 24 1022 23 10000 3.6 40 11:18 28.11.2021
4554 Clear 23 1023 27 10000 4.63 30 10:21 28.11.2021
4555 Clear 22 1024 26 10000 3.6 340 09:37 28.11.2021
4556 Clear 20 1025 30 10000 3.6 360 07:49 28.11.2021
4557 Clear 18 1020 36 10000 2.88 7 23:58 27.11.2021
4558 Clear 20 1020 35 10000 3.49 22 20:57 27.11.2021
4559 Clouds 20 1020 34 10000 4.28 23 19:23 27.11.2021
4560 Clouds 23 1019 30 10000 6.7 21 17:27 27.11.2021
4561 Clear 26 1018 30 10000 6.76 17 15:57 27.11.2021
4562 Clear 28 1016 25 10000 6.25 360 13:48 27.11.2021
4563 Clear 28 1016 23 10000 5.21 353 12:57 27.11.2021
4564 Clear 28 1016 23 10000 3.59 319 10:52 27.11.2021
4565 Clear 26 1017 24 10000 3.32 302 09:53 27.11.2021
4566 Clear 25 1018 24 10000 3.26 292 08:43 27.11.2021
4567 Clear 18 1020 30 10000 3 305 06:34 27.11.2021
4568 Clear 17 1017 39 10000 1.17 219 01:57 27.11.2021
4569 Clear 20 1017 37 10000 1.89 191 23:38 26.11.2021
4570 Clear 20 1018 34 10000 2.57 168 22:25 26.11.2021
4571 Clear 20 1018 34 10000 2.57 168 21:38 26.11.2021
4572 Clear 20 1018 34 10000 2.65 172 21:18 26.11.2021
4573 Clear 21 1018 32 10000 2.97 178 20:29 26.11.2021
4574 Clear 22 1018 32 10000 2.97 178 19:49 26.11.2021
4575 Clear 23 1017 27 10000 3.52 174 18:41 26.11.2021
4576 Clear 24 1017 26 10000 3.53 150 17:23 26.11.2021
4577 Clear 28 1016 25 10000 2.94 133 15:59 26.11.2021
4578 Clear 29 1015 20 10000 2.24 217 13:36 26.11.2021
4579 Clear 30 1015 19 10000 2.54 218 12:51 26.11.2021
4580 Clear 28 1016 21 10000 3.36 192 10:39 26.11.2021
4581 Clear 27 1018 26 10000 4.69 178 09:29 26.11.2021
4582 Clear 25 1018 26 10000 4.69 178 08:47 26.11.2021
4583 Clear 25 1019 28 10000 4.7 173 08:19 26.11.2021
4584 Clear 19 1019 33 10000 4.24 159 06:29 26.11.2021
4585 Clear 15 1019 37 10000 3.45 152 04:52 26.11.2021
4586 Clear 16 1018 37 10000 3.66 147 03:28 26.11.2021
4587 Clear 17 1018 37 10000 3.73 142 23:29 25.11.2021
4588 Clear 20 1018 35 10000 4.03 145 21:58 25.11.2021
4589 Clear 20 1018 34 10000 4.47 149 20:41 25.11.2021
4590 Clear 22 1018 30 10000 4.4 141 18:50 25.11.2021
4591 Clear 22 1018 28 10000 4.41 125 18:19 25.11.2021
4592 Clear 23 1017 27 10000 3.85 130 17:27 25.11.2021
4593 Clear 25 1017 27 10000 3.85 130 16:41 25.11.2021
4594 Clear 25 1017 27 10000 3.85 130 16:41 25.11.2021
4595 Clear 26 1017 26 10000 4.03 137 15:58 25.11.2021
4596 Clear 27 1015 23 10000 5.64 137 14:24 25.11.2021
4597 Clear 27 1015 22 10000 5.34 142 12:55 25.11.2021
4598 Clear 27 1015 22 10000 5.15 145 11:55 25.11.2021
4599 Clear 26 1016 23 10000 4.86 151 10:31 25.11.2021
4600 Clear 18 1020 29 10000 4.98 151 06:36 25.11.2021
4601 Clear 14 1019 35 10000 2.51 144 02:56 25.11.2021
4602 Clear 15 1018 35 10000 1.68 111 23:40 24.11.2021
4603 Clear 15 1018 34 10000 1.96 99 22:29 24.11.2021
4604 Clear 16 1018 34 10000 1.96 99 21:48 24.11.2021
4605 Clear 16 1019 33 10000 2.28 83 21:19 24.11.2021
4606 Clear 18 1019 33 10000 2.7 75 20:26 24.11.2021
4607 Clear 19 1019 33 10000 3.16 70 19:20 24.11.2021
4608 Clear 20 1018 32 10000 4.04 74 18:18 24.11.2021
4609 Clear 22 1017 31 10000 3.8 81 16:20 24.11.2021
4610 Clear 24 1017 29 10000 3.02 79 14:57 24.11.2021
4611 Clear 24 1016 27 10000 2.85 80 14:21 24.11.2021
4612 Clear 24 1016 28 10000 2.49 88 12:51 24.11.2021
4613 Clear 23 1017 29 10000 2.56 80 11:24 24.11.2021
4614 Clear 22 1017 29 10000 2.56 80 10:52 24.11.2021
4615 Clear 22 1017 29 10000 2.56 80 10:52 24.11.2021
4616 Clear 22 1017 29 10000 2.56 80 10:34 24.11.2021
4617 Clear 20 1021 34 10000 3.62 50 08:35 24.11.2021
4618 Clear 18 1021 34 10000 3.61 50 07:31 24.11.2021
4619 Clear 15 1020 53 10000 3.41 26 05:23 24.11.2021
4620 Clear 16 1019 54 10000 3.27 29 02:44 24.11.2021
4621 Clear 18 1019 51 10000 3.2 25 23:33 23.11.2021
4622 Clear 18 1019 51 10000 3.53 28 22:37 23.11.2021
4623 Clear 19 1019 51 10000 3.89 32 21:45 23.11.2021
4624 Clear 20 1020 51 10000 5.57 28 20:22 23.11.2021
4625 Clear 20 1020 51 10000 6.46 28 19:29 23.11.2021
4626 Clear 21 1020 51 10000 6.46 28 18:33 23.11.2021
4627 Clouds 22 1019 49 10000 7.2 30 17:30 23.11.2021
4628 Clouds 23 1018 49 10000 6.95 35 16:35 23.11.2021
4629 Clear 24 1016 41 10000 5.39 41 15:26 23.11.2021
4630 Clear 25 1016 40 10000 5.16 41 14:44 23.11.2021
4631 Clear 26 1016 34 10000 3.48 41 12:53 23.11.2021
4632 Clear 24 1017 38 10000 4.11 44 10:28 23.11.2021
4633 Clear 23 1017 38 10000 4.11 44 09:45 23.11.2021
4634 Clear 19 1019 47 10000 5.14 31 07:51 23.11.2021
4635 Clouds 18 1019 58 10000 3.58 5 04:53 23.11.2021
4636 Clouds 18 1018 58 10000 3.95 359 03:29 23.11.2021
4637 Clouds 21 1017 40 10000 4.09 351 23:35 22.11.2021
4638 Clouds 22 1017 37 10000 3.81 350 22:57 22.11.2021
4639 Clouds 22 1017 37 10000 3.81 350 22:30 22.11.2021
4640 Clouds 22 1017 37 10000 3.81 350 22:30 22.11.2021
4641 Clouds 22 1017 37 10000 3.81 350 22:30 22.11.2021
4642 Clouds 22 1017 34 10000 3.52 349 21:44 22.11.2021
4643 Clouds 22 1017 32 10000 3.12 332 21:18 22.11.2021
4644 Clouds 24 1017 29 10000 3.04 289 20:23 22.11.2021
4645 Clear 24 1016 27 10000 3.41 192 19:20 22.11.2021
4646 Clear 27 1016 27 10000 3.41 192 18:40 22.11.2021
4647 Clear 28 1016 26 10000 4.96 171 17:46 22.11.2021
4648 Clear 30 1015 25 10000 5.26 162 16:30 22.11.2021
4649 Clear 32 1014 21 10000 3.32 192 14:41 22.11.2021
4650 Clear 32 1013 17 10000 6.58 203 12:48 22.11.2021
4651 Clear 32 1013 18 10000 7.71 192 11:27 22.11.2021
4652 Clear 29 1014 19 10000 8.05 187 09:56 22.11.2021
4653 Clear 28 1015 21 10000 8.37 182 08:42 22.11.2021
4654 Clouds 26 1017 27 10000 6.65 176 07:24 22.11.2021
4655 Clear 22 1014 35 10000 4.03 144 00:21 22.11.2021
4656 Clear 21 1014 34 10000 3.76 142 22:54 21.11.2021
4657 Clear 21 1014 32 10000 3.65 140 22:26 21.11.2021
4658 Clear 22 1014 30 10000 3.41 144 20:44 21.11.2021
4659 Clear 22 1014 28 10000 3.23 147 20:26 21.11.2021
4660 Clear 26 1014 26 10000 3.19 155 18:49 21.11.2021
4661 Clear 27 1014 26 10000 2.85 178 17:41 21.11.2021
4662 Clear 27 1013 26 10000 2.68 183 17:19 21.11.2021
4663 Clear 31 1011 22 10000 3.28 197 14:48 21.11.2021
4664 Clear 31 1010 19 10000 5.99 213 13:57 21.11.2021
4665 Clear 30 1010 19 10000 6.9 222 12:55 21.11.2021
4666 Clear 30 1009 19 10000 6.81 211 11:58 21.11.2021
4667 Clear 30 1009 19 10000 6.81 211 11:36 21.11.2021
4668 Clear 29 1011 21 10000 6.22 210 10:19 21.11.2021
4669 Clear 28 1012 23 10000 6.16 221 09:44 21.11.2021
4670 Clear 27 1013 24 10000 5.74 212 08:31 21.11.2021
4671 Clear 25 1014 27 10000 5.28 210 07:51 21.11.2021
4672 Clear 21 1014 34 10000 3.07 196 06:26 21.11.2021
4673 Clear 20 1014 34 10000 3.07 196 05:39 21.11.2021
4674 Clouds 19 1012 39 10000 1.94 184 03:21 21.11.2021
4675 Clouds 19 1012 39 10000 1.94 184 02:54 21.11.2021
4676 Clear 20 1010 38 10000 2.25 168 01:25 21.11.2021
4677 Clear 21 1010 38 10000 2.25 168 00:41 21.11.2021
4678 Clouds 24 1009 32 10000 3.72 190 21:55 20.11.2021
4679 Clouds 24 1009 30 10000 5.67 177 21:30 20.11.2021
4680 Clouds 25 1009 28 10000 6.97 172 19:46 20.11.2021
4681 Clouds 25 1009 29 10000 6.65 171 18:45 20.11.2021
4682 Clouds 25 1009 28 10000 7.14 167 18:19 20.11.2021
4683 Clear 25 1008 28 10000 5.76 159 17:22 20.11.2021
4684 Clear 29 1007 25 10000 4.46 218 14:55 20.11.2021
4685 Clear 29 1007 22 10000 7.59 223 14:28 20.11.2021
4686 Clear 29 1007 22 10000 7.59 223 13:46 20.11.2021
4687 Clear 28 1007 21 10000 8.8 191 11:26 20.11.2021
4688 Clear 26 1009 22 10000 9.05 185 09:56 20.11.2021
4689 Clear 25 1010 23 10000 8.83 179 08:35 20.11.2021
4690 Clouds 21 1012 30 10000 8.04 169 06:32 20.11.2021
4691 Clouds 18 1012 38 10000 5.6 167 05:18 20.11.2021
4692 Clouds 18 1012 38 10000 5.6 167 04:49 20.11.2021
4693 Clouds 20 1011 37 10000 6.3 159 00:43 20.11.2021
4694 Clouds 19 1011 38 10000 6.17 161 23:45 19.11.2021
4695 Clear 20 1011 38 10000 6.21 152 22:53 19.11.2021
4696 Clear 21 1011 36 10000 6.69 149 21:28 19.11.2021
4697 Clear 22 1011 36 10000 6.69 149 20:41 19.11.2021
4698 Clear 22 1012 35 10000 6.94 148 20:23 19.11.2021
4699 Clear 21 1012 35 10000 6.94 148 19:44 19.11.2021
4700 Clear 22 1012 34 10000 6.97 140 18:46 19.11.2021
4701 Clear 23 1012 32 10000 6.81 127 17:44 19.11.2021
4702 Clear 23 1012 32 10000 5.27 121 16:43 19.11.2021
4703 Clear 26 1011 29 10000 5.06 128 14:52 19.11.2021
4704 Clouds 25 1012 27 10000 5.45 153 11:32 19.11.2021
4705 Clouds 24 1014 29 10000 4.76 140 10:24 19.11.2021
4706 Clouds 22 1016 32 10000 4.68 140 08:35 19.11.2021
4707 Clear 14 1017 43 10000 1.63 117 05:36 19.11.2021
4708 Clear 14 1017 46 10000 1.71 100 04:19 19.11.2021
4709 Clear 17 1017 41 10000 2.15 69 23:54 18.11.2021
4710 Clear 17 1017 40 10000 2.19 80 23:18 18.11.2021
4711 Clear 17 1017 38 10000 2.6 59 21:18 18.11.2021
4712 Clear 17 1017 38 10000 2.6 59 20:44 18.11.2021
4713 Clear 17 1018 37 10000 2.9 48 20:23 18.11.2021
4714 Clear 19 1018 37 10000 2.89 49 19:36 18.11.2021
4715 Clear 21 1018 34 10000 3.42 48 18:38 18.11.2021
4716 Clear 22 1017 32 10000 4.04 42 17:52 18.11.2021
4717 Clear 22 1017 30 10000 3.8 32 17:22 18.11.2021
4718 Clear 23 1017 30 10000 3.8 32 16:42 18.11.2021
4719 Clear 26 1016 26 10000 3.14 11 14:57 18.11.2021
4720 Clear 25 1015 24 10000 2.98 349 12:55 18.11.2021
4721 Clear 26 1016 25 10000 2.77 342 11:44 18.11.2021
4722 Clear 26 1016 27 10000 2.46 344 11:26 18.11.2021
4723 Clear 25 1016 27 10000 2.46 344 10:35 18.11.2021
4724 Clear 21 1019 33 10000 1.95 8 08:44 18.11.2021
4725 Clear 17 1020 40 10000 2.21 19 06:49 18.11.2021
4726 Clear 15 1020 45 10000 2.47 9 05:46 18.11.2021
4727 Clear 15 1018 49 10000 2.53 5 01:27 18.11.2021
4728 Clear 17 1018 48 10000 2.56 12 23:46 17.11.2021
4729 Clear 17 1018 47 10000 2.91 24 22:40 17.11.2021
4730 Clear 17 1018 45 10000 3.25 25 22:19 17.11.2021
4731 Clear 17 1018 45 10000 3.25 25 22:19 17.11.2021
4732 Clear 17 1018 45 10000 3.25 25 21:35 17.11.2021
4733 Clear 18 1018 41 10000 3.75 29 20:18 17.11.2021
4734 Clear 22 1017 33 10000 5.2 31 17:36 17.11.2021
4735 Clear 23 1016 30 10000 4.76 29 16:28 17.11.2021
4736 Clear 26 1014 27 10000 3.61 10 13:41 17.11.2021
4737 Clear 26 1014 29 10000 2.79 3 12:38 17.11.2021
4738 Clear 25 1014 31 10000 3.03 6 10:54 17.11.2021
4739 Clouds 22 1015 34 10000 3.63 3 09:44 17.11.2021
4740 Clouds 21 1017 42 10000 4.2 360 08:30 17.11.2021
4741 Clouds 20 1017 42 10000 4.2 360 07:41 17.11.2021
4742 Clouds 18 1014 37 10000 3.93 354 02:56 17.11.2021
4743 Clouds 19 1013 37 10000 3.98 2 00:42 17.11.2021
4744 Clouds 21 1013 35 10000 3.89 11 22:37 16.11.2021
4745 Clouds 23 1012 31 10000 3.23 352 20:19 16.11.2021
4746 Clouds 25 1012 31 10000 3.23 352 19:55 16.11.2021
4747 Clouds 26 1012 30 10000 2.27 8 18:52 16.11.2021
4748 Clouds 26 1012 28 10000 1.86 7 18:29 16.11.2021
4749 Clouds 27 1012 28 10000 1.86 7 17:31 16.11.2021
4750 Clouds 28 1010 25 10000 1.25 308 16:31 16.11.2021
4751 Clouds 29 1010 24 10000 1.2 304 15:48 16.11.2021
4752 Clouds 30 1009 20 10000 4.17 236 13:49 16.11.2021
4753 Clouds 29 1010 19 10000 7.23 245 10:52 16.11.2021
4754 Clear 28 1011 19 10000 7.27 235 09:44 16.11.2021
4755 Clear 27 1013 22 10000 5.2 224 08:24 16.11.2021
4756 Clear 23 1013 22 10000 5.42 224 07:31 16.11.2021
4757 Clear 18 1013 29 10000 3.97 156 01:20 16.11.2021
4758 Clear 19 1013 28 10000 4.67 147 22:48 15.11.2021
4759 Clear 19 1014 27 10000 4.76 142 22:21 15.11.2021
4760 Clear 20 1014 27 10000 4.76 142 21:51 15.11.2021
4761 Clear 20 1014 27 10000 4.44 141 21:25 15.11.2021
4762 Clear 22 1014 27 10000 4.04 147 19:41 15.11.2021
4763 Clear 23 1015 27 10000 3.65 150 18:18 15.11.2021
4764 Clear 24 1014 25 10000 3.57 134 16:19 15.11.2021
4765 Clear 26 1014 25 10000 3.57 134 15:40 15.11.2021
4766 Clear 26 1014 23 10000 3.36 128 15:20 15.11.2021
4767 Clear 29 1013 20 10000 3.14 130 12:47 15.11.2021
4768 Clear 27 1014 21 10000 2.86 154 10:54 15.11.2021
4769 Clear 26 1017 21 10000 3.28 155 09:26 15.11.2021
4770 Clear 21 1018 22 10000 3.35 149 07:45 15.11.2021
4771 Clear 13 1019 28 10000 2.27 146 04:46 15.11.2021
4772 Clouds 16 1018 30 10000 1.16 139 23:37 14.11.2021
4773 Clouds 16 1019 28 10000 1.91 111 22:34 14.11.2021
4774 Clear 21 1019 27 10000 3.37 85 19:51 14.11.2021
4775 Clouds 21 1019 27 10000 3.94 76 19:18 14.11.2021
4776 Clouds 22 1019 26 10000 3.92 78 18:54 14.11.2021
4777 Clouds 22 1019 26 10000 3.92 78 18:36 14.11.2021
4778 Clouds 22 1019 27 10000 3.18 77 18:18 14.11.2021
4779 Clouds 23 1019 27 10000 3.2 77 17:54 14.11.2021
4780 Clouds 23 1019 27 10000 3.2 77 17:36 14.11.2021
4781 Clouds 23 1019 27 10000 1.91 104 17:18 14.11.2021
4782 Clouds 24 1019 27 10000 1.91 104 16:45 14.11.2021
4783 Clear 24 1018 26 10000 1.9 140 16:19 14.11.2021
4784 Clear 26 1017 24 10000 2.32 138 15:22 14.11.2021
4785 Clear 28 1017 24 10000 2.32 138 14:45 14.11.2021
4786 Clear 28 1016 22 10000 2.84 130 14:23 14.11.2021
4787 Clear 28 1016 22 10000 2.84 130 13:53 14.11.2021
4788 Clouds 28 1016 22 10000 2.77 127 13:32 14.11.2021
4789 Clouds 28 1017 23 10000 2.95 130 12:26 14.11.2021
4790 Clouds 27 1017 23 10000 2.93 131 11:34 14.11.2021
4791 Clouds 26 1017 25 10000 3.08 138 10:40 14.11.2021
4792 Clouds 26 1017 25 10000 3.08 138 10:40 14.11.2021
4793 Clouds 23 1019 27 10000 2.98 142 09:42 14.11.2021
4794 Clouds 22 1020 30 10000 2.32 127 08:52 14.11.2021
4795 Clouds 17 1021 35 10000 2.13 102 06:54 14.11.2021
4796 Clouds 17 1019 47 10000 1.78 93 23:28 13.11.2021
4797 Clear 19 1019 46 10000 2.64 90 22:22 13.11.2021
4798 Clear 19 1019 46 10000 2.64 90 21:50 13.11.2021
4799 Clear 19 1020 44 10000 3.09 85 21:18 13.11.2021
4800 Clear 21 1020 42 10000 3.8 78 19:37 13.11.2021
4801 Clouds 22 1019 36 10000 4.26 77 18:33 13.11.2021
4802 Clouds 23 1019 34 10000 4.85 71 17:46 13.11.2021
4803 Clouds 24 1019 30 10000 4.61 70 16:35 13.11.2021
4804 Clouds 26 1017 23 10000 3.65 93 14:57 13.11.2021
4805 Clear 26 1017 20 10000 3.67 107 14:19 13.11.2021
4806 Clouds 26 1017 19 10000 3.38 124 12:52 13.11.2021
4807 Clouds 25 1017 19 10000 3.22 125 11:58 13.11.2021
4808 Clouds 25 1017 20 10000 3.12 122 11:28 13.11.2021
4809 Clouds 24 1017 20 10000 3.13 122 10:44 13.11.2021
4810 Clouds 23 1018 21 10000 3.57 122 09:53 13.11.2021
4811 Clouds 23 1018 21 10000 3.57 122 09:33 13.11.2021
4812 Clouds 22 1019 22 10000 3.72 115 08:56 13.11.2021
4813 Clouds 22 1020 24 10000 3.41 103 08:20 13.11.2021
4814 Clear 15 1021 32 10000 2.56 56 04:43 13.11.2021
4815 Clear 15 1020 29 10000 2.86 63 04:23 13.11.2021
4816 Clouds 17 1018 24 10000 2.72 58 00:28 13.11.2021
4817 Clouds 20 1018 23 10000 2.96 53 22:43 12.11.2021
4818 Clouds 21 1018 21 10000 3.71 67 21:29 12.11.2021
4819 Clouds 22 1017 19 10000 4.7 72 19:43 12.11.2021
4820 Clouds 22 1017 18 10000 2.66 117 19:23 12.11.2021
4821 Clouds 24 1016 17 10000 3.08 122 18:20 12.11.2021
4822 Clouds 25 1015 16 10000 3.36 107 16:20 12.11.2021
4823 Clouds 31 1014 15 10000 3.05 109 14:53 12.11.2021
4824 Clouds 30 1013 13 10000 2.88 201 11:32 12.11.2021
4825 Clouds 29 1013 13 10000 3.69 210 10:50 12.11.2021
4826 Clouds 28 1015 14 10000 4.47 228 09:29 12.11.2021
4827 Clouds 20 1016 16 10000 3.5 257 08:38 12.11.2021
4828 Clear 17 1013 23 10000 3.16 155 02:22 12.11.2021
4829 Clear 20 1013 22 10000 3.59 170 23:33 11.11.2021
4830 Clear 23 1013 22 10000 3.98 174 22:30 11.11.2021
4831 Clear 24 1013 20 10000 4.96 178 21:27 11.11.2021
4832 Clear 25 1013 20 10000 4.96 178 20:38 11.11.2021
4833 Clear 26 1012 18 10000 4.63 177 18:55 11.11.2021
4834 Clear 28 1012 17 10000 4.73 182 17:42 11.11.2021
4835 Clear 29 1012 17 10000 4.7 191 16:40 11.11.2021
4836 Clear 31 1010 15 10000 4.47 201 14:45 11.11.2021
4837 Clear 31 1010 13 10000 5.97 222 14:26 11.11.2021
4838 Clear 31 1010 13 10000 5.97 222 13:37 11.11.2021
4839 Clear 30 1010 13 10000 7.34 225 12:48 11.11.2021
4840 Clear 29 1012 15 10000 8.79 221 10:35 11.11.2021
4841 Clear 27 1012 15 10000 8.78 221 09:33 11.11.2021
4842 Clear 24 1015 23 10000 5.49 209 07:36 11.11.2021
4843 Clear 20 1014 39 10000 4.86 161 02:36 11.11.2021
4844 Clear 21 1015 34 10000 4.85 147 22:59 10.11.2021
4845 Clear 22 1015 32 10000 4.97 146 21:58 10.11.2021
4846 Clear 22 1016 31 10000 5.1 146 21:18 10.11.2021
4847 Clear 22 1016 31 10000 5.11 146 20:36 10.11.2021
4848 Clear 23 1016 30 10000 5.21 146 19:46 10.11.2021
4849 Clear 24 1015 27 10000 4.48 141 17:40 10.11.2021
4850 Clear 25 1015 25 10000 4.46 130 16:25 10.11.2021
4851 Clear 28 1015 24 10000 4.09 124 14:40 10.11.2021
4852 Clear 29 1015 21 10000 3.98 116 13:40 10.11.2021
4853 Clouds 28 1015 21 10000 3.16 125 12:44 10.11.2021
4854 Clouds 27 1016 22 10000 2.86 153 10:39 10.11.2021
4855 Clouds 24 1019 26 10000 3.41 157 08:45 10.11.2021
4856 Clouds 21 1021 30 10000 2.44 129 07:25 10.11.2021
4857 Clear 19 1021 34 10000 2.7 98 06:25 10.11.2021
4858 Clear 16 1021 34 10000 2.7 98 05:44 10.11.2021
4859 Clear 18 1019 35 10000 2.96 101 22:54 09.11.2021
4860 Clear 20 1020 34 10000 2.93 100 21:47 09.11.2021
4861 Clear 20 1020 34 10000 2.92 100 21:47 09.11.2021
4862 Clear 21 1020 30 10000 3.36 88 20:26 09.11.2021
4863 Clear 21 1020 27 10000 3.3 82 19:21 09.11.2021
4864 Clear 24 1020 25 10000 3.11 75 17:31 09.11.2021
4865 Clear 27 1018 22 10000 1.36 74 15:45 09.11.2021
4866 Clear 28 1018 18 10000 0.65 94 14:24 09.11.2021
4867 Clear 28 1017 18 10000 0.79 119 12:53 09.11.2021
4868 Clear 27 1017 19 10000 1.25 106 11:38 09.11.2021
4869 Clear 27 1017 19 10000 1.25 106 11:38 09.11.2021
4870 Clear 26 1018 19 10000 1.61 112 10:44 09.11.2021
4871 Clear 24 1020 21 10000 1.79 99 09:24 09.11.2021
4872 Clear 24 1020 23 10000 2.5 64 08:19 09.11.2021
4873 Clear 16 1021 27 10000 2.74 34 05:47 09.11.2021
4874 Clear 17 1018 29 10000 2.82 23 02:22 09.11.2021
4875 Clear 17 1018 29 10000 2.82 23 01:43 09.11.2021
4876 Clear 17 1018 26 10000 2.51 17 23:36 08.11.2021
4877 Clear 18 1018 26 10000 2.42 25 22:49 08.11.2021
4878 Clear 19 1018 26 10000 2.92 34 21:46 08.11.2021
4879 Clear 19 1018 26 10000 2.92 34 21:46 08.11.2021
4880 Clear 20 1017 24 10000 3.96 34 20:48 08.11.2021
4881 Clear 21 1017 23 10000 4.11 30 19:49 08.11.2021
4882 Clear 23 1017 22 10000 4.48 36 18:25 08.11.2021
4883 Clear 26 1015 20 10000 2.49 11 16:21 08.11.2021
4884 Clear 28 1014 19 10000 1.45 12 14:58 08.11.2021
4885 Clear 28 1014 19 10000 1.42 9 14:37 08.11.2021
4886 Clear 29 1014 17 10000 0.17 257 13:24 08.11.2021
4887 Clear 29 1014 17 10000 0.23 191 11:56 08.11.2021
4888 Clear 27 1014 17 10000 0.74 80 10:50 08.11.2021
4889 Clear 25 1015 18 10000 1.56 70 09:37 08.11.2021
4890 Clear 26 1016 18 10000 1.87 51 08:53 08.11.2021
4891 Clouds 24 1017 21 10000 1.8 26 07:28 08.11.2021
4892 Clouds 17 1016 27 10000 3.39 5 03:48 08.11.2021
4893 Clouds 17 1015 28 10000 3.54 1 03:26 08.11.2021
4894 Clear 19 1014 31 10000 4.16 4 23:45 07.11.2021
4895 Clear 20 1013 30 10000 3.79 21 21:46 07.11.2021
4896 Clear 21 1013 29 10000 3.78 28 20:52 07.11.2021
4897 Clear 23 1013 26 10000 4.22 18 19:25 07.11.2021
4898 Clear 25 1013 24 10000 4.39 21 17:49 07.11.2021
4899 Clear 27 1012 23 10000 4.17 16 16:50 07.11.2021
4900 Clear 28 1011 21 10000 3.65 18 15:47 07.11.2021
4901 Clear 29 1010 18 10000 3.3 2 14:28 07.11.2021
4902 Clouds 29 1010 17 10000 2.78 4 12:58 07.11.2021
4903 Clouds 29 1010 17 10000 1.49 3 11:42 07.11.2021
4904 Clear 26 1012 19 10000 0.73 290 09:49 07.11.2021
4905 Clear 24 1014 23 10000 1.71 3 07:20 07.11.2021
4906 Clear 18 1013 30 10000 2.38 3 02:34 07.11.2021
4907 Clear 20 1013 29 10000 3.02 20 23:22 06.11.2021
4908 Clear 20 1013 29 10000 3.02 20 22:42 06.11.2021
4909 Clear 20 1013 30 10000 2.82 38 21:33 06.11.2021
4910 Clear 22 1013 30 10000 2.82 38 20:50 06.11.2021
4911 Clear 24 1013 27 10000 3.11 27 18:56 06.11.2021
4912 Clear 28 1012 23 10000 4.32 15 16:44 06.11.2021
4913 Clear 32 1010 14 10000 3.97 303 14:38 06.11.2021
4914 Clear 32 1010 14 10000 3.97 303 13:38 06.11.2021
4915 Clear 32 1010 14 10000 3.97 303 13:38 06.11.2021
4916 Clear 32 1011 13 10000 4.29 279 11:46 06.11.2021
4917 Clear 28 1014 19 10000 3.7 195 09:23 06.11.2021
4918 Clear 17 1016 36 10000 1.79 147 04:57 06.11.2021
4919 Clear 19 1015 38 10000 1.99 41 01:27 06.11.2021
4920 Clear 20 1014 38 10000 1.33 66 23:34 05.11.2021
4921 Clear 20 1015 37 10000 1.11 100 22:33 05.11.2021
4922 Clear 23 1015 35 10000 2.33 74 20:51 05.11.2021
4923 Clear 23 1015 32 10000 2.95 68 20:19 05.11.2021
4924 Clear 24 1015 32 10000 2.93 64 19:37 05.11.2021
4925 Clear 25 1015 30 10000 3.11 54 18:39 05.11.2021
4926 Clear 24 1014 24 10000 3.17 52 17:26 05.11.2021
4927 Clear 28 1013 21 10000 2.27 29 15:34 05.11.2021
4928 Clear 30 1012 17 10000 1.2 15 13:35 05.11.2021
4929 Clear 28 1013 18 10000 0.83 41 10:37 05.11.2021
4930 Clear 26 1016 19 10000 2.22 37 08:39 05.11.2021
4931 Clear 23 1017 20 10000 2.83 36 07:26 05.11.2021
4932 Clear 19 1016 24 10000 1.6 40 04:44 05.11.2021
4933 Clear 19 1014 26 10000 0.34 29 02:25 05.11.2021
4934 Clear 21 1014 25 10000 0.81 12 00:40 05.11.2021
4935 Clear 22 1015 24 10000 0.8 124 22:59 04.11.2021
4936 Clear 22 1015 22 10000 1.63 137 22:19 04.11.2021
4937 Clear 22 1015 22 10000 1.63 137 21:32 04.11.2021
4938 Clear 23 1015 21 10000 2.01 116 20:40 04.11.2021
4939 Clear 23 1015 20 10000 2.4 92 20:20 04.11.2021
4940 Clear 23 1015 20 10000 2.4 92 19:40 04.11.2021
4941 Clear 26 1015 18 10000 3.02 83 18:44 04.11.2021
4942 Clear 27 1015 17 10000 3.52 67 17:37 04.11.2021
4943 Clear 29 1014 16 10000 3.85 57 16:41 04.11.2021
4944 Clear 33 1012 12 10000 3 20 14:28 04.11.2021
4945 Clear 34 1012 12 10000 2.28 11 11:44 04.11.2021
4946 Clear 33 1015 15 10000 0.84 348 09:29 04.11.2021
4947 Clear 31 1015 15 10000 0.84 348 08:30 04.11.2021
4948 Clear 28 1016 18 10000 1.03 180 07:34 04.11.2021
4949 Clear 21 1015 24 10000 1.39 12 23:54 03.11.2021
4950 Clear 21 1015 23 10000 1.45 39 22:50 03.11.2021
4951 Clear 22 1015 22 10000 1.71 62 21:48 03.11.2021
4952 Clear 22 1016 21 10000 2 73 21:25 03.11.2021
4953 Clear 23 1015 20 10000 1.34 59 20:34 03.11.2021
4954 Clear 25 1015 19 10000 1.17 42 19:47 03.11.2021
4955 Clear 27 1015 18 10000 0.79 322 18:55 03.11.2021
4956 Clear 27 1015 18 10000 1.05 274 18:19 03.11.2021
4957 Clear 27 1015 18 10000 1.05 274 17:34 03.11.2021
4958 Clear 30 1014 17 10000 0.29 80 16:18 03.11.2021
4959 Clear 32 1014 17 10000 0.24 78 15:42 03.11.2021
4960 Clear 34 1013 13 10000 1.44 343 13:49 03.11.2021
4961 Clear 34 1013 13 10000 1.11 306 11:39 03.11.2021
4962 Clear 33 1014 13 10000 1.31 292 10:53 03.11.2021
4963 Clear 33 1015 14 10000 1.52 259 10:28 03.11.2021
4964 Clear 31 1016 14 10000 2.25 230 09:29 03.11.2021
4965 Clear 29 1017 14 10000 2.34 226 08:22 03.11.2021
4966 Clear 28 1017 15 10000 1.99 209 07:38 03.11.2021
4967 Clear 18 1017 25 10000 0.78 197 04:26 03.11.2021
4968 Clear 19 1015 25 10000 0.85 72 01:49 03.11.2021
4969 Clear 19 1015 25 10000 0.85 72 01:49 03.11.2021
4970 Clear 21 1016 22 10000 1.51 104 23:33 02.11.2021
4971 Clear 22 1016 22 10000 1.44 98 22:29 02.11.2021
4972 Clear 25 1016 21 10000 1.25 69 20:54 02.11.2021
4973 Clear 25 1016 21 10000 1.28 69 20:30 02.11.2021
4974 Clear 24 1016 20 10000 1.03 48 19:47 02.11.2021
4975 Clear 25 1016 18 10000 0.97 62 18:51 02.11.2021
4976 Clear 25 1016 18 10000 0.78 88 17:58 02.11.2021
4977 Clear 25 1016 18 10000 0.76 89 17:32 02.11.2021
4978 Clear 27 1015 17 10000 1.28 32 16:29 02.11.2021
4979 Clear 30 1014 15 10000 1.43 21 15:26 02.11.2021
4980 Clear 32 1014 13 10000 1.81 3 14:18 02.11.2021
4981 Clear 32 1014 12 10000 1.69 353 13:27 02.11.2021
4982 Clear 33 1014 12 10000 1.69 343 12:33 02.11.2021
4983 Clear 32 1015 12 10000 1.49 343 11:31 02.11.2021
4984 Clear 32 1015 12 10000 1.49 343 10:51 02.11.2021
4985 Clear 32 1016 13 10000 1.33 323 10:23 02.11.2021
4986 Clear 28 1017 14 10000 1.2 278 08:43 02.11.2021
4987 Clear 21 1018 18 10000 1.89 222 06:43 02.11.2021
4988 Clear 18 1018 29 10000 0.97 197 03:33 02.11.2021
4989 Clear 19 1017 26 10000 2.13 160 01:24 02.11.2021
4990 Clear 24 1017 22 10000 2.51 112 22:39 01.11.2021
4991 Clear 24 1017 20 10000 1.52 210 20:52 01.11.2021
4992 Clear 24 1017 20 10000 1.52 210 20:33 01.11.2021
4993 Clear 23 1018 19 10000 1.83 198 19:44 01.11.2021
4994 Clear 24 1017 20 10000 1.81 161 18:57 01.11.2021
4995 Clear 24 1017 19 10000 2.05 130 18:19 01.11.2021
4996 Clear 26 1017 18 10000 2.29 121 17:18 01.11.2021
4997 Clear 26 1017 18 10000 2.29 121 16:34 01.11.2021
4998 Clear 30 1017 17 10000 2.87 110 15:45 01.11.2021
4999 Clear 30 1016 16 10000 3.23 102 15:19 01.11.2021
5000 Clear 32 1016 16 10000 3.2 102 14:41 01.11.2021
5001 Clear 32 1016 14 10000 2.76 101 14:19 01.11.2021
5002 Clear 32 1016 14 10000 1.84 113 12:59 01.11.2021
5003 Clear 32 1016 14 10000 1.69 133 11:40 01.11.2021
5004 Clear 31 1018 16 10000 2.43 162 10:22 01.11.2021
5005 Clear 30 1019 17 10000 2.59 164 08:43 01.11.2021
5006 Clear 26 1020 19 10000 2.48 164 07:47 01.11.2021
5007 Clear 18 1021 29 10000 1.39 176 03:58 01.11.2021
5008 Clear 18 1021 29 10000 1.39 176 03:39 01.11.2021
5009 Clear 20 1020 26 10000 2.52 174 23:58 31.10.2021
5010 Clear 22 1021 24 10000 2.4 153 21:26 31.10.2021
5011 Clear 23 1021 23 10000 2.44 174 20:24 31.10.2021
5012 Clear 26 1020 20 10000 2.68 157 18:46 31.10.2021
5013 Clear 26 1020 19 10000 3.25 136 18:23 31.10.2021
5014 Clear 28 1020 18 10000 3.22 126 16:48 31.10.2021
5015 Clear 30 1019 19 10000 2.24 131 15:18 31.10.2021
5016 Clear 31 1018 19 10000 3.81 145 12:58 31.10.2021
5017 Clear 31 1018 19 10000 3.81 145 12:58 31.10.2021
5018 Clear 31 1019 20 10000 4.33 139 12:25 31.10.2021
5019 Clear 30 1019 22 10000 4.85 135 10:51 31.10.2021
5020 Clear 30 1021 23 10000 5.34 151 09:26 31.10.2021
5021 Clear 29 1021 23 10000 5.34 151 08:46 31.10.2021
5022 Clear 22 1022 37 10000 2.94 145 04:54 31.10.2021
5023 Clouds 23 1020 41 10000 2.6 122 00:36 31.10.2021
5024 Clouds 22 1021 37 10000 3.4 123 22:27 30.10.2021
5025 Clouds 25 1020 36 10000 3.72 110 21:29 30.10.2021
5026 Clouds 26 1020 34 10000 2.32 111 19:49 30.10.2021
5027 Clouds 29 1019 30 10000 3.42 126 17:49 30.10.2021
5028 Clouds 31 1018 26 10000 4.52 122 15:49 30.10.2021
5029 Clouds 32 1017 25 10000 3.77 143 13:59 30.10.2021
5030 Clouds 32 1017 24 10000 3.57 147 13:38 30.10.2021
5031 Clouds 32 1017 25 10000 4.77 141 13:20 30.10.2021
5032 Clouds 31 1018 25 10000 5.38 139 11:50 30.10.2021
5033 Clouds 30 1019 27 10000 5.32 147 10:57 30.10.2021
5034 Clouds 27 1021 32 10000 5.52 150 08:59 30.10.2021
5035 Clouds 24 1021 32 10000 5.13 147 07:57 30.10.2021
5036 Clouds 22 1021 36 10000 3.56 139 05:47 30.10.2021
5037 Clouds 21 1018 32 10000 3.84 138 02:59 30.10.2021
5038 Clouds 23 1018 27 10000 2.96 132 23:21 29.10.2021
5039 Clouds 23 1018 27 10000 2.96 132 22:35 29.10.2021
5040 Clouds 23 1018 27 10000 2.96 132 22:35 29.10.2021
5041 Clouds 24 1018 23 10000 3.47 120 21:19 29.10.2021
5042 Clouds 25 1018 23 10000 3.48 120 20:33 29.10.2021
5043 Clouds 27 1017 21 10000 3.3 111 19:30 29.10.2021
5044 Clouds 29 1016 20 10000 1.62 117 17:48 29.10.2021
5045 Clouds 32 1015 17 10000 2.22 169 15:50 29.10.2021
5046 Clouds 33 1015 14 10000 5.51 150 13:19 29.10.2021
5047 Clouds 31 1016 16 10000 6.44 159 10:49 29.10.2021
5048 Clouds 31 1016 16 10000 6.44 159 10:30 29.10.2021
5049 Clouds 23 1015 23 10000 4.21 149 02:47 29.10.2021
5050 Clouds 24 1015 18 10000 4.01 151 00:32 29.10.2021
5051 Clouds 28 1015 16 10000 3.15 177 22:32 28.10.2021
5052 Clouds 28 1015 15 10000 3.62 187 21:20 28.10.2021
5053 Clouds 28 1015 14 10000 3.77 191 20:19 28.10.2021
5054 Clouds 30 1014 14 10000 4.14 190 18:47 28.10.2021
5055 Clouds 31 1013 14 10000 4.7 170 17:42 28.10.2021
5056 Clouds 33 1013 13 10000 5.41 155 16:39 28.10.2021
5057 Clouds 35 1012 10 10000 6.05 168 14:43 28.10.2021
5058 Clouds 35 1011 9 10000 5.93 167 13:33 28.10.2021
5059 Clouds 35 1012 9 10000 6.23 172 12:50 28.10.2021
5060 Clouds 34 1012 10 10000 6.55 176 11:50 28.10.2021
5061 Clouds 32 1013 10 10000 6.77 183 10:38 28.10.2021
5062 Clouds 31 1014 11 10000 6.78 192 09:37 28.10.2021
5063 Clouds 30 1015 13 10000 7.03 196 08:36 28.10.2021
5064 Clouds 26 1015 16 10000 7.4 190 07:41 28.10.2021
5065 Clouds 24 1013 23 10000 5.22 169 02:33 28.10.2021
5066 Clouds 25 1014 24 10000 4.59 162 22:54 27.10.2021
5067 Clouds 26 1015 23 10000 4.37 159 21:57 27.10.2021
5068 Clouds 26 1015 22 10000 4.22 154 21:28 27.10.2021
5069 Clouds 27 1015 22 10000 4.24 154 20:43 27.10.2021
5070 Clouds 28 1014 19 10000 3.77 148 19:47 27.10.2021
5071 Clouds 30 1014 18 10000 3.51 168 18:56 27.10.2021
5072 Clouds 32 1013 17 10000 4.16 178 17:49 27.10.2021
5073 Clouds 33 1012 14 10000 6.32 142 16:25 27.10.2021
5074 Clear 34 1012 12 10000 7.1 143 15:25 27.10.2021
5075 Clear 35 1011 11 10000 6.25 145 14:24 27.10.2021
5076 Clear 33 1013 11 10000 4.55 161 11:18 27.10.2021
5077 Clear 32 1013 11 10000 4.55 161 10:37 27.10.2021
5078 Clear 30 1015 15 10000 5.49 171 09:28 27.10.2021
5079 Clear 25 1016 17 10000 5.69 169 07:46 27.10.2021
5080 Clear 22 1016 24 10000 3.95 172 05:49 27.10.2021
5081 Clear 25 1014 22 10000 4.39 163 01:26 27.10.2021
5082 Clear 24 1014 22 10000 4.39 163 00:54 27.10.2021
5083 Clear 26 1014 22 10000 4.67 165 23:55 26.10.2021
5084 Clear 26 1015 22 10000 4.9 166 22:47 26.10.2021
5085 Clear 26 1015 21 10000 4.76 159 22:25 26.10.2021
5086 Clear 26 1015 21 10000 4.76 159 21:41 26.10.2021
5087 Clear 28 1014 18 10000 5.2 148 19:59 26.10.2021
5088 Clear 28 1014 15 10000 4.74 153 19:22 26.10.2021
5089 Clear 29 1013 15 10000 4.82 149 18:23 26.10.2021
5090 Clear 33 1012 13 10000 4.8 125 15:51 26.10.2021
5091 Clear 32 1011 12 10000 4.89 147 13:21 26.10.2021
5092 Clear 30 1013 17 10000 4.67 165 11:18 26.10.2021
5093 Clear 28 1016 29 10000 6.03 153 09:26 26.10.2021
5094 Clear 23 1016 39 10000 5.44 141 07:22 26.10.2021
5095 Clear 24 1014 40 10000 3.58 117 00:29 26.10.2021
5096 Clear 25 1014 40 10000 3.58 117 23:37 25.10.2021
5097 Clear 26 1015 38 10000 4.02 122 22:34 25.10.2021
5098 Clear 27 1015 37 10000 3.89 130 21:45 25.10.2021
5099 Clear 27 1014 36 10000 3.99 104 20:38 25.10.2021
5100 Clear 28 1014 32 10000 5.21 86 19:44 25.10.2021
5101 Clear 28 1013 27 10000 6.21 82 19:23 25.10.2021
5102 Clear 30 1013 27 10000 6.21 82 18:40 25.10.2021
5103 Clear 32 1012 13 10000 3.66 61 17:35 25.10.2021
5104 Clear 35 1010 10 10000 2.72 335 15:18 25.10.2021
5105 Clear 34 1010 9 10000 2.37 278 12:33 25.10.2021
5106 Clear 31 1012 11 10000 2.37 258 10:54 25.10.2021
5107 Clear 26 1015 17 10000 1.21 273 08:59 25.10.2021
5108 Clear 23 1015 24 10000 1.65 54 07:19 25.10.2021
5109 Clear 19 1014 28 10000 2.37 108 05:21 25.10.2021
5110 Clear 24 1013 23 10000 3.1 339 00:52 25.10.2021
5111 Clear 24 1013 23 10000 3.1 339 00:33 25.10.2021
5112 Clear 25 1012 22 10000 4.15 336 23:41 24.10.2021
5113 Clear 25 1013 19 10000 4.82 321 22:39 24.10.2021
5114 Clear 25 1012 16 10000 3.45 314 22:19 24.10.2021
5115 Clear 28 1012 15 10000 2.98 276 21:18 24.10.2021
5116 Clear 30 1012 15 10000 2.98 276 20:36 24.10.2021
5117 Clear 32 1011 14 10000 4.08 210 19:40 24.10.2021
5118 Clear 33 1011 13 10000 3.87 202 18:29 24.10.2021
5119 Clear 34 1011 13 10000 3.87 202 17:44 24.10.2021
5120 Clear 36 1010 11 10000 3.08 219 15:56 24.10.2021
5121 Clear 36 1010 10 10000 4.09 245 14:42 24.10.2021
5122 Clear 35 1011 10 10000 5.73 246 13:19 24.10.2021
5123 Clear 34 1011 10 10000 7.18 243 11:56 24.10.2021
5124 Clear 34 1012 11 10000 8.88 245 11:26 24.10.2021
5125 Clear 33 1013 12 10000 10.12 247 10:28 24.10.2021
5126 Clear 26 1014 15 10000 7.94 231 07:59 24.10.2021
5127 Clear 26 1014 25 10000 4.52 177 01:25 24.10.2021
5128 Clear 26 1015 25 10000 4.56 168 23:51 23.10.2021
5129 Clear 26 1015 25 10000 4.51 158 22:32 23.10.2021
5130 Clear 27 1016 23 10000 4.1 138 20:37 23.10.2021
5131 Clear 30 1015 20 10000 4.37 155 18:59 23.10.2021
5132 Clear 30 1015 20 10000 4.37 155 18:30 23.10.2021
5133 Clear 31 1014 19 10000 4.63 145 17:43 23.10.2021
5134 Clear 32 1014 19 10000 4.45 135 16:38 23.10.2021
5135 Clear 34 1013 15 10000 4.67 110 14:35 23.10.2021
5136 Clear 29 1017 20 10000 1.94 182 09:45 23.10.2021
5137 Clear 22 1017 33 10000 1.15 102 00:25 23.10.2021
5138 Clear 24 1017 31 10000 2.92 111 23:23 22.10.2021
5139 Clear 26 1018 28 10000 3.47 86 20:55 22.10.2021
5140 Clear 29 1017 24 10000 4.46 75 18:57 22.10.2021
5141 Clear 30 1017 22 10000 3.73 75 17:44 22.10.2021
5142 Clear 32 1015 19 10000 1.34 90 15:50 22.10.2021
5143 Clear 33 1015 17 10000 0.84 58 14:30 22.10.2021
5144 Clear 32 1016 20 10000 1.04 117 12:38 22.10.2021
5145 Clear 29 1017 22 10000 1.39 105 10:48 22.10.2021
5146 Clear 27 1018 24 10000 1.79 89 09:56 22.10.2021
5147 Clear 27 1018 24 10000 1.8 89 09:56 22.10.2021
5148 Clear 27 1018 24 10000 1.79 89 09:32 22.10.2021
5149 Clear 24 1019 34 10000 2.23 62 07:26 22.10.2021
5150 Clear 20 1018 41 10000 1.81 57 04:59 22.10.2021
5151 Clear 23 1017 35 10000 2.58 63 00:24 22.10.2021
5152 Clear 24 1017 35 10000 2.58 63 23:40 21.10.2021
5153 Clear 25 1017 31 10000 3.25 70 22:21 21.10.2021
5154 Clear 27 1017 28 10000 4.44 68 20:55 21.10.2021
5155 Clear 27 1017 26 10000 4.78 64 20:20 21.10.2021
5156 Clear 28 1016 24 10000 4.89 62 19:30 21.10.2021
5157 Clear 28 1016 24 10000 4.89 62 19:30 21.10.2021
5158 Clear 30 1016 23 10000 5.07 57 18:52 21.10.2021
5159 Clear 30 1016 21 10000 5.22 53 18:22 21.10.2021
5160 Clear 31 1016 21 10000 5.22 53 17:42 21.10.2021
5161 Clear 33 1014 15 10000 3.91 51 16:20 21.10.2021
5162 Clear 33 1014 14 10000 3.12 52 15:21 21.10.2021
5163 Clear 33 1014 14 10000 3.12 52 14:49 21.10.2021
5164 Clear 33 1014 14 10000 2.08 72 13:26 21.10.2021
5165 Clear 32 1016 17 10000 2.31 84 11:27 21.10.2021
5166 Clear 29 1017 22 10000 2.88 94 09:23 21.10.2021
5167 Clear 25 1018 31 10000 2.89 101 07:31 21.10.2021
5168 Clear 20 1017 34 10000 2.31 103 05:33 21.10.2021
5169 Clear 25 1016 20 10000 2.82 9 23:45 20.10.2021
5170 Clear 27 1015 18 10000 4.63 3 22:21 20.10.2021
5171 Clear 28 1015 18 10000 4.63 3 21:43 20.10.2021
5172 Clear 29 1015 16 10000 4.62 1 20:56 20.10.2021
5173 Clear 29 1015 16 10000 4.63 1 20:35 20.10.2021
5174 Clear 31 1015 15 10000 4.77 357 19:59 20.10.2021
5175 Clear 33 1014 13 10000 4.08 336 18:56 20.10.2021
5176 Clear 34 1013 12 10000 3.52 315 17:51 20.10.2021
5177 Clear 39 1012 10 10000 2.81 297 15:44 20.10.2021
5178 Clear 37 1012 9 10000 5.07 281 11:42 20.10.2021
5179 Clear 34 1015 11 10000 6.98 260 09:19 20.10.2021
5180 Clear 22 1015 22 10000 3.49 213 05:23 20.10.2021
5181 Clouds 25 1014 23 10000 2.34 175 00:48 20.10.2021
5182 Clouds 25 1014 23 10000 2.34 175 00:48 20.10.2021
5183 Clear 25 1015 22 10000 3.15 166 00:22 20.10.2021
5184 Clear 27 1015 21 10000 3.29 130 21:45 19.10.2021
5185 Clear 28 1015 20 10000 3.22 108 20:56 19.10.2021
5186 Clear 28 1015 19 10000 3.13 98 20:25 19.10.2021
5187 Clear 29 1015 18 10000 3.78 97 19:44 19.10.2021
5188 Clear 29 1015 17 10000 3.79 86 19:20 19.10.2021
5189 Clear 32 1014 16 10000 3.72 81 17:59 19.10.2021
5190 Clear 35 1013 13 10000 1.68 85 15:48 19.10.2021
5191 Clear 35 1012 11 10000 1.72 77 15:20 19.10.2021
5192 Clear 35 1012 11 10000 2.06 81 14:27 19.10.2021
5193 Clear 35 1012 11 10000 2.05 81 13:35 19.10.2021
5194 Clear 33 1013 12 10000 2.21 86 11:37 19.10.2021
5195 Clear 31 1014 13 10000 3.91 160 10:36 19.10.2021
5196 Clear 29 1015 16 10000 4.29 160 08:58 19.10.2021
5197 Clear 26 1016 19 10000 2.92 150 07:20 19.10.2021
5198 Clear 23 1015 20 10000 1.74 68 00:26 19.10.2021
5199 Clear 25 1015 20 10000 1.74 68 23:50 18.10.2021
5200 Clear 25 1015 19 10000 2.26 57 23:20 18.10.2021
5201 Clear 26 1015 19 10000 2.26 57 22:53 18.10.2021
5202 Clear 27 1015 19 10000 3.09 55 21:44 18.10.2021
5203 Clear 28 1015 18 10000 3.94 50 20:42 18.10.2021
5204 Clear 28 1015 18 10000 4.38 49 20:18 18.10.2021
5205 Clear 29 1014 16 10000 4.81 56 19:30 18.10.2021
5206 Clear 31 1014 16 10000 4.81 56 18:57 18.10.2021
5207 Clear 35 1011 13 10000 5.56 51 15:45 18.10.2021
5208 Clear 35 1011 12 10000 5.01 56 14:26 18.10.2021
5209 Clear 32 1012 14 10000 4.09 83 10:43 18.10.2021
5210 Clear 31 1013 16 10000 4.28 91 09:31 18.10.2021
5211 Clear 23 1014 33 10000 1.48 60 05:32 18.10.2021
5212 Clear 26 1012 23 10000 2.8 44 23:37 17.10.2021
5213 Clear 29 1012 18 10000 4.22 45 21:55 17.10.2021
5214 Clear 29 1012 17 10000 4.44 33 21:18 17.10.2021
5215 Clear 30 1012 17 10000 4.44 33 20:38 17.10.2021
5216 Clear 31 1012 17 10000 4.66 34 19:42 17.10.2021
5217 Clear 31 1012 16 10000 4.89 39 19:23 17.10.2021
5218 Clear 34 1011 15 10000 4.9 40 17:34 17.10.2021
5219 Clear 37 1009 11 10000 6.24 35 15:46 17.10.2021
5220 Clear 38 1008 10 10000 6.96 29 14:26 17.10.2021
5221 Clear 38 1008 10 10000 6.96 29 13:56 17.10.2021
5222 Clear 38 1008 10 10000 6.16 26 11:58 17.10.2021
5223 Clear 37 1009 10 10000 5.5 21 10:43 17.10.2021
5224 Clear 36 1010 11 10000 3.88 12 09:41 17.10.2021
5225 Clear 29 1012 14 10000 1.97 342 07:39 17.10.2021
5226 Clear 27 1010 19 10000 1.76 360 00:55 17.10.2021
5227 Clear 27 1010 18 10000 1.98 10 00:23 17.10.2021
5228 Clear 28 1011 16 10000 2.57 347 21:52 16.10.2021
5229 Clear 30 1011 15 10000 3.53 17 20:32 16.10.2021
5230 Clear 31 1011 15 10000 3.53 17 19:46 16.10.2021
5231 Clear 31 1011 14 10000 3.93 25 19:23 16.10.2021
5232 Clear 33 1011 14 10000 3.93 25 18:56 16.10.2021
5233 Clear 33 1011 14 10000 3.93 25 18:38 16.10.2021
5234 Clear 33 1010 13 10000 4.24 37 18:18 16.10.2021
5235 Clear 35 1009 12 10000 4.6 39 17:27 16.10.2021
5236 Clear 38 1009 10 10000 5.51 34 15:33 16.10.2021
5237 Clear 38 1009 10 10000 6.87 33 12:26 16.10.2021
5238 Clear 36 1010 10 10000 5.75 30 10:47 16.10.2021
5239 Clear 32 1012 13 10000 3.17 13 08:32 16.10.2021
5240 Clear 24 1012 18 10000 3.13 342 01:26 16.10.2021
5241 Clear 26 1012 18 10000 2.75 338 23:57 15.10.2021
5242 Clear 26 1012 17 10000 2.79 350 23:24 15.10.2021
5243 Clear 27 1012 17 10000 3.2 1 22:19 15.10.2021
5244 Clear 28 1013 16 10000 3.73 15 21:29 15.10.2021
5245 Clear 28 1013 16 10000 3.73 15 21:29 15.10.2021
5246 Clear 29 1013 16 10000 3.41 15 20:49 15.10.2021
5247 Clear 31 1013 15 10000 4.16 29 19:38 15.10.2021
5248 Clear 33 1013 14 10000 4.54 33 18:41 15.10.2021
5249 Clear 36 1011 12 10000 5.21 35 16:43 15.10.2021
5250 Clear 37 1011 10 10000 7.09 36 15:36 15.10.2021
5251 Clear 37 1010 9 10000 7.19 34 13:31 15.10.2021
5252 Clear 37 1011 10 10000 5.62 41 11:40 15.10.2021
5253 Clear 35 1012 11 10000 4.86 52 10:58 15.10.2021
5254 Clear 33 1013 12 10000 4.16 54 09:59 15.10.2021
5255 Clear 20 1014 21 10000 1.53 3 05:44 15.10.2021
5256 Clear 24 1013 22 10000 1.79 341 01:48 15.10.2021
5257 Clear 26 1013 21 10000 1.94 6 00:22 15.10.2021
5258 Clear 27 1014 20 10000 2.24 23 22:52 14.10.2021
5259 Clear 29 1014 19 10000 2.92 39 21:45 14.10.2021
5260 Clear 30 1014 18 10000 3.69 51 20:50 14.10.2021
5261 Clear 30 1014 17 10000 4.37 59 20:19 14.10.2021
5262 Clear 31 1014 17 10000 4.37 59 19:38 14.10.2021
5263 Clear 34 1013 15 10000 4.75 55 17:37 14.10.2021
5264 Clear 36 1012 14 10000 5.03 53 16:51 14.10.2021
5265 Clear 36 1012 12 10000 5.29 53 16:21 14.10.2021
5266 Clear 37 1011 11 10000 5.04 48 14:43 14.10.2021
5267 Clear 37 1011 11 10000 4.38 55 14:21 14.10.2021
5268 Clear 36 1012 14 10000 1.91 77 11:44 14.10.2021
5269 Clear 33 1014 18 10000 1.97 122 09:55 14.10.2021
5270 Clear 29 1015 25 10000 1.49 137 07:32 14.10.2021
5271 Clear 25 1013 32 10000 1.31 54 01:29 14.10.2021
5272 Clear 26 1013 30 10000 1.65 57 00:28 14.10.2021
5273 Clear 28 1014 26 10000 2.19 63 21:58 13.10.2021
5274 Clear 28 1014 26 10000 2.19 63 21:32 13.10.2021
5275 Clear 28 1013 19 10000 3.62 71 20:21 13.10.2021
5276 Clear 31 1013 15 10000 4.25 67 18:57 13.10.2021
5277 Clear 31 1013 15 10000 4.25 67 18:35 13.10.2021
5278 Clear 36 1010 8 10000 4.72 65 15:32 13.10.2021
5279 Clear 37 1010 8 10000 5.08 67 14:45 13.10.2021
5280 Clear 37 1009 7 10000 4.79 69 14:21 13.10.2021
5281 Clear 35 1010 7 10000 3.56 77 12:22 13.10.2021
5282 Clear 35 1010 7 10000 3.56 77 11:34 13.10.2021
5283 Clear 30 1013 8 10000 2.07 92 08:41 13.10.2021
5284 Clear 22 1013 8 10000 1.79 132 06:51 13.10.2021
5285 Clear 22 1012 11 10000 0.84 93 02:28 13.10.2021
5286 Clear 22 1012 11 10000 0.84 93 01:43 13.10.2021
5287 Clear 24 1012 11 10000 1.44 66 23:30 12.10.2021
5288 Clear 26 1012 11 10000 2.42 57 22:46 12.10.2021
5289 Clear 28 1012 11 10000 2.96 53 21:50 12.10.2021
5290 Clear 29 1012 13 10000 4.4 61 20:34 12.10.2021
5291 Clear 29 1012 13 10000 4.37 61 20:34 12.10.2021
5292 Clear 30 1012 13 10000 4.4 61 19:57 12.10.2021
5293 Clear 32 1011 13 10000 4.66 55 18:36 12.10.2021
5294 Clear 34 1010 12 10000 4.89 53 17:51 12.10.2021
5295 Clear 35 1010 12 10000 5.14 49 16:39 12.10.2021
5296 Clear 36 1009 11 10000 5.76 42 15:58 12.10.2021
5297 Clear 36 1008 10 10000 5.93 35 14:39 12.10.2021
5298 Clear 36 1008 10 10000 5.06 33 13:43 12.10.2021
5299 Clear 36 1008 9 10000 3.94 24 12:35 12.10.2021
5300 Clear 34 1011 10 10000 2.08 18 09:46 12.10.2021
5301 Clear 31 1012 10 10000 2.62 23 08:43 12.10.2021
5302 Clear 26 1013 12 10000 2.18 13 07:25 12.10.2021
5303 Clear 19 1012 15 10000 1.35 358 05:29 12.10.2021
5304 Clear 20 1012 15 10000 1.35 358 04:32 12.10.2021
5305 Clear 24 1011 14 10000 1.38 22 00:28 12.10.2021
5306 Clear 25 1011 14 10000 1.37 23 23:40 11.10.2021
5307 Clear 26 1012 14 10000 2.05 24 22:57 11.10.2021
5308 Clear 28 1012 13 10000 2.67 33 21:46 11.10.2021
5309 Clear 29 1012 13 10000 3.16 48 20:39 11.10.2021
5310 Clear 29 1012 12 10000 3.94 48 19:44 11.10.2021
5311 Clear 31 1012 12 10000 4.38 44 18:37 11.10.2021
5312 Clear 33 1011 12 10000 4.73 38 17:46 11.10.2021
5313 Clear 35 1010 11 10000 5.15 35 16:31 11.10.2021
5314 Clear 36 1010 10 10000 6.32 25 15:47 11.10.2021
5315 Clear 37 1010 10 10000 7.11 13 14:54 11.10.2021
5316 Clear 37 1009 10 10000 6.44 5 14:22 11.10.2021
5317 Clear 36 1010 10 10000 6.01 0 13:36 11.10.2021
5318 Clear 36 1009 10 10000 6.44 5 13:36 11.10.2021
5319 Clear 37 1010 10 10000 5.56 355 11:37 11.10.2021
5320 Clear 35 1012 10 10000 4.52 355 10:30 11.10.2021
5321 Clear 32 1013 11 10000 3.19 349 08:42 11.10.2021
5322 Clear 24 1013 18 10000 1.5 336 03:49 11.10.2021
5323 Clear 25 1012 18 10000 0.92 331 01:36 11.10.2021
5324 Clear 25 1013 18 10000 1.33 351 00:44 11.10.2021
5325 Clear 27 1013 17 10000 1.89 7 23:57 10.10.2021
5326 Clear 29 1013 16 10000 2.95 23 21:51 10.10.2021
5327 Clear 29 1013 15 10000 3.49 28 21:29 10.10.2021
5328 Clear 30 1013 16 10000 3.68 36 20:42 10.10.2021
5329 Clear 30 1013 15 10000 4.12 37 20:20 10.10.2021
5330 Clear 31 1013 15 10000 4.11 37 19:53 10.10.2021
5331 Clear 31 1013 15 10000 4.11 37 19:34 10.10.2021
5332 Clear 32 1013 14 10000 4.54 39 18:32 10.10.2021
5333 Clear 37 1010 9 10000 5.24 36 15:59 10.10.2021
5334 Clear 37 1010 9 10000 5.24 36 15:40 10.10.2021
5335 Clear 38 1010 8 10000 4.08 20 13:42 10.10.2021
5336 Clear 38 1010 8 10000 3.24 10 12:48 10.10.2021
5337 Clear 38 1011 8 10000 2.63 4 12:30 10.10.2021
5338 Clear 36 1012 9 10000 2.15 7 10:42 10.10.2021
5339 Clear 34 1014 11 10000 1.89 12 09:29 10.10.2021
5340 Clear 32 1017 11 10000 1.54 290 08:52 10.10.2021
5341 Clear 28 1017 14 10000 1.54 280 06:36 10.10.2021
5342 Clear 23 1013 18 10000 1.46 339 02:29 10.10.2021
5343 Clear 25 1013 17 10000 1.57 335 00:55 10.10.2021
5344 Clear 27 1013 17 10000 1.74 356 23:52 09.10.2021
5345 Clear 27 1013 17 10000 1.74 356 23:52 09.10.2021
5346 Clear 27 1013 16 10000 2.39 26 22:39 09.10.2021
5347 Clear 27 1014 15 10000 4.32 44 21:31 09.10.2021
5348 Clear 29 1014 15 10000 4.3 44 20:59 09.10.2021
5349 Clear 31 1013 14 10000 4.88 58 19:43 09.10.2021
5350 Clear 33 1013 14 10000 5.24 61 18:57 09.10.2021
5351 Clear 33 1013 14 10000 5.24 61 18:32 09.10.2021
5352 Clear 36 1011 10 10000 5.36 54 16:28 09.10.2021
5353 Clear 36 1011 10 10000 5.36 54 16:28 09.10.2021
5354 Clear 38 1010 9 10000 5.54 56 14:57 09.10.2021
5355 Clear 38 1010 9 10000 4.11 70 13:41 09.10.2021
5356 Clear 37 1010 9 10000 4.11 70 12:38 09.10.2021
5357 Clear 36 1011 9 10000 3.9 68 11:43 09.10.2021
5358 Clear 35 1012 10 10000 3.9 59 10:38 09.10.2021
5359 Clear 33 1013 10 10000 4.02 47 09:35 09.10.2021
5360 Clear 32 1014 13 10000 3.24 27 08:28 09.10.2021
5361 Clear 28 1014 13 10000 3.24 27 07:37 09.10.2021
5362 Clear 23 1012 21 10000 2.18 356 05:28 09.10.2021
5363 Clear 24 1012 19 10000 2.74 3 02:49 09.10.2021
5364 Clear 26 1012 20 10000 2.87 12 00:58 09.10.2021
5365 Clear 26 1012 20 10000 2.99 24 23:36 08.10.2021
5366 Clear 27 1012 19 10000 3.38 42 22:53 08.10.2021
5367 Clear 28 1012 19 10000 3.74 52 21:48 08.10.2021
5368 Clear 30 1011 17 10000 4.93 58 20:31 08.10.2021
5369 Clear 33 1011 16 10000 5.52 60 18:50 08.10.2021
5370 Clear 35 1009 15 10000 5.36 63 17:26 08.10.2021
5371 Clear 36 1009 15 10000 5.38 63 16:45 08.10.2021
5372 Clear 36 1009 14 10000 6.19 65 16:22 08.10.2021
5373 Clear 37 1008 13 10000 6.08 73 13:49 08.10.2021
5374 Clear 36 1009 16 10000 5.29 77 11:57 08.10.2021
5375 Clear 35 1010 19 10000 4.87 75 10:50 08.10.2021
5376 Clear 35 1011 23 10000 3.94 67 10:25 08.10.2021
5377 Clear 25 1013 33 10000 1.13 52 06:51 08.10.2021
5378 Clear 30 1010 33 10000 2.32 94 23:29 07.10.2021
5379 Clear 29 1010 33 10000 2.32 94 22:56 07.10.2021
5380 Clear 31 1010 28 10000 3.81 89 21:30 07.10.2021
5381 Clear 32 1010 27 10000 3.82 93 20:43 07.10.2021
5382 Clear 32 1010 24 10000 4.76 85 19:39 07.10.2021
5383 Clear 33 1010 21 10000 5.38 74 18:59 07.10.2021
5384 Clear 35 1009 19 10000 5 76 17:35 07.10.2021
5385 Clear 37 1008 17 10000 4.57 80 16:42 07.10.2021
5386 Clear 38 1007 14 10000 4.84 86 14:57 07.10.2021
5387 Clear 38 1007 15 10000 4.67 94 13:44 07.10.2021
5388 Clear 38 1008 15 10000 4.29 99 13:20 07.10.2021
5389 Clear 35 1009 19 10000 3.97 111 11:26 07.10.2021
5390 Clear 35 1009 19 10000 3.98 111 10:47 07.10.2021
5391 Clear 34 1014 29 10000 3.6 170 09:47 07.10.2021
5392 Clear 32 1014 29 10000 2.06 140 08:54 07.10.2021
5393 Clear 32 1014 29 10000 2.06 140 08:19 07.10.2021
5394 Clear 31 1014 23 10000 2.57 140 07:39 07.10.2021
5395 Clear 29 1014 26 10000 0 0 06:47 07.10.2021
5396 Clear 26 1009 23 10000 1.97 132 00:55 07.10.2021
5397 Clouds 27 1009 20 10000 1.49 118 23:25 06.10.2021
5398 Clouds 28 1009 20 10000 1.49 118 22:33 06.10.2021
5399 Clouds 28 1009 19 10000 2.21 98 21:39 06.10.2021
5400 Clouds 31 1010 17 10000 4.08 86 20:29 06.10.2021
5401 Clear 31 1009 15 10000 4.9 89 19:23 06.10.2021
5402 Clear 35 1008 14 10000 4.82 88 17:41 06.10.2021
5403 Clear 37 1007 11 10000 2.88 89 15:44 06.10.2021
5404 Clear 38 1006 11 10000 2.19 104 14:53 06.10.2021
5405 Clear 38 1007 13 10000 2.36 136 13:25 06.10.2021
5406 Clear 37 1007 13 10000 2.36 136 12:47 06.10.2021
5407 Clear 37 1008 14 10000 2.78 130 12:26 06.10.2021
5408 Clear 36 1008 14 10000 2.78 130 11:35 06.10.2021
5409 Clear 36 1008 14 10000 2.78 130 11:35 06.10.2021
5410 Clear 34 1014 26 10000 2.57 130 09:40 06.10.2021
5411 Clear 31 1014 33 10000 3.6 140 08:59 06.10.2021
5412 Clear 31 1014 33 10000 3.6 140 08:30 06.10.2021
5413 Clouds 22 1011 26 10000 2.25 118 05:56 06.10.2021
5414 Clouds 25 1010 32 10000 1.56 100 02:19 06.10.2021
5415 Clouds 27 1010 27 10000 2.61 82 00:24 06.10.2021
5416 Clouds 29 1010 27 10000 2.61 82 23:51 05.10.2021
5417 Clouds 29 1010 27 10000 2.61 82 23:30 05.10.2021
5418 Clouds 30 1009 27 10000 2.29 102 22:31 05.10.2021
5419 Clear 31 1009 26 10000 2.85 112 21:57 05.10.2021
5420 Clear 31 1009 26 10000 2.85 112 21:57 05.10.2021
5421 Clear 31 1009 25 10000 3.39 104 21:20 05.10.2021
5422 Clouds 32 1009 22 10000 5.27 83 20:26 05.10.2021
5423 Clouds 33 1009 22 10000 5.27 83 19:50 05.10.2021
5424 Clouds 33 1009 20 10000 6.2 80 19:23 05.10.2021
5425 Clouds 34 1008 18 10000 6.33 76 18:20 05.10.2021
5426 Clouds 37 1006 13 10000 4.57 76 15:33 05.10.2021
5427 Clouds 38 1006 14 10000 3.85 87 13:49 05.10.2021
5428 Clear 38 1006 14 10000 3.82 98 13:22 05.10.2021
5429 Clear 37 1007 15 10000 4.18 100 12:33 05.10.2021
5430 Clear 36 1007 15 10000 4.15 100 11:41 05.10.2021
5431 Clear 35 1008 15 10000 4.51 98 10:34 05.10.2021
5432 Clear 32 1013 23 10000 2.06 160 07:38 05.10.2021
5433 Clouds 26 1008 37 10000 2.51 68 01:28 05.10.2021
5434 Clouds 30 1009 34 10000 3.1 70 22:53 04.10.2021
5435 Clouds 31 1009 31 10000 3.9 69 21:23 04.10.2021
5436 Clouds 34 1008 22 10000 4.48 76 18:48 04.10.2021
5437 Clouds 35 1007 17 10000 5.09 74 17:26 04.10.2021
5438 Clouds 37 1006 16 10000 6.39 66 15:32 04.10.2021
5439 Clouds 37 1005 14 10000 6.69 60 14:45 04.10.2021
5440 Clouds 38 1005 14 10000 6.28 58 13:59 04.10.2021
5441 Clouds 38 1006 13 10000 5.99 57 13:31 04.10.2021
5442 Clear 38 1011 10 10000 4.63 70 12:38 04.10.2021
5443 Clear 37 1012 12 10000 3.6 50 11:33 04.10.2021
5444 Clear 35 1012 12 10000 2.57 90 10:44 04.10.2021
5445 Clouds 34 1009 16 10000 5.32 53 09:35 04.10.2021
5446 Clear 30 1012 12 10000 2.06 90 07:53 04.10.2021
5447 Clear 28 1012 15 10000 0 0 06:42 04.10.2021
5448 Clouds 28 1009 15 10000 3.21 350 22:48 03.10.2021
5449 Clouds 30 1009 14 10000 3.48 3 21:54 03.10.2021
5450 Clear 30 1009 13 10000 3.61 13 21:29 03.10.2021
5451 Clear 31 1009 13 10000 3.61 13 20:44 03.10.2021
5452 Clouds 33 1008 12 10000 3.88 34 19:42 03.10.2021
5453 Clouds 34 1007 10 10000 3.1 21 18:29 03.10.2021
5454 Clouds 36 1007 10 10000 3.1 21 17:36 03.10.2021
5455 Clouds 40 1006 7 10000 2.22 6 14:50 03.10.2021
5456 Clouds 40 1006 7 10000 1.92 348 14:29 03.10.2021
5457 Clouds 39 1006 7 10000 1.92 348 13:35 03.10.2021
5458 Clear 39 1011 7 10000 2.57 310 12:44 03.10.2021
5459 Clear 38 1012 9 10000 2.57 30 10:58 03.10.2021
5460 Clear 37 1013 8 10000 3.09 20 09:42 03.10.2021
5461 Clouds 23 1009 15 10000 1.75 332 05:25 03.10.2021
5462 Clouds 29 1008 13 10000 1.56 327 22:52 02.10.2021
5463 Clouds 29 1009 13 10000 1.48 39 21:49 02.10.2021
5464 Clouds 31 1008 11 10000 2.9 53 20:18 02.10.2021
5465 Clouds 34 1008 11 10000 2.33 30 18:56 02.10.2021
5466 Clouds 34 1008 11 10000 2.33 30 18:56 02.10.2021
5467 Clouds 34 1008 11 10000 2.33 30 18:56 02.10.2021
5468 Clouds 34 1007 11 10000 0.96 318 18:20 02.10.2021
5469 Clouds 35 1007 11 10000 0.95 317 17:37 02.10.2021
5470 Clear 38 1006 9 10000 1.16 243 16:28 02.10.2021
5471 Clouds 25 1009 14 10000 1.53 108 06:47 02.10.2021
5472 Clear 37 1006 7 10000 3.58 120 15:37 30.09.2021
5473 Clear 37 1006 7 10000 3.19 116 13:54 30.09.2021
5474 Clear 36 1011 9 10000 3.09 80 11:53 30.09.2021
5475 Clear 37 1012 9 10000 1.03 0 10:52 30.09.2021
5476 Clear 37 1012 9 10000 1.03 0 10:20 30.09.2021
5477 Clear 35 1013 8 10000 0.51 0 08:30 30.09.2021
5478 Clouds 31 1012 11 8000 0.51 0 07:34 30.09.2021
5479 Clouds 24 1009 13 10000 0.72 44 05:23 30.09.2021
5480 Clouds 24 1008 12 10000 1.1 146 01:36 30.09.2021
5481 Clouds 24 1008 11 10000 1.94 138 00:28 30.09.2021
5482 Clear 26 1008 11 10000 1.92 127 22:38 29.09.2021
5483 Clear 27 1008 10 10000 2.26 118 21:27 29.09.2021
5484 Clear 27 1008 11 10000 1.93 142 20:28 29.09.2021
5485 Clear 30 1008 11 10000 1.93 142 19:54 29.09.2021
5486 Clear 32 1007 11 10000 2.28 164 18:50 29.09.2021
5487 Clouds 34 1006 10 10000 2.75 163 17:52 29.09.2021
5488 Clouds 35 1006 9 10000 2.93 157 16:51 29.09.2021
5489 Clear 36 1005 8 10000 3.17 141 15:58 29.09.2021
5490 Clear 36 1005 8 10000 3.48 138 14:39 29.09.2021
5491 Clear 36 1005 9 10000 3.85 146 13:58 29.09.2021
5492 Clear 36 1005 10 10000 4.12 148 13:18 29.09.2021
5493 Clear 36 1010 7 10000 1.54 100 12:19 29.09.2021
5494 Clear 34 1011 9 10000 4.12 130 10:49 29.09.2021
5495 Clear 33 1012 9 8000 3.6 130 09:51 29.09.2021
5496 Clear 33 1012 9 8000 3.6 130 09:24 29.09.2021
5497 Clear 31 1011 23 10000 0.51 0 07:32 29.09.2021
5498 Clear 23 1007 41 10000 2.5 31 03:58 29.09.2021
5499 Clear 26 1007 32 10000 2.93 35 23:27 28.09.2021
5500 Clear 26 1007 31 10000 2.68 63 22:23 28.09.2021
5501 Clear 28 1007 31 10000 2.68 63 21:44 28.09.2021
5502 Clear 29 1007 31 10000 3.12 75 20:38 28.09.2021
5503 Clear 30 1007 28 10000 4 66 19:46 28.09.2021
5504 Clear 31 1007 26 10000 5.13 65 18:46 28.09.2021
5505 Clear 32 1006 23 10000 6.18 73 17:59 28.09.2021
5506 Clear 33 1004 15 10000 7.78 61 16:23 28.09.2021
5507 Clear 35 1008 8 10000 6.69 10 13:49 28.09.2021
5508 Clear 35 1008 10 10000 8.23 20 12:48 28.09.2021
5509 Clouds 34 1005 7 10000 7.27 21 12:19 28.09.2021
5510 Clear 34 1009 9 10000 7.72 360 11:45 28.09.2021
5511 Clear 32 1010 7 10000 5.66 340 10:58 28.09.2021
5512 Clouds 31 1007 8 10000 6.3 7 09:53 28.09.2021
5513 Clouds 30 1008 9 10000 5.92 358 08:59 28.09.2021
5514 Clouds 30 1008 9 10000 5.92 358 08:38 28.09.2021
5515 Clouds 26 1009 11 10000 5.27 349 07:47 28.09.2021
5516 Clouds 21 1008 17 10000 3.66 336 05:28 28.09.2021
5517 Clouds 22 1008 15 10000 4.41 325 01:23 28.09.2021
5518 Clouds 23 1008 15 10000 4.51 324 00:25 28.09.2021
5519 Clouds 24 1008 15 10000 4.51 324 23:41 27.09.2021
5520 Clouds 25 1008 14 10000 4.39 326 22:56 27.09.2021
5521 Clouds 26 1009 13 10000 4.3 328 21:54 27.09.2021
5522 Clouds 28 1009 12 10000 4.16 333 20:44 27.09.2021
5523 Clouds 29 1009 10 10000 4.16 347 19:56 27.09.2021
5524 Clouds 29 1008 9 10000 4.64 353 19:28 27.09.2021
5525 Clouds 31 1008 9 10000 4.64 353 18:50 27.09.2021
5526 Clouds 33 1007 7 10000 5.8 351 17:29 27.09.2021
5527 Clouds 34 1007 7 10000 5.8 351 16:50 27.09.2021
5528 Clouds 35 1006 6 10000 7.53 349 15:45 27.09.2021
5529 Clouds 35 1006 6 10000 8.9 345 15:18 27.09.2021
5530 Clear 34 1010 10 10000 8.23 310 13:32 27.09.2021
5531 Clear 33 1012 11 10000 6.69 320 11:40 27.09.2021
5532 Clear 31 1013 11 10000 5.66 340 10:37 27.09.2021
5533 Clouds 30 1010 17 10000 7.04 326 08:59 27.09.2021
5534 Clear 26 1012 22 10000 4.12 330 05:22 27.09.2021
5535 Clouds 25 1010 30 10000 3.63 345 03:21 27.09.2021
5536 Clouds 29 1010 25 10000 4.85 5 22:38 26.09.2021
5537 Clouds 30 1010 24 10000 5.02 6 21:53 26.09.2021
5538 Clouds 30 1010 23 10000 5.35 8 21:25 26.09.2021
5539 Clear 31 1010 21 10000 5.64 11 20:22 26.09.2021
5540 Clear 32 1010 21 10000 5.64 11 19:52 26.09.2021
5541 Clear 34 1010 19 10000 5.37 13 18:46 26.09.2021
5542 Clear 35 1009 17 10000 5.09 6 17:57 26.09.2021
5543 Clear 35 1008 15 10000 5.06 4 17:23 26.09.2021
5544 Clear 36 1008 15 10000 5.06 4 16:54 26.09.2021
5545 Clear 37 1008 13 10000 5.33 6 15:59 26.09.2021
5546 Clear 37 1007 12 10000 4.99 9 14:59 26.09.2021
5547 Clear 37 1012 11 10000 2.06 20 13:57 26.09.2021
5548 Clear 37 1012 11 10000 2.06 20 13:20 26.09.2021
5549 Clear 37 1013 11 10000 2.57 0 12:25 26.09.2021
5550 Clear 36 1014 11 10000 3.6 40 11:42 26.09.2021
5551 Clear 36 1014 11 10000 4.12 30 10:30 26.09.2021
5552 Clear 35 1014 12 10000 7.2 40 09:20 26.09.2021
5553 Clear 30 1012 17 10000 5.41 41 07:39 26.09.2021
5554 Clear 28 1010 25 10000 3.16 31 00:23 26.09.2021
5555 Clear 30 1010 25 10000 3.16 31 23:30 25.09.2021
5556 Clear 30 1011 24 10000 3.54 31 22:38 25.09.2021
5557 Clear 32 1011 21 10000 4.31 32 21:55 25.09.2021
5558 Clear 32 1011 18 10000 4.96 25 21:32 25.09.2021
5559 Clear 33 1011 18 10000 4.97 25 20:50 25.09.2021
5560 Clear 33 1010 16 10000 4.79 28 19:31 25.09.2021
5561 Clear 35 1008 13 10000 5.22 35 18:25 25.09.2021
5562 Clouds 38 1007 10 10000 7.5 42 15:56 25.09.2021
5563 Clear 39 1006 9 10000 8.03 41 13:58 25.09.2021
5564 Clear 39 1006 9 10000 8.03 41 13:32 25.09.2021
5565 Clear 38 1008 9 10000 7.37 46 12:28 25.09.2021
5566 Clear 36 1008 10 10000 6.53 49 10:35 25.09.2021
5567 Clear 36 1010 10 10000 5.4 52 09:40 25.09.2021
5568 Clouds 33 1011 14 10000 3.15 96 08:29 25.09.2021
5569 Clouds 25 1010 14 10000 1.83 71 06:26 25.09.2021
5570 Clouds 30 1009 13 10000 2.86 70 23:55 24.09.2021
5571 Clouds 32 1009 12 10000 4.28 72 21:54 24.09.2021
5572 Clouds 33 1009 12 10000 5.03 70 20:49 24.09.2021
5573 Clear 34 1008 14 10000 5.53 64 19:58 24.09.2021
5574 Clear 36 1008 14 10000 5.43 60 18:35 24.09.2021
5575 Clear 37 1007 13 10000 5.61 59 17:55 24.09.2021
5576 Clear 37 1007 13 10000 5.61 59 17:37 24.09.2021
5577 Clear 37 1006 12 10000 5.01 59 17:18 24.09.2021
5578 Clear 40 1005 10 10000 4.02 64 14:34 24.09.2021
5579 Clouds 39 1005 10 10000 2.51 69 13:18 24.09.2021
5580 Clouds 39 1005 10 10000 2.51 69 12:40 24.09.2021
5581 Clouds 39 1006 10 10000 1.71 80 12:22 24.09.2021
5582 Clouds 38 1008 12 10000 3.37 148 10:27 24.09.2021
5583 Clouds 32 1008 13 10000 4.05 138 08:55 24.09.2021
5584 Clouds 30 1008 15 10000 4.82 136 07:38 24.09.2021
5585 Clouds 26 1008 17 10000 3.85 132 06:47 24.09.2021
5586 Clear 25 1008 21 10000 2.48 106 04:58 24.09.2021
5587 Clouds 30 1006 19 10000 3.36 120 00:35 24.09.2021
5588 Clouds 32 1006 17 10000 3.99 112 22:30 23.09.2021
5589 Clouds 32 1006 17 10000 3.99 112 21:56 23.09.2021
5590 Clouds 33 1006 13 10000 3.15 90 20:35 23.09.2021
5591 Clear 32 1006 14 10000 5.28 78 19:48 23.09.2021
5592 Clear 37 1004 12 10000 2.95 87 17:47 23.09.2021
5593 Clear 40 1003 9 10000 3.91 62 15:32 23.09.2021
5594 Clear 40 1003 9 10000 2.29 58 14:59 23.09.2021
5595 Clear 40 1003 9 10000 0.63 267 13:46 23.09.2021
5596 Clear 40 1004 9 10000 3.74 243 13:21 23.09.2021
5597 Clear 38 1004 9 10000 3.74 243 12:52 23.09.2021
5598 Clear 38 1005 9 10000 5.25 242 12:22 23.09.2021
5599 Clear 37 1005 9 10000 5.25 242 11:40 23.09.2021
5600 Clear 37 1007 10 10000 4.85 235 10:26 23.09.2021
5601 Clear 35 1007 10 10000 4.85 235 09:52 23.09.2021
5602 Clear 34 1008 12 10000 5.33 235 08:25 23.09.2021
5603 Clear 24 1007 20 10000 2.9 191 04:27 23.09.2021
5604 Clear 29 1007 19 10000 2.91 134 23:27 22.09.2021
5605 Clear 29 1007 19 10000 2.91 134 22:37 22.09.2021
5606 Clear 30 1007 18 10000 3.23 126 21:56 22.09.2021
5607 Clear 30 1007 18 10000 3.25 98 21:34 22.09.2021
5608 Clear 31 1007 18 10000 3.24 98 20:57 22.09.2021
5609 Clear 32 1007 17 10000 3.77 71 19:33 22.09.2021
5610 Clear 34 1006 16 10000 3.83 54 18:39 22.09.2021
5611 Clear 34 1006 16 10000 3.84 54 18:39 22.09.2021
5612 Clear 33 1006 14 10000 4.18 47 17:48 22.09.2021
5613 Clear 34 1005 13 10000 4.22 25 16:38 22.09.2021
5614 Clear 37 1005 11 10000 6.65 354 15:20 22.09.2021
5615 Clear 38 1005 11 10000 7.05 352 13:58 22.09.2021
5616 Clear 38 1007 11 10000 6.86 352 12:19 22.09.2021
5617 Clear 37 1008 11 10000 6.23 353 10:53 22.09.2021
5618 Clear 34 1010 13 10000 4.23 340 09:25 22.09.2021
5619 Clear 32 1010 13 10000 4.23 340 08:30 22.09.2021
5620 Clear 31 1012 14 10000 1.54 280 07:21 22.09.2021
5621 Clear 26 1011 18 10000 1.54 280 05:56 22.09.2021
5622 Clear 26 1011 18 10000 1.54 280 05:34 22.09.2021
5623 Clear 24 1009 19 10000 3.69 332 03:52 22.09.2021
5624 Clear 26 1009 15 10000 3.37 333 00:22 22.09.2021
5625 Clear 27 1009 15 10000 3.32 335 23:24 21.09.2021
5626 Clear 29 1009 15 10000 3.49 335 21:37 21.09.2021
5627 Clear 31 1010 13 10000 4.09 5 20:27 21.09.2021
5628 Clear 32 1008 12 10000 4.4 17 19:22 21.09.2021
5629 Clear 33 1008 10 10000 4.45 12 17:39 21.09.2021
5630 Clear 38 1007 9 10000 4.44 4 16:38 21.09.2021
5631 Clear 38 1006 7 10000 5.68 354 15:44 21.09.2021
5632 Clear 39 1006 7 10000 6.28 352 14:58 21.09.2021
5633 Clear 38 1011 8 10000 4.12 340 13:56 21.09.2021
5634 Clear 38 1011 8 10000 4.12 340 13:36 21.09.2021
5635 Clear 38 1012 8 10000 4.12 10 12:36 21.09.2021
5636 Clear 37 1013 9 10000 2.06 350 10:32 21.09.2021
5637 Clear 33 1011 13 10000 1.56 28 08:29 21.09.2021
5638 Clear 32 1013 13 10000 1.54 310 07:18 21.09.2021
5639 Clear 27 1010 17 10000 3.69 345 00:30 21.09.2021
5640 Clear 28 1010 17 10000 3.95 354 22:37 20.09.2021
5641 Clear 30 1010 17 10000 3.72 360 21:41 20.09.2021
5642 Clear 32 1010 16 10000 3.67 20 20:55 20.09.2021
5643 Clear 33 1010 16 10000 4.11 34 19:33 20.09.2021
5644 Clear 36 1009 14 10000 4.42 47 17:52 20.09.2021
5645 Clear 37 1008 12 10000 4.82 40 16:49 20.09.2021
5646 Clear 38 1007 11 10000 6.13 34 15:56 20.09.2021
5647 Clear 38 1007 11 10000 6.12 34 15:32 20.09.2021
5648 Clear 38 1007 10 10000 5.78 39 14:25 20.09.2021
5649 Clear 39 1012 10 10000 5.14 30 12:39 20.09.2021
5650 Clear 39 1012 10 10000 5.14 30 12:20 20.09.2021
5651 Clear 35 1009 12 10000 5.51 61 10:32 20.09.2021
5652 Clear 34 1010 13 10000 5.53 62 09:43 20.09.2021
5653 Clear 34 1011 15 10000 5.48 58 09:20 20.09.2021
5654 Clear 34 1014 14 10000 3.6 40 08:27 20.09.2021
5655 Clear 26 1008 21 10000 2.89 19 02:27 20.09.2021
5656 Clear 30 1008 20 10000 2.89 28 22:46 19.09.2021
5657 Clear 31 1009 20 10000 3.18 34 21:45 19.09.2021
5658 Clear 33 1009 19 10000 3.6 51 20:53 19.09.2021
5659 Clear 34 1009 16 10000 4.03 70 19:32 19.09.2021
5660 Clear 35 1008 16 10000 4.33 70 18:32 19.09.2021
5661 Clear 37 1007 11 10000 4.83 71 17:23 19.09.2021
5662 Clear 39 1006 9 10000 6.34 66 15:59 19.09.2021
5663 Clear 39 1006 9 10000 6.34 66 15:31 19.09.2021
5664 Clear 39 1006 8 10000 7.28 64 14:48 19.09.2021
5665 Clear 39 1006 8 10000 7.9 51 13:29 19.09.2021
5666 Clear 39 1006 8 10000 7.9 51 12:52 19.09.2021
5667 Clear 38 1007 9 10000 8.58 42 11:29 19.09.2021
5668 Clear 36 1007 9 10000 8.56 42 10:56 19.09.2021
5669 Clear 34 1008 10 10000 8.36 39 09:49 19.09.2021
5670 Clear 34 1012 16 10000 4.12 40 08:35 19.09.2021
5671 Clear 30 1011 14 10000 2.57 10 06:42 19.09.2021
5672 Clear 29 1007 18 10000 3.08 338 23:53 18.09.2021
5673 Clear 30 1007 18 10000 3.46 342 22:51 18.09.2021
5674 Clear 33 1008 16 10000 3.89 3 20:58 18.09.2021
5675 Clear 33 1008 16 10000 3.87 3 20:38 18.09.2021
5676 Clear 35 1007 15 10000 4.54 21 19:40 18.09.2021
5677 Clear 35 1007 14 10000 4.97 9 19:21 18.09.2021
5678 Clear 36 1007 14 10000 4.97 9 18:37 18.09.2021
5679 Clear 37 1006 13 10000 5.98 21 17:45 18.09.2021
5680 Clear 38 1004 10 10000 8.11 6 16:24 18.09.2021
5681 Clouds 40 1004 9 10000 9.68 3 13:49 18.09.2021
5682 Clouds 40 1004 8 10000 9.76 5 13:29 18.09.2021
5683 Clouds 40 1004 8 10000 9.76 5 12:49 18.09.2021
5684 Clouds 39 1005 8 10000 9.18 5 11:42 18.09.2021
5685 Clouds 37 1005 9 10000 7.36 3 10:33 18.09.2021
5686 Clouds 35 1006 10 10000 5.28 9 09:35 18.09.2021
5687 Clouds 35 1006 10 10000 5.27 9 09:35 18.09.2021
5688 Clouds 33 1007 13 10000 4.21 16 08:59 18.09.2021
5689 Clouds 28 1007 19 10000 2.6 352 05:51 18.09.2021
5690 Clouds 28 1006 18 10000 3.47 328 00:42 18.09.2021
5691 Clouds 29 1007 17 10000 3.23 322 23:50 17.09.2021
5692 Clouds 30 1007 17 10000 3.3 324 22:38 17.09.2021
5693 Clouds 30 1007 16 10000 3.7 322 22:19 17.09.2021
5694 Clouds 30 1007 15 10000 3.45 348 21:23 17.09.2021
5695 Clouds 32 1006 12 10000 4.74 22 19:23 17.09.2021
5696 Clouds 36 1004 10 10000 6.43 24 17:25 17.09.2021
5697 Clouds 37 1004 9 10000 7.13 21 16:27 17.09.2021
5698 Clouds 37 1004 8 10000 5.84 32 13:29 17.09.2021
5699 Clouds 36 1006 9 10000 4.9 37 10:53 17.09.2021
5700 Clouds 32 1008 13 10000 3.95 25 08:52 17.09.2021
5701 Clouds 29 1008 16 10000 4.28 359 07:19 17.09.2021
5702 Clouds 24 1007 17 10000 3.97 341 03:54 17.09.2021
5703 Clouds 29 1007 13 10000 3.4 7 23:25 16.09.2021
5704 Clouds 31 1007 12 10000 3.86 19 22:25 16.09.2021
5705 Clouds 30 1007 12 10000 3.85 19 21:43 16.09.2021
5706 Clouds 30 1007 11 10000 4.42 24 21:22 16.09.2021
5707 Clouds 31 1007 10 10000 4.88 29 20:18 16.09.2021
5708 Clouds 31 1007 10 10000 4.88 29 20:18 16.09.2021
5709 Clouds 34 1006 9 10000 4.92 16 18:20 16.09.2021
5710 Clouds 35 1005 8 10000 4.4 22 17:33 16.09.2021
5711 Clouds 37 1004 7 10000 4.93 15 14:56 16.09.2021
5712 Clouds 38 1004 7 10000 4.68 17 13:56 16.09.2021
5713 Clouds 37 1005 7 10000 4.58 17 12:49 16.09.2021
5714 Clouds 37 1006 8 10000 4.52 13 12:28 16.09.2021
5715 Clear 37 1007 8 10000 4.43 4 11:25 16.09.2021
5716 Clear 35 1011 9 10000 5.66 10 10:33 16.09.2021
5717 Clear 34 1012 11 10000 4.12 360 09:53 16.09.2021
5718 Clear 34 1012 11 10000 3.6 20 08:42 16.09.2021
5719 Clouds 31 1009 15 10000 4.47 19 07:22 16.09.2021
5720 Clouds 25 1009 15 10000 4.47 19 06:43 16.09.2021
5721 Clouds 24 1009 19 10000 3.94 10 04:55 16.09.2021
5722 Clouds 26 1008 18 10000 3.65 346 01:27 16.09.2021
5723 Clouds 27 1008 18 10000 3.68 349 23:37 15.09.2021
5724 Clouds 29 1008 18 10000 3.8 359 22:47 15.09.2021
5725 Clouds 30 1008 18 10000 3.98 8 21:44 15.09.2021
5726 Clouds 30 1008 18 10000 4.09 6 21:25 15.09.2021
5727 Clouds 33 1008 17 10000 4.25 4 19:52 15.09.2021
5728 Clouds 33 1007 15 10000 4.81 12 19:19 15.09.2021
5729 Clouds 36 1006 14 10000 5.22 10 17:49 15.09.2021
5730 Clouds 37 1006 12 10000 6.26 7 16:54 15.09.2021
5731 Clouds 37 1005 10 10000 8.08 3 15:33 15.09.2021
5732 Clouds 38 1005 10 10000 8.62 358 14:44 15.09.2021
5733 Clouds 38 1005 9 10000 8.29 0 13:51 15.09.2021
5734 Clouds 38 1006 9 10000 7.68 360 13:29 15.09.2021
5735 Clear 37 1011 11 10000 7.2 20 12:42 15.09.2021
5736 Clear 37 1011 12 10000 4.12 20 11:51 15.09.2021
5737 Clouds 37 1007 10 10000 6.91 5 11:19 15.09.2021
5738 Clear 37 1012 11 10000 5.66 30 10:50 15.09.2021
5739 Clear 36 1012 11 10000 5.14 20 09:26 15.09.2021
5740 Clear 31 1012 16 10000 4.63 20 07:37 15.09.2021
5741 Clouds 26 1008 21 10000 4.92 21 04:24 15.09.2021
5742 Clear 31 1007 17 10000 4.94 14 22:56 14.09.2021
5743 Clear 31 1008 16 10000 5.69 13 21:38 14.09.2021
5744 Clear 32 1008 16 10000 5.69 13 20:38 14.09.2021
5745 Clear 34 1008 16 10000 5.54 14 19:41 14.09.2021
5746 Clear 37 1006 14 10000 6.05 10 17:34 14.09.2021
5747 Clear 38 1006 12 10000 6.46 3 16:56 14.09.2021
5748 Clear 40 1005 11 10000 7.28 354 15:30 14.09.2021
5749 Clear 39 1005 11 10000 6.84 349 14:31 14.09.2021
5750 Clear 37 1006 13 10000 4.35 341 11:52 14.09.2021
5751 Clear 37 1007 14 10000 3.59 339 10:54 14.09.2021
5752 Clear 37 1008 14 10000 3.01 337 09:50 14.09.2021
5753 Clear 34 1008 15 10000 2.23 335 08:39 14.09.2021
5754 Clear 28 1008 19 10000 0.42 301 06:23 14.09.2021
5755 Clear 29 1006 22 10000 2.87 52 23:54 13.09.2021
5756 Clear 29 1006 21 10000 3.74 44 22:30 13.09.2021
5757 Clear 31 1007 21 10000 4.07 42 21:59 13.09.2021
5758 Clear 31 1007 21 10000 4.07 42 21:40 13.09.2021
5759 Clear 32 1007 19 10000 4.85 42 20:48 13.09.2021
5760 Clear 35 1006 15 10000 4.41 44 18:46 13.09.2021
5761 Clear 35 1006 15 10000 4.4 44 18:45 13.09.2021
5762 Clear 36 1005 13 10000 4.34 31 17:42 13.09.2021
5763 Clear 38 1004 11 10000 4.64 20 16:50 13.09.2021
5764 Clear 38 1004 10 10000 5.39 6 15:22 13.09.2021
5765 Clear 37 1005 11 10000 4.83 2 11:55 13.09.2021
5766 Clear 36 1006 12 10000 3.82 11 10:58 13.09.2021
5767 Clear 36 1010 12 10000 2.57 10 09:31 13.09.2021
5768 Clear 25 1007 21 10000 0.98 52 04:38 13.09.2021
5769 Clear 30 1006 17 10000 4.79 3 22:59 12.09.2021
5770 Clear 30 1007 16 10000 5.02 357 22:25 12.09.2021
5771 Clear 31 1007 16 10000 5.02 357 21:34 12.09.2021
5772 Clear 32 1006 14 10000 5.8 360 20:21 12.09.2021
5773 Clear 33 1006 10 10000 4.89 3 19:49 12.09.2021
5774 Clear 33 1006 8 10000 4.98 5 19:19 12.09.2021
5775 Clear 35 1005 7 10000 5.08 9 18:19 12.09.2021
5776 Clear 39 1004 5 10000 6.24 9 15:59 12.09.2021
5777 Clear 40 1003 5 10000 6.05 11 14:48 12.09.2021
5778 Clear 38 1008 8 10000 3.6 340 12:47 12.09.2021
5779 Clear 36 1010 10 10000 5.14 360 10:35 12.09.2021
5780 Clear 33 1010 13 10000 5.14 10 08:40 12.09.2021
5781 Clear 31 1010 14 10000 4.63 360 07:39 12.09.2021
5782 Clear 29 1006 18 10000 4.92 354 00:48 12.09.2021
5783 Clear 28 1006 14 10000 4.81 335 23:18 11.09.2021
5784 Clear 32 1007 13 10000 4.62 329 21:40 11.09.2021
5785 Clouds 33 1006 9 10000 4.56 1 19:55 11.09.2021
5786 Clouds 35 1005 8 10000 5.56 359 18:32 11.09.2021
5787 Clouds 36 1004 6 10000 6.65 357 17:29 11.09.2021
5788 Clouds 38 1003 5 10000 8.13 359 15:38 11.09.2021
5789 Clear 39 1008 8 10000 6.69 20 13:25 11.09.2021
5790 Clear 38 1009 8 10000 7.2 340 11:47 11.09.2021
5791 Clouds 37 1010 9 8000 8.75 350 10:51 11.09.2021
5792 Clear 36 1011 11 10000 7.2 350 09:28 11.09.2021
5793 Clear 30 1010 16 10000 4.12 320 07:44 11.09.2021
5794 Clear 26 1010 21 10000 2.57 300 06:31 11.09.2021
5795 Clouds 30 1007 11 10000 4.16 336 22:48 10.09.2021
5796 Clouds 30 1007 11 10000 4.2 338 22:22 10.09.2021
5797 Clouds 31 1007 11 10000 4.21 338 21:43 10.09.2021
5798 Clouds 34 1007 9 10000 4.47 342 19:33 10.09.2021
5799 Clouds 34 1006 8 10000 5.43 350 18:00 10.09.2021
5800 Clouds 39 1005 7 10000 6.84 347 16:34 10.09.2021
5801 Clouds 40 1009 9 8000 7.72 340 13:52 10.09.2021
5802 -273 0 0 0 0 0 11:38 10.09.2021
5803 Clear 34 1013 14 10000 4.63 10 08:27 10.09.2021
5804 Clear 33 1012 15 10000 5.14 10 07:44 10.09.2021
5805 Clouds 29 1007 17 10000 3.36 348 00:41 10.09.2021
5806 Clouds 33 1008 15 10000 3.12 11 21:56 09.09.2021
5807 Clouds 34 1008 14 10000 3.68 13 20:48 09.09.2021
5808 Clouds 34 1007 13 10000 3.89 17 20:28 09.09.2021
5809 Clouds 37 1007 12 10000 4.18 16 18:50 09.09.2021
5810 Clouds 38 1006 11 10000 4.78 16 17:51 09.09.2021
5811 Clouds 40 1005 10 10000 6.22 15 16:39 09.09.2021
5812 Clouds 40 1004 8 10000 8.64 17 15:26 09.09.2021
5813 Clear 41 1010 7 10000 6.69 10 12:33 09.09.2021
5814 Clear 41 1010 7 10000 8.23 360 11:23 09.09.2021
5815 Clear 38 1011 10 10000 10.29 10 09:39 09.09.2021
5816 Clear 33 1011 15 10000 6.69 350 07:56 09.09.2021
5817 Clouds 29 1011 14 9000 3.6 300 05:51 09.09.2021
5818 Clouds 31 1007 14 10000 3.83 323 00:43 09.09.2021
5819 Clear 35 1007 12 10000 3.46 20 21:49 08.09.2021
5820 Clear 36 1007 11 10000 4.17 33 20:54 08.09.2021
5821 Clouds 38 1006 10 10000 5.45 39 19:46 08.09.2021
5822 Clouds 39 1006 9 10000 5.17 34 18:47 08.09.2021
5823 Clouds 39 1005 8 10000 5.23 32 18:25 08.09.2021
5824 Clouds 40 1005 8 10000 5.23 32 17:40 08.09.2021
5825 Clouds 42 1004 6 10000 8.29 28 15:49 08.09.2021
5826 Clouds 43 1009 6 8000 6.69 20 13:45 08.09.2021
5827 Clouds 42 1009 7 8000 7.72 20 12:41 08.09.2021
5828 Clouds 42 1009 7 8000 7.72 20 12:23 08.09.2021
5829 Clouds 43 1009 6 8000 9.26 20 11:26 08.09.2021
5830 Clear 42 1010 7 10000 9.26 10 10:31 08.09.2021
5831 Clear 40 1011 9 10000 7.72 20 09:56 08.09.2021
5832 Clear 36 1010 9 10000 5.66 350 07:46 08.09.2021
5833 Clear 36 1010 9 10000 5.66 350 07:19 08.09.2021
5834 Clear 33 1006 14 10000 2.1 23 23:32 07.09.2021
5835 Clear 35 1006 12 10000 4.2 51 22:19 07.09.2021
5836 Clear 37 1006 10 10000 5.66 51 20:45 07.09.2021
5837 Clear 37 1005 9 10000 5.54 37 19:27 07.09.2021
5838 Clear 39 1005 9 10000 5.54 37 18:37 07.09.2021
5839 Clear 41 1005 8 10000 5.91 37 17:38 07.09.2021
5840 Clear 42 1003 7 10000 8.88 27 15:57 07.09.2021
5841 Clear 43 1003 6 10000 9.58 25 14:54 07.09.2021
5842 Clear 43 1008 7 7000 9.26 20 13:52 07.09.2021
5843 Clear 40 1009 7 10000 4.12 360 12:20 07.09.2021
5844 Clear 41 1010 7 10000 3.6 350 10:59 07.09.2021
5845 Clear 41 1010 7 10000 3.6 350 10:59 07.09.2021
5846 Clear 41 1010 7 10000 3.6 350 10:18 07.09.2021
5847 Clear 37 1011 9 10000 2.06 10 07:47 07.09.2021
5848 Clear 33 1010 12 10000 1.03 360 06:31 07.09.2021
5849 Clear 29 1006 14 10000 0.61 206 02:39 07.09.2021
5850 Clear 29 1006 13 10000 1.55 224 02:20 07.09.2021
5851 Clear 32 1006 14 10000 0.19 342 23:52 06.09.2021
5852 Clear 32 1006 14 10000 0.19 342 23:31 06.09.2021
5853 Clear 34 1007 12 10000 1.75 68 22:51 06.09.2021
5854 Clear 34 1007 12 10000 2.86 53 22:21 06.09.2021
5855 Clear 35 1007 11 10000 3.84 48 20:35 06.09.2021
5856 Clouds 37 1006 10 10000 4.21 59 19:19 06.09.2021
5857 Clouds 38 1005 9 10000 4.89 58 18:35 06.09.2021
5858 Clouds 40 1005 9 10000 4.89 58 17:52 06.09.2021
5859 Clouds 41 1004 7 10000 6.24 46 16:23 06.09.2021
5860 Clouds 42 1004 7 10000 4.53 53 14:59 06.09.2021
5861 Clear 42 1009 7 10000 4.12 150 12:59 06.09.2021
5862 Clear 42 1009 7 10000 4.12 150 12:41 06.09.2021
5863 Clear 42 1009 7 10000 4.12 150 12:41 06.09.2021
5864 Clear 40 1010 8 10000 4.12 130 10:36 06.09.2021
5865 Clear 38 1011 9 10000 0 0 07:39 06.09.2021
5866 Clear 29 1006 15 10000 0.42 343 04:27 06.09.2021
5867 Clear 33 1006 14 10000 2.68 61 23:23 05.09.2021
5868 Clear 34 1006 14 10000 2.68 61 22:32 05.09.2021
5869 Clear 35 1006 13 10000 3.67 55 21:56 05.09.2021
5870 Clear 35 1005 13 10000 4.34 61 21:20 05.09.2021
5871 Clear 37 1005 10 10000 4.64 49 19:45 05.09.2021
5872 Clear 40 1004 9 10000 4.91 37 17:52 05.09.2021
5873 Clouds 42 1003 7 10000 8.57 42 15:58 05.09.2021
5874 Clouds 42 1003 7 10000 8.22 43 15:19 05.09.2021
5875 Clouds 42 1003 7 10000 8.22 43 15:19 05.09.2021
5876 Clear 43 1008 6 10000 6.69 40 12:44 05.09.2021
5877 Clear 42 1008 7 10000 6.17 60 11:31 05.09.2021
5878 Clear 41 1009 10 10000 5.14 50 10:39 05.09.2021
5879 Clear 40 1010 11 10000 4.12 60 09:33 05.09.2021
5880 Clear 40 1010 14 10000 1.03 0 08:28 05.09.2021
5881 Clear 31 1005 21 10000 1.7 311 03:52 05.09.2021
5882 Clouds 34 1004 19 10000 2.01 50 00:39 05.09.2021
5883 Clouds 34 1005 18 10000 3.49 64 23:55 04.09.2021
5884 Clouds 34 1005 17 10000 4.38 71 23:22 04.09.2021
5885 Clouds 35 1005 17 10000 4.38 71 22:34 04.09.2021
5886 Clouds 35 1005 17 10000 4.38 71 22:34 04.09.2021
5887 Clouds 36 1004 12 10000 5.17 51 20:21 04.09.2021
5888 Clouds 37 1004 12 10000 5.18 51 19:33 04.09.2021
5889 Clouds 41 1002 9 10000 5.39 57 17:21 04.09.2021
5890 Clouds 43 1001 7 10000 6.51 49 14:29 04.09.2021
5891 Clear 41 1008 9 10000 2.57 330 11:26 04.09.2021
5892 Clouds 40 1009 10 10000 3.09 150 10:32 04.09.2021
5893 Clouds 34 1008 13 10000 3.09 50 07:32 04.09.2021
5894 Clear 32 1003 13 10000 1.44 193 00:49 04.09.2021
5895 Clear 32 1003 13 10000 1.44 193 00:49 04.09.2021
5896 Clear 33 1003 12 10000 2.67 153 23:39 03.09.2021
5897 Clear 33 1003 11 10000 3.21 131 23:19 03.09.2021
5898 Clear 34 1003 10 10000 4.14 141 21:41 03.09.2021
5899 Clear 36 1003 10 10000 4.7 133 20:54 03.09.2021
5900 Clear 36 1003 9 10000 4.68 117 20:24 03.09.2021
5901 Clear 37 1003 9 10000 4.93 104 19:33 03.09.2021
5902 Clear 37 1003 9 10000 4.93 104 19:33 03.09.2021
5903 Clear 39 1001 8 10000 4.74 74 18:20 03.09.2021
5904 Clear 42 1000 7 10000 5.05 55 16:47 03.09.2021
5905 Clear 44 1000 6 10000 5.19 23 15:38 03.09.2021
5906 Clear 43 1005 8 10000 0 0 13:24 03.09.2021
5907 Clear 39 1007 10 10000 4.12 300 10:45 03.09.2021
5908 Clear 37 1008 12 10000 1.03 360 09:21 03.09.2021
5909 Clear 31 1007 15 10000 2.06 200 07:54 03.09.2021
5910 Clear 30 1006 16 10000 1.54 220 06:26 03.09.2021
5911 Clear 31 1003 14 10000 0.41 261 23:56 02.09.2021
5912 Clear 34 1004 11 10000 3.05 77 21:49 02.09.2021
5913 Clear 37 1004 10 10000 2.64 34 20:25 02.09.2021
5914 Clouds 40 1002 8 10000 4.05 79 17:41 02.09.2021
5915 Clouds 42 1001 7 10000 5.29 63 16:20 02.09.2021
5916 Clouds 42 1001 7 10000 4.81 59 15:29 02.09.2021
5917 Clear 43 1007 7 10000 2.57 80 13:28 02.09.2021
5918 Clear 43 1008 7 10000 2.06 0 11:43 02.09.2021
5919 Clear 41 1009 7 10000 3.09 280 10:53 02.09.2021
5920 Clear 40 1010 9 10000 1.03 0 08:57 02.09.2021
5921 Clear 37 1010 9 10000 0 0 07:22 02.09.2021
5922 Clear 32 1008 12 9000 1.54 40 05:31 02.09.2021
5923 Clear 32 1008 12 9000 1.54 40 05:31 02.09.2021
5924 Clear 29 1005 13 10000 0.94 143 02:35 02.09.2021
5925 Clear 29 1005 14 10000 0.73 247 01:36 02.09.2021
5926 Clear 31 1005 13 10000 1.02 125 23:40 01.09.2021
5927 Clear 31 1005 12 10000 2.28 164 22:42 01.09.2021
5928 Clear 32 1006 11 10000 2.44 136 21:41 01.09.2021
5929 Clear 35 1006 10 10000 2.24 105 20:54 01.09.2021
5930 Clear 35 1005 7 10000 3.2 96 19:24 01.09.2021
5931 Clear 40 1004 7 10000 3.4 96 17:51 01.09.2021
5932 Clear 41 1004 6 10000 3.87 91 16:55 01.09.2021
5933 Clear 41 1004 6 10000 3.87 91 16:33 01.09.2021
5934 Clear 43 1008 5 10000 5.14 120 13:57 01.09.2021
5935 Clear 42 1010 8 10000 0 0 11:47 01.09.2021
5936 Clear 41 1011 8 10000 1.03 0 09:35 01.09.2021
5937 Clouds 36 1011 10 9000 1.54 50 07:57 01.09.2021
5938 Clear 34 1010 13 10000 2.57 60 06:42 01.09.2021
5939 Clouds 32 1005 12 10000 0.18 35 23:20 31.08.2021
5940 Clouds 32 1005 11 10000 0.49 138 21:41 31.08.2021
5941 Clouds 36 1005 10 10000 3.27 132 19:49 31.08.2021
5942 Clouds 39 1004 10 10000 3.85 124 18:45 31.08.2021
5943 Clouds 40 1004 9 10000 3.58 110 17:39 31.08.2021
5944 Clouds 40 1003 8 10000 3.97 105 17:21 31.08.2021
5945 Clouds 41 1003 6 10000 4.36 122 16:24 31.08.2021
5946 Clouds 42 1003 6 10000 4.22 144 14:28 31.08.2021
5947 Clear 42 1009 7 10000 3.6 140 11:36 31.08.2021
5948 Clear 41 1010 9 10000 2.57 140 10:56 31.08.2021
5949 Clear 39 1010 10 10000 4.63 150 09:45 31.08.2021
5950 Clear 38 1010 10 10000 3.09 160 08:41 31.08.2021
5951 Clear 37 1010 12 10000 2.57 150 07:38 31.08.2021
5952 Clear 33 1009 15 10000 2.57 180 05:55 31.08.2021
5953 Clouds 33 1004 17 10000 3.45 90 23:35 30.08.2021
5954 Clouds 35 1005 15 10000 4.96 83 21:53 30.08.2021
5955 Clouds 35 1005 15 10000 4.96 83 21:32 30.08.2021
5956 Clear 36 1005 15 10000 5.52 87 20:32 30.08.2021
5957 Clouds 37 1003 12 10000 6.25 87 19:29 30.08.2021
5958 Clouds 39 1003 12 10000 6.25 87 18:44 30.08.2021
5959 Clouds 40 1003 10 10000 5.73 83 17:47 30.08.2021
5960 Clouds 41 1001 7 10000 6.72 61 16:24 30.08.2021
5961 Clouds 42 1001 7 10000 6.72 61 15:39 30.08.2021
5962 Clear 43 1006 8 10000 1.54 0 13:45 30.08.2021
5963 Clear 43 1006 7 10000 4.12 0 12:29 30.08.2021
5964 Clear 41 1006 11 10000 3.09 130 10:34 30.08.2021
5965 Clear 34 1001 12 10000 2.73 142 23:29 29.08.2021
5966 Clear 35 1001 10 10000 3.6 125 21:33 29.08.2021
5967 Clear 36 1000 7 10000 3.63 95 20:27 29.08.2021
5968 Clear 36 999 6 10000 3.3 83 19:20 29.08.2021
5969 Clear 41 998 5 10000 3.25 36 17:53 29.08.2021
5970 Clear 43 997 4 10000 5.23 17 15:49 29.08.2021
5971 Clouds 43 997 4 10000 5.02 15 14:20 29.08.2021
5972 Clear 44 1002 5 10000 3.6 350 13:44 29.08.2021
5973 Clear 44 1003 5 10000 3.6 10 12:40 29.08.2021
5974 Clear 41 1004 6 10000 3.6 320 11:50 29.08.2021
5975 Clear 41 1004 6 10000 3.6 320 11:23 29.08.2021
5976 Clear 40 1005 7 10000 5.14 360 10:43 29.08.2021
5977 Clear 40 1005 7 10000 5.14 360 10:24 29.08.2021
5978 Clouds 38 1005 8 7000 5.14 360 08:24 29.08.2021
5979 Clouds 36 1001 10 10000 4.06 329 00:25 29.08.2021
5980 Clouds 38 1002 9 10000 4.21 345 21:54 28.08.2021
5981 Clear 39 1002 8 10000 4.2 7 20:28 28.08.2021
5982 Clear 40 1001 7 10000 4.74 27 18:43 28.08.2021
5983 Clear 40 1000 6 10000 5.32 26 18:19 28.08.2021
5984 Clear 42 1000 5 10000 6.68 17 17:18 28.08.2021
5985 Clear 43 999 4 10000 8.76 14 15:39 28.08.2021
5986 Clouds 44 999 4 10000 8.64 12 14:26 28.08.2021
5987 Clouds 43 999 4 10000 8.97 12 13:45 28.08.2021
5988 Clear 44 1006 7 10000 8.23 60 12:44 28.08.2021
5989 Clear 44 1006 7 10000 7.72 10 11:54 28.08.2021
5990 Clear 42 1007 7 10000 9.26 360 10:41 28.08.2021
5991 Clouds 39 1008 10 7000 7.72 10 08:40 28.08.2021
5992 Dust 36 1008 11 5000 5.66 350 07:24 28.08.2021
5993 Clear 37 1004 9 10000 5.76 355 22:29 27.08.2021
5994 Clear 38 1004 9 10000 5.73 353 20:59 27.08.2021
5995 Clear 38 1004 9 10000 5.73 353 20:30 27.08.2021
5996 Clear 40 1002 8 10000 4.59 21 18:58 27.08.2021
5997 Clear 40 1002 8 10000 4.59 21 18:37 27.08.2021
5998 Clear 43 1001 6 10000 5.79 23 16:56 27.08.2021
5999 Clear 44 1001 5 10000 7.32 22 15:46 27.08.2021
6000 Clear 43 1001 5 10000 7.4 24 14:43 27.08.2021
6001 Clear 43 1002 5 10000 7.08 19 12:30 27.08.2021
6002 Clear 43 1003 6 10000 7.72 11 11:25 27.08.2021
6003 Clear 41 1003 6 10000 7.72 11 10:43 27.08.2021
6004 Clear 40 1004 6 10000 7.4 1 09:31 27.08.2021
6005 Clear 39 1005 7 10000 7.46 2 08:44 27.08.2021
6006 Clear 31 1006 10 10000 5.96 353 06:37 27.08.2021
6007 Clear 30 1005 15 10000 4.34 343 03:48 27.08.2021
6008 Clear 31 1003 13 10000 2.06 11 00:33 27.08.2021
6009 Clear 34 1004 12 10000 3.19 31 22:41 26.08.2021
6010 Clear 34 1004 12 10000 3.82 25 22:18 26.08.2021
6011 Clear 37 1003 11 10000 3.9 42 20:31 26.08.2021
6012 Clear 40 1003 11 10000 4.75 61 18:50 26.08.2021
6013 Clear 41 1002 11 10000 5.05 51 17:44 26.08.2021
6014 Clear 42 1001 9 10000 5.63 57 16:33 26.08.2021
6015 Clear 42 1001 9 10000 5.65 57 15:54 26.08.2021
6016 Clear 43 1006 7 10000 4.12 330 13:44 26.08.2021
6017 Clear 43 1007 7 10000 4.12 320 12:50 26.08.2021
6018 Clear 43 1007 7 10000 4.12 320 12:24 26.08.2021
6019 Clear 40 1008 10 10000 4.12 340 09:43 26.08.2021
6020 Clear 40 1008 11 8000 1.54 320 08:34 26.08.2021
6021 Clear 33 1004 19 10000 1.96 329 02:32 26.08.2021
6022 Clouds 35 1004 15 10000 1.43 132 22:48 25.08.2021
6023 Clouds 35 1004 14 10000 2.54 103 22:29 25.08.2021
6024 Clear 35 1004 14 10000 0.96 44 21:29 25.08.2021
6025 Clear 35 1004 14 10000 0.96 44 20:46 25.08.2021
6026 Clear 35 1004 14 10000 1.39 43 20:26 25.08.2021
6027 Clear 38 1004 13 10000 1.42 98 18:42 25.08.2021
6028 Clear 41 1003 11 10000 0.72 129 17:29 25.08.2021
6029 Clear 42 1002 10 10000 0.8 159 15:43 25.08.2021
6030 Clear 43 1002 10 10000 1.07 177 14:47 25.08.2021
6031 Clear 43 1003 10 10000 1.51 146 14:18 25.08.2021
6032 Clear 43 1009 8 10000 3.6 130 12:55 25.08.2021
6033 Clear 42 1009 11 10000 4.12 160 11:26 25.08.2021
6034 Clear 42 1010 12 10000 5.14 160 10:30 25.08.2021
6035 Clear 40 1010 16 10000 4.63 130 09:51 25.08.2021
6036 Clear 38 1010 19 10000 4.12 140 08:41 25.08.2021
6037 Clear 35 1010 34 10000 4.12 150 07:44 25.08.2021
6038 Clear 32 1005 36 10000 3.1 132 03:28 25.08.2021
6039 Clouds 36 1005 26 10000 6.78 118 23:40 24.08.2021
6040 Clouds 38 1005 17 10000 7.1 102 21:48 24.08.2021
6041 Clouds 39 1004 15 10000 6.25 106 20:46 24.08.2021
6042 Clouds 39 1004 12 10000 5.6 129 19:45 24.08.2021
6043 Clouds 41 1002 10 10000 5.28 138 17:58 24.08.2021
6044 Clouds 41 1001 9 10000 5.98 148 17:22 24.08.2021
6045 Clouds 42 1001 9 10000 5.98 148 16:41 24.08.2021
6046 Clear 43 1001 8 10000 1.64 153 14:25 24.08.2021
6047 Clear 43 1001 9 10000 2.97 137 13:24 24.08.2021
6048 Clear 42 1007 10 10000 3.6 150 11:26 24.08.2021
6049 Clear 42 1008 10 10000 3.09 180 10:48 24.08.2021
6050 Clear 42 1008 10 10000 3.09 180 10:25 24.08.2021
6051 Clear 39 1008 12 10000 5.66 160 08:46 24.08.2021
6052 Dust 35 1008 16 5000 0 0 06:36 24.08.2021
6053 Clear 30 1005 33 10000 2.52 316 04:40 24.08.2021
6054 Clear 33 1004 31 10000 3.52 3 00:28 24.08.2021
6055 Clear 35 1004 25 10000 3.92 1 22:51 23.08.2021
6056 Clear 35 1004 15 10000 4.45 6 21:54 23.08.2021
6057 Clear 37 1004 10 10000 3.82 5 20:27 23.08.2021
6058 Clear 40 1003 10 10000 3.69 24 18:47 23.08.2021
6059 Clear 43 1002 8 10000 3.5 13 16:35 23.08.2021
6060 Clear 43 1007 8 10000 5.66 260 13:58 23.08.2021
6061 Clear 43 1007 10 10000 5.14 240 12:35 23.08.2021
6062 Clear 42 1008 9 10000 5.66 260 11:48 23.08.2021
6063 Clear 42 1009 11 10000 4.63 270 10:36 23.08.2021
6064 Clear 41 1009 11 10000 5.66 280 09:24 23.08.2021
6065 Clear 37 1006 12 10000 3.96 259 07:54 23.08.2021
6066 Clear 32 1006 13 10000 3.06 252 06:47 23.08.2021
6067 Clear 35 1005 16 10000 2.41 211 04:51 23.08.2021
6068 Clear 35 1004 17 10000 0.98 7 00:50 23.08.2021
6069 Clear 37 1004 16 10000 2.9 159 22:44 22.08.2021
6070 Clear 36 1004 14 10000 3.13 161 21:58 22.08.2021
6071 Clear 36 1004 14 10000 3.13 161 21:58 22.08.2021
6072 Clear 37 1004 13 10000 2.38 179 20:21 22.08.2021
6073 Clear 40 1003 12 10000 2.5 162 18:54 22.08.2021
6074 Clear 43 1002 9 10000 3.07 121 16:27 22.08.2021
6075 Clear 42 1002 9 10000 3.15 118 14:55 22.08.2021
6076 Clear 42 1002 9 10000 3.15 118 14:34 22.08.2021
6077 Clear 42 1003 10 10000 4.11 125 13:20 22.08.2021
6078 Clear 42 1003 10 10000 4.11 125 13:20 22.08.2021
6079 Clear 44 1003 10 10000 4.09 125 12:50 22.08.2021
6080 Clear 42 1004 10 10000 4.03 130 11:55 22.08.2021
6081 Clear 42 1004 10 10000 4.05 130 11:33 22.08.2021
6082 Clear 40 1005 14 10000 5.04 163 09:59 22.08.2021
6083 Clear 35 1006 17 10000 6.59 174 07:59 22.08.2021
6084 Clear 31 1006 21 10000 2.08 171 04:46 22.08.2021
6085 Clear 36 1004 17 10000 3.4 192 22:49 21.08.2021
6086 Clear 36 1005 16 10000 3.63 179 22:25 21.08.2021
6087 Clear 39 1003 13 10000 3.64 152 18:59 21.08.2021
6088 Clear 39 1003 12 10000 3.67 145 18:39 21.08.2021
6089 Clear 41 1003 12 10000 3.67 146 17:47 21.08.2021
6090 Clear 42 1002 11 10000 4.82 135 16:50 21.08.2021
6091 Clear 42 1001 10 10000 5.84 129 15:51 21.08.2021
6092 Clear 42 1002 10 10000 6.15 126 15:25 21.08.2021
6093 Clear 43 1002 11 10000 6.24 125 14:20 21.08.2021
6094 Clear 42 1002 11 10000 6 129 12:40 21.08.2021
6095 Clear 42 1003 12 10000 5.89 138 12:22 21.08.2021
6096 Clear 38 1005 18 10000 7.38 165 09:20 21.08.2021
6097 Clear 32 1003 21 10000 2.69 166 00:54 21.08.2021
6098 Clear 32 1003 19 10000 3.35 158 22:33 20.08.2021
6099 Clear 36 1003 15 10000 1.71 122 19:51 20.08.2021
6100 Clear 42 1002 13 10000 4.41 115 17:46 20.08.2021
6101 Clear 42 1000 11 10000 4.72 97 15:42 20.08.2021
6102 Clear 41 1001 10 10000 4.22 122 13:21 20.08.2021
6103 Clear 40 1002 11 10000 4.63 141 11:30 20.08.2021
6104 Clear 39 1003 12 10000 5.31 157 10:31 20.08.2021
6105 Clear 37 1004 17 10000 5.96 160 09:28 20.08.2021
6106 Clear 35 1004 17 10000 5.96 160 08:37 20.08.2021
6107 Clear 28 1004 19 10000 3.03 130 04:47 20.08.2021
6108 Clear 28 1003 15 10000 2.38 126 04:20 20.08.2021
6109 Clear 32 1002 12 10000 3.28 17 23:40 19.08.2021
6110 Clear 32 1002 11 10000 3.39 18 22:38 19.08.2021
6111 Clear 34 1002 11 10000 3.41 24 21:55 19.08.2021
6112 Clear 35 1002 12 10000 2.33 16 20:21 19.08.2021
6113 Clear 37 1001 10 10000 1.98 77 18:56 19.08.2021
6114 Clear 40 999 9 10000 0.45 1 16:58 19.08.2021
6115 Clear 40 999 8 10000 1.1 337 15:38 19.08.2021
6116 Clear 41 1000 8 10000 1.43 17 13:18 19.08.2021
6117 Clear 40 1001 9 10000 0.94 49 12:29 19.08.2021
6118 Clear 37 1001 10 10000 1.23 116 10:56 19.08.2021
6119 Clear 36 1002 13 10000 2.66 138 09:49 19.08.2021
6120 Clear 36 1003 17 10000 3.86 148 09:29 19.08.2021
6121 Clear 34 1003 19 10000 4.5 149 08:33 19.08.2021
6122 Clear 27 1004 17 10000 2.93 138 05:39 19.08.2021
6123 Clear 27 1002 15 10000 1.43 2 02:20 19.08.2021
6124 Clear 32 1001 9 10000 4.46 1 23:30 18.08.2021
6125 Clear 32 1001 9 10000 4.46 1 22:38 18.08.2021
6126 Clear 34 1002 9 10000 5.12 2 21:34 18.08.2021
6127 Clear 36 1001 9 10000 5.56 346 20:20 18.08.2021
6128 Clear 37 1000 9 10000 4.77 351 19:26 18.08.2021
6129 Clear 39 999 8 10000 4.76 353 18:34 18.08.2021
6130 Clear 42 999 7 10000 5.95 340 16:56 18.08.2021
6131 Clear 42 998 7 10000 6.03 334 15:41 18.08.2021
6132 Clear 42 998 7 10000 5.24 329 15:21 18.08.2021
6133 Clear 43 999 8 10000 3.81 306 13:21 18.08.2021
6134 Clear 42 999 8 10000 3.81 306 12:38 18.08.2021
6135 Clear 42 1001 9 10000 2.45 308 12:19 18.08.2021
6136 Clear 38 1008 10 10000 2.06 320 08:43 18.08.2021
6137 Clear 28 1004 19 10000 2.17 162 02:37 18.08.2021
6138 Clear 34 1003 15 10000 2.68 51 22:40 17.08.2021
6139 Clear 35 1003 15 10000 2.73 49 21:59 17.08.2021
6140 Clear 35 1003 14 10000 3.88 62 21:22 17.08.2021
6141 Clear 36 1003 13 10000 4.01 62 20:24 17.08.2021
6142 Clear 42 1002 11 10000 3.4 31 17:47 17.08.2021
6143 Clear 42 1002 10 10000 3.43 33 17:26 17.08.2021
6144 Clear 44 1002 10 10000 3.67 17 15:46 17.08.2021
6145 Clear 43 1002 10 10000 3.24 4 14:56 17.08.2021
6146 Clear 42 1008 9 10000 2.06 0 12:45 17.08.2021
6147 Clear 42 1009 9 10000 1.03 0 10:40 17.08.2021
6148 Clear 40 1009 10 10000 2.06 350 09:19 17.08.2021
6149 Clear 38 1009 12 10000 0.51 0 07:24 17.08.2021
6150 Clouds 33 1004 16 10000 4 24 23:25 16.08.2021
6151 Clouds 33 1004 16 10000 4 24 22:53 16.08.2021
6152 Clouds 33 1004 16 10000 4 24 22:35 16.08.2021
6153 Clouds 35 1005 15 10000 4.21 28 21:46 16.08.2021
6154 Clouds 36 1005 14 10000 4.53 32 20:51 16.08.2021
6155 Clear 38 1003 12 10000 4.19 24 19:29 16.08.2021
6156 Clear 39 1003 11 10000 4.12 2 18:26 16.08.2021
6157 Clear 39 1003 11 10000 4.12 2 18:26 16.08.2021
6158 Clear 41 1003 11 10000 4.12 2 17:54 16.08.2021
6159 Clouds 42 1002 9 10000 5.67 354 16:29 16.08.2021
6160 Clouds 43 1002 9 10000 4.64 350 15:23 16.08.2021
6161 Clear 43 1007 8 10000 2.57 0 13:55 16.08.2021
6162 Clear 42 1008 9 10000 2.06 0 12:59 16.08.2021
6163 Clear 42 1008 9 10000 2.06 0 12:24 16.08.2021
6164 Clear 39 1009 10 10000 2.57 40 09:33 16.08.2021
6165 Clear 38 1009 10 10000 3.09 60 08:43 16.08.2021
6166 Clear 37 1009 12 10000 1.54 350 07:30 16.08.2021
6167 Clear 30 1006 16 10000 2.77 344 05:56 16.08.2021
6168 Clear 32 1003 17 10000 3.4 24 01:21 16.08.2021
6169 Clear 35 1004 15 10000 3.9 17 21:34 15.08.2021
6170 Clouds 38 1003 13 10000 4 30 19:41 15.08.2021
6171 Clouds 40 1002 12 10000 3.97 28 18:41 15.08.2021
6172 Clouds 42 1002 11 10000 4.29 17 17:49 15.08.2021
6173 Clouds 42 1001 9 10000 5.17 4 16:43 15.08.2021
6174 Clouds 43 1001 8 10000 5.33 359 15:35 15.08.2021
6175 Clouds 42 1001 8 10000 4.63 356 14:36 15.08.2021
6176 Clear 43 1006 8 10000 2.06 0 13:34 15.08.2021
6177 Clear 41 1007 9 10000 5.14 10 10:41 15.08.2021
6178 Clear 40 1008 9 10000 3.6 20 08:34 15.08.2021
6179 Clouds 33 1002 15 10000 1.98 41 01:22 15.08.2021
6180 Clouds 34 1002 15 10000 1.98 41 00:32 15.08.2021
6181 Clouds 37 1003 11 10000 3.56 25 21:26 14.08.2021
6182 Clouds 38 1002 10 10000 3.98 31 20:21 14.08.2021
6183 Clouds 40 1002 10 10000 4.43 36 19:31 14.08.2021
6184 Clouds 41 1001 8 10000 4.5 16 18:23 14.08.2021
6185 Clouds 44 1000 7 10000 5.83 17 16:39 14.08.2021
6186 Clouds 45 1000 7 10000 7.26 18 15:34 14.08.2021
6187 Clouds 45 1000 6 10000 6.55 25 13:35 14.08.2021
6188 Clouds 44 1002 7 10000 3.43 69 10:57 14.08.2021
6189 Clouds 41 1004 9 10000 2.96 68 08:53 14.08.2021
6190 Clouds 31 1004 14 10000 2.56 337 04:52 14.08.2021
6191 Clouds 36 1003 13 10000 0.92 53 23:51 13.08.2021
6192 Clouds 37 1003 11 10000 2.56 99 21:50 13.08.2021
6193 Clouds 39 1003 9 10000 4.46 81 20:22 13.08.2021
6194 Clouds 42 1002 8 10000 4.8 77 18:45 13.08.2021
6195 Clouds 43 1001 7 10000 5.19 45 17:18 13.08.2021
6196 Clouds 44 1001 6 10000 6.36 38 15:53 13.08.2021
6197 Clouds 45 1002 6 10000 6.06 45 11:55 13.08.2021
6198 Clouds 45 1003 7 10000 5.15 35 11:18 13.08.2021
6199 Clouds 39 1005 8 10000 4.29 326 08:40 13.08.2021
6200 Clouds 36 1005 8 10000 4.16 312 07:48 13.08.2021
6201 Clouds 32 1005 9 10000 3.7 304 06:32 13.08.2021
6202 Clear 36 1004 12 10000 2.29 151 00:27 13.08.2021
6203 Clear 37 1005 11 10000 1.92 104 21:48 12.08.2021
6204 Clear 38 1004 9 10000 3.56 55 20:35 12.08.2021
6205 Clear 39 1004 9 10000 3.54 54 19:50 12.08.2021
6206 Clouds 42 1003 8 10000 4.37 27 18:29 12.08.2021
6207 Clear 45 1002 7 10000 5.41 27 16:50 12.08.2021
6208 Clear 45 1002 7 10000 5.41 27 16:50 12.08.2021
6209 Clear 45 1002 6 10000 5.58 16 15:39 12.08.2021
6210 Clear 46 1007 6 10000 2.06 0 13:51 12.08.2021
6211 Clear 45 1008 7 10000 1.03 0 11:38 12.08.2021
6212 Clear 42 1008 7 10000 2.57 170 08:59 12.08.2021
6213 Clear 39 1008 8 10000 3.09 160 07:30 12.08.2021
6214 Clear 34 1005 12 10000 3.45 100 23:21 11.08.2021
6215 Clear 36 1005 12 10000 3.69 94 21:44 11.08.2021
6216 Clear 40 1003 9 10000 5 60 18:55 11.08.2021
6217 Clear 40 1003 9 10000 5 55 18:24 11.08.2021
6218 Clear 43 1001 7 10000 6.38 60 15:22 11.08.2021
6219 Clear 44 1001 7 10000 6.38 60 14:54 11.08.2021
6220 Clear 43 1007 7 10000 4.63 110 12:57 11.08.2021
6221 Clear 43 1007 7 10000 4.63 110 12:29 11.08.2021
6222 Clear 43 1007 7 10000 5.66 110 11:42 11.08.2021
6223 Clear 43 1007 7 10000 5.66 110 11:21 11.08.2021
6224 Clear 39 1008 10 10000 6.69 110 08:53 11.08.2021
6225 Clear 27 1004 12 10000 1.62 159 04:58 11.08.2021
6226 Clear 33 1004 10 10000 2.95 56 22:33 10.08.2021
6227 Clear 34 1004 10 10000 3.52 42 21:50 10.08.2021
6228 Clear 36 1004 10 10000 3.53 47 20:51 10.08.2021
6229 Clear 38 1003 9 10000 3.69 71 19:27 10.08.2021
6230 Clear 41 1002 8 10000 4.1 57 17:33 10.08.2021
6231 Clear 43 1001 6 10000 5.45 38 15:37 10.08.2021
6232 Clear 43 1001 6 10000 5.33 36 14:40 10.08.2021
6233 Clear 42 1008 7 10000 4.63 20 10:53 10.08.2021
6234 Clear 41 1009 7 10000 4.63 30 09:33 10.08.2021
6235 Clear 31 1008 13 10000 0 0 05:27 10.08.2021
6236 Clear 33 1005 14 10000 0.65 7 00:45 10.08.2021
6237 Clear 34 1005 12 10000 2.85 70 23:34 09.08.2021
6238 Clear 37 1005 10 10000 3.62 23 21:53 09.08.2021
6239 Clear 37 1006 10 10000 4.11 29 21:25 09.08.2021
6240 Clear 40 1004 9 10000 5.46 45 18:47 09.08.2021
6241 Clear 42 1003 7 10000 6.73 34 16:36 09.08.2021
6242 Clear 44 1002 7 10000 6.7 35 14:37 09.08.2021
6243 Clear 44 1008 7 10000 5.66 20 13:30 09.08.2021
6244 Clear 43 1009 8 10000 4.12 50 11:48 09.08.2021
6245 Clear 43 1009 8 10000 4.12 50 11:48 09.08.2021
6246 Clear 40 1010 11 10000 4.12 40 09:41 09.08.2021
6247 Clear 39 1010 11 10000 4.63 40 08:18 09.08.2021
6248 Clouds 38 1005 13 10000 6.59 62 21:32 08.08.2021
6249 Clouds 39 1004 11 10000 7.35 55 20:36 08.08.2021
6250 Clouds 42 1003 11 10000 5.99 59 17:36 08.08.2021
6251 Clouds 43 1002 10 10000 6.16 55 16:38 08.08.2021
6252 Clouds 44 1001 9 10000 4.05 55 14:34 08.08.2021
6253 Clear 44 1007 8 10000 4.12 60 12:47 08.08.2021
6254 Clear 43 1008 9 10000 2.06 30 10:36 08.08.2021
6255 Clear 36 1008 13 10000 1.03 0 06:41 08.08.2021
6256 Clouds 33 1003 15 10000 3.31 349 00:53 08.08.2021
6257 Clouds 33 1003 14 10000 3.54 349 00:24 08.08.2021
6258 Clouds 37 1003 12 10000 3.71 15 21:47 07.08.2021
6259 Clouds 37 1003 12 10000 3.71 15 21:47 07.08.2021
6260 Clouds 37 1003 11 10000 3.15 30 21:19 07.08.2021
6261 Clouds 42 1001 9 10000 2.91 12 18:22 07.08.2021
6262 Clouds 44 1000 8 10000 2.8 7 16:52 07.08.2021
6263 Clear 44 1000 7 10000 3.62 4 15:36 07.08.2021
6264 Clear 44 1000 7 10000 3.49 343 13:35 07.08.2021
6265 Clear 44 1002 8 10000 1.35 4 10:37 07.08.2021
6266 Clear 36 1004 10 10000 2.28 330 07:44 07.08.2021
6267 Clear 31 1002 12 10000 3.68 349 02:38 07.08.2021
6268 Clear 35 1002 11 10000 3.7 345 22:23 06.08.2021
6269 Clear 39 1002 11 10000 3.86 347 20:36 06.08.2021
6270 Clouds 40 1001 10 10000 3.94 328 19:59 06.08.2021
6271 Clouds 40 1001 10 10000 3.95 328 19:37 06.08.2021
6272 Clouds 40 1001 10 10000 3.94 328 19:37 06.08.2021
6273 Clouds 42 999 8 10000 5.64 314 17:34 06.08.2021
6274 Clear 44 1000 7 10000 3.85 335 12:23 06.08.2021
6275 Clear 42 1002 7 10000 3.05 339 09:57 06.08.2021
6276 Clear 39 1003 8 10000 5.22 348 08:23 06.08.2021
6277 Clear 34 1002 12 10000 3.91 337 23:35 05.08.2021
6278 Clear 36 1002 11 10000 3.89 334 22:32 05.08.2021
6279 Clouds 37 1003 10 10000 4.09 316 20:47 05.08.2021
6280 Clouds 39 1002 9 10000 3.74 336 19:29 05.08.2021
6281 Clouds 42 1002 8 10000 3.75 332 17:43 05.08.2021
6282 Clouds 43 1001 6 10000 6.93 312 14:49 05.08.2021
6283 Clear 42 1008 6 10000 3.6 320 11:39 05.08.2021
6284 Clear 39 1009 7 10000 3.6 360 08:51 05.08.2021
6285 Clear 29 1005 11 10000 3.64 323 05:35 05.08.2021
6286 Clear 34 1004 11 10000 2.97 343 00:54 05.08.2021
6287 Clear 35 1005 9 10000 3.8 343 21:53 04.08.2021
6288 Clear 35 1005 9 10000 3.85 356 21:22 04.08.2021
6289 Clouds 41 1004 8 10000 4.67 340 18:56 04.08.2021
6290 Clouds 44 1003 6 10000 5.14 322 16:42 04.08.2021
6291 Clouds 44 1002 6 10000 4.24 303 14:44 04.08.2021
6292 Clouds 42 1004 6 10000 1.78 346 11:49 04.08.2021
6293 Clouds 28 1005 12 10000 0.91 354 04:55 04.08.2021
6294 Clouds 39 1004 8 10000 3.97 333 20:41 03.08.2021
6295 Clouds 40 1003 7 10000 3.94 295 19:59 03.08.2021
6296 Clouds 43 1001 7 10000 0.86 54 17:50 03.08.2021
6297 Clouds 44 1000 6 10000 2.57 41 16:27 03.08.2021
6298 Clear 43 1006 6 10000 3.09 90 12:52 03.08.2021
6299 Clear 43 1007 5 10000 2.06 80 10:40 03.08.2021
6300 Clear 38 1007 7 10000 0 0 07:40 03.08.2021
6301 Clear 42 999 6 10000 4.81 18 17:48 02.08.2021
6302 Clouds 43 998 6 10000 3.68 15 16:39 02.08.2021
6303 Clouds 44 998 6 10000 3.68 15 15:30 02.08.2021
6304 Clear 44 1004 5 10000 2.57 60 11:59 02.08.2021
6305 Clear 44 1004 5 10000 2.57 60 11:36 02.08.2021
6306 Clear 42 1005 7 10000 3.6 30 09:49 02.08.2021
6307 Clear 37 1000 10 10000 3.15 327 22:45 01.08.2021
6308 Clear 41 999 9 10000 1.89 358 18:20 01.08.2021
6309 Clear 45 998 8 10000 2 342 15:29 01.08.2021
6310 Clear 43 1004 10 10000 3.09 40 11:38 01.08.2021
6311 Clouds 41 1002 8 10000 4.55 343 09:25 01.08.2021
6312 Clouds 32 1001 15 10000 2.97 333 03:48 01.08.2021
6313 Clouds 36 1000 15 10000 2.68 27 22:52 31.07.2021
6314 Clouds 38 1000 13 10000 1.94 80 20:53 31.07.2021
6315 Clear 43 998 10 10000 4.13 97 17:49 31.07.2021
6316 Clear 44 998 9 10000 4.41 93 16:36 31.07.2021
6317 Clouds 44 998 9 10000 3.51 140 12:31 31.07.2021
6318 Clouds 40 1000 11 10000 5.92 134 08:34 31.07.2021
6319 Clouds 40 1000 11 10000 5.92 134 08:34 31.07.2021
6320 Clouds 34 999 14 10000 3.51 356 00:55 31.07.2021
6321 Clouds 40 999 13 10000 0.69 108 20:30 30.07.2021
6322 Clouds 40 997 10 10000 2.12 56 19:22 30.07.2021
6323 Clouds 36 999 13 10000 2.92 66 23:30 29.07.2021
6324 Clouds 45 997 8 10000 2.28 5 16:53 29.07.2021
6325 Clouds 31 1000 14 10000 3.92 13 05:49 29.07.2021
6326 Clouds 32 999 15 10000 3.52 12 04:29 29.07.2021
6327 Clouds 39 999 11 10000 4.65 342 21:18 28.07.2021
6328 Clouds 44 995 8 10000 8.26 19 17:20 28.07.2021
6329 Clouds 45 1001 9 6000 9.26 30 11:25 28.07.2021
6330 Clouds 34 997 16 10000 7.36 338 05:23 28.07.2021
6331 Clouds 43 997 11 10000 6 355 21:46 27.07.2021
6332 Clouds 42 997 11 10000 4.54 335 21:27 27.07.2021
6333 Clear 46 995 7 10000 6.85 23 14:51 27.07.2021
6334 Clear 43 1003 10 10000 7.2 350 10:45 27.07.2021
6335 Clear 37 1003 16 10000 3.6 340 07:38 27.07.2021
6336 Clouds 45 997 8 10000 9.41 23 15:48 26.07.2021
6337 Clouds 45 997 7 10000 9.42 25 14:24 26.07.2021
6338 Clear 31 1002 18 10000 3.1 320 04:51 26.07.2021
6339 Clear 38 1002 14 10000 4.02 87 20:55 25.07.2021
6340 Clear 41 1000 9 10000 4.83 44 18:22 25.07.2021
6341 Clouds 44 998 7 10000 7.74 55 15:28 25.07.2021
6342 Clear 42 1000 8 10000 8.53 50 10:44 25.07.2021
6343 Clear 39 1002 14 10000 2.61 31 08:18 25.07.2021
6344 Clear 39 1000 13 10000 5.35 64 20:24 24.07.2021
6345 Clear 40 1000 13 10000 5.35 64 19:54 24.07.2021
6346 Clear 44 998 9 10000 5.17 49 12:34 24.07.2021
6347 Clouds 38 999 13 10000 5.19 32 21:47 23.07.2021
6348 Clouds 45 996 9 10000 6.41 20 14:36 23.07.2021
6349 Clouds 45 996 9 10000 6.18 27 12:40 23.07.2021
6350 Clouds 33 999 27 10000 2.25 333 22:58 22.07.2021
6351 Clouds 40 996 18 10000 8.09 355 15:28 22.07.2021
6352 Clear 45 998 17 10000 1.92 350 11:19 22.07.2021
6353 Clear 40 999 21 10000 3.82 268 08:34 22.07.2021
6354 Clear 40 999 21 10000 3.82 268 08:34 22.07.2021
6355 Clouds 38 999 31 10000 3.76 194 01:58 22.07.2021
6356 Clouds 40 1000 28 10000 6.52 161 21:42 21.07.2021
6357 Clouds 40 1000 27 10000 6.71 158 21:22 21.07.2021
6358 Clouds 43 999 18 10000 1.79 100 11:54 21.07.2021
6359 Clouds 40 1000 24 10000 1.95 81 09:20 21.07.2021
6360 Clouds 35 1000 29 10000 0.96 33 06:43 21.07.2021
6361 Clouds 36 999 21 10000 2.21 70 22:34 20.07.2021
6362 Clouds 44 997 8 10000 4.53 34 16:37 20.07.2021
6363 Clouds 44 997 8 10000 5.87 23 15:28 20.07.2021
6364 Clouds 44 998 8 10000 7.44 14 12:55 20.07.2021
6365 Clouds 39 1000 19 10000 5.55 347 08:27 20.07.2021
6366 Clouds 34 1000 43 10000 2.43 307 03:20 20.07.2021
6367 Clouds 39 1000 28 10000 5.92 76 19:21 19.07.2021
6368 Clear 40 999 18 10000 7.25 41 12:52 19.07.2021
6369 Clear 40 999 18 10000 7.25 41 12:52 19.07.2021
6370 Clouds 35 1002 46 10000 0.73 352 07:39 19.07.2021
6371 Clouds 37 1001 40 10000 3.61 73 17:22 18.07.2021
6372 Clouds 35 1001 36 10000 4.88 106 10:54 18.07.2021
6373 Clouds 32 1000 40 10000 4.42 103 00:21 18.07.2021
6374 Clouds 33 1000 31 10000 3.95 61 22:21 17.07.2021
6375 Clouds 34 1000 31 10000 3.95 61 21:41 17.07.2021
6376 Clouds 36 999 41 10000 9.38 111 17:33 17.07.2021
6377 Clouds 39 999 21 10000 6.24 89 11:34 17.07.2021
6378 Clouds 32 1000 49 10000 3.71 133 04:55 17.07.2021
6379 Clouds 41 998 14 10000 4.17 56 17:58 16.07.2021
6380 Clouds 43 998 8 10000 6.11 57 13:20 16.07.2021
6381 Clouds 36 1001 13 10000 1.75 192 07:25 16.07.2021
6382 Clouds 36 999 14 10000 3.91 64 22:52 15.07.2021
6383 Clouds 44 997 8 10000 4.15 5 13:51 15.07.2021
6384 Clouds 42 1000 10 10000 2.13 14 09:52 15.07.2021
6385 Clouds 32 999 16 10000 2.91 76 00:32 15.07.2021
6386 Clouds 44 997 8 10000 5.26 35 16:57 14.07.2021
6387 Clear 44 1003 7 10000 3.6 90 12:49 14.07.2021
6388 Clouds 30 1001 15 10000 1.1 68 05:45 14.07.2021
6389 Clouds 37 1000 11 10000 4.09 49 21:22 13.07.2021
6390 Clouds 40 998 10 10000 4.92 56 19:54 13.07.2021
6391 Clouds 40 998 9 10000 5.31 57 19:27 13.07.2021
6392 Clouds 42 998 9 10000 5.32 57 18:45 13.07.2021
6393 Clouds 42 997 8 10000 5.5 54 18:25 13.07.2021
6394 Clouds 43 997 8 10000 5.5 54 17:40 13.07.2021
6395 Clear 43 1004 8 10000 5.14 40 09:51 13.07.2021
6396 Clear 39 1003 8 10000 5.66 20 07:44 13.07.2021
6397 Clouds 41 999 8 10000 3.95 62 19:59 12.07.2021
6398 Clouds 47 997 6 10000 3.84 332 15:21 12.07.2021
6399 Clear 43 1005 8 10000 3.6 240 09:57 12.07.2021
6400 Clear 38 1001 12 10000 3.34 110 21:59 11.07.2021
6401 Clouds 45 998 6 10000 5.45 38 16:19 11.07.2021
6402 Clear 29 1000 13 10000 3.09 138 04:42 11.07.2021
6403 Clouds 40 999 8 10000 4.06 31 19:57 10.07.2021
6404 Clouds 42 1000 7 10000 2.09 120 09:55 10.07.2021
6405 Clouds 37 1000 9 10000 1.24 166 07:23 10.07.2021
6406 Clouds 36 1000 9 10000 3.74 41 21:39 09.07.2021
6407 Clear 44 998 6 10000 4.2 44 17:45 09.07.2021
6408 Clear 46 998 5 10000 5.05 34 14:47 09.07.2021
6409 Clear 30 1002 12 10000 1.94 173 02:27 09.07.2021
6410 Clear 34 1003 12 10000 1.18 149 23:47 08.07.2021
6411 Clear 37 1003 10 10000 3.07 61 21:36 08.07.2021
6412 Clear 42 1002 7 10000 5.01 58 18:55 08.07.2021
6413 Clear 45 1007 6 10000 5.14 10 13:56 08.07.2021
6414 Clear 45 1007 6 10000 5.14 10 13:30 08.07.2021
6415 Clear 44 1007 6 10000 4.12 70 12:36 08.07.2021
6416 Clear 44 1008 6 10000 2.57 280 11:25 08.07.2021
6417 Clear 38 1009 8 10000 3.09 240 07:42 08.07.2021
6418 Clear 30 1005 11 10000 3.29 160 04:41 08.07.2021
6419 Clouds 36 1004 12 10000 3.73 79 23:45 07.07.2021
6420 Clouds 36 1005 9 10000 4.6 67 22:20 07.07.2021
6421 Clouds 36 1005 9 10000 4.61 67 21:46 07.07.2021
6422 Clouds 36 1005 8 10000 5.01 72 21:26 07.07.2021
6423 Clouds 39 1004 8 10000 5.85 72 19:59 07.07.2021
6424 Clouds 39 1004 8 10000 5.85 72 19:30 07.07.2021
6425 Clouds 41 1003 7 10000 6.2 71 18:58 07.07.2021
6426 Clouds 44 1000 5 10000 5.32 71 15:58 07.07.2021
6427 Clouds 44 1000 6 10000 3.06 87 15:24 07.07.2021
6428 Clear 43 1006 7 10000 3.09 90 11:52 07.07.2021
6429 Clear 37 1007 11 10000 1.54 300 07:33 07.07.2021
6430 Clear 27 1003 19 10000 1.72 62 05:53 07.07.2021
6431 Clear 28 1002 19 10000 2.81 59 02:58 07.07.2021
6432 Clear 36 1003 10 10000 4.32 62 20:54 06.07.2021
6433 Clear 37 1002 8 10000 4.99 73 19:18 06.07.2021
6434 Clear 39 1002 8 10000 4.99 73 18:44 06.07.2021
6435 Clear 39 1001 7 10000 6.15 69 18:19 06.07.2021
6436 Clear 44 1005 5 10000 7.72 40 13:37 06.07.2021
6437 Clear 40 1006 6 10000 5.66 60 09:45 06.07.2021
6438 Clear 40 1006 6 10000 5.66 60 09:45 06.07.2021
6439 Clear 38 1006 7 10000 5.14 60 08:49 06.07.2021
6440 Clear 38 1006 7 10000 5.14 60 08:21 06.07.2021
6441 Clear 28 1002 13 10000 2.11 134 02:30 06.07.2021
6442 Clear 32 1003 10 10000 1.52 75 23:57 05.07.2021
6443 Clear 36 1003 8 10000 3.59 30 21:58 05.07.2021
6444 Clear 42 1000 6 10000 6.27 13 17:21 05.07.2021
6445 Clear 44 1005 5 10000 5.14 60 13:30 05.07.2021
6446 Clear 30 1004 9 10000 2.16 28 05:59 05.07.2021
6447 Clear 30 1004 9 10000 2.16 28 05:41 05.07.2021
6448 Clear 33 1001 10 10000 3.59 11 00:58 05.07.2021
6449 Clear 35 1002 9 10000 3.89 355 21:19 04.07.2021
6450 Clear 42 1000 7 10000 4.29 358 18:25 04.07.2021
6451 Clear 45 999 5 10000 5.17 349 15:22 04.07.2021
6452 Clear 43 1006 6 10000 3.6 330 11:26 04.07.2021
6453 Clear 39 1007 7 10000 4.12 30 08:38 04.07.2021
6454 Clear 34 1002 10 10000 4.85 353 23:29 03.07.2021
6455 Clear 36 1002 9 10000 4.92 354 21:40 03.07.2021
6456 Clouds 45 1001 5 10000 5.9 343 12:51 03.07.2021
6457 Clouds 45 1001 5 10000 7.02 358 11:57 03.07.2021
6458 Clouds 41 1003 6 10000 6.9 17 09:28 03.07.2021
6459 Clouds 41 1003 6 10000 6.9 17 08:45 03.07.2021
6460 Clear 34 1002 9 10000 3.71 347 23:48 02.07.2021
6461 Clear 45 1001 5 10000 6.57 61 10:33 02.07.2021
6462 Clear 36 1003 8 10000 2.18 270 07:29 02.07.2021
6463 Clear 30 1002 12 10000 2.65 342 03:23 02.07.2021
6464 Clear 36 1003 10 10000 2.55 66 22:32 01.07.2021
6465 Clear 37 1003 9 10000 2.62 110 21:37 01.07.2021
6466 Clear 38 1003 7 10000 4.11 104 20:22 01.07.2021
6467 Clear 40 1002 6 10000 5.01 94 19:20 01.07.2021
6468 Clear 42 1002 6 10000 5.01 94 18:48 01.07.2021
6469 Clear 43 1002 5 10000 5.17 72 17:43 01.07.2021
6470 Clear 44 1001 5 10000 5.94 36 16:39 01.07.2021
6471 Clear 45 1000 5 10000 8.13 31 15:24 01.07.2021
6472 Clear 47 1005 5 10000 2.57 10 14:20 01.07.2021
6473 Clear 45 1007 6 10000 2.57 260 10:30 01.07.2021
6474 Clear 31 1004 13 10000 1.35 219 03:58 01.07.2021
6475 Clear 33 1005 12 10000 2.16 229 23:18 30.06.2021
6476 Clear 36 1005 12 10000 1.38 155 21:59 30.06.2021
6477 Clear 36 1005 11 10000 2.61 113 21:21 30.06.2021
6478 Clouds 37 1004 9 10000 4.37 97 20:25 30.06.2021
6479 Clouds 43 1003 6 10000 8.21 78 17:20 30.06.2021
6480 Clear 45 1007 6 10000 5.14 100 14:22 30.06.2021
6481 Clear 44 1009 7 10000 2.06 0 10:45 30.06.2021
6482 Clear 32 1004 14 10000 1.76 158 03:26 30.06.2021
6483 Clear 37 1005 9 10000 4.22 110 21:18 29.06.2021
6484 Clouds 43 1002 6 10000 7.16 87 17:53 29.06.2021
6485 Clouds 43 1002 5 10000 7.21 81 17:29 29.06.2021
6486 Clouds 44 1001 5 10000 6.25 92 15:52 29.06.2021
6487 Clear 44 1006 5 10000 6.69 60 14:55 29.06.2021
6488 Clear 45 1007 5 10000 5.66 50 13:27 29.06.2021
6489 Clear 41 1008 7 10000 2.57 210 08:46 29.06.2021
6490 Clear 35 1004 10 10000 2.59 209 23:55 28.06.2021
6491 Clear 37 1005 9 10000 3.52 113 21:32 28.06.2021
6492 Clouds 39 1004 7 10000 5.68 92 19:35 28.06.2021
6493 Clouds 43 1002 5 10000 7.35 56 17:21 28.06.2021
6494 Clear 46 1006 5 10000 7.2 70 14:32 28.06.2021
6495 Clear 46 1007 5 10000 7.72 50 12:57 28.06.2021
6496 Clear 33 1004 8 10000 1.94 236 00:57 28.06.2021
6497 Clear 36 1005 7 10000 2.43 239 23:36 27.06.2021
6498 Clear 38 1005 7 10000 3.8 117 19:47 27.06.2021
6499 Clear 41 1004 6 10000 3.91 113 18:57 27.06.2021
6500 Clear 44 1001 5 10000 3.89 121 15:57 27.06.2021
6501 Clear 44 1007 5 10000 4.63 140 12:35 27.06.2021
6502 Clear 33 1002 9 10000 3.43 142 02:52 27.06.2021
6503 Clear 34 1003 10 10000 0.56 49 22:40 26.06.2021
6504 Clear 36 1006 15 10000 1.54 80 20:56 26.06.2021
6505 Clear 36 1003 9 10000 2.75 112 20:35 26.06.2021
6506 Clear 42 1000 6 10000 5.86 35 17:33 26.06.2021
6507 Clear 44 999 6 10000 8.45 38 14:48 26.06.2021
6508 Clear 43 1001 5 10000 4.93 49 12:27 26.06.2021
6509 Clear 35 1004 6 10000 3.51 24 07:46 26.06.2021
6510 Clear 31 1003 9 10000 0.17 169 23:29 25.06.2021
6511 Clear 36 1004 7 10000 1.6 120 20:39 25.06.2021
6512 Clear 37 1003 7 10000 2.95 110 19:31 25.06.2021
6513 Clear 41 1002 5 10000 4.51 98 17:43 25.06.2021
6514 Clear 42 1001 4 10000 6.69 89 16:43 25.06.2021
6515 Clear 43 1001 3 10000 8.69 48 14:22 25.06.2021
6516 Clear 40 1003 4 10000 9.62 27 10:49 25.06.2021
6517 Clear 35 1005 7 10000 6.34 14 07:44 25.06.2021
6518 Clear 35 1005 10 10000 5.81 4 07:19 25.06.2021
6519 Clear 29 1005 15 10000 2.83 340 03:32 25.06.2021
6520 Clear 35 1006 13 10000 2.91 357 21:49 24.06.2021
6521 Clear 36 1005 11 10000 3.44 31 20:45 24.06.2021
6522 Clear 36 1005 10 10000 3.9 33 20:22 24.06.2021
6523 Clear 40 1005 9 10000 4.71 36 18:35 24.06.2021
6524 Clouds 43 1003 6 10000 9.19 15 15:25 24.06.2021
6525 Clear 43 1008 7 10000 6.17 10 14:55 24.06.2021
6526 Clear 43 1008 7 10000 6.17 40 13:57 24.06.2021
6527 Clear 40 1010 8 10000 4.12 40 10:37 24.06.2021
6528 Clear 37 1011 9 10000 3.6 50 08:53 24.06.2021
6529 Clear 35 1011 10 10000 3.6 50 07:38 24.06.2021
6530 Clear 30 1010 9 7000 1.03 50 01:24 24.06.2021
6531 Clear 34 1010 9 10000 2.57 80 22:30 23.06.2021
6532 Clear 35 1010 8 10000 2.57 60 21:35 23.06.2021
6533 Clear 36 1009 7 10000 0 0 20:21 23.06.2021
6534 Clear 40 1008 6 7000 7.2 60 18:32 23.06.2021
6535 Clear 41 1008 6 7000 6.69 50 17:21 23.06.2021
6536 Clear 44 1008 5 7000 7.72 30 14:32 23.06.2021
6537 Clear 43 1009 5 10000 8.75 360 12:50 23.06.2021
6538 Clear 42 1010 6 10000 7.72 10 11:44 23.06.2021
6539 Dust 40 1011 7 5000 8.75 20 09:54 23.06.2021
6540 Clear 38 1011 8 10000 7.72 20 08:42 23.06.2021
6541 Clear 36 1011 9 10000 7.2 10 07:50 23.06.2021
6542 Clear 30 1009 12 10000 2.57 320 05:55 23.06.2021
6543 Clear 33 1008 14 10000 0 0 02:26 23.06.2021
6544 Clear 35 1009 12 10000 2.06 200 00:21 23.06.2021
6545 Clear 36 1009 9 10000 2.57 320 23:47 22.06.2021
6546 Clear 38 1010 9 10000 2.57 350 22:43 22.06.2021
6547 Clear 38 1009 10 10000 2.57 30 21:46 22.06.2021
6548 Clear 40 1009 7 10000 4.63 40 20:55 22.06.2021
6549 Clear 41 1008 6 10000 6.17 50 19:22 22.06.2021
6550 Clear 42 1008 6 10000 7.2 60 18:40 22.06.2021
6551 Clear 42 1008 6 10000 7.2 60 18:18 22.06.2021
6552 Clear 43 1008 6 10000 6.69 40 17:20 22.06.2021
6553 Clear 44 1007 5 10000 7.2 20 15:45 22.06.2021
6554 Clear 44 1007 6 10000 7.2 10 14:29 22.06.2021
6555 Clear 45 1008 6 10000 5.14 10 13:42 22.06.2021
6556 Clear 43 1009 6 10000 6.69 10 12:31 22.06.2021
6557 Clear 41 1010 7 10000 3.6 40 10:55 22.06.2021
6558 Clear 39 1010 8 10000 3.6 60 08:52 22.06.2021
6559 Clear 30 1008 12 10000 2.06 270 00:57 22.06.2021
6560 Clear 30 1008 12 10000 2.06 270 00:22 22.06.2021
6561 Clear 33 1009 9 10000 1.54 310 22:52 21.06.2021
6562 Clear 34 1009 9 10000 2.06 300 21:36 21.06.2021
6563 Clear 35 1009 7 10000 1.54 20 20:50 21.06.2021
6564 Clear 38 1009 7 10000 2.06 50 19:56 21.06.2021
6565 Clear 38 1009 7 10000 2.06 50 19:20 21.06.2021
6566 Clear 41 1008 6 10000 6.17 60 17:54 21.06.2021
6567 Clear 41 1008 5 10000 6.69 40 16:53 21.06.2021
6568 Clear 41 1008 5 10000 6.69 40 16:27 21.06.2021
6569 Clear 42 1008 6 10000 6.17 30 15:48 21.06.2021
6570 Clear 42 1008 5 10000 6.69 40 14:25 21.06.2021
6571 Clear 43 1009 5 10000 5.66 40 13:37 21.06.2021
6572 Clear 42 1010 6 10000 5.14 40 12:51 21.06.2021
6573 Clear 42 1010 6 10000 5.14 40 12:24 21.06.2021
6574 Clear 40 1010 7 10000 4.12 40 10:36 21.06.2021
6575 Clear 40 1010 7 10000 4.12 40 10:18 21.06.2021
6576 Clear 36 1010 8 10000 3.6 20 08:29 21.06.2021
6577 Clear 30 1010 11 10000 2.06 330 07:55 21.06.2021
6578 Clear 32 1009 11 10000 2.06 20 00:50 21.06.2021
6579 Clear 33 1009 11 10000 2.57 10 23:38 20.06.2021
6580 Clear 34 1009 12 10000 2.06 360 22:59 20.06.2021
6581 Clear 34 1009 12 10000 2.06 360 22:29 20.06.2021
6582 Clear 35 1009 10 10000 2.57 30 21:34 20.06.2021
6583 Clear 39 1008 6 10000 3.6 50 19:55 20.06.2021
6584 Clear 39 1008 6 10000 3.6 50 19:33 20.06.2021
6585 Clear 40 1008 5 10000 6.69 50 18:35 20.06.2021
6586 Clear 40 1008 5 10000 6.69 50 18:35 20.06.2021
6587 Clear 41 1007 5 10000 7.2 20 16:58 20.06.2021
6588 Clear 41 1007 5 10000 7.2 20 16:28 20.06.2021
6589 Clear 42 1007 5 10000 7.2 20 15:35 20.06.2021
6590 Clear 43 1008 5 10000 6.69 10 14:55 20.06.2021
6591 Clear 42 1008 6 10000 6.17 360 13:53 20.06.2021
6592 Clear 42 1008 6 10000 6.17 360 13:19 20.06.2021
6593 Clear 40 1009 6 10000 7.72 340 11:47 20.06.2021
6594 Clear 39 1010 6 10000 7.2 20 10:52 20.06.2021
6595 Clear 37 1010 6 10000 6.17 350 09:48 20.06.2021
6596 Clear 36 1010 6 10000 5.14 360 08:22 20.06.2021
6597 Clear 31 1009 14 10000 3.09 300 00:31 20.06.2021
6598 Clear 33 1009 14 10000 1.03 340 23:23 19.06.2021
6599 Clear 34 1008 12 10000 1.54 360 22:20 19.06.2021
6600 Clear 35 1009 10 10000 2.06 20 21:43 19.06.2021
6601 Clear 42 1007 5 10000 5.66 30 18:56 19.06.2021
6602 Clear 42 1007 5 10000 5.66 30 18:31 19.06.2021
6603 Clear 42 1007 5 10000 6.17 330 17:27 19.06.2021
6604 Clear 42 1007 6 10000 5.14 320 16:51 19.06.2021
6605 Clear 42 1008 6 10000 6.69 350 15:42 19.06.2021
6606 Clear 41 1009 7 10000 4.63 10 13:36 19.06.2021
6607 Clear 40 1010 7 10000 4.63 20 12:25 19.06.2021
6608 Clear 37 1010 9 10000 7.2 10 10:49 19.06.2021
6609 Clear 37 1010 9 10000 7.2 10 10:49 19.06.2021
6610 Clear 37 1010 9 10000 7.2 10 10:49 19.06.2021
6611 Clear 37 1010 9 10000 7.2 10 10:49 19.06.2021
6612 Clear 37 1010 9 10000 7.2 10 10:49 19.06.2021
6613 Clear 37 1010 9 10000 7.2 10 10:27 19.06.2021
6614 Clear 35 1010 11 10000 5.14 330 09:59 19.06.2021
6615 Clear 33 1010 12 9000 6.69 320 08:26 19.06.2021
6616 Clear 29 1009 14 7000 5.66 290 06:55 19.06.2021
6617 Clear 26 1008 17 7000 2.57 310 04:23 19.06.2021
6618 Clear 32 1009 12 6000 3.6 350 00:23 19.06.2021
6619 Clear 33 1010 12 6000 4.12 340 23:49 18.06.2021
6620 Clear 34 1010 11 6000 3.6 360 22:55 18.06.2021
6621 Clear 34 1010 11 6000 3.6 360 22:35 18.06.2021
6622 Dust 36 1009 10 5000 4.12 340 21:50 18.06.2021
6623 Dust 36 1009 10 5000 4.12 340 21:26 18.06.2021
6624 Dust 38 1008 9 5000 5.14 330 20:24 18.06.2021
6625 Clear 38 1008 9 6000 4.12 360 18:46 18.06.2021
6626 Clear 39 1009 8 6000 3.6 340 17:51 18.06.2021
6627 Clear 39 1009 9 6000 4.63 320 16:39 18.06.2021
6628 Clear 40 1008 9 6000 4.63 290 15:46 18.06.2021
6629 Clear 40 1008 9 7000 6.17 320 14:41 18.06.2021
6630 Clear 39 1009 9 7000 5.66 340 13:44 18.06.2021
6631 Clear 38 1010 10 8000 6.69 350 12:56 18.06.2021
6632 Clear 38 1010 10 8000 6.69 350 12:34 18.06.2021
6633 Clear 37 1010 11 9000 7.2 320 11:46 18.06.2021
6634 Clear 36 1010 11 9000 7.2 330 10:57 18.06.2021
6635 Clear 36 1010 11 9000 7.2 330 10:24 18.06.2021
6636 Clear 34 1010 12 9000 6.17 330 09:59 18.06.2021
6637 Clear 34 1010 12 9000 6.17 330 09:21 18.06.2021
6638 Clear 32 1010 13 9000 5.66 320 08:33 18.06.2021
6639 Clear 30 1010 16 10000 2.06 40 07:36 18.06.2021
6640 Clear 28 1009 14 9000 3.09 30 05:49 18.06.2021
6641 Clear 33 1010 11 8000 3.6 340 00:36 18.06.2021
6642 Clear 35 1010 8 8000 4.12 10 23:28 17.06.2021
6643 Clear 36 1010 9 8000 4.63 60 22:27 17.06.2021
6644 Clear 37 1009 8 8000 5.14 50 21:58 17.06.2021
6645 Clear 37 1009 8 8000 5.14 50 21:19 17.06.2021
6646 Clear 38 1009 7 7000 5.66 40 20:33 17.06.2021
6647 Clear 39 1009 6 7000 7.2 20 19:58 17.06.2021
6648 Clear 39 1009 6 7000 7.2 20 19:30 17.06.2021
6649 Clear 40 1008 6 7000 9.26 10 17:50 17.06.2021
6650 Clear 40 1008 6 7000 9.26 10 17:23 17.06.2021
6651 Clear 40 1008 5 7000 9.26 350 16:31 17.06.2021
6652 Clear 41 1008 5 7000 9.26 330 15:54 17.06.2021
6653 Clear 41 1009 6 7000 8.23 340 14:39 17.06.2021
6654 Clear 41 1009 6 7000 8.75 330 13:53 17.06.2021
6655 Clear 40 1009 7 8000 9.26 320 12:31 17.06.2021
6656 Clear 39 1010 7 8000 8.75 340 11:43 17.06.2021
6657 Clear 38 1010 7 10000 6.69 330 10:45 17.06.2021
6658 Clear 38 1010 7 10000 6.69 330